<?xml version="1.0" encoding="UTF-8" standalone="no" ?>
<gpx xmlns="http://www.topografix.com/GPX/1/1" xmlns:xsi="http://www.w3.org/2001/XMLSchema-instance" xsi:schemaLocation="http://www.topografix.com/GPX/1/1 http://www.topografix.com/GPX/1/1/gpx.xsd" version="1.1" creator="VisuGPX - https://www.visugpx.com">
  <metadata>
    <name>Champagnat Cyclisme sur route</name>
  </metadata>
  <trk>
    <name><![CDATA[Champagnat Cyclisme sur route_1]]></name>
    <trkseg>
      <trkpt lat="46.48273" lon="5.36839">
        <ele>260.8</ele>
        <time>2021-11-27T11:39:15Z</time>
      </trkpt>
      <trkpt lat="46.48265" lon="5.36828">
        <ele>260.4</ele>
        <time>2021-11-27T11:39:16Z</time>
      </trkpt>
      <trkpt lat="46.48256" lon="5.36817">
        <ele>259.2</ele>
        <time>2021-11-27T11:39:17Z</time>
      </trkpt>
      <trkpt lat="46.48236" lon="5.368">
        <ele>257.2</ele>
        <time>2021-11-27T11:39:19Z</time>
      </trkpt>
      <trkpt lat="46.48226" lon="5.36792">
        <ele>256.6</ele>
        <time>2021-11-27T11:39:20Z</time>
      </trkpt>
      <trkpt lat="46.48216" lon="5.36783">
        <ele>255.6</ele>
        <time>2021-11-27T11:39:21Z</time>
      </trkpt>
      <trkpt lat="46.48206" lon="5.36775">
        <ele>254.6</ele>
        <time>2021-11-27T11:39:22Z</time>
      </trkpt>
      <trkpt lat="46.48186" lon="5.36758">
        <ele>253.2</ele>
        <time>2021-11-27T11:39:24Z</time>
      </trkpt>
      <trkpt lat="46.48166" lon="5.36742">
        <ele>251.6</ele>
        <time>2021-11-27T11:39:26Z</time>
      </trkpt>
      <trkpt lat="46.48147" lon="5.36726">
        <ele>250.4</ele>
        <time>2021-11-27T11:39:28Z</time>
      </trkpt>
      <trkpt lat="46.48138" lon="5.3672">
        <ele>249.6</ele>
        <time>2021-11-27T11:39:29Z</time>
      </trkpt>
      <trkpt lat="46.4813" lon="5.36714">
        <ele>249.2</ele>
        <time>2021-11-27T11:39:30Z</time>
      </trkpt>
      <trkpt lat="46.48117" lon="5.36704">
        <ele>248</ele>
        <time>2021-11-27T11:39:32Z</time>
      </trkpt>
      <trkpt lat="46.48113" lon="5.36699">
        <ele>247.4</ele>
        <time>2021-11-27T11:39:33Z</time>
      </trkpt>
      <trkpt lat="46.4811" lon="5.36687">
        <ele>246.6</ele>
        <time>2021-11-27T11:39:35Z</time>
      </trkpt>
      <trkpt lat="46.48116" lon="5.36676">
        <ele>246</ele>
        <time>2021-11-27T11:39:37Z</time>
      </trkpt>
      <trkpt lat="46.4812" lon="5.36671">
        <ele>245.8</ele>
        <time>2021-11-27T11:39:38Z</time>
      </trkpt>
      <trkpt lat="46.48131" lon="5.3666">
        <ele>245.4</ele>
        <time>2021-11-27T11:39:40Z</time>
      </trkpt>
      <trkpt lat="46.48142" lon="5.36648">
        <ele>244.6</ele>
        <time>2021-11-27T11:39:42Z</time>
      </trkpt>
      <trkpt lat="46.48146" lon="5.36642">
        <ele>244.2</ele>
        <time>2021-11-27T11:39:43Z</time>
      </trkpt>
      <trkpt lat="46.48157" lon="5.36627">
        <ele>243.4</ele>
        <time>2021-11-27T11:39:45Z</time>
      </trkpt>
      <trkpt lat="46.48165" lon="5.3662">
        <ele>243.2</ele>
        <time>2021-11-27T11:39:46Z</time>
      </trkpt>
      <trkpt lat="46.48178" lon="5.36609">
        <ele>242.8</ele>
        <time>2021-11-27T11:39:48Z</time>
      </trkpt>
      <trkpt lat="46.48192" lon="5.36604">
        <ele>242.6</ele>
        <time>2021-11-27T11:39:50Z</time>
      </trkpt>
      <trkpt lat="46.48206" lon="5.36599">
        <ele>242.6</ele>
        <time>2021-11-27T11:39:52Z</time>
      </trkpt>
      <trkpt lat="46.48217" lon="5.36587">
        <ele>242.4</ele>
        <time>2021-11-27T11:39:54Z</time>
      </trkpt>
      <trkpt lat="46.4822" lon="5.36578">
        <ele>242</ele>
        <time>2021-11-27T11:39:55Z</time>
      </trkpt>
      <trkpt lat="46.48223" lon="5.36569">
        <ele>242</ele>
        <time>2021-11-27T11:39:56Z</time>
      </trkpt>
      <trkpt lat="46.48226" lon="5.36561">
        <ele>241.8</ele>
        <time>2021-11-27T11:39:57Z</time>
      </trkpt>
      <trkpt lat="46.48231" lon="5.36553">
        <ele>241.8</ele>
        <time>2021-11-27T11:39:58Z</time>
      </trkpt>
      <trkpt lat="46.48237" lon="5.36547">
        <ele>241.8</ele>
        <time>2021-11-27T11:39:59Z</time>
      </trkpt>
      <trkpt lat="46.48272" lon="5.36509">
        <ele>241</ele>
        <time>2021-11-27T11:40:05Z</time>
      </trkpt>
      <trkpt lat="46.48284" lon="5.36496">
        <ele>240.6</ele>
        <time>2021-11-27T11:40:07Z</time>
      </trkpt>
      <trkpt lat="46.48302" lon="5.36476">
        <ele>239.8</ele>
        <time>2021-11-27T11:40:10Z</time>
      </trkpt>
      <trkpt lat="46.48334" lon="5.36442">
        <ele>238.6</ele>
        <time>2021-11-27T11:40:15Z</time>
      </trkpt>
      <trkpt lat="46.48346" lon="5.36428">
        <ele>237.8</ele>
        <time>2021-11-27T11:40:17Z</time>
      </trkpt>
      <trkpt lat="46.48352" lon="5.36421">
        <ele>237.6</ele>
        <time>2021-11-27T11:40:18Z</time>
      </trkpt>
      <trkpt lat="46.48358" lon="5.36414">
        <ele>237.2</ele>
        <time>2021-11-27T11:40:19Z</time>
      </trkpt>
      <trkpt lat="46.48383" lon="5.36388">
        <ele>236.2</ele>
        <time>2021-11-27T11:40:23Z</time>
      </trkpt>
      <trkpt lat="46.48396" lon="5.36375">
        <ele>235.6</ele>
        <time>2021-11-27T11:40:25Z</time>
      </trkpt>
      <trkpt lat="46.48416" lon="5.36359">
        <ele>235.2</ele>
        <time>2021-11-27T11:40:28Z</time>
      </trkpt>
      <trkpt lat="46.48422" lon="5.36356">
        <ele>235.2</ele>
        <time>2021-11-27T11:40:29Z</time>
      </trkpt>
      <trkpt lat="46.4843" lon="5.36353">
        <ele>235.2</ele>
        <time>2021-11-27T11:40:30Z</time>
      </trkpt>
      <trkpt lat="46.48472" lon="5.36344">
        <ele>234.6</ele>
        <time>2021-11-27T11:40:36Z</time>
      </trkpt>
      <trkpt lat="46.48515" lon="5.36338">
        <ele>234.6</ele>
        <time>2021-11-27T11:40:42Z</time>
      </trkpt>
      <trkpt lat="46.48528" lon="5.36336">
        <ele>234.6</ele>
        <time>2021-11-27T11:40:44Z</time>
      </trkpt>
      <trkpt lat="46.48585" lon="5.36326">
        <ele>234.2</ele>
        <time>2021-11-27T11:40:52Z</time>
      </trkpt>
      <trkpt lat="46.48592" lon="5.36325">
        <ele>234</ele>
        <time>2021-11-27T11:40:53Z</time>
      </trkpt>
      <trkpt lat="46.48608" lon="5.36322">
        <ele>234</ele>
        <time>2021-11-27T11:40:55Z</time>
      </trkpt>
      <trkpt lat="46.48624" lon="5.36313">
        <ele>233.2</ele>
        <time>2021-11-27T11:40:57Z</time>
      </trkpt>
      <trkpt lat="46.48634" lon="5.36293">
        <ele>232.2</ele>
        <time>2021-11-27T11:40:59Z</time>
      </trkpt>
      <trkpt lat="46.48637" lon="5.36281">
        <ele>231.8</ele>
        <time>2021-11-27T11:41:00Z</time>
      </trkpt>
      <trkpt lat="46.48639" lon="5.36269">
        <ele>231.2</ele>
        <time>2021-11-27T11:41:01Z</time>
      </trkpt>
      <trkpt lat="46.4864" lon="5.36256">
        <ele>230.2</ele>
        <time>2021-11-27T11:41:02Z</time>
      </trkpt>
      <trkpt lat="46.48641" lon="5.36244">
        <ele>229.8</ele>
        <time>2021-11-27T11:41:03Z</time>
      </trkpt>
      <trkpt lat="46.48642" lon="5.36232">
        <ele>229.2</ele>
        <time>2021-11-27T11:41:04Z</time>
      </trkpt>
      <trkpt lat="46.48645" lon="5.36195">
        <ele>228</ele>
        <time>2021-11-27T11:41:07Z</time>
      </trkpt>
      <trkpt lat="46.48646" lon="5.36171">
        <ele>227.8</ele>
        <time>2021-11-27T11:41:09Z</time>
      </trkpt>
      <trkpt lat="46.48648" lon="5.36148">
        <ele>227.6</ele>
        <time>2021-11-27T11:41:11Z</time>
      </trkpt>
      <trkpt lat="46.48659" lon="5.36094">
        <ele>226.8</ele>
        <time>2021-11-27T11:41:16Z</time>
      </trkpt>
      <trkpt lat="46.48663" lon="5.36073">
        <ele>226.8</ele>
        <time>2021-11-27T11:41:18Z</time>
      </trkpt>
      <trkpt lat="46.48673" lon="5.36028">
        <ele>226.8</ele>
        <time>2021-11-27T11:41:23Z</time>
      </trkpt>
      <trkpt lat="46.4868" lon="5.35999">
        <ele>228</ele>
        <time>2021-11-27T11:41:27Z</time>
      </trkpt>
      <trkpt lat="46.48681" lon="5.35992">
        <ele>228.2</ele>
        <time>2021-11-27T11:41:28Z</time>
      </trkpt>
      <trkpt lat="46.48688" lon="5.35939">
        <ele>229</ele>
        <time>2021-11-27T11:41:34Z</time>
      </trkpt>
      <trkpt lat="46.48689" lon="5.3593">
        <ele>229</ele>
        <time>2021-11-27T11:41:35Z</time>
      </trkpt>
      <trkpt lat="46.48697" lon="5.35903">
        <ele>229</ele>
        <time>2021-11-27T11:41:38Z</time>
      </trkpt>
      <trkpt lat="46.48701" lon="5.35894">
        <ele>229</ele>
        <time>2021-11-27T11:41:39Z</time>
      </trkpt>
      <trkpt lat="46.48731" lon="5.35819">
        <ele>227.8</ele>
        <time>2021-11-27T11:41:47Z</time>
      </trkpt>
      <trkpt lat="46.48754" lon="5.35765">
        <ele>226.8</ele>
        <time>2021-11-27T11:41:53Z</time>
      </trkpt>
      <trkpt lat="46.48762" lon="5.35746">
        <ele>226.2</ele>
        <time>2021-11-27T11:41:55Z</time>
      </trkpt>
      <trkpt lat="46.48778" lon="5.3571">
        <ele>225.8</ele>
        <time>2021-11-27T11:41:59Z</time>
      </trkpt>
      <trkpt lat="46.48797" lon="5.35668">
        <ele>225.8</ele>
        <time>2021-11-27T11:42:04Z</time>
      </trkpt>
      <trkpt lat="46.48828" lon="5.356">
        <ele>225.8</ele>
        <time>2021-11-27T11:42:12Z</time>
      </trkpt>
      <trkpt lat="46.48831" lon="5.35592">
        <ele>225.8</ele>
        <time>2021-11-27T11:42:13Z</time>
      </trkpt>
      <trkpt lat="46.48856" lon="5.35536">
        <ele>226</ele>
        <time>2021-11-27T11:42:20Z</time>
      </trkpt>
      <trkpt lat="46.48885" lon="5.35471">
        <ele>226</ele>
        <time>2021-11-27T11:42:28Z</time>
      </trkpt>
      <trkpt lat="46.48915" lon="5.35404">
        <ele>225.4</ele>
        <time>2021-11-27T11:42:36Z</time>
      </trkpt>
      <trkpt lat="46.48927" lon="5.35378">
        <ele>225.2</ele>
        <time>2021-11-27T11:42:39Z</time>
      </trkpt>
      <trkpt lat="46.48953" lon="5.35317">
        <ele>224.4</ele>
        <time>2021-11-27T11:42:46Z</time>
      </trkpt>
      <trkpt lat="46.48961" lon="5.353">
        <ele>224.2</ele>
        <time>2021-11-27T11:42:48Z</time>
      </trkpt>
      <trkpt lat="46.48971" lon="5.35276">
        <ele>224.2</ele>
        <time>2021-11-27T11:42:51Z</time>
      </trkpt>
      <trkpt lat="46.48991" lon="5.35231">
        <ele>224.8</ele>
        <time>2021-11-27T11:42:57Z</time>
      </trkpt>
      <trkpt lat="46.4901" lon="5.35189">
        <ele>225.6</ele>
        <time>2021-11-27T11:43:03Z</time>
      </trkpt>
      <trkpt lat="46.49016" lon="5.35176">
        <ele>225.8</ele>
        <time>2021-11-27T11:43:05Z</time>
      </trkpt>
      <trkpt lat="46.49038" lon="5.35128">
        <ele>226.4</ele>
        <time>2021-11-27T11:43:12Z</time>
      </trkpt>
      <trkpt lat="46.49042" lon="5.35121">
        <ele>226.6</ele>
        <time>2021-11-27T11:43:13Z</time>
      </trkpt>
      <trkpt lat="46.49047" lon="5.35115">
        <ele>226.6</ele>
        <time>2021-11-27T11:43:14Z</time>
      </trkpt>
      <trkpt lat="46.49068" lon="5.35093">
        <ele>227</ele>
        <time>2021-11-27T11:43:18Z</time>
      </trkpt>
      <trkpt lat="46.49119" lon="5.35048">
        <ele>226.2</ele>
        <time>2021-11-27T11:43:27Z</time>
      </trkpt>
      <trkpt lat="46.49126" lon="5.35043">
        <ele>226</ele>
        <time>2021-11-27T11:43:28Z</time>
      </trkpt>
      <trkpt lat="46.4915" lon="5.35021">
        <ele>225.4</ele>
        <time>2021-11-27T11:43:32Z</time>
      </trkpt>
      <trkpt lat="46.49173" lon="5.34999">
        <ele>224.8</ele>
        <time>2021-11-27T11:43:36Z</time>
      </trkpt>
      <trkpt lat="46.49178" lon="5.34994">
        <ele>224.6</ele>
        <time>2021-11-27T11:43:37Z</time>
      </trkpt>
      <trkpt lat="46.4919" lon="5.34982">
        <ele>224.6</ele>
        <time>2021-11-27T11:43:39Z</time>
      </trkpt>
      <trkpt lat="46.492" lon="5.34968">
        <ele>224.4</ele>
        <time>2021-11-27T11:43:41Z</time>
      </trkpt>
      <trkpt lat="46.49204" lon="5.34962">
        <ele>224.4</ele>
        <time>2021-11-27T11:43:42Z</time>
      </trkpt>
      <trkpt lat="46.49246" lon="5.34898">
        <ele>224</ele>
        <time>2021-11-27T11:43:51Z</time>
      </trkpt>
      <trkpt lat="46.4925" lon="5.34891">
        <ele>223.8</ele>
        <time>2021-11-27T11:43:52Z</time>
      </trkpt>
      <trkpt lat="46.49274" lon="5.34857">
        <ele>223.6</ele>
        <time>2021-11-27T11:43:57Z</time>
      </trkpt>
      <trkpt lat="46.49285" lon="5.34849">
        <ele>223.4</ele>
        <time>2021-11-27T11:43:59Z</time>
      </trkpt>
      <trkpt lat="46.49297" lon="5.34841">
        <ele>223.4</ele>
        <time>2021-11-27T11:44:01Z</time>
      </trkpt>
      <trkpt lat="46.49317" lon="5.34835">
        <ele>223.4</ele>
        <time>2021-11-27T11:44:04Z</time>
      </trkpt>
      <trkpt lat="46.49356" lon="5.34828">
        <ele>223.4</ele>
        <time>2021-11-27T11:44:10Z</time>
      </trkpt>
      <trkpt lat="46.49395" lon="5.34818">
        <ele>224</ele>
        <time>2021-11-27T11:44:16Z</time>
      </trkpt>
      <trkpt lat="46.49413" lon="5.34809">
        <ele>224.2</ele>
        <time>2021-11-27T11:44:19Z</time>
      </trkpt>
      <trkpt lat="46.49436" lon="5.3479">
        <ele>224.2</ele>
        <time>2021-11-27T11:44:23Z</time>
      </trkpt>
      <trkpt lat="46.49441" lon="5.34784">
        <ele>224</ele>
        <time>2021-11-27T11:44:24Z</time>
      </trkpt>
      <trkpt lat="46.49458" lon="5.34766">
        <ele>223</ele>
        <time>2021-11-27T11:44:27Z</time>
      </trkpt>
      <trkpt lat="46.49465" lon="5.34759">
        <ele>222.8</ele>
        <time>2021-11-27T11:44:28Z</time>
      </trkpt>
      <trkpt lat="46.49484" lon="5.34737">
        <ele>222</ele>
        <time>2021-11-27T11:44:31Z</time>
      </trkpt>
      <trkpt lat="46.49506" lon="5.3471">
        <ele>220.6</ele>
        <time>2021-11-27T11:44:34Z</time>
      </trkpt>
      <trkpt lat="46.49521" lon="5.34692">
        <ele>219.4</ele>
        <time>2021-11-27T11:44:36Z</time>
      </trkpt>
      <trkpt lat="46.49536" lon="5.34674">
        <ele>218</ele>
        <time>2021-11-27T11:44:38Z</time>
      </trkpt>
      <trkpt lat="46.4955" lon="5.34656">
        <ele>216.6</ele>
        <time>2021-11-27T11:44:40Z</time>
      </trkpt>
      <trkpt lat="46.49558" lon="5.34647">
        <ele>216.4</ele>
        <time>2021-11-27T11:44:41Z</time>
      </trkpt>
      <trkpt lat="46.49579" lon="5.34619">
        <ele>214.8</ele>
        <time>2021-11-27T11:44:44Z</time>
      </trkpt>
      <trkpt lat="46.496" lon="5.34589">
        <ele>213.4</ele>
        <time>2021-11-27T11:44:47Z</time>
      </trkpt>
      <trkpt lat="46.49608" lon="5.34578">
        <ele>213.2</ele>
        <time>2021-11-27T11:44:48Z</time>
      </trkpt>
      <trkpt lat="46.4962" lon="5.34561">
        <ele>212.4</ele>
        <time>2021-11-27T11:44:50Z</time>
      </trkpt>
      <trkpt lat="46.49632" lon="5.34548">
        <ele>211.8</ele>
        <time>2021-11-27T11:44:52Z</time>
      </trkpt>
      <trkpt lat="46.49637" lon="5.34544">
        <ele>211.8</ele>
        <time>2021-11-27T11:44:53Z</time>
      </trkpt>
      <trkpt lat="46.49645" lon="5.34538">
        <ele>211.6</ele>
        <time>2021-11-27T11:44:55Z</time>
      </trkpt>
      <trkpt lat="46.49652" lon="5.34529">
        <ele>211.8</ele>
        <time>2021-11-27T11:44:57Z</time>
      </trkpt>
      <trkpt lat="46.49658" lon="5.34515">
        <ele>211.8</ele>
        <time>2021-11-27T11:44:59Z</time>
      </trkpt>
      <trkpt lat="46.49676" lon="5.34456">
        <ele>212.6</ele>
        <time>2021-11-27T11:45:07Z</time>
      </trkpt>
      <trkpt lat="46.49687" lon="5.34421">
        <ele>213.6</ele>
        <time>2021-11-27T11:45:12Z</time>
      </trkpt>
      <trkpt lat="46.49694" lon="5.34394">
        <ele>214</ele>
        <time>2021-11-27T11:45:16Z</time>
      </trkpt>
      <trkpt lat="46.49698" lon="5.3438">
        <ele>214.4</ele>
        <time>2021-11-27T11:45:18Z</time>
      </trkpt>
      <trkpt lat="46.49704" lon="5.3436">
        <ele>215.2</ele>
        <time>2021-11-27T11:45:21Z</time>
      </trkpt>
      <trkpt lat="46.49707" lon="5.34349">
        <ele>215.6</ele>
        <time>2021-11-27T11:45:23Z</time>
      </trkpt>
      <trkpt lat="46.49717" lon="5.34321">
        <ele>216.6</ele>
        <time>2021-11-27T11:45:28Z</time>
      </trkpt>
      <trkpt lat="46.49719" lon="5.34315">
        <ele>216.8</ele>
        <time>2021-11-27T11:45:29Z</time>
      </trkpt>
      <trkpt lat="46.49734" lon="5.34282">
        <ele>217.4</ele>
        <time>2021-11-27T11:45:34Z</time>
      </trkpt>
      <trkpt lat="46.49752" lon="5.34251">
        <ele>217.2</ele>
        <time>2021-11-27T11:45:39Z</time>
      </trkpt>
      <trkpt lat="46.4976" lon="5.34239">
        <ele>217.2</ele>
        <time>2021-11-27T11:45:41Z</time>
      </trkpt>
      <trkpt lat="46.49784" lon="5.34195">
        <ele>217.2</ele>
        <time>2021-11-27T11:45:48Z</time>
      </trkpt>
      <trkpt lat="46.4981" lon="5.3415">
        <ele>217.4</ele>
        <time>2021-11-27T11:45:56Z</time>
      </trkpt>
      <trkpt lat="46.49821" lon="5.34133">
        <ele>217.6</ele>
        <time>2021-11-27T11:45:59Z</time>
      </trkpt>
      <trkpt lat="46.49842" lon="5.34098">
        <ele>218</ele>
        <time>2021-11-27T11:46:05Z</time>
      </trkpt>
      <trkpt lat="46.49863" lon="5.34067">
        <ele>217.4</ele>
        <time>2021-11-27T11:46:11Z</time>
      </trkpt>
      <trkpt lat="46.4987" lon="5.3406">
        <ele>217.4</ele>
        <time>2021-11-27T11:46:15Z</time>
      </trkpt>
      <trkpt lat="46.4987" lon="5.3406">
        <ele>217.4</ele>
        <time>2021-11-27T11:46:17Z</time>
      </trkpt>
      <trkpt lat="46.49872" lon="5.34057">
        <ele>217.4</ele>
        <time>2021-11-27T11:46:49Z</time>
      </trkpt>
      <trkpt lat="46.49873" lon="5.34055">
        <ele>217.4</ele>
        <time>2021-11-27T11:46:50Z</time>
      </trkpt>
      <trkpt lat="46.49886" lon="5.34039">
        <ele>217.4</ele>
        <time>2021-11-27T11:46:56Z</time>
      </trkpt>
      <trkpt lat="46.49906" lon="5.34018">
        <ele>217.4</ele>
        <time>2021-11-27T11:47:01Z</time>
      </trkpt>
      <trkpt lat="46.49932" lon="5.33989">
        <ele>218.2</ele>
        <time>2021-11-27T11:47:07Z</time>
      </trkpt>
      <trkpt lat="46.49936" lon="5.33984">
        <ele>218.4</ele>
        <time>2021-11-27T11:47:08Z</time>
      </trkpt>
      <trkpt lat="46.49952" lon="5.33966">
        <ele>219</ele>
        <time>2021-11-27T11:47:12Z</time>
      </trkpt>
      <trkpt lat="46.4996" lon="5.33959">
        <ele>219.6</ele>
        <time>2021-11-27T11:47:14Z</time>
      </trkpt>
      <trkpt lat="46.49964" lon="5.33954">
        <ele>219.8</ele>
        <time>2021-11-27T11:47:15Z</time>
      </trkpt>
      <trkpt lat="46.4999" lon="5.33925">
        <ele>220.6</ele>
        <time>2021-11-27T11:47:21Z</time>
      </trkpt>
      <trkpt lat="46.50003" lon="5.3391">
        <ele>220.6</ele>
        <time>2021-11-27T11:47:24Z</time>
      </trkpt>
      <trkpt lat="46.50032" lon="5.33879">
        <ele>220.4</ele>
        <time>2021-11-27T11:47:30Z</time>
      </trkpt>
      <trkpt lat="46.50071" lon="5.33836">
        <ele>219.4</ele>
        <time>2021-11-27T11:47:37Z</time>
      </trkpt>
      <trkpt lat="46.50078" lon="5.33828">
        <ele>219.4</ele>
        <time>2021-11-27T11:47:38Z</time>
      </trkpt>
      <trkpt lat="46.50114" lon="5.33789">
        <ele>218</ele>
        <time>2021-11-27T11:47:44Z</time>
      </trkpt>
      <trkpt lat="46.50126" lon="5.33776">
        <ele>217.6</ele>
        <time>2021-11-27T11:47:46Z</time>
      </trkpt>
      <trkpt lat="46.5017" lon="5.33728">
        <ele>217.2</ele>
        <time>2021-11-27T11:47:54Z</time>
      </trkpt>
      <trkpt lat="46.50213" lon="5.33682">
        <ele>218</ele>
        <time>2021-11-27T11:48:02Z</time>
      </trkpt>
      <trkpt lat="46.50224" lon="5.33671">
        <ele>218</ele>
        <time>2021-11-27T11:48:04Z</time>
      </trkpt>
      <trkpt lat="46.50239" lon="5.33653">
        <ele>218</ele>
        <time>2021-11-27T11:48:07Z</time>
      </trkpt>
      <trkpt lat="46.50277" lon="5.33612">
        <ele>217.8</ele>
        <time>2021-11-27T11:48:14Z</time>
      </trkpt>
      <trkpt lat="46.50321" lon="5.33564">
        <ele>217</ele>
        <time>2021-11-27T11:48:22Z</time>
      </trkpt>
      <trkpt lat="46.50327" lon="5.33558">
        <ele>216.8</ele>
        <time>2021-11-27T11:48:23Z</time>
      </trkpt>
      <trkpt lat="46.50374" lon="5.33509">
        <ele>216.2</ele>
        <time>2021-11-27T11:48:31Z</time>
      </trkpt>
      <trkpt lat="46.50379" lon="5.33504">
        <ele>216.2</ele>
        <time>2021-11-27T11:48:32Z</time>
      </trkpt>
      <trkpt lat="46.50404" lon="5.33479">
        <ele>215.6</ele>
        <time>2021-11-27T11:48:36Z</time>
      </trkpt>
      <trkpt lat="46.50428" lon="5.33453">
        <ele>215.2</ele>
        <time>2021-11-27T11:48:40Z</time>
      </trkpt>
      <trkpt lat="46.50443" lon="5.33431">
        <ele>214.6</ele>
        <time>2021-11-27T11:48:43Z</time>
      </trkpt>
      <trkpt lat="46.50452" lon="5.33415">
        <ele>214.4</ele>
        <time>2021-11-27T11:48:45Z</time>
      </trkpt>
      <trkpt lat="46.50459" lon="5.33396">
        <ele>214.2</ele>
        <time>2021-11-27T11:48:47Z</time>
      </trkpt>
      <trkpt lat="46.50466" lon="5.33365">
        <ele>214</ele>
        <time>2021-11-27T11:48:50Z</time>
      </trkpt>
      <trkpt lat="46.50468" lon="5.33344">
        <ele>213.4</ele>
        <time>2021-11-27T11:48:52Z</time>
      </trkpt>
      <trkpt lat="46.50468" lon="5.33334">
        <ele>213.4</ele>
        <time>2021-11-27T11:48:53Z</time>
      </trkpt>
      <trkpt lat="46.50468" lon="5.33315">
        <ele>213.2</ele>
        <time>2021-11-27T11:48:55Z</time>
      </trkpt>
      <trkpt lat="46.50468" lon="5.33303">
        <ele>213.2</ele>
        <time>2021-11-27T11:48:56Z</time>
      </trkpt>
      <trkpt lat="46.50469" lon="5.33284">
        <ele>213.2</ele>
        <time>2021-11-27T11:48:58Z</time>
      </trkpt>
      <trkpt lat="46.50468" lon="5.33273">
        <ele>213.2</ele>
        <time>2021-11-27T11:48:59Z</time>
      </trkpt>
      <trkpt lat="46.50467" lon="5.33228">
        <ele>213.6</ele>
        <time>2021-11-27T11:49:04Z</time>
      </trkpt>
      <trkpt lat="46.50469" lon="5.33201">
        <ele>213.8</ele>
        <time>2021-11-27T11:49:07Z</time>
      </trkpt>
      <trkpt lat="46.50467" lon="5.33192">
        <ele>213.8</ele>
        <time>2021-11-27T11:49:08Z</time>
      </trkpt>
      <trkpt lat="46.50469" lon="5.33134">
        <ele>213.6</ele>
        <time>2021-11-27T11:49:14Z</time>
      </trkpt>
      <trkpt lat="46.50469" lon="5.33067">
        <ele>212.4</ele>
        <time>2021-11-27T11:49:20Z</time>
      </trkpt>
      <trkpt lat="46.50469" lon="5.33056">
        <ele>211.8</ele>
        <time>2021-11-27T11:49:21Z</time>
      </trkpt>
      <trkpt lat="46.5047" lon="5.33032">
        <ele>210.6</ele>
        <time>2021-11-27T11:49:23Z</time>
      </trkpt>
      <trkpt lat="46.50471" lon="5.32993">
        <ele>209</ele>
        <time>2021-11-27T11:49:26Z</time>
      </trkpt>
      <trkpt lat="46.50472" lon="5.32955">
        <ele>207.6</ele>
        <time>2021-11-27T11:49:29Z</time>
      </trkpt>
      <trkpt lat="46.50472" lon="5.3293">
        <ele>206.4</ele>
        <time>2021-11-27T11:49:31Z</time>
      </trkpt>
      <trkpt lat="46.50473" lon="5.32914">
        <ele>205.6</ele>
        <time>2021-11-27T11:49:32Z</time>
      </trkpt>
      <trkpt lat="46.50473" lon="5.329">
        <ele>205.4</ele>
        <time>2021-11-27T11:49:33Z</time>
      </trkpt>
      <trkpt lat="46.50473" lon="5.32857">
        <ele>204</ele>
        <time>2021-11-27T11:49:36Z</time>
      </trkpt>
      <trkpt lat="46.50474" lon="5.32829">
        <ele>202.8</ele>
        <time>2021-11-27T11:49:38Z</time>
      </trkpt>
      <trkpt lat="46.50475" lon="5.32802">
        <ele>201.8</ele>
        <time>2021-11-27T11:49:40Z</time>
      </trkpt>
      <trkpt lat="46.50475" lon="5.32779">
        <ele>201</ele>
        <time>2021-11-27T11:49:42Z</time>
      </trkpt>
      <trkpt lat="46.50476" lon="5.32764">
        <ele>200.6</ele>
        <time>2021-11-27T11:49:43Z</time>
      </trkpt>
      <trkpt lat="46.50477" lon="5.32716">
        <ele>199.6</ele>
        <time>2021-11-27T11:49:47Z</time>
      </trkpt>
      <trkpt lat="46.50477" lon="5.32706">
        <ele>199.6</ele>
        <time>2021-11-27T11:49:48Z</time>
      </trkpt>
      <trkpt lat="46.50479" lon="5.32636">
        <ele>199.2</ele>
        <time>2021-11-27T11:49:54Z</time>
      </trkpt>
      <trkpt lat="46.50478" lon="5.32591">
        <ele>198.4</ele>
        <time>2021-11-27T11:49:58Z</time>
      </trkpt>
      <trkpt lat="46.50476" lon="5.32534">
        <ele>197.8</ele>
        <time>2021-11-27T11:50:03Z</time>
      </trkpt>
      <trkpt lat="46.50474" lon="5.325">
        <ele>197.4</ele>
        <time>2021-11-27T11:50:06Z</time>
      </trkpt>
      <trkpt lat="46.5047" lon="5.32455">
        <ele>196.8</ele>
        <time>2021-11-27T11:50:10Z</time>
      </trkpt>
      <trkpt lat="46.50462" lon="5.324">
        <ele>196.4</ele>
        <time>2021-11-27T11:50:15Z</time>
      </trkpt>
      <trkpt lat="46.50457" lon="5.3238">
        <ele>196.2</ele>
        <time>2021-11-27T11:50:17Z</time>
      </trkpt>
      <trkpt lat="46.50441" lon="5.32303">
        <ele>195.8</ele>
        <time>2021-11-27T11:50:25Z</time>
      </trkpt>
      <trkpt lat="46.50438" lon="5.32284">
        <ele>195.8</ele>
        <time>2021-11-27T11:50:27Z</time>
      </trkpt>
      <trkpt lat="46.50435" lon="5.32257">
        <ele>195.8</ele>
        <time>2021-11-27T11:50:30Z</time>
      </trkpt>
      <trkpt lat="46.50434" lon="5.32248">
        <ele>195.8</ele>
        <time>2021-11-27T11:50:31Z</time>
      </trkpt>
      <trkpt lat="46.50433" lon="5.3223">
        <ele>195.8</ele>
        <time>2021-11-27T11:50:33Z</time>
      </trkpt>
      <trkpt lat="46.50434" lon="5.32213">
        <ele>195.8</ele>
        <time>2021-11-27T11:50:35Z</time>
      </trkpt>
      <trkpt lat="46.50436" lon="5.32205">
        <ele>195.8</ele>
        <time>2021-11-27T11:50:36Z</time>
      </trkpt>
      <trkpt lat="46.50439" lon="5.32197">
        <ele>195.8</ele>
        <time>2021-11-27T11:50:37Z</time>
      </trkpt>
      <trkpt lat="46.50449" lon="5.32187">
        <ele>196</ele>
        <time>2021-11-27T11:50:39Z</time>
      </trkpt>
      <trkpt lat="46.50454" lon="5.32183">
        <ele>196</ele>
        <time>2021-11-27T11:50:40Z</time>
      </trkpt>
      <trkpt lat="46.50463" lon="5.32171">
        <ele>196</ele>
        <time>2021-11-27T11:50:42Z</time>
      </trkpt>
      <trkpt lat="46.50466" lon="5.32163">
        <ele>196</ele>
        <time>2021-11-27T11:50:43Z</time>
      </trkpt>
      <trkpt lat="46.50485" lon="5.32104">
        <ele>196.4</ele>
        <time>2021-11-27T11:50:50Z</time>
      </trkpt>
      <trkpt lat="46.50516" lon="5.32044">
        <ele>196.6</ele>
        <time>2021-11-27T11:50:58Z</time>
      </trkpt>
      <trkpt lat="46.50546" lon="5.31999">
        <ele>196.8</ele>
        <time>2021-11-27T11:51:05Z</time>
      </trkpt>
      <trkpt lat="46.5055" lon="5.31993">
        <ele>196.8</ele>
        <time>2021-11-27T11:51:06Z</time>
      </trkpt>
      <trkpt lat="46.50559" lon="5.31974">
        <ele>197.2</ele>
        <time>2021-11-27T11:51:09Z</time>
      </trkpt>
      <trkpt lat="46.50561" lon="5.31968">
        <ele>197.4</ele>
        <time>2021-11-27T11:51:10Z</time>
      </trkpt>
      <trkpt lat="46.50568" lon="5.31949">
        <ele>198.2</ele>
        <time>2021-11-27T11:51:13Z</time>
      </trkpt>
      <trkpt lat="46.5057" lon="5.31943">
        <ele>198.6</ele>
        <time>2021-11-27T11:51:14Z</time>
      </trkpt>
      <trkpt lat="46.50577" lon="5.3192">
        <ele>199.6</ele>
        <time>2021-11-27T11:51:18Z</time>
      </trkpt>
      <trkpt lat="46.50581" lon="5.31908">
        <ele>200</ele>
        <time>2021-11-27T11:51:20Z</time>
      </trkpt>
      <trkpt lat="46.50587" lon="5.31894">
        <ele>201</ele>
        <time>2021-11-27T11:51:23Z</time>
      </trkpt>
      <trkpt lat="46.50595" lon="5.31878">
        <ele>202</ele>
        <time>2021-11-27T11:51:26Z</time>
      </trkpt>
      <trkpt lat="46.50598" lon="5.31867">
        <ele>202.4</ele>
        <time>2021-11-27T11:51:28Z</time>
      </trkpt>
      <trkpt lat="46.50606" lon="5.31845">
        <ele>203</ele>
        <time>2021-11-27T11:51:32Z</time>
      </trkpt>
      <trkpt lat="46.5061" lon="5.31834">
        <ele>203.4</ele>
        <time>2021-11-27T11:51:34Z</time>
      </trkpt>
      <trkpt lat="46.50616" lon="5.31818">
        <ele>204</ele>
        <time>2021-11-27T11:51:37Z</time>
      </trkpt>
      <trkpt lat="46.50625" lon="5.31795">
        <ele>205</ele>
        <time>2021-11-27T11:51:41Z</time>
      </trkpt>
      <trkpt lat="46.50627" lon="5.31789">
        <ele>205.2</ele>
        <time>2021-11-27T11:51:42Z</time>
      </trkpt>
      <trkpt lat="46.50645" lon="5.3174">
        <ele>205.8</ele>
        <time>2021-11-27T11:51:50Z</time>
      </trkpt>
      <trkpt lat="46.50652" lon="5.31729">
        <ele>205.8</ele>
        <time>2021-11-27T11:51:52Z</time>
      </trkpt>
      <trkpt lat="46.50664" lon="5.31718">
        <ele>205.8</ele>
        <time>2021-11-27T11:51:55Z</time>
      </trkpt>
      <trkpt lat="46.50674" lon="5.31713">
        <ele>205.8</ele>
        <time>2021-11-27T11:51:57Z</time>
      </trkpt>
      <trkpt lat="46.5069" lon="5.3171">
        <ele>205.8</ele>
        <time>2021-11-27T11:52:00Z</time>
      </trkpt>
      <trkpt lat="46.50737" lon="5.31706">
        <ele>205.8</ele>
        <time>2021-11-27T11:52:08Z</time>
      </trkpt>
      <trkpt lat="46.50762" lon="5.31704">
        <ele>205.6</ele>
        <time>2021-11-27T11:52:12Z</time>
      </trkpt>
      <trkpt lat="46.50774" lon="5.31707">
        <ele>205.6</ele>
        <time>2021-11-27T11:52:14Z</time>
      </trkpt>
      <trkpt lat="46.50779" lon="5.3171">
        <ele>205.6</ele>
        <time>2021-11-27T11:52:15Z</time>
      </trkpt>
      <trkpt lat="46.50796" lon="5.31721">
        <ele>205.6</ele>
        <time>2021-11-27T11:52:18Z</time>
      </trkpt>
      <trkpt lat="46.50821" lon="5.3174">
        <ele>205.8</ele>
        <time>2021-11-27T11:52:23Z</time>
      </trkpt>
      <trkpt lat="46.50826" lon="5.31743">
        <ele>205.8</ele>
        <time>2021-11-27T11:52:24Z</time>
      </trkpt>
      <trkpt lat="46.50831" lon="5.31745">
        <ele>206</ele>
        <time>2021-11-27T11:52:25Z</time>
      </trkpt>
      <trkpt lat="46.50836" lon="5.31746">
        <ele>206</ele>
        <time>2021-11-27T11:52:26Z</time>
      </trkpt>
      <trkpt lat="46.50842" lon="5.31746">
        <ele>206.2</ele>
        <time>2021-11-27T11:52:27Z</time>
      </trkpt>
      <trkpt lat="46.50847" lon="5.31744">
        <ele>206.2</ele>
        <time>2021-11-27T11:52:28Z</time>
      </trkpt>
      <trkpt lat="46.50856" lon="5.31738">
        <ele>206.4</ele>
        <time>2021-11-27T11:52:30Z</time>
      </trkpt>
      <trkpt lat="46.5086" lon="5.31734">
        <ele>206.6</ele>
        <time>2021-11-27T11:52:31Z</time>
      </trkpt>
      <trkpt lat="46.50895" lon="5.31699">
        <ele>207</ele>
        <time>2021-11-27T11:52:38Z</time>
      </trkpt>
      <trkpt lat="46.50938" lon="5.31653">
        <ele>206.8</ele>
        <time>2021-11-27T11:52:46Z</time>
      </trkpt>
      <trkpt lat="46.50985" lon="5.31603">
        <ele>205</ele>
        <time>2021-11-27T11:52:54Z</time>
      </trkpt>
      <trkpt lat="46.51021" lon="5.31565">
        <ele>205.4</ele>
        <time>2021-11-27T11:53:01Z</time>
      </trkpt>
      <trkpt lat="46.5103" lon="5.31552">
        <ele>205.6</ele>
        <time>2021-11-27T11:53:03Z</time>
      </trkpt>
      <trkpt lat="46.51038" lon="5.31536">
        <ele>205.6</ele>
        <time>2021-11-27T11:53:05Z</time>
      </trkpt>
      <trkpt lat="46.5105" lon="5.31485">
        <ele>205.6</ele>
        <time>2021-11-27T11:53:10Z</time>
      </trkpt>
      <trkpt lat="46.5106" lon="5.31443">
        <ele>204.4</ele>
        <time>2021-11-27T11:53:14Z</time>
      </trkpt>
      <trkpt lat="46.51068" lon="5.31407">
        <ele>203.4</ele>
        <time>2021-11-27T11:53:17Z</time>
      </trkpt>
      <trkpt lat="46.5107" lon="5.31396">
        <ele>203</ele>
        <time>2021-11-27T11:53:18Z</time>
      </trkpt>
      <trkpt lat="46.51072" lon="5.31361">
        <ele>202</ele>
        <time>2021-11-27T11:53:21Z</time>
      </trkpt>
      <trkpt lat="46.51071" lon="5.31349">
        <ele>201.8</ele>
        <time>2021-11-27T11:53:22Z</time>
      </trkpt>
      <trkpt lat="46.5107" lon="5.31337">
        <ele>201.4</ele>
        <time>2021-11-27T11:53:23Z</time>
      </trkpt>
      <trkpt lat="46.51072" lon="5.31314">
        <ele>201</ele>
        <time>2021-11-27T11:53:25Z</time>
      </trkpt>
      <trkpt lat="46.51076" lon="5.31304">
        <ele>200.8</ele>
        <time>2021-11-27T11:53:26Z</time>
      </trkpt>
      <trkpt lat="46.51082" lon="5.31294">
        <ele>200.6</ele>
        <time>2021-11-27T11:53:27Z</time>
      </trkpt>
      <trkpt lat="46.51102" lon="5.31269">
        <ele>199.6</ele>
        <time>2021-11-27T11:53:30Z</time>
      </trkpt>
      <trkpt lat="46.51122" lon="5.31245">
        <ele>198.2</ele>
        <time>2021-11-27T11:53:33Z</time>
      </trkpt>
      <trkpt lat="46.51142" lon="5.3122">
        <ele>197</ele>
        <time>2021-11-27T11:53:36Z</time>
      </trkpt>
      <trkpt lat="46.51169" lon="5.31187">
        <ele>196</ele>
        <time>2021-11-27T11:53:40Z</time>
      </trkpt>
      <trkpt lat="46.51188" lon="5.31164">
        <ele>195.8</ele>
        <time>2021-11-27T11:53:43Z</time>
      </trkpt>
      <trkpt lat="46.51231" lon="5.31109">
        <ele>195</ele>
        <time>2021-11-27T11:53:50Z</time>
      </trkpt>
      <trkpt lat="46.51237" lon="5.31102">
        <ele>194.8</ele>
        <time>2021-11-27T11:53:51Z</time>
      </trkpt>
      <trkpt lat="46.51244" lon="5.31095">
        <ele>194.6</ele>
        <time>2021-11-27T11:53:52Z</time>
      </trkpt>
      <trkpt lat="46.51259" lon="5.31086">
        <ele>194</ele>
        <time>2021-11-27T11:53:54Z</time>
      </trkpt>
      <trkpt lat="46.51269" lon="5.31083">
        <ele>193.6</ele>
        <time>2021-11-27T11:53:55Z</time>
      </trkpt>
      <trkpt lat="46.51294" lon="5.3108">
        <ele>193.2</ele>
        <time>2021-11-27T11:53:58Z</time>
      </trkpt>
      <trkpt lat="46.51354" lon="5.31077">
        <ele>193.2</ele>
        <time>2021-11-27T11:54:06Z</time>
      </trkpt>
      <trkpt lat="46.51361" lon="5.31076">
        <ele>193.2</ele>
        <time>2021-11-27T11:54:07Z</time>
      </trkpt>
      <trkpt lat="46.51419" lon="5.31073">
        <ele>193.4</ele>
        <time>2021-11-27T11:54:15Z</time>
      </trkpt>
      <trkpt lat="46.51425" lon="5.31073">
        <ele>193.4</ele>
        <time>2021-11-27T11:54:16Z</time>
      </trkpt>
      <trkpt lat="46.51484" lon="5.31072">
        <ele>193.2</ele>
        <time>2021-11-27T11:54:24Z</time>
      </trkpt>
      <trkpt lat="46.51503" lon="5.31073">
        <ele>193.2</ele>
        <time>2021-11-27T11:54:27Z</time>
      </trkpt>
      <trkpt lat="46.51545" lon="5.31076">
        <ele>193.2</ele>
        <time>2021-11-27T11:54:33Z</time>
      </trkpt>
      <trkpt lat="46.5159" lon="5.31084">
        <ele>193.8</ele>
        <time>2021-11-27T11:54:40Z</time>
      </trkpt>
      <trkpt lat="46.51631" lon="5.31103">
        <ele>194.2</ele>
        <time>2021-11-27T11:54:47Z</time>
      </trkpt>
      <trkpt lat="46.51636" lon="5.31105">
        <ele>194.4</ele>
        <time>2021-11-27T11:54:48Z</time>
      </trkpt>
      <trkpt lat="46.51646" lon="5.31106">
        <ele>194.8</ele>
        <time>2021-11-27T11:54:50Z</time>
      </trkpt>
      <trkpt lat="46.5165" lon="5.31105">
        <ele>194.8</ele>
        <time>2021-11-27T11:54:51Z</time>
      </trkpt>
      <trkpt lat="46.51661" lon="5.31103">
        <ele>195.8</ele>
        <time>2021-11-27T11:54:54Z</time>
      </trkpt>
      <trkpt lat="46.51666" lon="5.31104">
        <ele>196.2</ele>
        <time>2021-11-27T11:54:56Z</time>
      </trkpt>
      <trkpt lat="46.51667" lon="5.31103">
        <ele>196.8</ele>
        <time>2021-11-27T11:54:59Z</time>
      </trkpt>
      <trkpt lat="46.51669" lon="5.31105">
        <ele>197.2</ele>
        <time>2021-11-27T11:55:27Z</time>
      </trkpt>
      <trkpt lat="46.51673" lon="5.31109">
        <ele>197.2</ele>
        <time>2021-11-27T11:55:29Z</time>
      </trkpt>
      <trkpt lat="46.51682" lon="5.31129">
        <ele>197</ele>
        <time>2021-11-27T11:55:33Z</time>
      </trkpt>
      <trkpt lat="46.51689" lon="5.31142">
        <ele>197</ele>
        <time>2021-11-27T11:55:35Z</time>
      </trkpt>
      <trkpt lat="46.51698" lon="5.31154">
        <ele>196.8</ele>
        <time>2021-11-27T11:55:37Z</time>
      </trkpt>
      <trkpt lat="46.51704" lon="5.31159">
        <ele>196.8</ele>
        <time>2021-11-27T11:55:38Z</time>
      </trkpt>
      <trkpt lat="46.51722" lon="5.31172">
        <ele>196.2</ele>
        <time>2021-11-27T11:55:41Z</time>
      </trkpt>
      <trkpt lat="46.51729" lon="5.31175">
        <ele>196</ele>
        <time>2021-11-27T11:55:42Z</time>
      </trkpt>
      <trkpt lat="46.51736" lon="5.31178">
        <ele>196</ele>
        <time>2021-11-27T11:55:43Z</time>
      </trkpt>
      <trkpt lat="46.51779" lon="5.31181">
        <ele>194.8</ele>
        <time>2021-11-27T11:55:48Z</time>
      </trkpt>
      <trkpt lat="46.51806" lon="5.31181">
        <ele>193</ele>
        <time>2021-11-27T11:55:51Z</time>
      </trkpt>
      <trkpt lat="46.51825" lon="5.31184">
        <ele>191.8</ele>
        <time>2021-11-27T11:55:53Z</time>
      </trkpt>
      <trkpt lat="46.51834" lon="5.31188">
        <ele>191.6</ele>
        <time>2021-11-27T11:55:54Z</time>
      </trkpt>
      <trkpt lat="46.51843" lon="5.31192">
        <ele>191</ele>
        <time>2021-11-27T11:55:55Z</time>
      </trkpt>
      <trkpt lat="46.51852" lon="5.31198">
        <ele>190.6</ele>
        <time>2021-11-27T11:55:56Z</time>
      </trkpt>
      <trkpt lat="46.5186" lon="5.31205">
        <ele>189.6</ele>
        <time>2021-11-27T11:55:57Z</time>
      </trkpt>
      <trkpt lat="46.51867" lon="5.31213">
        <ele>189</ele>
        <time>2021-11-27T11:55:58Z</time>
      </trkpt>
      <trkpt lat="46.51876" lon="5.31224">
        <ele>188.8</ele>
        <time>2021-11-27T11:55:59Z</time>
      </trkpt>
      <trkpt lat="46.51899" lon="5.31259">
        <ele>188</ele>
        <time>2021-11-27T11:56:03Z</time>
      </trkpt>
      <trkpt lat="46.51941" lon="5.31321">
        <ele>188</ele>
        <time>2021-11-27T11:56:10Z</time>
      </trkpt>
      <trkpt lat="46.51946" lon="5.3133">
        <ele>188.2</ele>
        <time>2021-11-27T11:56:11Z</time>
      </trkpt>
      <trkpt lat="46.51985" lon="5.31386">
        <ele>188.4</ele>
        <time>2021-11-27T11:56:18Z</time>
      </trkpt>
      <trkpt lat="46.51991" lon="5.31394">
        <ele>188.6</ele>
        <time>2021-11-27T11:56:19Z</time>
      </trkpt>
      <trkpt lat="46.52032" lon="5.31454">
        <ele>189.6</ele>
        <time>2021-11-27T11:56:27Z</time>
      </trkpt>
      <trkpt lat="46.52037" lon="5.31461">
        <ele>189.8</ele>
        <time>2021-11-27T11:56:28Z</time>
      </trkpt>
      <trkpt lat="46.52059" lon="5.31494">
        <ele>190.8</ele>
        <time>2021-11-27T11:56:33Z</time>
      </trkpt>
      <trkpt lat="46.52086" lon="5.31532">
        <ele>191.8</ele>
        <time>2021-11-27T11:56:39Z</time>
      </trkpt>
      <trkpt lat="46.52095" lon="5.31544">
        <ele>192.4</ele>
        <time>2021-11-27T11:56:41Z</time>
      </trkpt>
      <trkpt lat="46.52107" lon="5.31561">
        <ele>193</ele>
        <time>2021-11-27T11:56:44Z</time>
      </trkpt>
      <trkpt lat="46.52128" lon="5.3159">
        <ele>194</ele>
        <time>2021-11-27T11:56:49Z</time>
      </trkpt>
      <trkpt lat="46.52148" lon="5.31618">
        <ele>195.2</ele>
        <time>2021-11-27T11:56:54Z</time>
      </trkpt>
      <trkpt lat="46.5216" lon="5.31635">
        <ele>195.8</ele>
        <time>2021-11-27T11:56:57Z</time>
      </trkpt>
      <trkpt lat="46.52167" lon="5.31647">
        <ele>196.2</ele>
        <time>2021-11-27T11:56:59Z</time>
      </trkpt>
      <trkpt lat="46.52192" lon="5.31682">
        <ele>197.2</ele>
        <time>2021-11-27T11:57:05Z</time>
      </trkpt>
      <trkpt lat="46.522" lon="5.31693">
        <ele>197.8</ele>
        <time>2021-11-27T11:57:07Z</time>
      </trkpt>
      <trkpt lat="46.52211" lon="5.31711">
        <ele>198.4</ele>
        <time>2021-11-27T11:57:10Z</time>
      </trkpt>
      <trkpt lat="46.5223" lon="5.31737">
        <ele>199.4</ele>
        <time>2021-11-27T11:57:15Z</time>
      </trkpt>
      <trkpt lat="46.52237" lon="5.31749">
        <ele>199.6</ele>
        <time>2021-11-27T11:57:17Z</time>
      </trkpt>
      <trkpt lat="46.52259" lon="5.31781">
        <ele>200.4</ele>
        <time>2021-11-27T11:57:23Z</time>
      </trkpt>
      <trkpt lat="46.5227" lon="5.31797">
        <ele>201</ele>
        <time>2021-11-27T11:57:26Z</time>
      </trkpt>
      <trkpt lat="46.52292" lon="5.31828">
        <ele>201.8</ele>
        <time>2021-11-27T11:57:32Z</time>
      </trkpt>
      <trkpt lat="46.52299" lon="5.31838">
        <ele>202.2</ele>
        <time>2021-11-27T11:57:34Z</time>
      </trkpt>
      <trkpt lat="46.52318" lon="5.31864">
        <ele>202.8</ele>
        <time>2021-11-27T11:57:39Z</time>
      </trkpt>
      <trkpt lat="46.52326" lon="5.31874">
        <ele>203.4</ele>
        <time>2021-11-27T11:57:41Z</time>
      </trkpt>
      <trkpt lat="46.52343" lon="5.319">
        <ele>204.4</ele>
        <time>2021-11-27T11:57:46Z</time>
      </trkpt>
      <trkpt lat="46.52375" lon="5.31946">
        <ele>205.4</ele>
        <time>2021-11-27T11:57:54Z</time>
      </trkpt>
      <trkpt lat="46.52411" lon="5.31998">
        <ele>204.2</ele>
        <time>2021-11-27T11:58:01Z</time>
      </trkpt>
      <trkpt lat="46.52429" lon="5.32021">
        <ele>203.2</ele>
        <time>2021-11-27T11:58:04Z</time>
      </trkpt>
      <trkpt lat="46.52447" lon="5.32047">
        <ele>202.4</ele>
        <time>2021-11-27T11:58:07Z</time>
      </trkpt>
      <trkpt lat="46.52459" lon="5.32064">
        <ele>201.8</ele>
        <time>2021-11-27T11:58:09Z</time>
      </trkpt>
      <trkpt lat="46.52484" lon="5.32099">
        <ele>200.2</ele>
        <time>2021-11-27T11:58:13Z</time>
      </trkpt>
      <trkpt lat="46.52503" lon="5.32126">
        <ele>199.2</ele>
        <time>2021-11-27T11:58:16Z</time>
      </trkpt>
      <trkpt lat="46.52509" lon="5.32135">
        <ele>199</ele>
        <time>2021-11-27T11:58:17Z</time>
      </trkpt>
      <trkpt lat="46.52537" lon="5.32169">
        <ele>198</ele>
        <time>2021-11-27T11:58:21Z</time>
      </trkpt>
      <trkpt lat="46.52544" lon="5.32176">
        <ele>197.6</ele>
        <time>2021-11-27T11:58:22Z</time>
      </trkpt>
      <trkpt lat="46.52551" lon="5.32183">
        <ele>196.8</ele>
        <time>2021-11-27T11:58:23Z</time>
      </trkpt>
      <trkpt lat="46.52558" lon="5.32187">
        <ele>196.6</ele>
        <time>2021-11-27T11:58:24Z</time>
      </trkpt>
      <trkpt lat="46.52563" lon="5.3219">
        <ele>196</ele>
        <time>2021-11-27T11:58:25Z</time>
      </trkpt>
      <trkpt lat="46.52568" lon="5.32189">
        <ele>195.8</ele>
        <time>2021-11-27T11:58:26Z</time>
      </trkpt>
      <trkpt lat="46.52573" lon="5.32186">
        <ele>195.4</ele>
        <time>2021-11-27T11:58:27Z</time>
      </trkpt>
      <trkpt lat="46.52576" lon="5.3218">
        <ele>195</ele>
        <time>2021-11-27T11:58:28Z</time>
      </trkpt>
      <trkpt lat="46.5258" lon="5.32175">
        <ele>194.8</ele>
        <time>2021-11-27T11:58:29Z</time>
      </trkpt>
      <trkpt lat="46.52585" lon="5.32163">
        <ele>194.6</ele>
        <time>2021-11-27T11:58:31Z</time>
      </trkpt>
      <trkpt lat="46.52597" lon="5.3214">
        <ele>194.6</ele>
        <time>2021-11-27T11:58:35Z</time>
      </trkpt>
      <trkpt lat="46.52601" lon="5.32128">
        <ele>194.8</ele>
        <time>2021-11-27T11:58:37Z</time>
      </trkpt>
      <trkpt lat="46.52611" lon="5.32105">
        <ele>195.8</ele>
        <time>2021-11-27T11:58:41Z</time>
      </trkpt>
      <trkpt lat="46.52621" lon="5.32081">
        <ele>196.8</ele>
        <time>2021-11-27T11:58:45Z</time>
      </trkpt>
      <trkpt lat="46.52623" lon="5.32075">
        <ele>197</ele>
        <time>2021-11-27T11:58:46Z</time>
      </trkpt>
      <trkpt lat="46.52635" lon="5.32041">
        <ele>198.4</ele>
        <time>2021-11-27T11:58:52Z</time>
      </trkpt>
      <trkpt lat="46.52637" lon="5.32034">
        <ele>198.6</ele>
        <time>2021-11-27T11:58:53Z</time>
      </trkpt>
      <trkpt lat="46.52644" lon="5.32015">
        <ele>199.4</ele>
        <time>2021-11-27T11:58:57Z</time>
      </trkpt>
      <trkpt lat="46.52648" lon="5.32004">
        <ele>199.8</ele>
        <time>2021-11-27T11:58:59Z</time>
      </trkpt>
      <trkpt lat="46.52653" lon="5.31987">
        <ele>200.4</ele>
        <time>2021-11-27T11:59:02Z</time>
      </trkpt>
      <trkpt lat="46.52659" lon="5.31966">
        <ele>201.6</ele>
        <time>2021-11-27T11:59:06Z</time>
      </trkpt>
      <trkpt lat="46.52661" lon="5.31955">
        <ele>202.2</ele>
        <time>2021-11-27T11:59:08Z</time>
      </trkpt>
      <trkpt lat="46.52665" lon="5.3194">
        <ele>202.8</ele>
        <time>2021-11-27T11:59:11Z</time>
      </trkpt>
      <trkpt lat="46.52667" lon="5.31926">
        <ele>203.8</ele>
        <time>2021-11-27T11:59:14Z</time>
      </trkpt>
      <trkpt lat="46.5267" lon="5.31915">
        <ele>204.2</ele>
        <time>2021-11-27T11:59:16Z</time>
      </trkpt>
      <trkpt lat="46.52673" lon="5.31907">
        <ele>204.8</ele>
        <time>2021-11-27T11:59:18Z</time>
      </trkpt>
      <trkpt lat="46.52678" lon="5.31887">
        <ele>206</ele>
        <time>2021-11-27T11:59:22Z</time>
      </trkpt>
      <trkpt lat="46.52679" lon="5.31883">
        <ele>206</ele>
        <time>2021-11-27T11:59:23Z</time>
      </trkpt>
      <trkpt lat="46.52688" lon="5.31853">
        <ele>207.4</ele>
        <time>2021-11-27T11:59:28Z</time>
      </trkpt>
      <trkpt lat="46.52689" lon="5.31849">
        <ele>207.8</ele>
        <time>2021-11-27T11:59:29Z</time>
      </trkpt>
      <trkpt lat="46.52693" lon="5.3184">
        <ele>208.4</ele>
        <time>2021-11-27T11:59:31Z</time>
      </trkpt>
      <trkpt lat="46.52707" lon="5.31817">
        <ele>209.4</ele>
        <time>2021-11-27T11:59:37Z</time>
      </trkpt>
      <trkpt lat="46.52714" lon="5.31809">
        <ele>209.4</ele>
        <time>2021-11-27T11:59:38Z</time>
      </trkpt>
      <trkpt lat="46.52723" lon="5.31801">
        <ele>209.6</ele>
        <time>2021-11-27T11:59:40Z</time>
      </trkpt>
      <trkpt lat="46.52737" lon="5.31793">
        <ele>209.6</ele>
        <time>2021-11-27T11:59:43Z</time>
      </trkpt>
      <trkpt lat="46.5279" lon="5.3177">
        <ele>209.6</ele>
        <time>2021-11-27T11:59:54Z</time>
      </trkpt>
      <trkpt lat="46.52841" lon="5.31747">
        <ele>209.8</ele>
        <time>2021-11-27T12:00:04Z</time>
      </trkpt>
      <trkpt lat="46.52894" lon="5.31727">
        <ele>209.2</ele>
        <time>2021-11-27T12:00:13Z</time>
      </trkpt>
      <trkpt lat="46.52901" lon="5.31727">
        <ele>209.2</ele>
        <time>2021-11-27T12:00:14Z</time>
      </trkpt>
      <trkpt lat="46.52913" lon="5.31731">
        <ele>209</ele>
        <time>2021-11-27T12:00:16Z</time>
      </trkpt>
      <trkpt lat="46.52925" lon="5.31739">
        <ele>208.8</ele>
        <time>2021-11-27T12:00:18Z</time>
      </trkpt>
      <trkpt lat="46.5296" lon="5.31768">
        <ele>208.4</ele>
        <time>2021-11-27T12:00:24Z</time>
      </trkpt>
      <trkpt lat="46.52972" lon="5.31777">
        <ele>208.4</ele>
        <time>2021-11-27T12:00:26Z</time>
      </trkpt>
      <trkpt lat="46.52985" lon="5.3178">
        <ele>208.4</ele>
        <time>2021-11-27T12:00:28Z</time>
      </trkpt>
      <trkpt lat="46.52998" lon="5.31777">
        <ele>208</ele>
        <time>2021-11-27T12:00:30Z</time>
      </trkpt>
      <trkpt lat="46.53009" lon="5.31767">
        <ele>208</ele>
        <time>2021-11-27T12:00:32Z</time>
      </trkpt>
      <trkpt lat="46.53018" lon="5.31753">
        <ele>207.6</ele>
        <time>2021-11-27T12:00:34Z</time>
      </trkpt>
      <trkpt lat="46.53025" lon="5.31737">
        <ele>207.2</ele>
        <time>2021-11-27T12:00:36Z</time>
      </trkpt>
      <trkpt lat="46.53028" lon="5.31729">
        <ele>207.2</ele>
        <time>2021-11-27T12:00:37Z</time>
      </trkpt>
      <trkpt lat="46.53051" lon="5.31667">
        <ele>206.4</ele>
        <time>2021-11-27T12:00:44Z</time>
      </trkpt>
      <trkpt lat="46.53064" lon="5.31652">
        <ele>206</ele>
        <time>2021-11-27T12:00:46Z</time>
      </trkpt>
      <trkpt lat="46.53071" lon="5.31646">
        <ele>206</ele>
        <time>2021-11-27T12:00:47Z</time>
      </trkpt>
      <trkpt lat="46.53105" lon="5.31629">
        <ele>205</ele>
        <time>2021-11-27T12:00:51Z</time>
      </trkpt>
      <trkpt lat="46.53114" lon="5.31625">
        <ele>204.2</ele>
        <time>2021-11-27T12:00:52Z</time>
      </trkpt>
      <trkpt lat="46.53114" lon="5.31625">
        <ele>203.8</ele>
        <time>2021-11-27T12:00:53Z</time>
      </trkpt>
      <trkpt lat="46.53141" lon="5.31615">
        <ele>201.4</ele>
        <time>2021-11-27T12:00:55Z</time>
      </trkpt>
      <trkpt lat="46.53159" lon="5.31607">
        <ele>200.4</ele>
        <time>2021-11-27T12:00:57Z</time>
      </trkpt>
      <trkpt lat="46.53197" lon="5.31591">
        <ele>198.6</ele>
        <time>2021-11-27T12:01:01Z</time>
      </trkpt>
      <trkpt lat="46.53224" lon="5.31578">
        <ele>197</ele>
        <time>2021-11-27T12:01:04Z</time>
      </trkpt>
      <trkpt lat="46.53252" lon="5.3156">
        <ele>195.8</ele>
        <time>2021-11-27T12:01:07Z</time>
      </trkpt>
      <trkpt lat="46.53261" lon="5.31554">
        <ele>195.4</ele>
        <time>2021-11-27T12:01:08Z</time>
      </trkpt>
      <trkpt lat="46.53279" lon="5.31538">
        <ele>193.4</ele>
        <time>2021-11-27T12:01:10Z</time>
      </trkpt>
      <trkpt lat="46.53288" lon="5.3153">
        <ele>192.4</ele>
        <time>2021-11-27T12:01:11Z</time>
      </trkpt>
      <trkpt lat="46.53315" lon="5.31507">
        <ele>191.2</ele>
        <time>2021-11-27T12:01:14Z</time>
      </trkpt>
      <trkpt lat="46.53324" lon="5.315">
        <ele>190.8</ele>
        <time>2021-11-27T12:01:15Z</time>
      </trkpt>
      <trkpt lat="46.53349" lon="5.31479">
        <ele>190.2</ele>
        <time>2021-11-27T12:01:18Z</time>
      </trkpt>
      <trkpt lat="46.5337" lon="5.31458">
        <ele>189.4</ele>
        <time>2021-11-27T12:01:21Z</time>
      </trkpt>
      <trkpt lat="46.53381" lon="5.31441">
        <ele>189.4</ele>
        <time>2021-11-27T12:01:23Z</time>
      </trkpt>
      <trkpt lat="46.53391" lon="5.31422">
        <ele>189.4</ele>
        <time>2021-11-27T12:01:25Z</time>
      </trkpt>
      <trkpt lat="46.5342" lon="5.31356">
        <ele>190.2</ele>
        <time>2021-11-27T12:01:32Z</time>
      </trkpt>
      <trkpt lat="46.53447" lon="5.31298">
        <ele>188.8</ele>
        <time>2021-11-27T12:01:38Z</time>
      </trkpt>
      <trkpt lat="46.53459" lon="5.3127">
        <ele>188.4</ele>
        <time>2021-11-27T12:01:41Z</time>
      </trkpt>
      <trkpt lat="46.53482" lon="5.31219">
        <ele>188.2</ele>
        <time>2021-11-27T12:01:47Z</time>
      </trkpt>
      <trkpt lat="46.5349" lon="5.31178">
        <ele>189</ele>
        <time>2021-11-27T12:01:52Z</time>
      </trkpt>
      <trkpt lat="46.53492" lon="5.31156">
        <ele>190</ele>
        <time>2021-11-27T12:01:55Z</time>
      </trkpt>
      <trkpt lat="46.53495" lon="5.31136">
        <ele>190.6</ele>
        <time>2021-11-27T12:01:58Z</time>
      </trkpt>
      <trkpt lat="46.53497" lon="5.3113">
        <ele>190.8</ele>
        <time>2021-11-27T12:01:59Z</time>
      </trkpt>
      <trkpt lat="46.535" lon="5.31125">
        <ele>191.2</ele>
        <time>2021-11-27T12:02:00Z</time>
      </trkpt>
      <trkpt lat="46.53505" lon="5.31115">
        <ele>191.6</ele>
        <time>2021-11-27T12:02:02Z</time>
      </trkpt>
      <trkpt lat="46.53508" lon="5.31111">
        <ele>191.8</ele>
        <time>2021-11-27T12:02:03Z</time>
      </trkpt>
      <trkpt lat="46.53515" lon="5.31104">
        <ele>192.4</ele>
        <time>2021-11-27T12:02:05Z</time>
      </trkpt>
      <trkpt lat="46.53531" lon="5.31091">
        <ele>193.4</ele>
        <time>2021-11-27T12:02:09Z</time>
      </trkpt>
      <trkpt lat="46.53536" lon="5.31088">
        <ele>193.6</ele>
        <time>2021-11-27T12:02:10Z</time>
      </trkpt>
      <trkpt lat="46.53564" lon="5.31073">
        <ele>194.4</ele>
        <time>2021-11-27T12:02:16Z</time>
      </trkpt>
      <trkpt lat="46.53576" lon="5.31067">
        <ele>194.8</ele>
        <time>2021-11-27T12:02:18Z</time>
      </trkpt>
      <trkpt lat="46.53621" lon="5.31039">
        <ele>194.8</ele>
        <time>2021-11-27T12:02:26Z</time>
      </trkpt>
      <trkpt lat="46.53637" lon="5.31029">
        <ele>194.6</ele>
        <time>2021-11-27T12:02:29Z</time>
      </trkpt>
      <trkpt lat="46.53648" lon="5.31025">
        <ele>194.6</ele>
        <time>2021-11-27T12:02:31Z</time>
      </trkpt>
      <trkpt lat="46.5366" lon="5.31022">
        <ele>194.6</ele>
        <time>2021-11-27T12:02:33Z</time>
      </trkpt>
      <trkpt lat="46.53679" lon="5.31023">
        <ele>194.6</ele>
        <time>2021-11-27T12:02:36Z</time>
      </trkpt>
      <trkpt lat="46.53729" lon="5.31031">
        <ele>194.6</ele>
        <time>2021-11-27T12:02:44Z</time>
      </trkpt>
      <trkpt lat="46.53776" lon="5.31017">
        <ele>194.2</ele>
        <time>2021-11-27T12:02:51Z</time>
      </trkpt>
      <trkpt lat="46.53791" lon="5.31012">
        <ele>193.8</ele>
        <time>2021-11-27T12:02:53Z</time>
      </trkpt>
      <trkpt lat="46.53798" lon="5.31007">
        <ele>193.6</ele>
        <time>2021-11-27T12:02:54Z</time>
      </trkpt>
      <trkpt lat="46.53804" lon="5.31">
        <ele>193.4</ele>
        <time>2021-11-27T12:02:55Z</time>
      </trkpt>
      <trkpt lat="46.53813" lon="5.3098">
        <ele>192.6</ele>
        <time>2021-11-27T12:02:57Z</time>
      </trkpt>
      <trkpt lat="46.53817" lon="5.30969">
        <ele>192.4</ele>
        <time>2021-11-27T12:02:58Z</time>
      </trkpt>
      <trkpt lat="46.5383" lon="5.30939">
        <ele>191</ele>
        <time>2021-11-27T12:03:01Z</time>
      </trkpt>
      <trkpt lat="46.53845" lon="5.30901">
        <ele>190.6</ele>
        <time>2021-11-27T12:03:05Z</time>
      </trkpt>
      <trkpt lat="46.53863" lon="5.30858">
        <ele>190.4</ele>
        <time>2021-11-27T12:03:10Z</time>
      </trkpt>
      <trkpt lat="46.53883" lon="5.30809">
        <ele>191.6</ele>
        <time>2021-11-27T12:03:17Z</time>
      </trkpt>
      <trkpt lat="46.53887" lon="5.30797">
        <ele>192.2</ele>
        <time>2021-11-27T12:03:19Z</time>
      </trkpt>
      <trkpt lat="46.53893" lon="5.30769">
        <ele>193.2</ele>
        <time>2021-11-27T12:03:23Z</time>
      </trkpt>
      <trkpt lat="46.53893" lon="5.30763">
        <ele>193.4</ele>
        <time>2021-11-27T12:03:24Z</time>
      </trkpt>
      <trkpt lat="46.53894" lon="5.30736">
        <ele>194.2</ele>
        <time>2021-11-27T12:03:28Z</time>
      </trkpt>
      <trkpt lat="46.53895" lon="5.30724">
        <ele>195</ele>
        <time>2021-11-27T12:03:30Z</time>
      </trkpt>
      <trkpt lat="46.53895" lon="5.30724">
        <ele>195.6</ele>
        <time>2021-11-27T12:03:31Z</time>
      </trkpt>
      <trkpt lat="46.53897" lon="5.30693">
        <ele>196.8</ele>
        <time>2021-11-27T12:03:35Z</time>
      </trkpt>
      <trkpt lat="46.539" lon="5.30666">
        <ele>197.6</ele>
        <time>2021-11-27T12:03:39Z</time>
      </trkpt>
      <trkpt lat="46.53901" lon="5.3066">
        <ele>197.8</ele>
        <time>2021-11-27T12:03:40Z</time>
      </trkpt>
      <trkpt lat="46.53915" lon="5.30614">
        <ele>199</ele>
        <time>2021-11-27T12:03:47Z</time>
      </trkpt>
      <trkpt lat="46.53937" lon="5.30566">
        <ele>200</ele>
        <time>2021-11-27T12:03:56Z</time>
      </trkpt>
      <trkpt lat="46.53943" lon="5.30558">
        <ele>200.4</ele>
        <time>2021-11-27T12:03:58Z</time>
      </trkpt>
      <trkpt lat="46.53952" lon="5.30549">
        <ele>200.8</ele>
        <time>2021-11-27T12:04:01Z</time>
      </trkpt>
      <trkpt lat="46.53967" lon="5.3054">
        <ele>201.2</ele>
        <time>2021-11-27T12:04:05Z</time>
      </trkpt>
      <trkpt lat="46.53975" lon="5.30536">
        <ele>201.6</ele>
        <time>2021-11-27T12:04:07Z</time>
      </trkpt>
      <trkpt lat="46.53982" lon="5.30532">
        <ele>202.2</ele>
        <time>2021-11-27T12:04:09Z</time>
      </trkpt>
      <trkpt lat="46.53989" lon="5.30528">
        <ele>202.8</ele>
        <time>2021-11-27T12:04:11Z</time>
      </trkpt>
      <trkpt lat="46.53996" lon="5.30525">
        <ele>203.4</ele>
        <time>2021-11-27T12:04:13Z</time>
      </trkpt>
      <trkpt lat="46.5401" lon="5.30513">
        <ele>204.4</ele>
        <time>2021-11-27T12:04:17Z</time>
      </trkpt>
      <trkpt lat="46.54031" lon="5.30488">
        <ele>205.4</ele>
        <time>2021-11-27T12:04:23Z</time>
      </trkpt>
      <trkpt lat="46.54034" lon="5.30482">
        <ele>205.6</ele>
        <time>2021-11-27T12:04:24Z</time>
      </trkpt>
      <trkpt lat="46.54046" lon="5.30457">
        <ele>206</ele>
        <time>2021-11-27T12:04:28Z</time>
      </trkpt>
      <trkpt lat="46.54048" lon="5.3045">
        <ele>206</ele>
        <time>2021-11-27T12:04:29Z</time>
      </trkpt>
      <trkpt lat="46.54063" lon="5.30394">
        <ele>206.2</ele>
        <time>2021-11-27T12:04:37Z</time>
      </trkpt>
      <trkpt lat="46.54081" lon="5.30326">
        <ele>206.6</ele>
        <time>2021-11-27T12:04:47Z</time>
      </trkpt>
      <trkpt lat="46.54106" lon="5.30252">
        <ele>206.8</ele>
        <time>2021-11-27T12:04:58Z</time>
      </trkpt>
      <trkpt lat="46.54127" lon="5.30185">
        <ele>207</ele>
        <time>2021-11-27T12:05:07Z</time>
      </trkpt>
      <trkpt lat="46.54147" lon="5.30119">
        <ele>206.8</ele>
        <time>2021-11-27T12:05:16Z</time>
      </trkpt>
      <trkpt lat="46.54155" lon="5.30109">
        <ele>206.8</ele>
        <time>2021-11-27T12:05:18Z</time>
      </trkpt>
      <trkpt lat="46.54161" lon="5.30106">
        <ele>206.8</ele>
        <time>2021-11-27T12:05:19Z</time>
      </trkpt>
      <trkpt lat="46.54206" lon="5.30093">
        <ele>206.8</ele>
        <time>2021-11-27T12:05:27Z</time>
      </trkpt>
      <trkpt lat="46.54257" lon="5.30098">
        <ele>206.4</ele>
        <time>2021-11-27T12:05:35Z</time>
      </trkpt>
      <trkpt lat="46.54296" lon="5.30103">
        <ele>206.4</ele>
        <time>2021-11-27T12:05:41Z</time>
      </trkpt>
      <trkpt lat="46.54345" lon="5.30116">
        <ele>205.8</ele>
        <time>2021-11-27T12:05:48Z</time>
      </trkpt>
      <trkpt lat="46.5436" lon="5.30122">
        <ele>205.2</ele>
        <time>2021-11-27T12:05:50Z</time>
      </trkpt>
      <trkpt lat="46.54393" lon="5.30136">
        <ele>204</ele>
        <time>2021-11-27T12:05:54Z</time>
      </trkpt>
      <trkpt lat="46.54402" lon="5.3014">
        <ele>203.8</ele>
        <time>2021-11-27T12:05:55Z</time>
      </trkpt>
      <trkpt lat="46.54428" lon="5.30146">
        <ele>202.6</ele>
        <time>2021-11-27T12:05:58Z</time>
      </trkpt>
      <trkpt lat="46.54446" lon="5.30146">
        <ele>201.8</ele>
        <time>2021-11-27T12:06:00Z</time>
      </trkpt>
      <trkpt lat="46.54455" lon="5.30145">
        <ele>201.4</ele>
        <time>2021-11-27T12:06:01Z</time>
      </trkpt>
      <trkpt lat="46.54474" lon="5.3014">
        <ele>200.2</ele>
        <time>2021-11-27T12:06:03Z</time>
      </trkpt>
      <trkpt lat="46.54492" lon="5.30133">
        <ele>199.2</ele>
        <time>2021-11-27T12:06:05Z</time>
      </trkpt>
      <trkpt lat="46.54519" lon="5.30119">
        <ele>197.6</ele>
        <time>2021-11-27T12:06:08Z</time>
      </trkpt>
      <trkpt lat="46.54546" lon="5.30103">
        <ele>196.2</ele>
        <time>2021-11-27T12:06:11Z</time>
      </trkpt>
      <trkpt lat="46.54555" lon="5.30097">
        <ele>195.8</ele>
        <time>2021-11-27T12:06:12Z</time>
      </trkpt>
      <trkpt lat="46.54574" lon="5.30086">
        <ele>194.6</ele>
        <time>2021-11-27T12:06:14Z</time>
      </trkpt>
      <trkpt lat="46.54593" lon="5.30075">
        <ele>193.4</ele>
        <time>2021-11-27T12:06:16Z</time>
      </trkpt>
      <trkpt lat="46.54609" lon="5.30064">
        <ele>192.4</ele>
        <time>2021-11-27T12:06:18Z</time>
      </trkpt>
      <trkpt lat="46.54629" lon="5.30052">
        <ele>191.4</ele>
        <time>2021-11-27T12:06:20Z</time>
      </trkpt>
      <trkpt lat="46.54639" lon="5.30046">
        <ele>191</ele>
        <time>2021-11-27T12:06:21Z</time>
      </trkpt>
      <trkpt lat="46.54658" lon="5.30034">
        <ele>190.2</ele>
        <time>2021-11-27T12:06:23Z</time>
      </trkpt>
      <trkpt lat="46.54686" lon="5.30017">
        <ele>188.4</ele>
        <time>2021-11-27T12:06:26Z</time>
      </trkpt>
      <trkpt lat="46.54712" lon="5.3">
        <ele>187.2</ele>
        <time>2021-11-27T12:06:29Z</time>
      </trkpt>
      <trkpt lat="46.54721" lon="5.29993">
        <ele>186.2</ele>
        <time>2021-11-27T12:06:30Z</time>
      </trkpt>
      <trkpt lat="46.54728" lon="5.29987">
        <ele>185.8</ele>
        <time>2021-11-27T12:06:31Z</time>
      </trkpt>
      <trkpt lat="46.54743" lon="5.29974">
        <ele>185</ele>
        <time>2021-11-27T12:06:33Z</time>
      </trkpt>
      <trkpt lat="46.54779" lon="5.29942">
        <ele>184.2</ele>
        <time>2021-11-27T12:06:38Z</time>
      </trkpt>
      <trkpt lat="46.54798" lon="5.2992">
        <ele>184</ele>
        <time>2021-11-27T12:06:41Z</time>
      </trkpt>
      <trkpt lat="46.54828" lon="5.29882">
        <ele>183</ele>
        <time>2021-11-27T12:06:46Z</time>
      </trkpt>
      <trkpt lat="46.54871" lon="5.29827">
        <ele>182.8</ele>
        <time>2021-11-27T12:06:54Z</time>
      </trkpt>
      <trkpt lat="46.54909" lon="5.29773">
        <ele>183.6</ele>
        <time>2021-11-27T12:07:02Z</time>
      </trkpt>
      <trkpt lat="46.54942" lon="5.29709">
        <ele>183.2</ele>
        <time>2021-11-27T12:07:10Z</time>
      </trkpt>
      <trkpt lat="46.54945" lon="5.297">
        <ele>183</ele>
        <time>2021-11-27T12:07:11Z</time>
      </trkpt>
      <trkpt lat="46.54952" lon="5.29674">
        <ele>183</ele>
        <time>2021-11-27T12:07:14Z</time>
      </trkpt>
      <trkpt lat="46.54957" lon="5.29641">
        <ele>182.8</ele>
        <time>2021-11-27T12:07:18Z</time>
      </trkpt>
      <trkpt lat="46.54966" lon="5.29601">
        <ele>183.6</ele>
        <time>2021-11-27T12:07:24Z</time>
      </trkpt>
      <trkpt lat="46.5497" lon="5.29589">
        <ele>184</ele>
        <time>2021-11-27T12:07:26Z</time>
      </trkpt>
      <trkpt lat="46.54981" lon="5.29566">
        <ele>185</ele>
        <time>2021-11-27T12:07:30Z</time>
      </trkpt>
      <trkpt lat="46.54984" lon="5.29562">
        <ele>185.2</ele>
        <time>2021-11-27T12:07:31Z</time>
      </trkpt>
      <trkpt lat="46.54993" lon="5.29549">
        <ele>185.8</ele>
        <time>2021-11-27T12:07:34Z</time>
      </trkpt>
      <trkpt lat="46.55006" lon="5.29528">
        <ele>186</ele>
        <time>2021-11-27T12:07:38Z</time>
      </trkpt>
      <trkpt lat="46.5501" lon="5.29523">
        <ele>186.2</ele>
        <time>2021-11-27T12:07:39Z</time>
      </trkpt>
      <trkpt lat="46.55017" lon="5.29514">
        <ele>186.2</ele>
        <time>2021-11-27T12:07:41Z</time>
      </trkpt>
      <trkpt lat="46.55029" lon="5.29504">
        <ele>186.6</ele>
        <time>2021-11-27T12:07:44Z</time>
      </trkpt>
      <trkpt lat="46.55037" lon="5.295">
        <ele>187</ele>
        <time>2021-11-27T12:07:46Z</time>
      </trkpt>
      <trkpt lat="46.55041" lon="5.29499">
        <ele>187.4</ele>
        <time>2021-11-27T12:07:47Z</time>
      </trkpt>
      <trkpt lat="46.55049" lon="5.29497">
        <ele>188</ele>
        <time>2021-11-27T12:07:49Z</time>
      </trkpt>
      <trkpt lat="46.55057" lon="5.29495">
        <ele>188.6</ele>
        <time>2021-11-27T12:07:51Z</time>
      </trkpt>
      <trkpt lat="46.55071" lon="5.29497">
        <ele>189.8</ele>
        <time>2021-11-27T12:07:54Z</time>
      </trkpt>
      <trkpt lat="46.5508" lon="5.295">
        <ele>190.4</ele>
        <time>2021-11-27T12:07:56Z</time>
      </trkpt>
      <trkpt lat="46.55084" lon="5.29502">
        <ele>190.8</ele>
        <time>2021-11-27T12:07:57Z</time>
      </trkpt>
      <trkpt lat="46.55101" lon="5.2951">
        <ele>192</ele>
        <time>2021-11-27T12:08:01Z</time>
      </trkpt>
      <trkpt lat="46.55109" lon="5.29514">
        <ele>192.4</ele>
        <time>2021-11-27T12:08:03Z</time>
      </trkpt>
      <trkpt lat="46.55132" lon="5.29523">
        <ele>193</ele>
        <time>2021-11-27T12:08:08Z</time>
      </trkpt>
      <trkpt lat="46.55137" lon="5.29525">
        <ele>193.2</ele>
        <time>2021-11-27T12:08:09Z</time>
      </trkpt>
      <trkpt lat="46.55146" lon="5.29529">
        <ele>193.4</ele>
        <time>2021-11-27T12:08:11Z</time>
      </trkpt>
      <trkpt lat="46.55168" lon="5.29538">
        <ele>198.6</ele>
        <time>2021-11-27T12:08:16Z</time>
      </trkpt>
      <trkpt lat="46.55186" lon="5.29541">
        <ele>194.4</ele>
        <time>2021-11-27T12:08:20Z</time>
      </trkpt>
      <trkpt lat="46.55211" lon="5.29533">
        <ele>194.8</ele>
        <time>2021-11-27T12:08:26Z</time>
      </trkpt>
      <trkpt lat="46.55222" lon="5.29527">
        <ele>195</ele>
        <time>2021-11-27T12:08:29Z</time>
      </trkpt>
      <trkpt lat="46.55226" lon="5.29525">
        <ele>195.2</ele>
        <time>2021-11-27T12:08:30Z</time>
      </trkpt>
      <trkpt lat="46.55242" lon="5.29516">
        <ele>196.2</ele>
        <time>2021-11-27T12:08:34Z</time>
      </trkpt>
      <trkpt lat="46.55271" lon="5.29497">
        <ele>197</ele>
        <time>2021-11-27T12:08:42Z</time>
      </trkpt>
      <trkpt lat="46.55281" lon="5.29496">
        <ele>197.2</ele>
        <time>2021-11-27T12:08:44Z</time>
      </trkpt>
      <trkpt lat="46.5529" lon="5.29498">
        <ele>197.2</ele>
        <time>2021-11-27T12:08:46Z</time>
      </trkpt>
      <trkpt lat="46.55308" lon="5.29505">
        <ele>197.2</ele>
        <time>2021-11-27T12:08:49Z</time>
      </trkpt>
      <trkpt lat="46.5532" lon="5.29508">
        <ele>197.2</ele>
        <time>2021-11-27T12:08:51Z</time>
      </trkpt>
      <trkpt lat="46.55371" lon="5.29518">
        <ele>196.2</ele>
        <time>2021-11-27T12:08:59Z</time>
      </trkpt>
      <trkpt lat="46.55415" lon="5.29538">
        <ele>195.4</ele>
        <time>2021-11-27T12:09:06Z</time>
      </trkpt>
      <trkpt lat="46.55421" lon="5.29543">
        <ele>195.2</ele>
        <time>2021-11-27T12:09:07Z</time>
      </trkpt>
      <trkpt lat="46.55475" lon="5.29581">
        <ele>195.2</ele>
        <time>2021-11-27T12:09:16Z</time>
      </trkpt>
      <trkpt lat="46.55481" lon="5.29585">
        <ele>195.2</ele>
        <time>2021-11-27T12:09:17Z</time>
      </trkpt>
      <trkpt lat="46.55533" lon="5.29624">
        <ele>195.6</ele>
        <time>2021-11-27T12:09:26Z</time>
      </trkpt>
      <trkpt lat="46.55545" lon="5.29633">
        <ele>195.8</ele>
        <time>2021-11-27T12:09:28Z</time>
      </trkpt>
      <trkpt lat="46.5558" lon="5.29657">
        <ele>196.2</ele>
        <time>2021-11-27T12:09:34Z</time>
      </trkpt>
      <trkpt lat="46.55592" lon="5.29664">
        <ele>196.4</ele>
        <time>2021-11-27T12:09:36Z</time>
      </trkpt>
      <trkpt lat="46.55645" lon="5.29689">
        <ele>196.8</ele>
        <time>2021-11-27T12:09:45Z</time>
      </trkpt>
      <trkpt lat="46.55681" lon="5.29696">
        <ele>197.2</ele>
        <time>2021-11-27T12:09:51Z</time>
      </trkpt>
      <trkpt lat="46.55686" lon="5.29696">
        <ele>197.4</ele>
        <time>2021-11-27T12:09:52Z</time>
      </trkpt>
      <trkpt lat="46.55713" lon="5.29698">
        <ele>198</ele>
        <time>2021-11-27T12:09:57Z</time>
      </trkpt>
      <trkpt lat="46.55718" lon="5.297">
        <ele>198.2</ele>
        <time>2021-11-27T12:09:58Z</time>
      </trkpt>
      <trkpt lat="46.55723" lon="5.29702">
        <ele>198.6</ele>
        <time>2021-11-27T12:09:59Z</time>
      </trkpt>
      <trkpt lat="46.55742" lon="5.2971">
        <ele>199.4</ele>
        <time>2021-11-27T12:10:03Z</time>
      </trkpt>
      <trkpt lat="46.55746" lon="5.29713">
        <ele>199.8</ele>
        <time>2021-11-27T12:10:04Z</time>
      </trkpt>
      <trkpt lat="46.55764" lon="5.29725">
        <ele>201</ele>
        <time>2021-11-27T12:10:08Z</time>
      </trkpt>
      <trkpt lat="46.55772" lon="5.29733">
        <ele>201.6</ele>
        <time>2021-11-27T12:10:10Z</time>
      </trkpt>
      <trkpt lat="46.55784" lon="5.29748">
        <ele>202.2</ele>
        <time>2021-11-27T12:10:13Z</time>
      </trkpt>
      <trkpt lat="46.55797" lon="5.29766">
        <ele>202.8</ele>
        <time>2021-11-27T12:10:16Z</time>
      </trkpt>
      <trkpt lat="46.5583" lon="5.29812">
        <ele>203.2</ele>
        <time>2021-11-27T12:10:24Z</time>
      </trkpt>
      <trkpt lat="46.55842" lon="5.29828">
        <ele>203.2</ele>
        <time>2021-11-27T12:10:27Z</time>
      </trkpt>
      <trkpt lat="46.55864" lon="5.29858">
        <ele>203.4</ele>
        <time>2021-11-27T12:10:32Z</time>
      </trkpt>
      <trkpt lat="46.55898" lon="5.29903">
        <ele>203.2</ele>
        <time>2021-11-27T12:10:38Z</time>
      </trkpt>
      <trkpt lat="46.55923" lon="5.29936">
        <ele>202.2</ele>
        <time>2021-11-27T12:10:42Z</time>
      </trkpt>
      <trkpt lat="46.55936" lon="5.29954">
        <ele>201</ele>
        <time>2021-11-27T12:10:44Z</time>
      </trkpt>
      <trkpt lat="46.55956" lon="5.2998">
        <ele>200</ele>
        <time>2021-11-27T12:10:47Z</time>
      </trkpt>
      <trkpt lat="46.55981" lon="5.30014">
        <ele>199</ele>
        <time>2021-11-27T12:10:51Z</time>
      </trkpt>
      <trkpt lat="46.55987" lon="5.30022">
        <ele>198.8</ele>
        <time>2021-11-27T12:10:52Z</time>
      </trkpt>
      <trkpt lat="46.56022" lon="5.3007">
        <ele>199.2</ele>
        <time>2021-11-27T12:10:59Z</time>
      </trkpt>
      <trkpt lat="46.56035" lon="5.30089">
        <ele>200.2</ele>
        <time>2021-11-27T12:11:02Z</time>
      </trkpt>
      <trkpt lat="46.56049" lon="5.30107">
        <ele>201.4</ele>
        <time>2021-11-27T12:11:05Z</time>
      </trkpt>
      <trkpt lat="46.56053" lon="5.30113">
        <ele>201.6</ele>
        <time>2021-11-27T12:11:06Z</time>
      </trkpt>
      <trkpt lat="46.56066" lon="5.30132">
        <ele>202.8</ele>
        <time>2021-11-27T12:11:09Z</time>
      </trkpt>
      <trkpt lat="46.56075" lon="5.30144">
        <ele>203.2</ele>
        <time>2021-11-27T12:11:11Z</time>
      </trkpt>
      <trkpt lat="46.56091" lon="5.30163">
        <ele>204</ele>
        <time>2021-11-27T12:11:14Z</time>
      </trkpt>
      <trkpt lat="46.56112" lon="5.30189">
        <ele>204.6</ele>
        <time>2021-11-27T12:11:18Z</time>
      </trkpt>
      <trkpt lat="46.56151" lon="5.30244">
        <ele>205</ele>
        <time>2021-11-27T12:11:26Z</time>
      </trkpt>
      <trkpt lat="46.56155" lon="5.30251">
        <ele>205</ele>
        <time>2021-11-27T12:11:27Z</time>
      </trkpt>
      <trkpt lat="46.56171" lon="5.30272">
        <ele>205</ele>
        <time>2021-11-27T12:11:30Z</time>
      </trkpt>
      <trkpt lat="46.56197" lon="5.30307">
        <ele>205</ele>
        <time>2021-11-27T12:11:35Z</time>
      </trkpt>
      <trkpt lat="46.56202" lon="5.30314">
        <ele>205</ele>
        <time>2021-11-27T12:11:36Z</time>
      </trkpt>
      <trkpt lat="46.56222" lon="5.30351">
        <ele>205.2</ele>
        <time>2021-11-27T12:11:41Z</time>
      </trkpt>
      <trkpt lat="46.56258" lon="5.30407">
        <ele>205.4</ele>
        <time>2021-11-27T12:11:49Z</time>
      </trkpt>
      <trkpt lat="46.56296" lon="5.30459">
        <ele>205.8</ele>
        <time>2021-11-27T12:11:57Z</time>
      </trkpt>
      <trkpt lat="46.56334" lon="5.30512">
        <ele>206</ele>
        <time>2021-11-27T12:12:05Z</time>
      </trkpt>
      <trkpt lat="46.56348" lon="5.30531">
        <ele>206</ele>
        <time>2021-11-27T12:12:08Z</time>
      </trkpt>
      <trkpt lat="46.56381" lon="5.30576">
        <ele>206</ele>
        <time>2021-11-27T12:12:15Z</time>
      </trkpt>
      <trkpt lat="46.56407" lon="5.30613">
        <ele>205.6</ele>
        <time>2021-11-27T12:12:21Z</time>
      </trkpt>
      <trkpt lat="46.56409" lon="5.30618">
        <ele>205.6</ele>
        <time>2021-11-27T12:12:22Z</time>
      </trkpt>
      <trkpt lat="46.5641" lon="5.30626">
        <ele>205.4</ele>
        <time>2021-11-27T12:12:24Z</time>
      </trkpt>
      <trkpt lat="46.56413" lon="5.30629">
        <ele>205.4</ele>
        <time>2021-11-27T12:12:25Z</time>
      </trkpt>
      <trkpt lat="46.56416" lon="5.3063">
        <ele>205.2</ele>
        <time>2021-11-27T12:12:26Z</time>
      </trkpt>
      <trkpt lat="46.56426" lon="5.30628">
        <ele>205</ele>
        <time>2021-11-27T12:12:28Z</time>
      </trkpt>
      <trkpt lat="46.56437" lon="5.30629">
        <ele>204.8</ele>
        <time>2021-11-27T12:12:30Z</time>
      </trkpt>
      <trkpt lat="46.5645" lon="5.30625">
        <ele>204.8</ele>
        <time>2021-11-27T12:12:32Z</time>
      </trkpt>
      <trkpt lat="46.5649" lon="5.30614">
        <ele>204.4</ele>
        <time>2021-11-27T12:12:38Z</time>
      </trkpt>
      <trkpt lat="46.56544" lon="5.30604">
        <ele>204.2</ele>
        <time>2021-11-27T12:12:46Z</time>
      </trkpt>
      <trkpt lat="46.56597" lon="5.30602">
        <ele>204.2</ele>
        <time>2021-11-27T12:12:54Z</time>
      </trkpt>
      <trkpt lat="46.5665" lon="5.30614">
        <ele>204.2</ele>
        <time>2021-11-27T12:13:02Z</time>
      </trkpt>
      <trkpt lat="46.56657" lon="5.30617">
        <ele>204.4</ele>
        <time>2021-11-27T12:13:03Z</time>
      </trkpt>
      <trkpt lat="46.56671" lon="5.30625">
        <ele>204.4</ele>
        <time>2021-11-27T12:13:05Z</time>
      </trkpt>
      <trkpt lat="46.56689" lon="5.3064">
        <ele>204.2</ele>
        <time>2021-11-27T12:13:08Z</time>
      </trkpt>
      <trkpt lat="46.56713" lon="5.30665">
        <ele>203.8</ele>
        <time>2021-11-27T12:13:12Z</time>
      </trkpt>
      <trkpt lat="46.56724" lon="5.30679">
        <ele>203.6</ele>
        <time>2021-11-27T12:13:14Z</time>
      </trkpt>
      <trkpt lat="46.56753" lon="5.30731">
        <ele>202.6</ele>
        <time>2021-11-27T12:13:20Z</time>
      </trkpt>
      <trkpt lat="46.56781" lon="5.30789">
        <ele>201.6</ele>
        <time>2021-11-27T12:13:26Z</time>
      </trkpt>
      <trkpt lat="46.56785" lon="5.308">
        <ele>201.4</ele>
        <time>2021-11-27T12:13:27Z</time>
      </trkpt>
      <trkpt lat="46.56795" lon="5.30833">
        <ele>200.4</ele>
        <time>2021-11-27T12:13:30Z</time>
      </trkpt>
      <trkpt lat="46.568" lon="5.30856">
        <ele>199.8</ele>
        <time>2021-11-27T12:13:32Z</time>
      </trkpt>
      <trkpt lat="46.56805" lon="5.3089">
        <ele>199.2</ele>
        <time>2021-11-27T12:13:35Z</time>
      </trkpt>
      <trkpt lat="46.56809" lon="5.30947">
        <ele>198.8</ele>
        <time>2021-11-27T12:13:40Z</time>
      </trkpt>
      <trkpt lat="46.56806" lon="5.31012">
        <ele>198.4</ele>
        <time>2021-11-27T12:13:46Z</time>
      </trkpt>
      <trkpt lat="46.56807" lon="5.31051">
        <ele>198.6</ele>
        <time>2021-11-27T12:13:50Z</time>
      </trkpt>
      <trkpt lat="46.56808" lon="5.31061">
        <ele>198.6</ele>
        <time>2021-11-27T12:13:51Z</time>
      </trkpt>
      <trkpt lat="46.5681" lon="5.3107">
        <ele>198.6</ele>
        <time>2021-11-27T12:13:52Z</time>
      </trkpt>
      <trkpt lat="46.56823" lon="5.31105">
        <ele>199.2</ele>
        <time>2021-11-27T12:13:56Z</time>
      </trkpt>
      <trkpt lat="46.56843" lon="5.31134">
        <ele>199.6</ele>
        <time>2021-11-27T12:14:00Z</time>
      </trkpt>
      <trkpt lat="46.56848" lon="5.3114">
        <ele>199.6</ele>
        <time>2021-11-27T12:14:01Z</time>
      </trkpt>
      <trkpt lat="46.56867" lon="5.31153">
        <ele>199.8</ele>
        <time>2021-11-27T12:14:04Z</time>
      </trkpt>
      <trkpt lat="46.5688" lon="5.31158">
        <ele>200</ele>
        <time>2021-11-27T12:14:06Z</time>
      </trkpt>
      <trkpt lat="46.56893" lon="5.3116">
        <ele>200.2</ele>
        <time>2021-11-27T12:14:08Z</time>
      </trkpt>
      <trkpt lat="46.56919" lon="5.31163">
        <ele>200.6</ele>
        <time>2021-11-27T12:14:12Z</time>
      </trkpt>
      <trkpt lat="46.56933" lon="5.31168">
        <ele>200.8</ele>
        <time>2021-11-27T12:14:14Z</time>
      </trkpt>
      <trkpt lat="46.56949" lon="5.31179">
        <ele>200.8</ele>
        <time>2021-11-27T12:14:17Z</time>
      </trkpt>
      <trkpt lat="46.56977" lon="5.31204">
        <ele>201.4</ele>
        <time>2021-11-27T12:14:22Z</time>
      </trkpt>
      <trkpt lat="46.56989" lon="5.31214">
        <ele>201.6</ele>
        <time>2021-11-27T12:14:24Z</time>
      </trkpt>
      <trkpt lat="46.5704" lon="5.3126">
        <ele>202</ele>
        <time>2021-11-27T12:14:33Z</time>
      </trkpt>
      <trkpt lat="46.57057" lon="5.31276">
        <ele>202.4</ele>
        <time>2021-11-27T12:14:36Z</time>
      </trkpt>
      <trkpt lat="46.57063" lon="5.31281">
        <ele>202.4</ele>
        <time>2021-11-27T12:14:37Z</time>
      </trkpt>
      <trkpt lat="46.57093" lon="5.31297">
        <ele>202.6</ele>
        <time>2021-11-27T12:14:42Z</time>
      </trkpt>
      <trkpt lat="46.57124" lon="5.313">
        <ele>203</ele>
        <time>2021-11-27T12:14:47Z</time>
      </trkpt>
      <trkpt lat="46.57147" lon="5.313">
        <ele>203.6</ele>
        <time>2021-11-27T12:14:51Z</time>
      </trkpt>
      <trkpt lat="46.57165" lon="5.31304">
        <ele>204.2</ele>
        <time>2021-11-27T12:14:54Z</time>
      </trkpt>
      <trkpt lat="46.5717" lon="5.31307">
        <ele>204.4</ele>
        <time>2021-11-27T12:14:55Z</time>
      </trkpt>
      <trkpt lat="46.57176" lon="5.3131">
        <ele>204.8</ele>
        <time>2021-11-27T12:14:56Z</time>
      </trkpt>
      <trkpt lat="46.57181" lon="5.31315">
        <ele>204.8</ele>
        <time>2021-11-27T12:14:57Z</time>
      </trkpt>
      <trkpt lat="46.57185" lon="5.3132">
        <ele>205.2</ele>
        <time>2021-11-27T12:14:58Z</time>
      </trkpt>
      <trkpt lat="46.57199" lon="5.31336">
        <ele>206</ele>
        <time>2021-11-27T12:15:01Z</time>
      </trkpt>
      <trkpt lat="46.57215" lon="5.31362">
        <ele>206.8</ele>
        <time>2021-11-27T12:15:05Z</time>
      </trkpt>
      <trkpt lat="46.57219" lon="5.31369">
        <ele>207</ele>
        <time>2021-11-27T12:15:06Z</time>
      </trkpt>
      <trkpt lat="46.57229" lon="5.31403">
        <ele>207.6</ele>
        <time>2021-11-27T12:15:10Z</time>
      </trkpt>
      <trkpt lat="46.57241" lon="5.31446">
        <ele>208</ele>
        <time>2021-11-27T12:15:15Z</time>
      </trkpt>
      <trkpt lat="46.57247" lon="5.31462">
        <ele>208.6</ele>
        <time>2021-11-27T12:15:17Z</time>
      </trkpt>
      <trkpt lat="46.57263" lon="5.3149">
        <ele>209</ele>
        <time>2021-11-27T12:15:21Z</time>
      </trkpt>
      <trkpt lat="46.57272" lon="5.31504">
        <ele>209.2</ele>
        <time>2021-11-27T12:15:23Z</time>
      </trkpt>
      <trkpt lat="46.57311" lon="5.31567">
        <ele>209.4</ele>
        <time>2021-11-27T12:15:32Z</time>
      </trkpt>
      <trkpt lat="46.57316" lon="5.31574">
        <ele>209.6</ele>
        <time>2021-11-27T12:15:33Z</time>
      </trkpt>
      <trkpt lat="46.57343" lon="5.31607">
        <ele>209.8</ele>
        <time>2021-11-27T12:15:38Z</time>
      </trkpt>
      <trkpt lat="46.5735" lon="5.31611">
        <ele>209.8</ele>
        <time>2021-11-27T12:15:39Z</time>
      </trkpt>
      <trkpt lat="46.57364" lon="5.31617">
        <ele>209.8</ele>
        <time>2021-11-27T12:15:41Z</time>
      </trkpt>
      <trkpt lat="46.57379" lon="5.31619">
        <ele>209.6</ele>
        <time>2021-11-27T12:15:43Z</time>
      </trkpt>
      <trkpt lat="46.57433" lon="5.31618">
        <ele>209.4</ele>
        <time>2021-11-27T12:15:50Z</time>
      </trkpt>
      <trkpt lat="46.57441" lon="5.31618">
        <ele>209.4</ele>
        <time>2021-11-27T12:15:51Z</time>
      </trkpt>
      <trkpt lat="46.57493" lon="5.31615">
        <ele>208.8</ele>
        <time>2021-11-27T12:15:58Z</time>
      </trkpt>
      <trkpt lat="46.57552" lon="5.31607">
        <ele>209</ele>
        <time>2021-11-27T12:16:06Z</time>
      </trkpt>
      <trkpt lat="46.57559" lon="5.31606">
        <ele>209</ele>
        <time>2021-11-27T12:16:07Z</time>
      </trkpt>
      <trkpt lat="46.57617" lon="5.31597">
        <ele>209.2</ele>
        <time>2021-11-27T12:16:15Z</time>
      </trkpt>
      <trkpt lat="46.57632" lon="5.31595">
        <ele>209.2</ele>
        <time>2021-11-27T12:16:17Z</time>
      </trkpt>
      <trkpt lat="46.57689" lon="5.31585">
        <ele>209.2</ele>
        <time>2021-11-27T12:16:25Z</time>
      </trkpt>
      <trkpt lat="46.57697" lon="5.31582">
        <ele>209</ele>
        <time>2021-11-27T12:16:26Z</time>
      </trkpt>
      <trkpt lat="46.57739" lon="5.31559">
        <ele>208.8</ele>
        <time>2021-11-27T12:16:32Z</time>
      </trkpt>
      <trkpt lat="46.57793" lon="5.31516">
        <ele>208.2</ele>
        <time>2021-11-27T12:16:40Z</time>
      </trkpt>
      <trkpt lat="46.57807" lon="5.31506">
        <ele>207.8</ele>
        <time>2021-11-27T12:16:42Z</time>
      </trkpt>
      <trkpt lat="46.57844" lon="5.31487">
        <ele>207</ele>
        <time>2021-11-27T12:16:47Z</time>
      </trkpt>
      <trkpt lat="46.57859" lon="5.31482">
        <ele>206.8</ele>
        <time>2021-11-27T12:16:49Z</time>
      </trkpt>
      <trkpt lat="46.57889" lon="5.31474">
        <ele>206.6</ele>
        <time>2021-11-27T12:16:53Z</time>
      </trkpt>
      <trkpt lat="46.57943" lon="5.31457">
        <ele>206.4</ele>
        <time>2021-11-27T12:17:00Z</time>
      </trkpt>
      <trkpt lat="46.57959" lon="5.31452">
        <ele>206.4</ele>
        <time>2021-11-27T12:17:02Z</time>
      </trkpt>
      <trkpt lat="46.57998" lon="5.3144">
        <ele>205.8</ele>
        <time>2021-11-27T12:17:07Z</time>
      </trkpt>
      <trkpt lat="46.58029" lon="5.31432">
        <ele>205.2</ele>
        <time>2021-11-27T12:17:11Z</time>
      </trkpt>
      <trkpt lat="46.58067" lon="5.31431">
        <ele>205</ele>
        <time>2021-11-27T12:17:16Z</time>
      </trkpt>
      <trkpt lat="46.58125" lon="5.31434">
        <ele>205.2</ele>
        <time>2021-11-27T12:17:24Z</time>
      </trkpt>
      <trkpt lat="46.58139" lon="5.31429">
        <ele>205.2</ele>
        <time>2021-11-27T12:17:26Z</time>
      </trkpt>
      <trkpt lat="46.58152" lon="5.31421">
        <ele>205.4</ele>
        <time>2021-11-27T12:17:28Z</time>
      </trkpt>
      <trkpt lat="46.582" lon="5.31384">
        <ele>205</ele>
        <time>2021-11-27T12:17:35Z</time>
      </trkpt>
      <trkpt lat="46.58213" lon="5.31373">
        <ele>204.6</ele>
        <time>2021-11-27T12:17:37Z</time>
      </trkpt>
      <trkpt lat="46.58262" lon="5.31334">
        <ele>203.6</ele>
        <time>2021-11-27T12:17:44Z</time>
      </trkpt>
      <trkpt lat="46.58269" lon="5.31328">
        <ele>203.6</ele>
        <time>2021-11-27T12:17:45Z</time>
      </trkpt>
      <trkpt lat="46.58282" lon="5.31318">
        <ele>203.4</ele>
        <time>2021-11-27T12:17:47Z</time>
      </trkpt>
      <trkpt lat="46.58323" lon="5.31285">
        <ele>202.6</ele>
        <time>2021-11-27T12:17:53Z</time>
      </trkpt>
      <trkpt lat="46.58343" lon="5.31273">
        <ele>202</ele>
        <time>2021-11-27T12:17:56Z</time>
      </trkpt>
      <trkpt lat="46.58399" lon="5.31247">
        <ele>202</ele>
        <time>2021-11-27T12:18:04Z</time>
      </trkpt>
      <trkpt lat="46.58404" lon="5.31244">
        <ele>201.8</ele>
        <time>2021-11-27T12:18:05Z</time>
      </trkpt>
      <trkpt lat="46.5846" lon="5.31221">
        <ele>201.8</ele>
        <time>2021-11-27T12:18:13Z</time>
      </trkpt>
      <trkpt lat="46.58495" lon="5.31207">
        <ele>202</ele>
        <time>2021-11-27T12:18:18Z</time>
      </trkpt>
      <trkpt lat="46.58547" lon="5.31178">
        <ele>202.2</ele>
        <time>2021-11-27T12:18:26Z</time>
      </trkpt>
      <trkpt lat="46.58591" lon="5.31137">
        <ele>201.8</ele>
        <time>2021-11-27T12:18:33Z</time>
      </trkpt>
      <trkpt lat="46.5861" lon="5.31118">
        <ele>201.6</ele>
        <time>2021-11-27T12:18:36Z</time>
      </trkpt>
      <trkpt lat="46.58617" lon="5.31112">
        <ele>201.4</ele>
        <time>2021-11-27T12:18:37Z</time>
      </trkpt>
      <trkpt lat="46.58636" lon="5.31092">
        <ele>201</ele>
        <time>2021-11-27T12:18:40Z</time>
      </trkpt>
      <trkpt lat="46.5866" lon="5.31067">
        <ele>200.4</ele>
        <time>2021-11-27T12:18:44Z</time>
      </trkpt>
      <trkpt lat="46.58678" lon="5.31048">
        <ele>200.2</ele>
        <time>2021-11-27T12:18:47Z</time>
      </trkpt>
      <trkpt lat="46.58723" lon="5.31003">
        <ele>200.4</ele>
        <time>2021-11-27T12:18:55Z</time>
      </trkpt>
      <trkpt lat="46.58727" lon="5.30997">
        <ele>200.4</ele>
        <time>2021-11-27T12:18:56Z</time>
      </trkpt>
      <trkpt lat="46.58761" lon="5.3096">
        <ele>200.6</ele>
        <time>2021-11-27T12:19:03Z</time>
      </trkpt>
      <trkpt lat="46.58789" lon="5.30931">
        <ele>201.6</ele>
        <time>2021-11-27T12:19:09Z</time>
      </trkpt>
      <trkpt lat="46.58798" lon="5.30923">
        <ele>202.2</ele>
        <time>2021-11-27T12:19:11Z</time>
      </trkpt>
      <trkpt lat="46.58813" lon="5.30912">
        <ele>202.8</ele>
        <time>2021-11-27T12:19:14Z</time>
      </trkpt>
      <trkpt lat="46.58829" lon="5.30905">
        <ele>203.2</ele>
        <time>2021-11-27T12:19:17Z</time>
      </trkpt>
      <trkpt lat="46.58866" lon="5.30897">
        <ele>203.8</ele>
        <time>2021-11-27T12:19:23Z</time>
      </trkpt>
      <trkpt lat="46.58921" lon="5.3089">
        <ele>204.4</ele>
        <time>2021-11-27T12:19:31Z</time>
      </trkpt>
      <trkpt lat="46.58928" lon="5.30889">
        <ele>204.4</ele>
        <time>2021-11-27T12:19:32Z</time>
      </trkpt>
      <trkpt lat="46.58984" lon="5.30883">
        <ele>203.8</ele>
        <time>2021-11-27T12:19:40Z</time>
      </trkpt>
      <trkpt lat="46.58991" lon="5.30882">
        <ele>203.6</ele>
        <time>2021-11-27T12:19:41Z</time>
      </trkpt>
      <trkpt lat="46.59014" lon="5.30879">
        <ele>202.8</ele>
        <time>2021-11-27T12:19:44Z</time>
      </trkpt>
      <trkpt lat="46.59039" lon="5.30875">
        <ele>201.8</ele>
        <time>2021-11-27T12:19:47Z</time>
      </trkpt>
      <trkpt lat="46.59048" lon="5.30874">
        <ele>201.2</ele>
        <time>2021-11-27T12:19:48Z</time>
      </trkpt>
      <trkpt lat="46.59066" lon="5.30872">
        <ele>200.8</ele>
        <time>2021-11-27T12:19:50Z</time>
      </trkpt>
      <trkpt lat="46.59095" lon="5.30869">
        <ele>199.4</ele>
        <time>2021-11-27T12:19:53Z</time>
      </trkpt>
      <trkpt lat="46.59114" lon="5.30867">
        <ele>198.8</ele>
        <time>2021-11-27T12:19:55Z</time>
      </trkpt>
      <trkpt lat="46.59134" lon="5.30864">
        <ele>197.6</ele>
        <time>2021-11-27T12:19:57Z</time>
      </trkpt>
      <trkpt lat="46.59153" lon="5.30862">
        <ele>196.6</ele>
        <time>2021-11-27T12:19:59Z</time>
      </trkpt>
      <trkpt lat="46.59182" lon="5.30858">
        <ele>195.2</ele>
        <time>2021-11-27T12:20:02Z</time>
      </trkpt>
      <trkpt lat="46.59201" lon="5.30856">
        <ele>194</ele>
        <time>2021-11-27T12:20:04Z</time>
      </trkpt>
      <trkpt lat="46.5922" lon="5.30853">
        <ele>193</ele>
        <time>2021-11-27T12:20:06Z</time>
      </trkpt>
      <trkpt lat="46.59249" lon="5.3085">
        <ele>192</ele>
        <time>2021-11-27T12:20:09Z</time>
      </trkpt>
      <trkpt lat="46.59288" lon="5.30845">
        <ele>190.6</ele>
        <time>2021-11-27T12:20:13Z</time>
      </trkpt>
      <trkpt lat="46.59298" lon="5.30844">
        <ele>190.2</ele>
        <time>2021-11-27T12:20:14Z</time>
      </trkpt>
      <trkpt lat="46.59317" lon="5.30841">
        <ele>189.2</ele>
        <time>2021-11-27T12:20:16Z</time>
      </trkpt>
      <trkpt lat="46.59336" lon="5.30838">
        <ele>188</ele>
        <time>2021-11-27T12:20:18Z</time>
      </trkpt>
      <trkpt lat="46.59373" lon="5.30834">
        <ele>186.8</ele>
        <time>2021-11-27T12:20:22Z</time>
      </trkpt>
      <trkpt lat="46.5941" lon="5.30829">
        <ele>185.6</ele>
        <time>2021-11-27T12:20:26Z</time>
      </trkpt>
      <trkpt lat="46.59464" lon="5.30821">
        <ele>184.6</ele>
        <time>2021-11-27T12:20:32Z</time>
      </trkpt>
      <trkpt lat="46.59524" lon="5.30813">
        <ele>183.8</ele>
        <time>2021-11-27T12:20:39Z</time>
      </trkpt>
      <trkpt lat="46.59541" lon="5.30811">
        <ele>183.8</ele>
        <time>2021-11-27T12:20:41Z</time>
      </trkpt>
      <trkpt lat="46.59598" lon="5.30804">
        <ele>183.8</ele>
        <time>2021-11-27T12:20:48Z</time>
      </trkpt>
      <trkpt lat="46.59613" lon="5.30802">
        <ele>183.6</ele>
        <time>2021-11-27T12:20:50Z</time>
      </trkpt>
      <trkpt lat="46.59668" lon="5.30794">
        <ele>183.8</ele>
        <time>2021-11-27T12:20:57Z</time>
      </trkpt>
      <trkpt lat="46.59681" lon="5.30793">
        <ele>184</ele>
        <time>2021-11-27T12:20:59Z</time>
      </trkpt>
      <trkpt lat="46.59716" lon="5.3079">
        <ele>185.2</ele>
        <time>2021-11-27T12:21:05Z</time>
      </trkpt>
      <trkpt lat="46.59729" lon="5.30789">
        <ele>185.6</ele>
        <time>2021-11-27T12:21:07Z</time>
      </trkpt>
      <trkpt lat="46.59743" lon="5.30788">
        <ele>186.8</ele>
        <time>2021-11-27T12:21:10Z</time>
      </trkpt>
      <trkpt lat="46.59754" lon="5.30787">
        <ele>187.2</ele>
        <time>2021-11-27T12:21:12Z</time>
      </trkpt>
      <trkpt lat="46.59763" lon="5.30787">
        <ele>187.6</ele>
        <time>2021-11-27T12:21:14Z</time>
      </trkpt>
      <trkpt lat="46.59767" lon="5.30786">
        <ele>188</ele>
        <time>2021-11-27T12:21:15Z</time>
      </trkpt>
      <trkpt lat="46.59782" lon="5.30787">
        <ele>188.8</ele>
        <time>2021-11-27T12:21:18Z</time>
      </trkpt>
      <trkpt lat="46.59786" lon="5.30788">
        <ele>189.2</ele>
        <time>2021-11-27T12:21:19Z</time>
      </trkpt>
      <trkpt lat="46.59799" lon="5.30794">
        <ele>190</ele>
        <time>2021-11-27T12:21:22Z</time>
      </trkpt>
      <trkpt lat="46.59807" lon="5.30794">
        <ele>190.4</ele>
        <time>2021-11-27T12:21:24Z</time>
      </trkpt>
      <trkpt lat="46.59811" lon="5.30784">
        <ele>190.8</ele>
        <time>2021-11-27T12:21:26Z</time>
      </trkpt>
      <trkpt lat="46.59812" lon="5.30777">
        <ele>191</ele>
        <time>2021-11-27T12:21:27Z</time>
      </trkpt>
      <trkpt lat="46.59813" lon="5.3077">
        <ele>191.4</ele>
        <time>2021-11-27T12:21:28Z</time>
      </trkpt>
      <trkpt lat="46.59818" lon="5.30737">
        <ele>191.8</ele>
        <time>2021-11-27T12:21:32Z</time>
      </trkpt>
      <trkpt lat="46.59828" lon="5.30675">
        <ele>191.2</ele>
        <time>2021-11-27T12:21:39Z</time>
      </trkpt>
      <trkpt lat="46.59832" lon="5.30654">
        <ele>190.8</ele>
        <time>2021-11-27T12:21:41Z</time>
      </trkpt>
      <trkpt lat="46.59837" lon="5.30637">
        <ele>190.6</ele>
        <time>2021-11-27T12:21:43Z</time>
      </trkpt>
      <trkpt lat="46.59841" lon="5.30629">
        <ele>190.4</ele>
        <time>2021-11-27T12:21:44Z</time>
      </trkpt>
      <trkpt lat="46.5985" lon="5.30609">
        <ele>190</ele>
        <time>2021-11-27T12:21:46Z</time>
      </trkpt>
      <trkpt lat="46.59852" lon="5.30599">
        <ele>189.8</ele>
        <time>2021-11-27T12:21:47Z</time>
      </trkpt>
      <trkpt lat="46.59853" lon="5.30589">
        <ele>189.6</ele>
        <time>2021-11-27T12:21:48Z</time>
      </trkpt>
      <trkpt lat="46.59853" lon="5.30581">
        <ele>189.2</ele>
        <time>2021-11-27T12:21:49Z</time>
      </trkpt>
      <trkpt lat="46.59851" lon="5.30571">
        <ele>189</ele>
        <time>2021-11-27T12:21:50Z</time>
      </trkpt>
      <trkpt lat="46.59844" lon="5.30538">
        <ele>188.2</ele>
        <time>2021-11-27T12:21:53Z</time>
      </trkpt>
      <trkpt lat="46.59838" lon="5.30518">
        <ele>187.6</ele>
        <time>2021-11-27T12:21:55Z</time>
      </trkpt>
      <trkpt lat="46.59835" lon="5.30508">
        <ele>187</ele>
        <time>2021-11-27T12:21:56Z</time>
      </trkpt>
      <trkpt lat="46.59829" lon="5.30488">
        <ele>185.8</ele>
        <time>2021-11-27T12:21:58Z</time>
      </trkpt>
      <trkpt lat="46.59823" lon="5.3047">
        <ele>184.6</ele>
        <time>2021-11-27T12:22:00Z</time>
      </trkpt>
      <trkpt lat="46.59814" lon="5.30438">
        <ele>183.6</ele>
        <time>2021-11-27T12:22:03Z</time>
      </trkpt>
      <trkpt lat="46.59811" lon="5.30428">
        <ele>182.8</ele>
        <time>2021-11-27T12:22:04Z</time>
      </trkpt>
      <trkpt lat="46.59808" lon="5.30419">
        <ele>182.2</ele>
        <time>2021-11-27T12:22:05Z</time>
      </trkpt>
      <trkpt lat="46.59787" lon="5.30378">
        <ele>181.4</ele>
        <time>2021-11-27T12:22:10Z</time>
      </trkpt>
      <trkpt lat="46.59778" lon="5.30363">
        <ele>181.2</ele>
        <time>2021-11-27T12:22:12Z</time>
      </trkpt>
      <trkpt lat="46.59759" lon="5.30322">
        <ele>181</ele>
        <time>2021-11-27T12:22:17Z</time>
      </trkpt>
      <trkpt lat="46.59754" lon="5.30304">
        <ele>181</ele>
        <time>2021-11-27T12:22:19Z</time>
      </trkpt>
      <trkpt lat="46.59751" lon="5.30285">
        <ele>181</ele>
        <time>2021-11-27T12:22:21Z</time>
      </trkpt>
      <trkpt lat="46.5975" lon="5.30276">
        <ele>181</ele>
        <time>2021-11-27T12:22:22Z</time>
      </trkpt>
      <trkpt lat="46.59753" lon="5.3023">
        <ele>181</ele>
        <time>2021-11-27T12:22:27Z</time>
      </trkpt>
      <trkpt lat="46.59767" lon="5.30171">
        <ele>181.6</ele>
        <time>2021-11-27T12:22:34Z</time>
      </trkpt>
      <trkpt lat="46.59773" lon="5.30146">
        <ele>181.6</ele>
        <time>2021-11-27T12:22:37Z</time>
      </trkpt>
      <trkpt lat="46.59781" lon="5.30095">
        <ele>181.6</ele>
        <time>2021-11-27T12:22:43Z</time>
      </trkpt>
      <trkpt lat="46.59787" lon="5.30038">
        <ele>181.6</ele>
        <time>2021-11-27T12:22:50Z</time>
      </trkpt>
      <trkpt lat="46.59792" lon="5.29986">
        <ele>181.6</ele>
        <time>2021-11-27T12:22:57Z</time>
      </trkpt>
      <trkpt lat="46.59794" lon="5.29953">
        <ele>182.4</ele>
        <time>2021-11-27T12:23:02Z</time>
      </trkpt>
      <trkpt lat="46.59795" lon="5.29939">
        <ele>182.6</ele>
        <time>2021-11-27T12:23:04Z</time>
      </trkpt>
      <trkpt lat="46.59801" lon="5.29889">
        <ele>183.4</ele>
        <time>2021-11-27T12:23:10Z</time>
      </trkpt>
      <trkpt lat="46.59816" lon="5.29828">
        <ele>183</ele>
        <time>2021-11-27T12:23:17Z</time>
      </trkpt>
      <trkpt lat="46.59836" lon="5.29756">
        <ele>182.8</ele>
        <time>2021-11-27T12:23:26Z</time>
      </trkpt>
      <trkpt lat="46.59849" lon="5.29705">
        <ele>183.2</ele>
        <time>2021-11-27T12:23:33Z</time>
      </trkpt>
      <trkpt lat="46.5985" lon="5.29698">
        <ele>183.4</ele>
        <time>2021-11-27T12:23:34Z</time>
      </trkpt>
      <trkpt lat="46.59856" lon="5.29663">
        <ele>184.6</ele>
        <time>2021-11-27T12:23:40Z</time>
      </trkpt>
      <trkpt lat="46.59857" lon="5.29657">
        <ele>184.8</ele>
        <time>2021-11-27T12:23:41Z</time>
      </trkpt>
      <trkpt lat="46.59858" lon="5.29645">
        <ele>185.6</ele>
        <time>2021-11-27T12:23:43Z</time>
      </trkpt>
      <trkpt lat="46.59858" lon="5.29617">
        <ele>186.6</ele>
        <time>2021-11-27T12:23:48Z</time>
      </trkpt>
      <trkpt lat="46.59858" lon="5.29611">
        <ele>186.8</ele>
        <time>2021-11-27T12:23:49Z</time>
      </trkpt>
      <trkpt lat="46.59856" lon="5.29585">
        <ele>187.6</ele>
        <time>2021-11-27T12:23:54Z</time>
      </trkpt>
      <trkpt lat="46.59855" lon="5.29575">
        <ele>187.8</ele>
        <time>2021-11-27T12:23:56Z</time>
      </trkpt>
      <trkpt lat="46.59853" lon="5.29546">
        <ele>189</ele>
        <time>2021-11-27T12:24:01Z</time>
      </trkpt>
      <trkpt lat="46.59851" lon="5.29533">
        <ele>189.4</ele>
        <time>2021-11-27T12:24:03Z</time>
      </trkpt>
      <trkpt lat="46.59848" lon="5.29507">
        <ele>190.2</ele>
        <time>2021-11-27T12:24:07Z</time>
      </trkpt>
      <trkpt lat="46.59845" lon="5.2947">
        <ele>190.8</ele>
        <time>2021-11-27T12:24:13Z</time>
      </trkpt>
      <trkpt lat="46.59844" lon="5.29458">
        <ele>191.2</ele>
        <time>2021-11-27T12:24:15Z</time>
      </trkpt>
      <trkpt lat="46.59839" lon="5.29408">
        <ele>191.8</ele>
        <time>2021-11-27T12:24:23Z</time>
      </trkpt>
      <trkpt lat="46.59836" lon="5.29377">
        <ele>192.2</ele>
        <time>2021-11-27T12:24:28Z</time>
      </trkpt>
      <trkpt lat="46.59832" lon="5.29345">
        <ele>192.8</ele>
        <time>2021-11-27T12:24:33Z</time>
      </trkpt>
      <trkpt lat="46.59831" lon="5.29313">
        <ele>193.4</ele>
        <time>2021-11-27T12:24:39Z</time>
      </trkpt>
      <trkpt lat="46.59843" lon="5.29297">
        <ele>194.4</ele>
        <time>2021-11-27T12:24:44Z</time>
      </trkpt>
      <trkpt lat="46.59855" lon="5.29284">
        <ele>195.4</ele>
        <time>2021-11-27T12:24:48Z</time>
      </trkpt>
      <trkpt lat="46.59867" lon="5.29272">
        <ele>196.6</ele>
        <time>2021-11-27T12:24:52Z</time>
      </trkpt>
      <trkpt lat="46.59873" lon="5.29264">
        <ele>197.2</ele>
        <time>2021-11-27T12:24:54Z</time>
      </trkpt>
      <trkpt lat="46.59883" lon="5.29253">
        <ele>197.8</ele>
        <time>2021-11-27T12:24:57Z</time>
      </trkpt>
      <trkpt lat="46.59893" lon="5.29241">
        <ele>198.6</ele>
        <time>2021-11-27T12:25:00Z</time>
      </trkpt>
      <trkpt lat="46.599" lon="5.29233">
        <ele>198.8</ele>
        <time>2021-11-27T12:25:02Z</time>
      </trkpt>
      <trkpt lat="46.59926" lon="5.29203">
        <ele>200</ele>
        <time>2021-11-27T12:25:09Z</time>
      </trkpt>
      <trkpt lat="46.5993" lon="5.29198">
        <ele>200</ele>
        <time>2021-11-27T12:25:10Z</time>
      </trkpt>
      <trkpt lat="46.59961" lon="5.29161">
        <ele>200.8</ele>
        <time>2021-11-27T12:25:18Z</time>
      </trkpt>
      <trkpt lat="46.59977" lon="5.29143">
        <ele>201.2</ele>
        <time>2021-11-27T12:25:22Z</time>
      </trkpt>
      <trkpt lat="46.59995" lon="5.29129">
        <ele>201.8</ele>
        <time>2021-11-27T12:25:26Z</time>
      </trkpt>
      <trkpt lat="46.60006" lon="5.29125">
        <ele>202</ele>
        <time>2021-11-27T12:25:28Z</time>
      </trkpt>
      <trkpt lat="46.60021" lon="5.29125">
        <ele>202.2</ele>
        <time>2021-11-27T12:25:31Z</time>
      </trkpt>
      <trkpt lat="46.60056" lon="5.2914">
        <ele>201.8</ele>
        <time>2021-11-27T12:25:37Z</time>
      </trkpt>
      <trkpt lat="46.60098" lon="5.29162">
        <ele>201.8</ele>
        <time>2021-11-27T12:25:44Z</time>
      </trkpt>
      <trkpt lat="46.60116" lon="5.29171">
        <ele>201.6</ele>
        <time>2021-11-27T12:25:47Z</time>
      </trkpt>
      <trkpt lat="46.60126" lon="5.29177">
        <ele>201.6</ele>
        <time>2021-11-27T12:25:49Z</time>
      </trkpt>
      <trkpt lat="46.6017" lon="5.29203">
        <ele>201.4</ele>
        <time>2021-11-27T12:25:56Z</time>
      </trkpt>
      <trkpt lat="46.60183" lon="5.29207">
        <ele>201.2</ele>
        <time>2021-11-27T12:25:58Z</time>
      </trkpt>
      <trkpt lat="46.60211" lon="5.29212">
        <ele>200.8</ele>
        <time>2021-11-27T12:26:02Z</time>
      </trkpt>
      <trkpt lat="46.60261" lon="5.29223">
        <ele>200.4</ele>
        <time>2021-11-27T12:26:09Z</time>
      </trkpt>
      <trkpt lat="46.60282" lon="5.29229">
        <ele>200</ele>
        <time>2021-11-27T12:26:12Z</time>
      </trkpt>
      <trkpt lat="46.6031" lon="5.29234">
        <ele>199.4</ele>
        <time>2021-11-27T12:26:16Z</time>
      </trkpt>
      <trkpt lat="46.60325" lon="5.29238">
        <ele>198.8</ele>
        <time>2021-11-27T12:26:18Z</time>
      </trkpt>
      <trkpt lat="46.60361" lon="5.29249">
        <ele>198.2</ele>
        <time>2021-11-27T12:26:23Z</time>
      </trkpt>
      <trkpt lat="46.60373" lon="5.29254">
        <ele>198</ele>
        <time>2021-11-27T12:26:25Z</time>
      </trkpt>
      <trkpt lat="46.60387" lon="5.29254">
        <ele>198</ele>
        <time>2021-11-27T12:26:27Z</time>
      </trkpt>
      <trkpt lat="46.60395" lon="5.29251">
        <ele>197.8</ele>
        <time>2021-11-27T12:26:28Z</time>
      </trkpt>
      <trkpt lat="46.60408" lon="5.29242">
        <ele>197.6</ele>
        <time>2021-11-27T12:26:30Z</time>
      </trkpt>
      <trkpt lat="46.60439" lon="5.29222">
        <ele>196.6</ele>
        <time>2021-11-27T12:26:34Z</time>
      </trkpt>
      <trkpt lat="46.60454" lon="5.29213">
        <ele>195.6</ele>
        <time>2021-11-27T12:26:36Z</time>
      </trkpt>
      <trkpt lat="46.60472" lon="5.29201">
        <ele>194</ele>
        <time>2021-11-27T12:26:38Z</time>
      </trkpt>
      <trkpt lat="46.60494" lon="5.29182">
        <ele>192.8</ele>
        <time>2021-11-27T12:26:41Z</time>
      </trkpt>
      <trkpt lat="46.60506" lon="5.29159">
        <ele>192</ele>
        <time>2021-11-27T12:26:43Z</time>
      </trkpt>
      <trkpt lat="46.6051" lon="5.29147">
        <ele>191.2</ele>
        <time>2021-11-27T12:26:44Z</time>
      </trkpt>
      <trkpt lat="46.60516" lon="5.29124">
        <ele>189.6</ele>
        <time>2021-11-27T12:26:46Z</time>
      </trkpt>
      <trkpt lat="46.60521" lon="5.29096">
        <ele>188.2</ele>
        <time>2021-11-27T12:26:48Z</time>
      </trkpt>
      <trkpt lat="46.60527" lon="5.29069">
        <ele>187</ele>
        <time>2021-11-27T12:26:50Z</time>
      </trkpt>
      <trkpt lat="46.60529" lon="5.29059">
        <ele>186.6</ele>
        <time>2021-11-27T12:26:51Z</time>
      </trkpt>
      <trkpt lat="46.60537" lon="5.29018">
        <ele>185.8</ele>
        <time>2021-11-27T12:26:54Z</time>
      </trkpt>
      <trkpt lat="46.60546" lon="5.28971">
        <ele>184.4</ele>
        <time>2021-11-27T12:26:58Z</time>
      </trkpt>
      <trkpt lat="46.60551" lon="5.28946">
        <ele>184</ele>
        <time>2021-11-27T12:27:00Z</time>
      </trkpt>
      <trkpt lat="46.60554" lon="5.28925">
        <ele>183.4</ele>
        <time>2021-11-27T12:27:02Z</time>
      </trkpt>
      <trkpt lat="46.60566" lon="5.28868">
        <ele>182.4</ele>
        <time>2021-11-27T12:27:07Z</time>
      </trkpt>
      <trkpt lat="46.60568" lon="5.28857">
        <ele>182.2</ele>
        <time>2021-11-27T12:27:08Z</time>
      </trkpt>
      <trkpt lat="46.60589" lon="5.28785">
        <ele>181.6</ele>
        <time>2021-11-27T12:27:15Z</time>
      </trkpt>
      <trkpt lat="46.60614" lon="5.28716">
        <ele>181.6</ele>
        <time>2021-11-27T12:27:23Z</time>
      </trkpt>
      <trkpt lat="46.60639" lon="5.2865">
        <ele>181.4</ele>
        <time>2021-11-27T12:27:31Z</time>
      </trkpt>
      <trkpt lat="46.60666" lon="5.28573">
        <ele>182</ele>
        <time>2021-11-27T12:27:41Z</time>
      </trkpt>
      <trkpt lat="46.60686" lon="5.28516">
        <ele>182.2</ele>
        <time>2021-11-27T12:27:49Z</time>
      </trkpt>
      <trkpt lat="46.607" lon="5.28469">
        <ele>183.2</ele>
        <time>2021-11-27T12:27:56Z</time>
      </trkpt>
      <trkpt lat="46.60703" lon="5.28458">
        <ele>183.6</ele>
        <time>2021-11-27T12:27:58Z</time>
      </trkpt>
      <trkpt lat="46.60707" lon="5.2844">
        <ele>184.2</ele>
        <time>2021-11-27T12:28:01Z</time>
      </trkpt>
      <trkpt lat="46.60713" lon="5.28418">
        <ele>184.6</ele>
        <time>2021-11-27T12:28:05Z</time>
      </trkpt>
      <trkpt lat="46.60718" lon="5.28402">
        <ele>185.4</ele>
        <time>2021-11-27T12:28:08Z</time>
      </trkpt>
      <trkpt lat="46.6072" lon="5.28392">
        <ele>185.8</ele>
        <time>2021-11-27T12:28:10Z</time>
      </trkpt>
      <trkpt lat="46.60726" lon="5.28366">
        <ele>186.8</ele>
        <time>2021-11-27T12:28:15Z</time>
      </trkpt>
      <trkpt lat="46.60729" lon="5.28356">
        <ele>187</ele>
        <time>2021-11-27T12:28:17Z</time>
      </trkpt>
      <trkpt lat="46.60733" lon="5.28343">
        <ele>187.6</ele>
        <time>2021-11-27T12:28:20Z</time>
      </trkpt>
      <trkpt lat="46.60734" lon="5.28331">
        <ele>188.2</ele>
        <time>2021-11-27T12:28:22Z</time>
      </trkpt>
      <trkpt lat="46.60735" lon="5.28311">
        <ele>189.2</ele>
        <time>2021-11-27T12:28:26Z</time>
      </trkpt>
      <trkpt lat="46.60734" lon="5.28293">
        <ele>190.2</ele>
        <time>2021-11-27T12:28:29Z</time>
      </trkpt>
      <trkpt lat="46.60734" lon="5.28288">
        <ele>190.4</ele>
        <time>2021-11-27T12:28:30Z</time>
      </trkpt>
      <trkpt lat="46.60728" lon="5.28255">
        <ele>191.6</ele>
        <time>2021-11-27T12:28:36Z</time>
      </trkpt>
      <trkpt lat="46.60727" lon="5.28249">
        <ele>191.8</ele>
        <time>2021-11-27T12:28:37Z</time>
      </trkpt>
      <trkpt lat="46.60725" lon="5.28235">
        <ele>192.8</ele>
        <time>2021-11-27T12:28:40Z</time>
      </trkpt>
      <trkpt lat="46.60722" lon="5.28215">
        <ele>194</ele>
        <time>2021-11-27T12:28:44Z</time>
      </trkpt>
      <trkpt lat="46.60721" lon="5.28211">
        <ele>194.6</ele>
        <time>2021-11-27T12:28:45Z</time>
      </trkpt>
      <trkpt lat="46.60717" lon="5.28192">
        <ele>195.2</ele>
        <time>2021-11-27T12:28:49Z</time>
      </trkpt>
      <trkpt lat="46.60713" lon="5.28166">
        <ele>196.4</ele>
        <time>2021-11-27T12:28:54Z</time>
      </trkpt>
      <trkpt lat="46.60714" lon="5.2813">
        <ele>197</ele>
        <time>2021-11-27T12:29:01Z</time>
      </trkpt>
      <trkpt lat="46.60719" lon="5.28109">
        <ele>197.6</ele>
        <time>2021-11-27T12:29:05Z</time>
      </trkpt>
      <trkpt lat="46.60724" lon="5.28095">
        <ele>198</ele>
        <time>2021-11-27T12:29:08Z</time>
      </trkpt>
      <trkpt lat="46.60732" lon="5.28079">
        <ele>198.2</ele>
        <time>2021-11-27T12:29:11Z</time>
      </trkpt>
      <trkpt lat="46.60738" lon="5.2807">
        <ele>198.4</ele>
        <time>2021-11-27T12:29:13Z</time>
      </trkpt>
      <trkpt lat="46.60764" lon="5.28043">
        <ele>198.4</ele>
        <time>2021-11-27T12:29:19Z</time>
      </trkpt>
      <trkpt lat="46.60775" lon="5.28036">
        <ele>198.4</ele>
        <time>2021-11-27T12:29:21Z</time>
      </trkpt>
      <trkpt lat="46.60787" lon="5.28031">
        <ele>198.4</ele>
        <time>2021-11-27T12:29:23Z</time>
      </trkpt>
      <trkpt lat="46.60834" lon="5.28007">
        <ele>197.4</ele>
        <time>2021-11-27T12:29:30Z</time>
      </trkpt>
      <trkpt lat="46.60852" lon="5.27996">
        <ele>196.6</ele>
        <time>2021-11-27T12:29:33Z</time>
      </trkpt>
      <trkpt lat="46.60871" lon="5.27981">
        <ele>195.6</ele>
        <time>2021-11-27T12:29:36Z</time>
      </trkpt>
      <trkpt lat="46.60877" lon="5.27977">
        <ele>195</ele>
        <time>2021-11-27T12:29:37Z</time>
      </trkpt>
      <trkpt lat="46.60909" lon="5.27954">
        <ele>193.8</ele>
        <time>2021-11-27T12:29:42Z</time>
      </trkpt>
      <trkpt lat="46.6092" lon="5.27945">
        <ele>193.8</ele>
        <time>2021-11-27T12:29:44Z</time>
      </trkpt>
      <trkpt lat="46.60947" lon="5.27909">
        <ele>193</ele>
        <time>2021-11-27T12:29:49Z</time>
      </trkpt>
      <trkpt lat="46.60951" lon="5.27901">
        <ele>192.8</ele>
        <time>2021-11-27T12:29:50Z</time>
      </trkpt>
      <trkpt lat="46.60977" lon="5.27849">
        <ele>191.8</ele>
        <time>2021-11-27T12:29:56Z</time>
      </trkpt>
      <trkpt lat="46.61002" lon="5.27803">
        <ele>190.6</ele>
        <time>2021-11-27T12:30:02Z</time>
      </trkpt>
      <trkpt lat="46.61015" lon="5.27779">
        <ele>190.4</ele>
        <time>2021-11-27T12:30:05Z</time>
      </trkpt>
      <trkpt lat="46.61031" lon="5.27752">
        <ele>189.4</ele>
        <time>2021-11-27T12:30:08Z</time>
      </trkpt>
      <trkpt lat="46.6104" lon="5.27735">
        <ele>188.8</ele>
        <time>2021-11-27T12:30:10Z</time>
      </trkpt>
      <trkpt lat="46.61044" lon="5.27724">
        <ele>188</ele>
        <time>2021-11-27T12:30:11Z</time>
      </trkpt>
      <trkpt lat="46.61057" lon="5.27689">
        <ele>187</ele>
        <time>2021-11-27T12:30:14Z</time>
      </trkpt>
      <trkpt lat="46.61065" lon="5.2767">
        <ele>186</ele>
        <time>2021-11-27T12:30:16Z</time>
      </trkpt>
      <trkpt lat="46.61076" lon="5.27649">
        <ele>185</ele>
        <time>2021-11-27T12:30:18Z</time>
      </trkpt>
      <trkpt lat="46.6108" lon="5.27641">
        <ele>184.8</ele>
        <time>2021-11-27T12:30:19Z</time>
      </trkpt>
      <trkpt lat="46.61093" lon="5.27612">
        <ele>183.6</ele>
        <time>2021-11-27T12:30:22Z</time>
      </trkpt>
      <trkpt lat="46.61097" lon="5.276">
        <ele>183.4</ele>
        <time>2021-11-27T12:30:23Z</time>
      </trkpt>
      <trkpt lat="46.61106" lon="5.27572">
        <ele>182.8</ele>
        <time>2021-11-27T12:30:26Z</time>
      </trkpt>
      <trkpt lat="46.61108" lon="5.27548">
        <ele>182.6</ele>
        <time>2021-11-27T12:30:28Z</time>
      </trkpt>
      <trkpt lat="46.61102" lon="5.27519">
        <ele>182.2</ele>
        <time>2021-11-27T12:30:31Z</time>
      </trkpt>
      <trkpt lat="46.61101" lon="5.27508">
        <ele>182</ele>
        <time>2021-11-27T12:30:32Z</time>
      </trkpt>
      <trkpt lat="46.611" lon="5.27485">
        <ele>181.2</ele>
        <time>2021-11-27T12:30:34Z</time>
      </trkpt>
      <trkpt lat="46.61101" lon="5.27474">
        <ele>181</ele>
        <time>2021-11-27T12:30:35Z</time>
      </trkpt>
      <trkpt lat="46.61104" lon="5.27444">
        <ele>180</ele>
        <time>2021-11-27T12:30:38Z</time>
      </trkpt>
      <trkpt lat="46.61108" lon="5.27424">
        <ele>179.6</ele>
        <time>2021-11-27T12:30:40Z</time>
      </trkpt>
      <trkpt lat="46.61129" lon="5.2736">
        <ele>179.2</ele>
        <time>2021-11-27T12:30:47Z</time>
      </trkpt>
      <trkpt lat="46.61144" lon="5.27303">
        <ele>179.4</ele>
        <time>2021-11-27T12:30:53Z</time>
      </trkpt>
      <trkpt lat="46.61147" lon="5.27273">
        <ele>179.4</ele>
        <time>2021-11-27T12:30:56Z</time>
      </trkpt>
      <trkpt lat="46.61151" lon="5.27241">
        <ele>179.4</ele>
        <time>2021-11-27T12:30:59Z</time>
      </trkpt>
      <trkpt lat="46.61156" lon="5.27215">
        <ele>179.2</ele>
        <time>2021-11-27T12:31:02Z</time>
      </trkpt>
      <trkpt lat="46.6116" lon="5.27206">
        <ele>179</ele>
        <time>2021-11-27T12:31:03Z</time>
      </trkpt>
      <trkpt lat="46.6117" lon="5.2719">
        <ele>178.8</ele>
        <time>2021-11-27T12:31:05Z</time>
      </trkpt>
      <trkpt lat="46.61184" lon="5.27169">
        <ele>178.8</ele>
        <time>2021-11-27T12:31:08Z</time>
      </trkpt>
      <trkpt lat="46.6121" lon="5.27125">
        <ele>178.8</ele>
        <time>2021-11-27T12:31:14Z</time>
      </trkpt>
      <trkpt lat="46.61223" lon="5.2709">
        <ele>179.2</ele>
        <time>2021-11-27T12:31:19Z</time>
      </trkpt>
      <trkpt lat="46.61223" lon="5.27083">
        <ele>179.2</ele>
        <time>2021-11-27T12:31:20Z</time>
      </trkpt>
      <trkpt lat="46.61222" lon="5.27077">
        <ele>179.2</ele>
        <time>2021-11-27T12:31:21Z</time>
      </trkpt>
      <trkpt lat="46.61216" lon="5.27062">
        <ele>179.4</ele>
        <time>2021-11-27T12:31:23Z</time>
      </trkpt>
      <trkpt lat="46.612" lon="5.27042">
        <ele>179.4</ele>
        <time>2021-11-27T12:31:26Z</time>
      </trkpt>
      <trkpt lat="46.61196" lon="5.27036">
        <ele>179.4</ele>
        <time>2021-11-27T12:31:27Z</time>
      </trkpt>
      <trkpt lat="46.61168" lon="5.26989">
        <ele>178</ele>
        <time>2021-11-27T12:31:33Z</time>
      </trkpt>
      <trkpt lat="46.61145" lon="5.26966">
        <ele>177.8</ele>
        <time>2021-11-27T12:31:37Z</time>
      </trkpt>
      <trkpt lat="46.61139" lon="5.26961">
        <ele>177.8</ele>
        <time>2021-11-27T12:31:38Z</time>
      </trkpt>
      <trkpt lat="46.61119" lon="5.26937">
        <ele>177.8</ele>
        <time>2021-11-27T12:31:42Z</time>
      </trkpt>
      <trkpt lat="46.6111" lon="5.26921">
        <ele>177.8</ele>
        <time>2021-11-27T12:31:44Z</time>
      </trkpt>
      <trkpt lat="46.61089" lon="5.26876">
        <ele>177.8</ele>
        <time>2021-11-27T12:31:50Z</time>
      </trkpt>
      <trkpt lat="46.61072" lon="5.26823">
        <ele>177.8</ele>
        <time>2021-11-27T12:31:57Z</time>
      </trkpt>
      <trkpt lat="46.61048" lon="5.26781">
        <ele>177.8</ele>
        <time>2021-11-27T12:32:03Z</time>
      </trkpt>
      <trkpt lat="46.6101" lon="5.2674">
        <ele>177.6</ele>
        <time>2021-11-27T12:32:11Z</time>
      </trkpt>
      <trkpt lat="46.60972" lon="5.26706">
        <ele>178.4</ele>
        <time>2021-11-27T12:32:19Z</time>
      </trkpt>
      <trkpt lat="46.60948" lon="5.26677">
        <ele>178.8</ele>
        <time>2021-11-27T12:32:25Z</time>
      </trkpt>
      <trkpt lat="46.60944" lon="5.26671">
        <ele>179</ele>
        <time>2021-11-27T12:32:26Z</time>
      </trkpt>
      <trkpt lat="46.60928" lon="5.26649">
        <ele>180</ele>
        <time>2021-11-27T12:32:31Z</time>
      </trkpt>
      <trkpt lat="46.60925" lon="5.26646">
        <ele>180.4</ele>
        <time>2021-11-27T12:32:32Z</time>
      </trkpt>
      <trkpt lat="46.60921" lon="5.26644">
        <ele>180.6</ele>
        <time>2021-11-27T12:32:33Z</time>
      </trkpt>
      <trkpt lat="46.60914" lon="5.26643">
        <ele>180.8</ele>
        <time>2021-11-27T12:32:35Z</time>
      </trkpt>
      <trkpt lat="46.60909" lon="5.26643">
        <ele>181.4</ele>
        <time>2021-11-27T12:32:36Z</time>
      </trkpt>
      <trkpt lat="46.60894" lon="5.26648">
        <ele>182.4</ele>
        <time>2021-11-27T12:32:40Z</time>
      </trkpt>
      <trkpt lat="46.60887" lon="5.2665">
        <ele>183.4</ele>
        <time>2021-11-27T12:32:42Z</time>
      </trkpt>
      <trkpt lat="46.60883" lon="5.2665">
        <ele>183.8</ele>
        <time>2021-11-27T12:32:43Z</time>
      </trkpt>
      <trkpt lat="46.60867" lon="5.26646">
        <ele>184.4</ele>
        <time>2021-11-27T12:32:47Z</time>
      </trkpt>
      <trkpt lat="46.60854" lon="5.26639">
        <ele>184.8</ele>
        <time>2021-11-27T12:32:50Z</time>
      </trkpt>
      <trkpt lat="46.60851" lon="5.26637">
        <ele>185</ele>
        <time>2021-11-27T12:32:51Z</time>
      </trkpt>
      <trkpt lat="46.60842" lon="5.26631">
        <ele>185.4</ele>
        <time>2021-11-27T12:32:53Z</time>
      </trkpt>
      <trkpt lat="46.60826" lon="5.26619">
        <ele>186</ele>
        <time>2021-11-27T12:32:57Z</time>
      </trkpt>
      <trkpt lat="46.60806" lon="5.26601">
        <ele>186</ele>
        <time>2021-11-27T12:33:01Z</time>
      </trkpt>
      <trkpt lat="46.60782" lon="5.26567">
        <ele>184.8</ele>
        <time>2021-11-27T12:33:06Z</time>
      </trkpt>
      <trkpt lat="46.60768" lon="5.2653">
        <ele>183.4</ele>
        <time>2021-11-27T12:33:10Z</time>
      </trkpt>
      <trkpt lat="46.60766" lon="5.26521">
        <ele>183</ele>
        <time>2021-11-27T12:33:11Z</time>
      </trkpt>
      <trkpt lat="46.60762" lon="5.26499">
        <ele>182.2</ele>
        <time>2021-11-27T12:33:13Z</time>
      </trkpt>
      <trkpt lat="46.60754" lon="5.26466">
        <ele>181</ele>
        <time>2021-11-27T12:33:16Z</time>
      </trkpt>
      <trkpt lat="46.60751" lon="5.26453">
        <ele>180.6</ele>
        <time>2021-11-27T12:33:17Z</time>
      </trkpt>
      <trkpt lat="46.60748" lon="5.26445">
        <ele>180.2</ele>
        <time>2021-11-27T12:33:18Z</time>
      </trkpt>
      <trkpt lat="46.60744" lon="5.26435">
        <ele>179.8</ele>
        <time>2021-11-27T12:33:19Z</time>
      </trkpt>
      <trkpt lat="46.60734" lon="5.26403">
        <ele>179.2</ele>
        <time>2021-11-27T12:33:22Z</time>
      </trkpt>
      <trkpt lat="46.60728" lon="5.26385">
        <ele>179</ele>
        <time>2021-11-27T12:33:24Z</time>
      </trkpt>
      <trkpt lat="46.60718" lon="5.26353">
        <ele>178.8</ele>
        <time>2021-11-27T12:33:27Z</time>
      </trkpt>
      <trkpt lat="46.60707" lon="5.26316">
        <ele>178.6</ele>
        <time>2021-11-27T12:33:31Z</time>
      </trkpt>
      <trkpt lat="46.60685" lon="5.26244">
        <ele>178.4</ele>
        <time>2021-11-27T12:33:39Z</time>
      </trkpt>
      <trkpt lat="46.60679" lon="5.26225">
        <ele>178.4</ele>
        <time>2021-11-27T12:33:41Z</time>
      </trkpt>
      <trkpt lat="46.60672" lon="5.26189">
        <ele>178.4</ele>
        <time>2021-11-27T12:33:45Z</time>
      </trkpt>
      <trkpt lat="46.60671" lon="5.26169">
        <ele>178.4</ele>
        <time>2021-11-27T12:33:47Z</time>
      </trkpt>
      <trkpt lat="46.6067" lon="5.26083">
        <ele>178.2</ele>
        <time>2021-11-27T12:33:56Z</time>
      </trkpt>
      <trkpt lat="46.60675" lon="5.26049">
        <ele>178.2</ele>
        <time>2021-11-27T12:34:00Z</time>
      </trkpt>
      <trkpt lat="46.60677" lon="5.26041">
        <ele>178.2</ele>
        <time>2021-11-27T12:34:01Z</time>
      </trkpt>
      <trkpt lat="46.60681" lon="5.26031">
        <ele>178.2</ele>
        <time>2021-11-27T12:34:02Z</time>
      </trkpt>
      <trkpt lat="46.60697" lon="5.25991">
        <ele>178.4</ele>
        <time>2021-11-27T12:34:07Z</time>
      </trkpt>
      <trkpt lat="46.6073" lon="5.25925">
        <ele>179.2</ele>
        <time>2021-11-27T12:34:16Z</time>
      </trkpt>
      <trkpt lat="46.60767" lon="5.25879">
        <ele>179.4</ele>
        <time>2021-11-27T12:34:24Z</time>
      </trkpt>
      <trkpt lat="46.60793" lon="5.25851">
        <ele>179.8</ele>
        <time>2021-11-27T12:34:29Z</time>
      </trkpt>
      <trkpt lat="46.60804" lon="5.25838">
        <ele>179.8</ele>
        <time>2021-11-27T12:34:31Z</time>
      </trkpt>
      <trkpt lat="46.60845" lon="5.25782">
        <ele>179.8</ele>
        <time>2021-11-27T12:34:40Z</time>
      </trkpt>
      <trkpt lat="46.60851" lon="5.25774">
        <ele>179.8</ele>
        <time>2021-11-27T12:34:41Z</time>
      </trkpt>
      <trkpt lat="46.6089" lon="5.2572">
        <ele>179.6</ele>
        <time>2021-11-27T12:34:49Z</time>
      </trkpt>
      <trkpt lat="46.60934" lon="5.25656">
        <ele>179.2</ele>
        <time>2021-11-27T12:34:58Z</time>
      </trkpt>
      <trkpt lat="46.60937" lon="5.2565">
        <ele>179.2</ele>
        <time>2021-11-27T12:34:59Z</time>
      </trkpt>
      <trkpt lat="46.60949" lon="5.25625">
        <ele>179.4</ele>
        <time>2021-11-27T12:35:02Z</time>
      </trkpt>
      <trkpt lat="46.60957" lon="5.25601">
        <ele>179.4</ele>
        <time>2021-11-27T12:35:05Z</time>
      </trkpt>
      <trkpt lat="46.60963" lon="5.25584">
        <ele>179.4</ele>
        <time>2021-11-27T12:35:07Z</time>
      </trkpt>
      <trkpt lat="46.60972" lon="5.25539">
        <ele>179.2</ele>
        <time>2021-11-27T12:35:12Z</time>
      </trkpt>
      <trkpt lat="46.60977" lon="5.255">
        <ele>179</ele>
        <time>2021-11-27T12:35:16Z</time>
      </trkpt>
      <trkpt lat="46.60977" lon="5.25482">
        <ele>179</ele>
        <time>2021-11-27T12:35:18Z</time>
      </trkpt>
      <trkpt lat="46.60976" lon="5.25466">
        <ele>179</ele>
        <time>2021-11-27T12:35:20Z</time>
      </trkpt>
      <trkpt lat="46.60971" lon="5.25438">
        <ele>178.8</ele>
        <time>2021-11-27T12:35:24Z</time>
      </trkpt>
      <trkpt lat="46.60966" lon="5.25397">
        <ele>178.8</ele>
        <time>2021-11-27T12:35:28Z</time>
      </trkpt>
      <trkpt lat="46.60967" lon="5.25381">
        <ele>179</ele>
        <time>2021-11-27T12:35:30Z</time>
      </trkpt>
      <trkpt lat="46.60979" lon="5.25333">
        <ele>179.4</ele>
        <time>2021-11-27T12:35:36Z</time>
      </trkpt>
      <trkpt lat="46.61004" lon="5.25266">
        <ele>180.2</ele>
        <time>2021-11-27T12:35:45Z</time>
      </trkpt>
      <trkpt lat="46.61032" lon="5.25216">
        <ele>180.2</ele>
        <time>2021-11-27T12:35:52Z</time>
      </trkpt>
      <trkpt lat="46.6107" lon="5.25152">
        <ele>180</ele>
        <time>2021-11-27T12:36:01Z</time>
      </trkpt>
      <trkpt lat="46.61078" lon="5.25139">
        <ele>180</ele>
        <time>2021-11-27T12:36:03Z</time>
      </trkpt>
      <trkpt lat="46.6112" lon="5.25079">
        <ele>179.8</ele>
        <time>2021-11-27T12:36:12Z</time>
      </trkpt>
      <trkpt lat="46.61134" lon="5.25039">
        <ele>179.6</ele>
        <time>2021-11-27T12:36:17Z</time>
      </trkpt>
      <trkpt lat="46.61146" lon="5.24977">
        <ele>179.2</ele>
        <time>2021-11-27T12:36:24Z</time>
      </trkpt>
      <trkpt lat="46.61151" lon="5.24961">
        <ele>179</ele>
        <time>2021-11-27T12:36:26Z</time>
      </trkpt>
      <trkpt lat="46.6116" lon="5.24938">
        <ele>179</ele>
        <time>2021-11-27T12:36:29Z</time>
      </trkpt>
      <trkpt lat="46.6119" lon="5.24871">
        <ele>179.2</ele>
        <time>2021-11-27T12:36:38Z</time>
      </trkpt>
      <trkpt lat="46.61196" lon="5.24855">
        <ele>179.6</ele>
        <time>2021-11-27T12:36:40Z</time>
      </trkpt>
      <trkpt lat="46.61213" lon="5.24789">
        <ele>179.2</ele>
        <time>2021-11-27T12:36:48Z</time>
      </trkpt>
      <trkpt lat="46.61219" lon="5.24765">
        <ele>178.8</ele>
        <time>2021-11-27T12:36:51Z</time>
      </trkpt>
      <trkpt lat="46.61229" lon="5.24726">
        <ele>178.6</ele>
        <time>2021-11-27T12:36:56Z</time>
      </trkpt>
      <trkpt lat="46.61243" lon="5.2467">
        <ele>178.2</ele>
        <time>2021-11-27T12:37:03Z</time>
      </trkpt>
      <trkpt lat="46.61255" lon="5.24602">
        <ele>178.2</ele>
        <time>2021-11-27T12:37:11Z</time>
      </trkpt>
      <trkpt lat="46.61266" lon="5.24521">
        <ele>179</ele>
        <time>2021-11-27T12:37:20Z</time>
      </trkpt>
      <trkpt lat="46.61268" lon="5.24513">
        <ele>179</ele>
        <time>2021-11-27T12:37:21Z</time>
      </trkpt>
      <trkpt lat="46.61287" lon="5.2445">
        <ele>179.2</ele>
        <time>2021-11-27T12:37:29Z</time>
      </trkpt>
      <trkpt lat="46.61295" lon="5.24427">
        <ele>179.6</ele>
        <time>2021-11-27T12:37:32Z</time>
      </trkpt>
      <trkpt lat="46.61306" lon="5.24405">
        <ele>179.8</ele>
        <time>2021-11-27T12:37:35Z</time>
      </trkpt>
      <trkpt lat="46.61313" lon="5.24393">
        <ele>180</ele>
        <time>2021-11-27T12:37:37Z</time>
      </trkpt>
      <trkpt lat="46.6132" lon="5.2438">
        <ele>180.4</ele>
        <time>2021-11-27T12:37:39Z</time>
      </trkpt>
      <trkpt lat="46.61322" lon="5.24372">
        <ele>180.4</ele>
        <time>2021-11-27T12:37:40Z</time>
      </trkpt>
      <trkpt lat="46.6133" lon="5.24342">
        <ele>181</ele>
        <time>2021-11-27T12:37:44Z</time>
      </trkpt>
      <trkpt lat="46.61331" lon="5.24334">
        <ele>181</ele>
        <time>2021-11-27T12:37:45Z</time>
      </trkpt>
      <trkpt lat="46.61333" lon="5.24327">
        <ele>181.2</ele>
        <time>2021-11-27T12:37:46Z</time>
      </trkpt>
      <trkpt lat="46.61336" lon="5.24312">
        <ele>181.2</ele>
        <time>2021-11-27T12:37:48Z</time>
      </trkpt>
      <trkpt lat="46.61345" lon="5.24284">
        <ele>181.6</ele>
        <time>2021-11-27T12:37:52Z</time>
      </trkpt>
      <trkpt lat="46.61352" lon="5.24252">
        <ele>181.8</ele>
        <time>2021-11-27T12:37:56Z</time>
      </trkpt>
      <trkpt lat="46.61354" lon="5.24235">
        <ele>182</ele>
        <time>2021-11-27T12:37:58Z</time>
      </trkpt>
      <trkpt lat="46.61354" lon="5.2421">
        <ele>182</ele>
        <time>2021-11-27T12:38:01Z</time>
      </trkpt>
      <trkpt lat="46.61354" lon="5.2417">
        <ele>182.2</ele>
        <time>2021-11-27T12:38:06Z</time>
      </trkpt>
      <trkpt lat="46.61352" lon="5.24102">
        <ele>182.4</ele>
        <time>2021-11-27T12:38:15Z</time>
      </trkpt>
      <trkpt lat="46.61346" lon="5.24021">
        <ele>182</ele>
        <time>2021-11-27T12:38:25Z</time>
      </trkpt>
      <trkpt lat="46.61345" lon="5.24012">
        <ele>181.8</ele>
        <time>2021-11-27T12:38:26Z</time>
      </trkpt>
      <trkpt lat="46.6134" lon="5.23951">
        <ele>180.8</ele>
        <time>2021-11-27T12:38:33Z</time>
      </trkpt>
      <trkpt lat="46.61338" lon="5.23921">
        <ele>180.6</ele>
        <time>2021-11-27T12:38:36Z</time>
      </trkpt>
      <trkpt lat="46.61332" lon="5.23847">
        <ele>179.8</ele>
        <time>2021-11-27T12:38:44Z</time>
      </trkpt>
      <trkpt lat="46.61329" lon="5.23817">
        <ele>179.6</ele>
        <time>2021-11-27T12:38:47Z</time>
      </trkpt>
      <trkpt lat="46.61329" lon="5.23741">
        <ele>179.4</ele>
        <time>2021-11-27T12:38:55Z</time>
      </trkpt>
      <trkpt lat="46.61336" lon="5.23658">
        <ele>179.4</ele>
        <time>2021-11-27T12:39:04Z</time>
      </trkpt>
      <trkpt lat="46.6134" lon="5.23577">
        <ele>179</ele>
        <time>2021-11-27T12:39:13Z</time>
      </trkpt>
      <trkpt lat="46.6134" lon="5.23568">
        <ele>179</ele>
        <time>2021-11-27T12:39:14Z</time>
      </trkpt>
      <trkpt lat="46.61341" lon="5.2355">
        <ele>178.8</ele>
        <time>2021-11-27T12:39:16Z</time>
      </trkpt>
      <trkpt lat="46.61342" lon="5.23533">
        <ele>178.6</ele>
        <time>2021-11-27T12:39:18Z</time>
      </trkpt>
      <trkpt lat="46.61343" lon="5.23507">
        <ele>178.4</ele>
        <time>2021-11-27T12:39:21Z</time>
      </trkpt>
      <trkpt lat="46.61348" lon="5.23456">
        <ele>178</ele>
        <time>2021-11-27T12:39:27Z</time>
      </trkpt>
      <trkpt lat="46.61362" lon="5.23394">
        <ele>177.8</ele>
        <time>2021-11-27T12:39:35Z</time>
      </trkpt>
      <trkpt lat="46.6138" lon="5.23331">
        <ele>178</ele>
        <time>2021-11-27T12:39:43Z</time>
      </trkpt>
      <trkpt lat="46.61382" lon="5.23322">
        <ele>178</ele>
        <time>2021-11-27T12:39:44Z</time>
      </trkpt>
      <trkpt lat="46.61382" lon="5.23313">
        <ele>178</ele>
        <time>2021-11-27T12:39:45Z</time>
      </trkpt>
      <trkpt lat="46.61378" lon="5.23295">
        <ele>178</ele>
        <time>2021-11-27T12:39:47Z</time>
      </trkpt>
      <trkpt lat="46.61371" lon="5.23283">
        <ele>178</ele>
        <time>2021-11-27T12:39:49Z</time>
      </trkpt>
      <trkpt lat="46.61361" lon="5.23269">
        <ele>177.8</ele>
        <time>2021-11-27T12:39:51Z</time>
      </trkpt>
      <trkpt lat="46.61357" lon="5.23263">
        <ele>177.6</ele>
        <time>2021-11-27T12:39:52Z</time>
      </trkpt>
      <trkpt lat="46.61328" lon="5.23225">
        <ele>177.2</ele>
        <time>2021-11-27T12:39:59Z</time>
      </trkpt>
      <trkpt lat="46.6131" lon="5.23198">
        <ele>177</ele>
        <time>2021-11-27T12:40:04Z</time>
      </trkpt>
      <trkpt lat="46.61304" lon="5.23183">
        <ele>177</ele>
        <time>2021-11-27T12:40:06Z</time>
      </trkpt>
      <trkpt lat="46.61301" lon="5.23169">
        <ele>177</ele>
        <time>2021-11-27T12:40:08Z</time>
      </trkpt>
      <trkpt lat="46.61299" lon="5.23147">
        <ele>177.2</ele>
        <time>2021-11-27T12:40:11Z</time>
      </trkpt>
      <trkpt lat="46.61291" lon="5.23114">
        <ele>177.8</ele>
        <time>2021-11-27T12:40:16Z</time>
      </trkpt>
      <trkpt lat="46.6127" lon="5.2307">
        <ele>178.8</ele>
        <time>2021-11-27T12:40:24Z</time>
      </trkpt>
      <trkpt lat="46.61267" lon="5.23064">
        <ele>179</ele>
        <time>2021-11-27T12:40:25Z</time>
      </trkpt>
      <trkpt lat="46.6124" lon="5.23008">
        <ele>179.8</ele>
        <time>2021-11-27T12:40:35Z</time>
      </trkpt>
      <trkpt lat="46.61238" lon="5.23003">
        <ele>179.8</ele>
        <time>2021-11-27T12:40:36Z</time>
      </trkpt>
      <trkpt lat="46.61237" lon="5.22995">
        <ele>179.8</ele>
        <time>2021-11-27T12:40:37Z</time>
      </trkpt>
      <trkpt lat="46.61239" lon="5.22989">
        <ele>180</ele>
        <time>2021-11-27T12:40:38Z</time>
      </trkpt>
      <trkpt lat="46.6124" lon="5.22984">
        <ele>180</ele>
        <time>2021-11-27T12:40:39Z</time>
      </trkpt>
      <trkpt lat="46.61251" lon="5.22967">
        <ele>180.2</ele>
        <time>2021-11-27T12:40:42Z</time>
      </trkpt>
      <trkpt lat="46.61279" lon="5.2293">
        <ele>180.6</ele>
        <time>2021-11-27T12:40:48Z</time>
      </trkpt>
      <trkpt lat="46.61314" lon="5.2288">
        <ele>180.2</ele>
        <time>2021-11-27T12:40:56Z</time>
      </trkpt>
      <trkpt lat="46.61337" lon="5.22848">
        <ele>180</ele>
        <time>2021-11-27T12:41:01Z</time>
      </trkpt>
      <trkpt lat="46.61361" lon="5.22815">
        <ele>180</ele>
        <time>2021-11-27T12:41:06Z</time>
      </trkpt>
      <trkpt lat="46.61403" lon="5.22759">
        <ele>180.2</ele>
        <time>2021-11-27T12:41:15Z</time>
      </trkpt>
      <trkpt lat="46.61408" lon="5.22752">
        <ele>180.2</ele>
        <time>2021-11-27T12:41:16Z</time>
      </trkpt>
      <trkpt lat="46.6145" lon="5.22694">
        <ele>179.2</ele>
        <time>2021-11-27T12:41:25Z</time>
      </trkpt>
      <trkpt lat="46.61459" lon="5.22681">
        <ele>179.2</ele>
        <time>2021-11-27T12:41:27Z</time>
      </trkpt>
      <trkpt lat="46.61503" lon="5.22633">
        <ele>179</ele>
        <time>2021-11-27T12:41:35Z</time>
      </trkpt>
      <trkpt lat="46.61548" lon="5.22609">
        <ele>178.8</ele>
        <time>2021-11-27T12:41:42Z</time>
      </trkpt>
      <trkpt lat="46.61587" lon="5.226">
        <ele>178.6</ele>
        <time>2021-11-27T12:41:48Z</time>
      </trkpt>
      <trkpt lat="46.61605" lon="5.22596">
        <ele>178.6</ele>
        <time>2021-11-27T12:41:51Z</time>
      </trkpt>
      <trkpt lat="46.61608" lon="5.22594">
        <ele>178.6</ele>
        <time>2021-11-27T12:41:52Z</time>
      </trkpt>
      <trkpt lat="46.6161" lon="5.22589">
        <ele>178.6</ele>
        <time>2021-11-27T12:41:53Z</time>
      </trkpt>
      <trkpt lat="46.61609" lon="5.22583">
        <ele>178.6</ele>
        <time>2021-11-27T12:41:54Z</time>
      </trkpt>
      <trkpt lat="46.61607" lon="5.22578">
        <ele>178.6</ele>
        <time>2021-11-27T12:41:55Z</time>
      </trkpt>
      <trkpt lat="46.61596" lon="5.2256">
        <ele>178.4</ele>
        <time>2021-11-27T12:41:58Z</time>
      </trkpt>
      <trkpt lat="46.6159" lon="5.22547">
        <ele>178.2</ele>
        <time>2021-11-27T12:42:00Z</time>
      </trkpt>
      <trkpt lat="46.61587" lon="5.2253">
        <ele>178.2</ele>
        <time>2021-11-27T12:42:02Z</time>
      </trkpt>
      <trkpt lat="46.61587" lon="5.22522">
        <ele>178.2</ele>
        <time>2021-11-27T12:42:03Z</time>
      </trkpt>
      <trkpt lat="46.61589" lon="5.22485">
        <ele>178</ele>
        <time>2021-11-27T12:42:07Z</time>
      </trkpt>
      <trkpt lat="46.61597" lon="5.22442">
        <ele>178</ele>
        <time>2021-11-27T12:42:12Z</time>
      </trkpt>
      <trkpt lat="46.616" lon="5.22434">
        <ele>178.2</ele>
        <time>2021-11-27T12:42:13Z</time>
      </trkpt>
      <trkpt lat="46.61619" lon="5.2238">
        <ele>178.6</ele>
        <time>2021-11-27T12:42:20Z</time>
      </trkpt>
      <trkpt lat="46.6162" lon="5.22372">
        <ele>178.6</ele>
        <time>2021-11-27T12:42:21Z</time>
      </trkpt>
      <trkpt lat="46.6162" lon="5.22363">
        <ele>178.6</ele>
        <time>2021-11-27T12:42:22Z</time>
      </trkpt>
      <trkpt lat="46.61618" lon="5.22338">
        <ele>178.8</ele>
        <time>2021-11-27T12:42:25Z</time>
      </trkpt>
      <trkpt lat="46.61615" lon="5.22322">
        <ele>178.8</ele>
        <time>2021-11-27T12:42:27Z</time>
      </trkpt>
      <trkpt lat="46.61609" lon="5.2229">
        <ele>178.4</ele>
        <time>2021-11-27T12:42:31Z</time>
      </trkpt>
      <trkpt lat="46.61603" lon="5.22276">
        <ele>178.2</ele>
        <time>2021-11-27T12:42:33Z</time>
      </trkpt>
      <trkpt lat="46.61595" lon="5.22266">
        <ele>178</ele>
        <time>2021-11-27T12:42:35Z</time>
      </trkpt>
      <trkpt lat="46.61585" lon="5.22262">
        <ele>178</ele>
        <time>2021-11-27T12:42:37Z</time>
      </trkpt>
      <trkpt lat="46.6158" lon="5.22262">
        <ele>178</ele>
        <time>2021-11-27T12:42:38Z</time>
      </trkpt>
      <trkpt lat="46.61575" lon="5.22263">
        <ele>178</ele>
        <time>2021-11-27T12:42:39Z</time>
      </trkpt>
      <trkpt lat="46.61561" lon="5.22271">
        <ele>178.2</ele>
        <time>2021-11-27T12:42:42Z</time>
      </trkpt>
      <trkpt lat="46.61548" lon="5.22284">
        <ele>179.2</ele>
        <time>2021-11-27T12:42:45Z</time>
      </trkpt>
      <trkpt lat="46.61536" lon="5.22296">
        <ele>180.4</ele>
        <time>2021-11-27T12:42:48Z</time>
      </trkpt>
      <trkpt lat="46.61529" lon="5.22303">
        <ele>181.2</ele>
        <time>2021-11-27T12:42:50Z</time>
      </trkpt>
      <trkpt lat="46.61525" lon="5.22307">
        <ele>181.4</ele>
        <time>2021-11-27T12:42:51Z</time>
      </trkpt>
      <trkpt lat="46.61513" lon="5.22322">
        <ele>182.4</ele>
        <time>2021-11-27T12:42:55Z</time>
      </trkpt>
      <trkpt lat="46.61509" lon="5.22325">
        <ele>182.6</ele>
        <time>2021-11-27T12:42:56Z</time>
      </trkpt>
      <trkpt lat="46.6149" lon="5.22338">
        <ele>183.8</ele>
        <time>2021-11-27T12:43:01Z</time>
      </trkpt>
      <trkpt lat="46.61486" lon="5.2234">
        <ele>184</ele>
        <time>2021-11-27T12:43:02Z</time>
      </trkpt>
      <trkpt lat="46.61474" lon="5.22347">
        <ele>184.8</ele>
        <time>2021-11-27T12:43:05Z</time>
      </trkpt>
      <trkpt lat="46.61453" lon="5.22359">
        <ele>185.6</ele>
        <time>2021-11-27T12:43:10Z</time>
      </trkpt>
      <trkpt lat="46.61443" lon="5.22361">
        <ele>186</ele>
        <time>2021-11-27T12:43:12Z</time>
      </trkpt>
      <trkpt lat="46.61429" lon="5.22359">
        <ele>186.8</ele>
        <time>2021-11-27T12:43:15Z</time>
      </trkpt>
      <trkpt lat="46.61424" lon="5.22358">
        <ele>186.8</ele>
        <time>2021-11-27T12:43:16Z</time>
      </trkpt>
      <trkpt lat="46.6142" lon="5.22355">
        <ele>187.2</ele>
        <time>2021-11-27T12:43:17Z</time>
      </trkpt>
      <trkpt lat="46.61407" lon="5.22346">
        <ele>187.4</ele>
        <time>2021-11-27T12:43:20Z</time>
      </trkpt>
      <trkpt lat="46.61404" lon="5.22343">
        <ele>187.6</ele>
        <time>2021-11-27T12:43:21Z</time>
      </trkpt>
      <trkpt lat="46.61386" lon="5.22327">
        <ele>188.4</ele>
        <time>2021-11-27T12:43:26Z</time>
      </trkpt>
      <trkpt lat="46.61362" lon="5.22305">
        <ele>189.6</ele>
        <time>2021-11-27T12:43:33Z</time>
      </trkpt>
      <trkpt lat="46.61352" lon="5.22296">
        <ele>190.4</ele>
        <time>2021-11-27T12:43:36Z</time>
      </trkpt>
      <trkpt lat="46.61348" lon="5.22293">
        <ele>190.6</ele>
        <time>2021-11-27T12:43:37Z</time>
      </trkpt>
      <trkpt lat="46.6133" lon="5.22276">
        <ele>192</ele>
        <time>2021-11-27T12:43:42Z</time>
      </trkpt>
      <trkpt lat="46.61314" lon="5.22262">
        <ele>192.2</ele>
        <time>2021-11-27T12:43:46Z</time>
      </trkpt>
      <trkpt lat="46.61282" lon="5.22234">
        <ele>193</ele>
        <time>2021-11-27T12:43:54Z</time>
      </trkpt>
      <trkpt lat="46.61278" lon="5.22231">
        <ele>193.2</ele>
        <time>2021-11-27T12:43:55Z</time>
      </trkpt>
      <trkpt lat="46.61258" lon="5.22217">
        <ele>194</ele>
        <time>2021-11-27T12:44:00Z</time>
      </trkpt>
      <trkpt lat="46.61233" lon="5.22204">
        <ele>194.6</ele>
        <time>2021-11-27T12:44:05Z</time>
      </trkpt>
      <trkpt lat="46.61194" lon="5.22192">
        <ele>194.8</ele>
        <time>2021-11-27T12:44:12Z</time>
      </trkpt>
      <trkpt lat="46.61143" lon="5.22184">
        <ele>195</ele>
        <time>2021-11-27T12:44:21Z</time>
      </trkpt>
      <trkpt lat="46.61108" lon="5.2218">
        <ele>195.2</ele>
        <time>2021-11-27T12:44:27Z</time>
      </trkpt>
      <trkpt lat="46.61097" lon="5.22178">
        <ele>195.2</ele>
        <time>2021-11-27T12:44:29Z</time>
      </trkpt>
      <trkpt lat="46.61047" lon="5.22168">
        <ele>195.2</ele>
        <time>2021-11-27T12:44:38Z</time>
      </trkpt>
      <trkpt lat="46.61041" lon="5.22165">
        <ele>195.2</ele>
        <time>2021-11-27T12:44:39Z</time>
      </trkpt>
      <trkpt lat="46.61011" lon="5.22143">
        <ele>195</ele>
        <time>2021-11-27T12:44:45Z</time>
      </trkpt>
      <trkpt lat="46.60977" lon="5.221">
        <ele>195.8</ele>
        <time>2021-11-27T12:44:53Z</time>
      </trkpt>
      <trkpt lat="46.60953" lon="5.22063">
        <ele>196.2</ele>
        <time>2021-11-27T12:44:59Z</time>
      </trkpt>
      <trkpt lat="46.60932" lon="5.22033">
        <ele>196.4</ele>
        <time>2021-11-27T12:45:04Z</time>
      </trkpt>
      <trkpt lat="46.60903" lon="5.22006">
        <ele>197</ele>
        <time>2021-11-27T12:45:10Z</time>
      </trkpt>
      <trkpt lat="46.60867" lon="5.21991">
        <ele>197.2</ele>
        <time>2021-11-27T12:45:16Z</time>
      </trkpt>
      <trkpt lat="46.60826" lon="5.21986">
        <ele>197.4</ele>
        <time>2021-11-27T12:45:23Z</time>
      </trkpt>
      <trkpt lat="46.60821" lon="5.21985">
        <ele>197.6</ele>
        <time>2021-11-27T12:45:24Z</time>
      </trkpt>
      <trkpt lat="46.60763" lon="5.21978">
        <ele>198.4</ele>
        <time>2021-11-27T12:45:34Z</time>
      </trkpt>
      <trkpt lat="46.60718" lon="5.21974">
        <ele>198.8</ele>
        <time>2021-11-27T12:45:42Z</time>
      </trkpt>
      <trkpt lat="46.60673" lon="5.21972">
        <ele>199.6</ele>
        <time>2021-11-27T12:45:50Z</time>
      </trkpt>
      <trkpt lat="46.60667" lon="5.21973">
        <ele>199.6</ele>
        <time>2021-11-27T12:45:51Z</time>
      </trkpt>
      <trkpt lat="46.60623" lon="5.21982">
        <ele>200.2</ele>
        <time>2021-11-27T12:45:59Z</time>
      </trkpt>
      <trkpt lat="46.60601" lon="5.21988">
        <ele>200.6</ele>
        <time>2021-11-27T12:46:03Z</time>
      </trkpt>
      <trkpt lat="46.60572" lon="5.21995">
        <ele>200.8</ele>
        <time>2021-11-27T12:46:08Z</time>
      </trkpt>
      <trkpt lat="46.60524" lon="5.21999">
        <ele>201</ele>
        <time>2021-11-27T12:46:16Z</time>
      </trkpt>
      <trkpt lat="46.60484" lon="5.21994">
        <ele>201</ele>
        <time>2021-11-27T12:46:23Z</time>
      </trkpt>
      <trkpt lat="46.60436" lon="5.2199">
        <ele>201</ele>
        <time>2021-11-27T12:46:31Z</time>
      </trkpt>
      <trkpt lat="46.60392" lon="5.21999">
        <ele>201.2</ele>
        <time>2021-11-27T12:46:38Z</time>
      </trkpt>
      <trkpt lat="46.60337" lon="5.22023">
        <ele>201</ele>
        <time>2021-11-27T12:46:47Z</time>
      </trkpt>
      <trkpt lat="46.60311" lon="5.22029">
        <ele>201</ele>
        <time>2021-11-27T12:46:51Z</time>
      </trkpt>
      <trkpt lat="46.603" lon="5.22027">
        <ele>201</ele>
        <time>2021-11-27T12:46:53Z</time>
      </trkpt>
      <trkpt lat="46.60246" lon="5.22016">
        <ele>200.4</ele>
        <time>2021-11-27T12:47:01Z</time>
      </trkpt>
      <trkpt lat="46.60208" lon="5.22024">
        <ele>200.2</ele>
        <time>2021-11-27T12:47:07Z</time>
      </trkpt>
      <trkpt lat="46.60159" lon="5.22057">
        <ele>199.6</ele>
        <time>2021-11-27T12:47:15Z</time>
      </trkpt>
      <trkpt lat="46.60137" lon="5.22074">
        <ele>199.6</ele>
        <time>2021-11-27T12:47:19Z</time>
      </trkpt>
      <trkpt lat="46.60127" lon="5.22085">
        <ele>199.8</ele>
        <time>2021-11-27T12:47:21Z</time>
      </trkpt>
      <trkpt lat="46.60109" lon="5.22123">
        <ele>200.4</ele>
        <time>2021-11-27T12:47:26Z</time>
      </trkpt>
      <trkpt lat="46.60107" lon="5.22132">
        <ele>200.6</ele>
        <time>2021-11-27T12:47:27Z</time>
      </trkpt>
      <trkpt lat="46.60102" lon="5.22168">
        <ele>200.6</ele>
        <time>2021-11-27T12:47:31Z</time>
      </trkpt>
      <trkpt lat="46.601" lon="5.22198">
        <ele>201</ele>
        <time>2021-11-27T12:47:34Z</time>
      </trkpt>
      <trkpt lat="46.601" lon="5.22238">
        <ele>201</ele>
        <time>2021-11-27T12:47:38Z</time>
      </trkpt>
      <trkpt lat="46.60097" lon="5.22306">
        <ele>200.2</ele>
        <time>2021-11-27T12:47:45Z</time>
      </trkpt>
      <trkpt lat="46.60088" lon="5.22375">
        <ele>200.4</ele>
        <time>2021-11-27T12:47:52Z</time>
      </trkpt>
      <trkpt lat="46.60071" lon="5.22444">
        <ele>200.4</ele>
        <time>2021-11-27T12:48:00Z</time>
      </trkpt>
      <trkpt lat="46.60047" lon="5.22522">
        <ele>200.2</ele>
        <time>2021-11-27T12:48:09Z</time>
      </trkpt>
      <trkpt lat="46.60044" lon="5.22532">
        <ele>200</ele>
        <time>2021-11-27T12:48:10Z</time>
      </trkpt>
      <trkpt lat="46.60023" lon="5.22613">
        <ele>200</ele>
        <time>2021-11-27T12:48:19Z</time>
      </trkpt>
      <trkpt lat="46.60019" lon="5.22636">
        <ele>200</ele>
        <time>2021-11-27T12:48:21Z</time>
      </trkpt>
      <trkpt lat="46.60013" lon="5.22668">
        <ele>199.6</ele>
        <time>2021-11-27T12:48:24Z</time>
      </trkpt>
      <trkpt lat="46.60003" lon="5.22707">
        <ele>199.2</ele>
        <time>2021-11-27T12:48:28Z</time>
      </trkpt>
      <trkpt lat="46.59981" lon="5.2277">
        <ele>198.8</ele>
        <time>2021-11-27T12:48:35Z</time>
      </trkpt>
      <trkpt lat="46.59969" lon="5.22802">
        <ele>199.2</ele>
        <time>2021-11-27T12:48:39Z</time>
      </trkpt>
      <trkpt lat="46.59955" lon="5.22834">
        <ele>199.8</ele>
        <time>2021-11-27T12:48:43Z</time>
      </trkpt>
      <trkpt lat="46.59932" lon="5.22876">
        <ele>200.2</ele>
        <time>2021-11-27T12:48:48Z</time>
      </trkpt>
      <trkpt lat="46.59896" lon="5.22937">
        <ele>199.8</ele>
        <time>2021-11-27T12:48:55Z</time>
      </trkpt>
      <trkpt lat="46.5987" lon="5.22984">
        <ele>198.4</ele>
        <time>2021-11-27T12:49:00Z</time>
      </trkpt>
      <trkpt lat="46.59864" lon="5.22996">
        <ele>198</ele>
        <time>2021-11-27T12:49:01Z</time>
      </trkpt>
      <trkpt lat="46.59853" lon="5.23037">
        <ele>197.4</ele>
        <time>2021-11-27T12:49:05Z</time>
      </trkpt>
      <trkpt lat="46.5985" lon="5.23051">
        <ele>197.2</ele>
        <time>2021-11-27T12:49:06Z</time>
      </trkpt>
      <trkpt lat="46.59836" lon="5.23132">
        <ele>197.2</ele>
        <time>2021-11-27T12:49:14Z</time>
      </trkpt>
      <trkpt lat="46.59819" lon="5.23177">
        <ele>197.6</ele>
        <time>2021-11-27T12:49:19Z</time>
      </trkpt>
      <trkpt lat="46.59796" lon="5.23213">
        <ele>197.8</ele>
        <time>2021-11-27T12:49:24Z</time>
      </trkpt>
      <trkpt lat="46.59759" lon="5.23265">
        <ele>198</ele>
        <time>2021-11-27T12:49:32Z</time>
      </trkpt>
      <trkpt lat="46.59718" lon="5.23323">
        <ele>198.4</ele>
        <time>2021-11-27T12:49:41Z</time>
      </trkpt>
      <trkpt lat="46.59704" lon="5.23342">
        <ele>198.6</ele>
        <time>2021-11-27T12:49:44Z</time>
      </trkpt>
      <trkpt lat="46.59679" lon="5.23377">
        <ele>199.2</ele>
        <time>2021-11-27T12:49:50Z</time>
      </trkpt>
      <trkpt lat="46.59667" lon="5.23395">
        <ele>199.6</ele>
        <time>2021-11-27T12:49:53Z</time>
      </trkpt>
      <trkpt lat="46.5966" lon="5.23405">
        <ele>199.8</ele>
        <time>2021-11-27T12:49:55Z</time>
      </trkpt>
      <trkpt lat="46.59623" lon="5.23455">
        <ele>200.6</ele>
        <time>2021-11-27T12:50:04Z</time>
      </trkpt>
      <trkpt lat="46.59619" lon="5.2346">
        <ele>200.6</ele>
        <time>2021-11-27T12:50:05Z</time>
      </trkpt>
      <trkpt lat="46.59591" lon="5.23496">
        <ele>201.4</ele>
        <time>2021-11-27T12:50:12Z</time>
      </trkpt>
      <trkpt lat="46.59583" lon="5.23504">
        <ele>201.6</ele>
        <time>2021-11-27T12:50:14Z</time>
      </trkpt>
      <trkpt lat="46.59573" lon="5.2351">
        <ele>201.8</ele>
        <time>2021-11-27T12:50:16Z</time>
      </trkpt>
      <trkpt lat="46.59562" lon="5.23517">
        <ele>201.8</ele>
        <time>2021-11-27T12:50:18Z</time>
      </trkpt>
      <trkpt lat="46.59531" lon="5.23536">
        <ele>201.6</ele>
        <time>2021-11-27T12:50:23Z</time>
      </trkpt>
      <trkpt lat="46.59517" lon="5.23547">
        <ele>200.6</ele>
        <time>2021-11-27T12:50:25Z</time>
      </trkpt>
      <trkpt lat="46.59502" lon="5.23561">
        <ele>199.8</ele>
        <time>2021-11-27T12:50:27Z</time>
      </trkpt>
      <trkpt lat="46.59495" lon="5.23565">
        <ele>199.4</ele>
        <time>2021-11-27T12:50:28Z</time>
      </trkpt>
      <trkpt lat="46.59477" lon="5.23574">
        <ele>198.2</ele>
        <time>2021-11-27T12:50:30Z</time>
      </trkpt>
      <trkpt lat="46.59468" lon="5.23577">
        <ele>197.6</ele>
        <time>2021-11-27T12:50:31Z</time>
      </trkpt>
      <trkpt lat="46.5946" lon="5.23579">
        <ele>197.2</ele>
        <time>2021-11-27T12:50:32Z</time>
      </trkpt>
      <trkpt lat="46.5944" lon="5.2358">
        <ele>195.4</ele>
        <time>2021-11-27T12:50:34Z</time>
      </trkpt>
      <trkpt lat="46.5943" lon="5.23579">
        <ele>195</ele>
        <time>2021-11-27T12:50:35Z</time>
      </trkpt>
      <trkpt lat="46.59418" lon="5.2358">
        <ele>194</ele>
        <time>2021-11-27T12:50:36Z</time>
      </trkpt>
      <trkpt lat="46.594" lon="5.23584">
        <ele>192.4</ele>
        <time>2021-11-27T12:50:38Z</time>
      </trkpt>
      <trkpt lat="46.59389" lon="5.23589">
        <ele>192</ele>
        <time>2021-11-27T12:50:39Z</time>
      </trkpt>
      <trkpt lat="46.5938" lon="5.23594">
        <ele>191.2</ele>
        <time>2021-11-27T12:50:40Z</time>
      </trkpt>
      <trkpt lat="46.59364" lon="5.23604">
        <ele>189.8</ele>
        <time>2021-11-27T12:50:42Z</time>
      </trkpt>
      <trkpt lat="46.59356" lon="5.2361">
        <ele>188.8</ele>
        <time>2021-11-27T12:50:43Z</time>
      </trkpt>
      <trkpt lat="46.59349" lon="5.23615">
        <ele>188.6</ele>
        <time>2021-11-27T12:50:44Z</time>
      </trkpt>
      <trkpt lat="46.59341" lon="5.23622">
        <ele>187.4</ele>
        <time>2021-11-27T12:50:45Z</time>
      </trkpt>
      <trkpt lat="46.59337" lon="5.23626">
        <ele>187</ele>
        <time>2021-11-27T12:50:46Z</time>
      </trkpt>
      <trkpt lat="46.59333" lon="5.23632">
        <ele>186</ele>
        <time>2021-11-27T12:50:47Z</time>
      </trkpt>
      <trkpt lat="46.59329" lon="5.23641">
        <ele>185.6</ele>
        <time>2021-11-27T12:50:48Z</time>
      </trkpt>
      <trkpt lat="46.59327" lon="5.23649">
        <ele>185</ele>
        <time>2021-11-27T12:50:49Z</time>
      </trkpt>
      <trkpt lat="46.59326" lon="5.23658">
        <ele>184.2</ele>
        <time>2021-11-27T12:50:50Z</time>
      </trkpt>
      <trkpt lat="46.59328" lon="5.23673">
        <ele>183.4</ele>
        <time>2021-11-27T12:50:52Z</time>
      </trkpt>
      <trkpt lat="46.5933" lon="5.23681">
        <ele>183</ele>
        <time>2021-11-27T12:50:53Z</time>
      </trkpt>
      <trkpt lat="46.59337" lon="5.23704">
        <ele>182.4</ele>
        <time>2021-11-27T12:50:56Z</time>
      </trkpt>
      <trkpt lat="46.59346" lon="5.23737">
        <ele>182.2</ele>
        <time>2021-11-27T12:51:00Z</time>
      </trkpt>
      <trkpt lat="46.59358" lon="5.23797">
        <ele>183.6</ele>
        <time>2021-11-27T12:51:08Z</time>
      </trkpt>
      <trkpt lat="46.59359" lon="5.23832">
        <ele>184.6</ele>
        <time>2021-11-27T12:51:13Z</time>
      </trkpt>
      <trkpt lat="46.59359" lon="5.2384">
        <ele>185</ele>
        <time>2021-11-27T12:51:14Z</time>
      </trkpt>
      <trkpt lat="46.59359" lon="5.23852">
        <ele>185.8</ele>
        <time>2021-11-27T12:51:16Z</time>
      </trkpt>
      <trkpt lat="46.59357" lon="5.23884">
        <ele>186.8</ele>
        <time>2021-11-27T12:51:21Z</time>
      </trkpt>
      <trkpt lat="46.59358" lon="5.23908">
        <ele>187.4</ele>
        <time>2021-11-27T12:51:25Z</time>
      </trkpt>
      <trkpt lat="46.59362" lon="5.23916">
        <ele>187.8</ele>
        <time>2021-11-27T12:51:27Z</time>
      </trkpt>
      <trkpt lat="46.59365" lon="5.23917">
        <ele>187.8</ele>
        <time>2021-11-27T12:51:28Z</time>
      </trkpt>
      <trkpt lat="46.59368" lon="5.23918">
        <ele>188.2</ele>
        <time>2021-11-27T12:51:30Z</time>
      </trkpt>
      <trkpt lat="46.59369" lon="5.23918">
        <ele>188.4</ele>
        <time>2021-11-27T12:51:32Z</time>
      </trkpt>
      <trkpt lat="46.59367" lon="5.23919">
        <ele>189.8</ele>
        <time>2021-11-27T12:53:09Z</time>
      </trkpt>
      <trkpt lat="46.59361" lon="5.23924">
        <ele>189.8</ele>
        <time>2021-11-27T12:53:11Z</time>
      </trkpt>
      <trkpt lat="46.59359" lon="5.23929">
        <ele>189.6</ele>
        <time>2021-11-27T12:53:12Z</time>
      </trkpt>
      <trkpt lat="46.59358" lon="5.23936">
        <ele>189.4</ele>
        <time>2021-11-27T12:53:13Z</time>
      </trkpt>
      <trkpt lat="46.59357" lon="5.23959">
        <ele>188.8</ele>
        <time>2021-11-27T12:53:16Z</time>
      </trkpt>
      <trkpt lat="46.59357" lon="5.23967">
        <ele>188.8</ele>
        <time>2021-11-27T12:53:17Z</time>
      </trkpt>
      <trkpt lat="46.59356" lon="5.23999">
        <ele>188.6</ele>
        <time>2021-11-27T12:53:21Z</time>
      </trkpt>
      <trkpt lat="46.59354" lon="5.24005">
        <ele>188.6</ele>
        <time>2021-11-27T12:53:22Z</time>
      </trkpt>
      <trkpt lat="46.5935" lon="5.2401">
        <ele>188.6</ele>
        <time>2021-11-27T12:53:23Z</time>
      </trkpt>
      <trkpt lat="46.59339" lon="5.24013">
        <ele>188.8</ele>
        <time>2021-11-27T12:53:25Z</time>
      </trkpt>
      <trkpt lat="46.59326" lon="5.24012">
        <ele>188.8</ele>
        <time>2021-11-27T12:53:27Z</time>
      </trkpt>
      <trkpt lat="46.59305" lon="5.24007">
        <ele>188.8</ele>
        <time>2021-11-27T12:53:30Z</time>
      </trkpt>
      <trkpt lat="46.59264" lon="5.23987">
        <ele>188</ele>
        <time>2021-11-27T12:53:36Z</time>
      </trkpt>
      <trkpt lat="46.59235" lon="5.23976">
        <ele>188</ele>
        <time>2021-11-27T12:53:41Z</time>
      </trkpt>
      <trkpt lat="46.592" lon="5.23973">
        <ele>189.6</ele>
        <time>2021-11-27T12:53:48Z</time>
      </trkpt>
      <trkpt lat="46.59195" lon="5.23973">
        <ele>190</ele>
        <time>2021-11-27T12:53:49Z</time>
      </trkpt>
      <trkpt lat="46.59182" lon="5.23973">
        <ele>191</ele>
        <time>2021-11-27T12:53:52Z</time>
      </trkpt>
      <trkpt lat="46.59162" lon="5.23975">
        <ele>192.4</ele>
        <time>2021-11-27T12:53:56Z</time>
      </trkpt>
      <trkpt lat="46.59129" lon="5.23977">
        <ele>193.4</ele>
        <time>2021-11-27T12:54:02Z</time>
      </trkpt>
      <trkpt lat="46.59125" lon="5.23977">
        <ele>193.4</ele>
        <time>2021-11-27T12:54:03Z</time>
      </trkpt>
      <trkpt lat="46.59079" lon="5.23979">
        <ele>193.6</ele>
        <time>2021-11-27T12:54:11Z</time>
      </trkpt>
      <trkpt lat="46.59043" lon="5.23982">
        <ele>193.6</ele>
        <time>2021-11-27T12:54:17Z</time>
      </trkpt>
      <trkpt lat="46.59002" lon="5.23984">
        <ele>193</ele>
        <time>2021-11-27T12:54:23Z</time>
      </trkpt>
      <trkpt lat="46.58994" lon="5.23985">
        <ele>193</ele>
        <time>2021-11-27T12:54:24Z</time>
      </trkpt>
      <trkpt lat="46.58981" lon="5.23991">
        <ele>192.6</ele>
        <time>2021-11-27T12:54:26Z</time>
      </trkpt>
      <trkpt lat="46.58972" lon="5.24">
        <ele>192.6</ele>
        <time>2021-11-27T12:54:28Z</time>
      </trkpt>
      <trkpt lat="46.58965" lon="5.24014">
        <ele>192.4</ele>
        <time>2021-11-27T12:54:30Z</time>
      </trkpt>
      <trkpt lat="46.58947" lon="5.24056">
        <ele>194</ele>
        <time>2021-11-27T12:54:37Z</time>
      </trkpt>
      <trkpt lat="46.58942" lon="5.24069">
        <ele>194.6</ele>
        <time>2021-11-27T12:54:39Z</time>
      </trkpt>
      <trkpt lat="46.58937" lon="5.24093">
        <ele>195.8</ele>
        <time>2021-11-27T12:54:43Z</time>
      </trkpt>
      <trkpt lat="46.58932" lon="5.24113">
        <ele>196.8</ele>
        <time>2021-11-27T12:54:46Z</time>
      </trkpt>
      <trkpt lat="46.5893" lon="5.2413">
        <ele>197.8</ele>
        <time>2021-11-27T12:54:48Z</time>
      </trkpt>
      <trkpt lat="46.5893" lon="5.24137">
        <ele>198</ele>
        <time>2021-11-27T12:54:49Z</time>
      </trkpt>
      <trkpt lat="46.5893" lon="5.24145">
        <ele>198.4</ele>
        <time>2021-11-27T12:54:50Z</time>
      </trkpt>
      <trkpt lat="46.58933" lon="5.24163">
        <ele>199</ele>
        <time>2021-11-27T12:54:52Z</time>
      </trkpt>
      <trkpt lat="46.5894" lon="5.24191">
        <ele>199.2</ele>
        <time>2021-11-27T12:54:55Z</time>
      </trkpt>
      <trkpt lat="46.58957" lon="5.24263">
        <ele>198.8</ele>
        <time>2021-11-27T12:55:02Z</time>
      </trkpt>
      <trkpt lat="46.58966" lon="5.24306">
        <ele>198</ele>
        <time>2021-11-27T12:55:06Z</time>
      </trkpt>
      <trkpt lat="46.58966" lon="5.24317">
        <ele>197.8</ele>
        <time>2021-11-27T12:55:07Z</time>
      </trkpt>
      <trkpt lat="46.58966" lon="5.24326">
        <ele>197.6</ele>
        <time>2021-11-27T12:55:08Z</time>
      </trkpt>
      <trkpt lat="46.58963" lon="5.24382">
        <ele>197.4</ele>
        <time>2021-11-27T12:55:13Z</time>
      </trkpt>
      <trkpt lat="46.58959" lon="5.24443">
        <ele>197.6</ele>
        <time>2021-11-27T12:55:19Z</time>
      </trkpt>
      <trkpt lat="46.58961" lon="5.24461">
        <ele>197.8</ele>
        <time>2021-11-27T12:55:21Z</time>
      </trkpt>
      <trkpt lat="46.58966" lon="5.24476">
        <ele>198</ele>
        <time>2021-11-27T12:55:23Z</time>
      </trkpt>
      <trkpt lat="46.58978" lon="5.24512">
        <ele>199</ele>
        <time>2021-11-27T12:55:27Z</time>
      </trkpt>
      <trkpt lat="46.5899" lon="5.24559">
        <ele>200</ele>
        <time>2021-11-27T12:55:32Z</time>
      </trkpt>
      <trkpt lat="46.59004" lon="5.24634">
        <ele>201</ele>
        <time>2021-11-27T12:55:40Z</time>
      </trkpt>
      <trkpt lat="46.59005" lon="5.24644">
        <ele>201</ele>
        <time>2021-11-27T12:55:41Z</time>
      </trkpt>
      <trkpt lat="46.59006" lon="5.24727">
        <ele>201.2</ele>
        <time>2021-11-27T12:55:50Z</time>
      </trkpt>
      <trkpt lat="46.59001" lon="5.24742">
        <ele>201.4</ele>
        <time>2021-11-27T12:55:52Z</time>
      </trkpt>
      <trkpt lat="46.58999" lon="5.24748">
        <ele>201.4</ele>
        <time>2021-11-27T12:55:53Z</time>
      </trkpt>
      <trkpt lat="46.58997" lon="5.24755">
        <ele>201.4</ele>
        <time>2021-11-27T12:55:54Z</time>
      </trkpt>
      <trkpt lat="46.58995" lon="5.2477">
        <ele>201.6</ele>
        <time>2021-11-27T12:55:56Z</time>
      </trkpt>
      <trkpt lat="46.58993" lon="5.24779">
        <ele>201.6</ele>
        <time>2021-11-27T12:55:57Z</time>
      </trkpt>
      <trkpt lat="46.58978" lon="5.24826">
        <ele>201.4</ele>
        <time>2021-11-27T12:56:02Z</time>
      </trkpt>
      <trkpt lat="46.58953" lon="5.249">
        <ele>201.4</ele>
        <time>2021-11-27T12:56:10Z</time>
      </trkpt>
      <trkpt lat="46.58942" lon="5.24928">
        <ele>201.4</ele>
        <time>2021-11-27T12:56:13Z</time>
      </trkpt>
      <trkpt lat="46.58914" lon="5.24999">
        <ele>201.2</ele>
        <time>2021-11-27T12:56:21Z</time>
      </trkpt>
      <trkpt lat="46.58907" lon="5.25017">
        <ele>201.2</ele>
        <time>2021-11-27T12:56:23Z</time>
      </trkpt>
      <trkpt lat="46.5888" lon="5.25088">
        <ele>201.4</ele>
        <time>2021-11-27T12:56:31Z</time>
      </trkpt>
      <trkpt lat="46.58873" lon="5.25107">
        <ele>201.4</ele>
        <time>2021-11-27T12:56:33Z</time>
      </trkpt>
      <trkpt lat="46.58846" lon="5.25172">
        <ele>200.6</ele>
        <time>2021-11-27T12:56:40Z</time>
      </trkpt>
      <trkpt lat="46.58814" lon="5.25239">
        <ele>201</ele>
        <time>2021-11-27T12:56:48Z</time>
      </trkpt>
      <trkpt lat="46.58779" lon="5.253">
        <ele>202</ele>
        <time>2021-11-27T12:56:56Z</time>
      </trkpt>
      <trkpt lat="46.58771" lon="5.25316">
        <ele>202</ele>
        <time>2021-11-27T12:56:58Z</time>
      </trkpt>
      <trkpt lat="46.58767" lon="5.25325">
        <ele>202</ele>
        <time>2021-11-27T12:56:59Z</time>
      </trkpt>
      <trkpt lat="46.58756" lon="5.2536">
        <ele>202</ele>
        <time>2021-11-27T12:57:03Z</time>
      </trkpt>
      <trkpt lat="46.58741" lon="5.25435">
        <ele>202.2</ele>
        <time>2021-11-27T12:57:11Z</time>
      </trkpt>
      <trkpt lat="46.58728" lon="5.25514">
        <ele>202.2</ele>
        <time>2021-11-27T12:57:19Z</time>
      </trkpt>
      <trkpt lat="46.58723" lon="5.25546">
        <ele>202</ele>
        <time>2021-11-27T12:57:22Z</time>
      </trkpt>
      <trkpt lat="46.58721" lon="5.25578">
        <ele>202</ele>
        <time>2021-11-27T12:57:25Z</time>
      </trkpt>
      <trkpt lat="46.58723" lon="5.25599">
        <ele>201.8</ele>
        <time>2021-11-27T12:57:27Z</time>
      </trkpt>
      <trkpt lat="46.58738" lon="5.25657">
        <ele>201.2</ele>
        <time>2021-11-27T12:57:33Z</time>
      </trkpt>
      <trkpt lat="46.58752" lon="5.25712">
        <ele>201.6</ele>
        <time>2021-11-27T12:57:39Z</time>
      </trkpt>
      <trkpt lat="46.5876" lon="5.25772">
        <ele>202.2</ele>
        <time>2021-11-27T12:57:45Z</time>
      </trkpt>
      <trkpt lat="46.58765" lon="5.25853">
        <ele>202.4</ele>
        <time>2021-11-27T12:57:53Z</time>
      </trkpt>
      <trkpt lat="46.58766" lon="5.25873">
        <ele>202.4</ele>
        <time>2021-11-27T12:57:55Z</time>
      </trkpt>
      <trkpt lat="46.58771" lon="5.2596">
        <ele>202.6</ele>
        <time>2021-11-27T12:58:03Z</time>
      </trkpt>
      <trkpt lat="46.58772" lon="5.25979">
        <ele>202.6</ele>
        <time>2021-11-27T12:58:05Z</time>
      </trkpt>
      <trkpt lat="46.58769" lon="5.26043">
        <ele>202.8</ele>
        <time>2021-11-27T12:58:11Z</time>
      </trkpt>
      <trkpt lat="46.58754" lon="5.26093">
        <ele>202.8</ele>
        <time>2021-11-27T12:58:16Z</time>
      </trkpt>
      <trkpt lat="46.58741" lon="5.2612">
        <ele>202.8</ele>
        <time>2021-11-27T12:58:19Z</time>
      </trkpt>
      <trkpt lat="46.58731" lon="5.26136">
        <ele>202.8</ele>
        <time>2021-11-27T12:58:21Z</time>
      </trkpt>
      <trkpt lat="46.58688" lon="5.262">
        <ele>202.6</ele>
        <time>2021-11-27T12:58:29Z</time>
      </trkpt>
      <trkpt lat="46.58666" lon="5.26231">
        <ele>202.6</ele>
        <time>2021-11-27T12:58:33Z</time>
      </trkpt>
      <trkpt lat="46.58625" lon="5.26298">
        <ele>202.6</ele>
        <time>2021-11-27T12:58:41Z</time>
      </trkpt>
      <trkpt lat="46.58587" lon="5.26368">
        <ele>202.6</ele>
        <time>2021-11-27T12:58:49Z</time>
      </trkpt>
      <trkpt lat="46.58582" lon="5.26377">
        <ele>202.6</ele>
        <time>2021-11-27T12:58:50Z</time>
      </trkpt>
      <trkpt lat="46.58546" lon="5.26444">
        <ele>202.8</ele>
        <time>2021-11-27T12:58:58Z</time>
      </trkpt>
      <trkpt lat="46.58517" lon="5.26518">
        <ele>202.8</ele>
        <time>2021-11-27T12:59:06Z</time>
      </trkpt>
      <trkpt lat="46.585" lon="5.26569">
        <ele>203</ele>
        <time>2021-11-27T12:59:12Z</time>
      </trkpt>
      <trkpt lat="46.58498" lon="5.26577">
        <ele>203</ele>
        <time>2021-11-27T12:59:13Z</time>
      </trkpt>
      <trkpt lat="46.58489" lon="5.26587">
        <ele>203</ele>
        <time>2021-11-27T12:59:15Z</time>
      </trkpt>
      <trkpt lat="46.58478" lon="5.26585">
        <ele>203</ele>
        <time>2021-11-27T12:59:17Z</time>
      </trkpt>
      <trkpt lat="46.58453" lon="5.2656">
        <ele>202.6</ele>
        <time>2021-11-27T12:59:22Z</time>
      </trkpt>
      <trkpt lat="46.58418" lon="5.26528">
        <ele>202.2</ele>
        <time>2021-11-27T12:59:28Z</time>
      </trkpt>
      <trkpt lat="46.58395" lon="5.26494">
        <ele>202.2</ele>
        <time>2021-11-27T12:59:33Z</time>
      </trkpt>
      <trkpt lat="46.58375" lon="5.26441">
        <ele>202</ele>
        <time>2021-11-27T12:59:39Z</time>
      </trkpt>
      <trkpt lat="46.58353" lon="5.26361">
        <ele>201.4</ele>
        <time>2021-11-27T12:59:48Z</time>
      </trkpt>
      <trkpt lat="46.58346" lon="5.26335">
        <ele>201.4</ele>
        <time>2021-11-27T12:59:51Z</time>
      </trkpt>
      <trkpt lat="46.58324" lon="5.26259">
        <ele>201.8</ele>
        <time>2021-11-27T13:00:00Z</time>
      </trkpt>
      <trkpt lat="46.58321" lon="5.2625">
        <ele>201.8</ele>
        <time>2021-11-27T13:00:01Z</time>
      </trkpt>
      <trkpt lat="46.58303" lon="5.26188">
        <ele>201.8</ele>
        <time>2021-11-27T13:00:08Z</time>
      </trkpt>
      <trkpt lat="46.58283" lon="5.26113">
        <ele>201</ele>
        <time>2021-11-27T13:00:16Z</time>
      </trkpt>
      <trkpt lat="46.5828" lon="5.26103">
        <ele>201</ele>
        <time>2021-11-27T13:00:17Z</time>
      </trkpt>
      <trkpt lat="46.58263" lon="5.2607">
        <ele>200.8</ele>
        <time>2021-11-27T13:00:21Z</time>
      </trkpt>
      <trkpt lat="46.58232" lon="5.26035">
        <ele>199.4</ele>
        <time>2021-11-27T13:00:26Z</time>
      </trkpt>
      <trkpt lat="46.58218" lon="5.2602">
        <ele>198.4</ele>
        <time>2021-11-27T13:00:28Z</time>
      </trkpt>
      <trkpt lat="46.58186" lon="5.25986">
        <ele>196.6</ele>
        <time>2021-11-27T13:00:32Z</time>
      </trkpt>
      <trkpt lat="46.58179" lon="5.2598">
        <ele>195.6</ele>
        <time>2021-11-27T13:00:33Z</time>
      </trkpt>
      <trkpt lat="46.58145" lon="5.25954">
        <ele>193.6</ele>
        <time>2021-11-27T13:00:37Z</time>
      </trkpt>
      <trkpt lat="46.58136" lon="5.25948">
        <ele>193.2</ele>
        <time>2021-11-27T13:00:38Z</time>
      </trkpt>
      <trkpt lat="46.58128" lon="5.25942">
        <ele>192.4</ele>
        <time>2021-11-27T13:00:39Z</time>
      </trkpt>
      <trkpt lat="46.58112" lon="5.2593">
        <ele>191</ele>
        <time>2021-11-27T13:00:41Z</time>
      </trkpt>
      <trkpt lat="46.58089" lon="5.25914">
        <ele>189.8</ele>
        <time>2021-11-27T13:00:44Z</time>
      </trkpt>
      <trkpt lat="46.58042" lon="5.25881">
        <ele>189.8</ele>
        <time>2021-11-27T13:00:51Z</time>
      </trkpt>
      <trkpt lat="46.58014" lon="5.25859">
        <ele>191</ele>
        <time>2021-11-27T13:00:57Z</time>
      </trkpt>
      <trkpt lat="46.58011" lon="5.25855">
        <ele>191.6</ele>
        <time>2021-11-27T13:00:58Z</time>
      </trkpt>
      <trkpt lat="46.58004" lon="5.25848">
        <ele>192.4</ele>
        <time>2021-11-27T13:01:00Z</time>
      </trkpt>
      <trkpt lat="46.58001" lon="5.25844">
        <ele>192.8</ele>
        <time>2021-11-27T13:01:01Z</time>
      </trkpt>
      <trkpt lat="46.57998" lon="5.2584">
        <ele>193.4</ele>
        <time>2021-11-27T13:01:02Z</time>
      </trkpt>
      <trkpt lat="46.57995" lon="5.25836">
        <ele>193.6</ele>
        <time>2021-11-27T13:01:03Z</time>
      </trkpt>
      <trkpt lat="46.57993" lon="5.25832">
        <ele>194</ele>
        <time>2021-11-27T13:01:04Z</time>
      </trkpt>
      <trkpt lat="46.57988" lon="5.25822">
        <ele>194.6</ele>
        <time>2021-11-27T13:01:06Z</time>
      </trkpt>
      <trkpt lat="46.57981" lon="5.25807">
        <ele>195.4</ele>
        <time>2021-11-27T13:01:09Z</time>
      </trkpt>
      <trkpt lat="46.57979" lon="5.25802">
        <ele>195.6</ele>
        <time>2021-11-27T13:01:10Z</time>
      </trkpt>
      <trkpt lat="46.5797" lon="5.25784">
        <ele>196.6</ele>
        <time>2021-11-27T13:01:14Z</time>
      </trkpt>
      <trkpt lat="46.57964" lon="5.25777">
        <ele>197.4</ele>
        <time>2021-11-27T13:01:16Z</time>
      </trkpt>
      <trkpt lat="46.57957" lon="5.25772">
        <ele>197.8</ele>
        <time>2021-11-27T13:01:18Z</time>
      </trkpt>
      <trkpt lat="46.57945" lon="5.25768">
        <ele>198.4</ele>
        <time>2021-11-27T13:01:21Z</time>
      </trkpt>
      <trkpt lat="46.57936" lon="5.25768">
        <ele>198.8</ele>
        <time>2021-11-27T13:01:23Z</time>
      </trkpt>
      <trkpt lat="46.57915" lon="5.25768">
        <ele>199.6</ele>
        <time>2021-11-27T13:01:27Z</time>
      </trkpt>
      <trkpt lat="46.57905" lon="5.25768">
        <ele>199.8</ele>
        <time>2021-11-27T13:01:29Z</time>
      </trkpt>
      <trkpt lat="46.57879" lon="5.25768">
        <ele>200</ele>
        <time>2021-11-27T13:01:34Z</time>
      </trkpt>
      <trkpt lat="46.57838" lon="5.25769">
        <ele>200.2</ele>
        <time>2021-11-27T13:01:42Z</time>
      </trkpt>
      <trkpt lat="46.57828" lon="5.25768">
        <ele>200.4</ele>
        <time>2021-11-27T13:01:44Z</time>
      </trkpt>
      <trkpt lat="46.57803" lon="5.25762">
        <ele>200.6</ele>
        <time>2021-11-27T13:01:49Z</time>
      </trkpt>
      <trkpt lat="46.57788" lon="5.25756">
        <ele>201</ele>
        <time>2021-11-27T13:01:52Z</time>
      </trkpt>
      <trkpt lat="46.57769" lon="5.25746">
        <ele>201.4</ele>
        <time>2021-11-27T13:01:56Z</time>
      </trkpt>
      <trkpt lat="46.57736" lon="5.25722">
        <ele>202</ele>
        <time>2021-11-27T13:02:03Z</time>
      </trkpt>
      <trkpt lat="46.57731" lon="5.25719">
        <ele>202.2</ele>
        <time>2021-11-27T13:02:04Z</time>
      </trkpt>
      <trkpt lat="46.57698" lon="5.25707">
        <ele>202.2</ele>
        <time>2021-11-27T13:02:10Z</time>
      </trkpt>
      <trkpt lat="46.57646" lon="5.25701">
        <ele>202.6</ele>
        <time>2021-11-27T13:02:19Z</time>
      </trkpt>
      <trkpt lat="46.57616" lon="5.25698">
        <ele>202.2</ele>
        <time>2021-11-27T13:02:25Z</time>
      </trkpt>
      <trkpt lat="46.57613" lon="5.25695">
        <ele>202</ele>
        <time>2021-11-27T13:02:26Z</time>
      </trkpt>
      <trkpt lat="46.5761" lon="5.2569">
        <ele>201.8</ele>
        <time>2021-11-27T13:02:27Z</time>
      </trkpt>
      <trkpt lat="46.57607" lon="5.25678">
        <ele>201.6</ele>
        <time>2021-11-27T13:02:29Z</time>
      </trkpt>
      <trkpt lat="46.57598" lon="5.25648">
        <ele>201</ele>
        <time>2021-11-27T13:02:33Z</time>
      </trkpt>
      <trkpt lat="46.57593" lon="5.25631">
        <ele>200.6</ele>
        <time>2021-11-27T13:02:35Z</time>
      </trkpt>
      <trkpt lat="46.57588" lon="5.25611">
        <ele>199.8</ele>
        <time>2021-11-27T13:02:37Z</time>
      </trkpt>
      <trkpt lat="46.57582" lon="5.25578">
        <ele>198.4</ele>
        <time>2021-11-27T13:02:40Z</time>
      </trkpt>
      <trkpt lat="46.5758" lon="5.25566">
        <ele>197.4</ele>
        <time>2021-11-27T13:02:41Z</time>
      </trkpt>
      <trkpt lat="46.57579" lon="5.25553">
        <ele>196.4</ele>
        <time>2021-11-27T13:02:42Z</time>
      </trkpt>
      <trkpt lat="46.57577" lon="5.25526">
        <ele>195</ele>
        <time>2021-11-27T13:02:44Z</time>
      </trkpt>
      <trkpt lat="46.57575" lon="5.25497">
        <ele>193.8</ele>
        <time>2021-11-27T13:02:46Z</time>
      </trkpt>
      <trkpt lat="46.57573" lon="5.25468">
        <ele>192.4</ele>
        <time>2021-11-27T13:02:48Z</time>
      </trkpt>
      <trkpt lat="46.57572" lon="5.25453">
        <ele>191.4</ele>
        <time>2021-11-27T13:02:49Z</time>
      </trkpt>
      <trkpt lat="46.5757" lon="5.25419">
        <ele>190</ele>
        <time>2021-11-27T13:02:51Z</time>
      </trkpt>
      <trkpt lat="46.5757" lon="5.25406">
        <ele>189.2</ele>
        <time>2021-11-27T13:02:52Z</time>
      </trkpt>
      <trkpt lat="46.57569" lon="5.25391">
        <ele>188</ele>
        <time>2021-11-27T13:02:53Z</time>
      </trkpt>
      <trkpt lat="46.5757" lon="5.25375">
        <ele>187.4</ele>
        <time>2021-11-27T13:02:54Z</time>
      </trkpt>
      <trkpt lat="46.57572" lon="5.2536">
        <ele>186.6</ele>
        <time>2021-11-27T13:02:55Z</time>
      </trkpt>
      <trkpt lat="46.57576" lon="5.25347">
        <ele>186</ele>
        <time>2021-11-27T13:02:56Z</time>
      </trkpt>
      <trkpt lat="46.57582" lon="5.25335">
        <ele>184.8</ele>
        <time>2021-11-27T13:02:57Z</time>
      </trkpt>
      <trkpt lat="46.57589" lon="5.25325">
        <ele>184</ele>
        <time>2021-11-27T13:02:58Z</time>
      </trkpt>
      <trkpt lat="46.57606" lon="5.2531">
        <ele>183.6</ele>
        <time>2021-11-27T13:03:00Z</time>
      </trkpt>
      <trkpt lat="46.57632" lon="5.25288">
        <ele>183.2</ele>
        <time>2021-11-27T13:03:03Z</time>
      </trkpt>
      <trkpt lat="46.57657" lon="5.25267">
        <ele>182.4</ele>
        <time>2021-11-27T13:03:06Z</time>
      </trkpt>
      <trkpt lat="46.57698" lon="5.25231">
        <ele>181.2</ele>
        <time>2021-11-27T13:03:11Z</time>
      </trkpt>
      <trkpt lat="46.57736" lon="5.25199">
        <ele>180.4</ele>
        <time>2021-11-27T13:03:16Z</time>
      </trkpt>
      <trkpt lat="46.57758" lon="5.25181">
        <ele>180.2</ele>
        <time>2021-11-27T13:03:19Z</time>
      </trkpt>
      <trkpt lat="46.57766" lon="5.25175">
        <ele>180.2</ele>
        <time>2021-11-27T13:03:20Z</time>
      </trkpt>
      <trkpt lat="46.57815" lon="5.25137">
        <ele>179.8</ele>
        <time>2021-11-27T13:03:27Z</time>
      </trkpt>
      <trkpt lat="46.57823" lon="5.25134">
        <ele>179.8</ele>
        <time>2021-11-27T13:03:28Z</time>
      </trkpt>
      <trkpt lat="46.57846" lon="5.25129">
        <ele>180</ele>
        <time>2021-11-27T13:03:31Z</time>
      </trkpt>
      <trkpt lat="46.57876" lon="5.2513">
        <ele>180.6</ele>
        <time>2021-11-27T13:03:35Z</time>
      </trkpt>
      <trkpt lat="46.5789" lon="5.25132">
        <ele>180.6</ele>
        <time>2021-11-27T13:03:37Z</time>
      </trkpt>
      <trkpt lat="46.57946" lon="5.25142">
        <ele>181.2</ele>
        <time>2021-11-27T13:03:45Z</time>
      </trkpt>
      <trkpt lat="46.57953" lon="5.25142">
        <ele>181.2</ele>
        <time>2021-11-27T13:03:46Z</time>
      </trkpt>
      <trkpt lat="46.57958" lon="5.25141">
        <ele>181.2</ele>
        <time>2021-11-27T13:03:47Z</time>
      </trkpt>
      <trkpt lat="46.57963" lon="5.25138">
        <ele>181.4</ele>
        <time>2021-11-27T13:03:48Z</time>
      </trkpt>
      <trkpt lat="46.57967" lon="5.25134">
        <ele>181.6</ele>
        <time>2021-11-27T13:03:49Z</time>
      </trkpt>
      <trkpt lat="46.5797" lon="5.25129">
        <ele>181.8</ele>
        <time>2021-11-27T13:03:50Z</time>
      </trkpt>
      <trkpt lat="46.57974" lon="5.25117">
        <ele>182</ele>
        <time>2021-11-27T13:03:52Z</time>
      </trkpt>
      <trkpt lat="46.57975" lon="5.25111">
        <ele>182</ele>
        <time>2021-11-27T13:03:53Z</time>
      </trkpt>
      <trkpt lat="46.57975" lon="5.251">
        <ele>182</ele>
        <time>2021-11-27T13:03:55Z</time>
      </trkpt>
      <trkpt lat="46.57973" lon="5.25096">
        <ele>182</ele>
        <time>2021-11-27T13:03:56Z</time>
      </trkpt>
      <trkpt lat="46.5797" lon="5.25093">
        <ele>182</ele>
        <time>2021-11-27T13:03:57Z</time>
      </trkpt>
      <trkpt lat="46.57961" lon="5.25092">
        <ele>182</ele>
        <time>2021-11-27T13:03:59Z</time>
      </trkpt>
      <trkpt lat="46.57939" lon="5.25093">
        <ele>182.4</ele>
        <time>2021-11-27T13:04:03Z</time>
      </trkpt>
      <trkpt lat="46.57928" lon="5.25094">
        <ele>182.6</ele>
        <time>2021-11-27T13:04:05Z</time>
      </trkpt>
      <trkpt lat="46.57899" lon="5.25095">
        <ele>183.6</ele>
        <time>2021-11-27T13:04:10Z</time>
      </trkpt>
      <trkpt lat="46.57877" lon="5.25095">
        <ele>184.2</ele>
        <time>2021-11-27T13:04:14Z</time>
      </trkpt>
      <trkpt lat="46.57866" lon="5.25095">
        <ele>184.6</ele>
        <time>2021-11-27T13:04:16Z</time>
      </trkpt>
      <trkpt lat="46.57834" lon="5.25094">
        <ele>185.8</ele>
        <time>2021-11-27T13:04:22Z</time>
      </trkpt>
      <trkpt lat="46.57829" lon="5.25094">
        <ele>186</ele>
        <time>2021-11-27T13:04:23Z</time>
      </trkpt>
      <trkpt lat="46.57787" lon="5.25092">
        <ele>186.8</ele>
        <time>2021-11-27T13:04:31Z</time>
      </trkpt>
      <trkpt lat="46.5777" lon="5.25092">
        <ele>187.2</ele>
        <time>2021-11-27T13:04:34Z</time>
      </trkpt>
      <trkpt lat="46.57735" lon="5.25091">
        <ele>187.8</ele>
        <time>2021-11-27T13:04:40Z</time>
      </trkpt>
      <trkpt lat="46.57729" lon="5.25091">
        <ele>187.8</ele>
        <time>2021-11-27T13:04:41Z</time>
      </trkpt>
      <trkpt lat="46.5771" lon="5.25091">
        <ele>187.6</ele>
        <time>2021-11-27T13:04:44Z</time>
      </trkpt>
      <trkpt lat="46.5767" lon="5.25105">
        <ele>186.8</ele>
        <time>2021-11-27T13:04:50Z</time>
      </trkpt>
      <trkpt lat="46.57663" lon="5.25109">
        <ele>186.6</ele>
        <time>2021-11-27T13:04:51Z</time>
      </trkpt>
      <trkpt lat="46.57633" lon="5.25127">
        <ele>186.2</ele>
        <time>2021-11-27T13:04:55Z</time>
      </trkpt>
      <trkpt lat="46.57617" lon="5.25135">
        <ele>185.6</ele>
        <time>2021-11-27T13:04:57Z</time>
      </trkpt>
      <trkpt lat="46.576" lon="5.25138">
        <ele>184.8</ele>
        <time>2021-11-27T13:04:59Z</time>
      </trkpt>
      <trkpt lat="46.57591" lon="5.25137">
        <ele>184.6</ele>
        <time>2021-11-27T13:05:00Z</time>
      </trkpt>
      <trkpt lat="46.57564" lon="5.25132">
        <ele>183.6</ele>
        <time>2021-11-27T13:05:03Z</time>
      </trkpt>
      <trkpt lat="46.57555" lon="5.25128">
        <ele>183.2</ele>
        <time>2021-11-27T13:05:04Z</time>
      </trkpt>
      <trkpt lat="46.57547" lon="5.25123">
        <ele>182.4</ele>
        <time>2021-11-27T13:05:05Z</time>
      </trkpt>
      <trkpt lat="46.57539" lon="5.25116">
        <ele>182.2</ele>
        <time>2021-11-27T13:05:06Z</time>
      </trkpt>
      <trkpt lat="46.57531" lon="5.25109">
        <ele>181.6</ele>
        <time>2021-11-27T13:05:07Z</time>
      </trkpt>
      <trkpt lat="46.57524" lon="5.25101">
        <ele>181.2</ele>
        <time>2021-11-27T13:05:08Z</time>
      </trkpt>
      <trkpt lat="46.57518" lon="5.25092">
        <ele>180.6</ele>
        <time>2021-11-27T13:05:09Z</time>
      </trkpt>
      <trkpt lat="46.57501" lon="5.25063">
        <ele>179.4</ele>
        <time>2021-11-27T13:05:12Z</time>
      </trkpt>
      <trkpt lat="46.57496" lon="5.25053">
        <ele>179</ele>
        <time>2021-11-27T13:05:13Z</time>
      </trkpt>
      <trkpt lat="46.57483" lon="5.25024">
        <ele>178.4</ele>
        <time>2021-11-27T13:05:16Z</time>
      </trkpt>
      <trkpt lat="46.57468" lon="5.24988">
        <ele>178</ele>
        <time>2021-11-27T13:05:20Z</time>
      </trkpt>
      <trkpt lat="46.57438" lon="5.24918">
        <ele>178</ele>
        <time>2021-11-27T13:05:28Z</time>
      </trkpt>
      <trkpt lat="46.5741" lon="5.24858">
        <ele>178.2</ele>
        <time>2021-11-27T13:05:35Z</time>
      </trkpt>
      <trkpt lat="46.574" lon="5.24834">
        <ele>178</ele>
        <time>2021-11-27T13:05:38Z</time>
      </trkpt>
      <trkpt lat="46.57382" lon="5.24794">
        <ele>178.2</ele>
        <time>2021-11-27T13:05:43Z</time>
      </trkpt>
      <trkpt lat="46.57377" lon="5.24787">
        <ele>178.2</ele>
        <time>2021-11-27T13:05:44Z</time>
      </trkpt>
      <trkpt lat="46.57357" lon="5.24765">
        <ele>178.6</ele>
        <time>2021-11-27T13:05:48Z</time>
      </trkpt>
      <trkpt lat="46.57314" lon="5.24723">
        <ele>178.8</ele>
        <time>2021-11-27T13:05:56Z</time>
      </trkpt>
      <trkpt lat="46.57309" lon="5.24716">
        <ele>178.8</ele>
        <time>2021-11-27T13:05:57Z</time>
      </trkpt>
      <trkpt lat="46.57302" lon="5.247">
        <ele>178.8</ele>
        <time>2021-11-27T13:05:59Z</time>
      </trkpt>
      <trkpt lat="46.5728" lon="5.24652">
        <ele>178.6</ele>
        <time>2021-11-27T13:06:05Z</time>
      </trkpt>
      <trkpt lat="46.57269" lon="5.24649">
        <ele>178.6</ele>
        <time>2021-11-27T13:06:07Z</time>
      </trkpt>
      <trkpt lat="46.57263" lon="5.2465">
        <ele>178.6</ele>
        <time>2021-11-27T13:06:08Z</time>
      </trkpt>
      <trkpt lat="46.57234" lon="5.24661">
        <ele>178.6</ele>
        <time>2021-11-27T13:06:13Z</time>
      </trkpt>
      <trkpt lat="46.57223" lon="5.24664">
        <ele>178.6</ele>
        <time>2021-11-27T13:06:15Z</time>
      </trkpt>
      <trkpt lat="46.57178" lon="5.24679">
        <ele>179.4</ele>
        <time>2021-11-27T13:06:23Z</time>
      </trkpt>
      <trkpt lat="46.57172" lon="5.24681">
        <ele>179.4</ele>
        <time>2021-11-27T13:06:24Z</time>
      </trkpt>
      <trkpt lat="46.57134" lon="5.24689">
        <ele>180</ele>
        <time>2021-11-27T13:06:31Z</time>
      </trkpt>
      <trkpt lat="46.57114" lon="5.24687">
        <ele>180.4</ele>
        <time>2021-11-27T13:06:35Z</time>
      </trkpt>
      <trkpt lat="46.57109" lon="5.24685">
        <ele>180.4</ele>
        <time>2021-11-27T13:06:36Z</time>
      </trkpt>
      <trkpt lat="46.57104" lon="5.24683">
        <ele>180.6</ele>
        <time>2021-11-27T13:06:37Z</time>
      </trkpt>
      <trkpt lat="46.57068" lon="5.24672">
        <ele>181.2</ele>
        <time>2021-11-27T13:06:45Z</time>
      </trkpt>
      <trkpt lat="46.57051" lon="5.24665">
        <ele>181.6</ele>
        <time>2021-11-27T13:06:48Z</time>
      </trkpt>
      <trkpt lat="46.57036" lon="5.2466">
        <ele>182</ele>
        <time>2021-11-27T13:06:51Z</time>
      </trkpt>
      <trkpt lat="46.5702" lon="5.24655">
        <ele>182.8</ele>
        <time>2021-11-27T13:06:54Z</time>
      </trkpt>
      <trkpt lat="46.56985" lon="5.24642">
        <ele>183.6</ele>
        <time>2021-11-27T13:07:01Z</time>
      </trkpt>
      <trkpt lat="46.5698" lon="5.24641">
        <ele>183.8</ele>
        <time>2021-11-27T13:07:02Z</time>
      </trkpt>
      <trkpt lat="46.56951" lon="5.2463">
        <ele>184.8</ele>
        <time>2021-11-27T13:07:08Z</time>
      </trkpt>
      <trkpt lat="46.56932" lon="5.24623">
        <ele>185.4</ele>
        <time>2021-11-27T13:07:12Z</time>
      </trkpt>
      <trkpt lat="46.56923" lon="5.2462">
        <ele>186</ele>
        <time>2021-11-27T13:07:14Z</time>
      </trkpt>
      <trkpt lat="46.56885" lon="5.24607">
        <ele>187.2</ele>
        <time>2021-11-27T13:07:22Z</time>
      </trkpt>
      <trkpt lat="46.5688" lon="5.24605">
        <ele>187.2</ele>
        <time>2021-11-27T13:07:23Z</time>
      </trkpt>
      <trkpt lat="46.56837" lon="5.2459">
        <ele>188</ele>
        <time>2021-11-27T13:07:32Z</time>
      </trkpt>
      <trkpt lat="46.56807" lon="5.24579">
        <ele>188.2</ele>
        <time>2021-11-27T13:07:38Z</time>
      </trkpt>
      <trkpt lat="46.56781" lon="5.2457">
        <ele>188.4</ele>
        <time>2021-11-27T13:07:43Z</time>
      </trkpt>
      <trkpt lat="46.56743" lon="5.24557">
        <ele>189.2</ele>
        <time>2021-11-27T13:07:51Z</time>
      </trkpt>
      <trkpt lat="46.56739" lon="5.24556">
        <ele>189.4</ele>
        <time>2021-11-27T13:07:52Z</time>
      </trkpt>
      <trkpt lat="46.56712" lon="5.24545">
        <ele>190.2</ele>
        <time>2021-11-27T13:07:58Z</time>
      </trkpt>
      <trkpt lat="46.56708" lon="5.24543">
        <ele>190.6</ele>
        <time>2021-11-27T13:07:59Z</time>
      </trkpt>
      <trkpt lat="46.56699" lon="5.2454">
        <ele>191</ele>
        <time>2021-11-27T13:08:01Z</time>
      </trkpt>
      <trkpt lat="46.5669" lon="5.24536">
        <ele>191.4</ele>
        <time>2021-11-27T13:08:03Z</time>
      </trkpt>
      <trkpt lat="46.56668" lon="5.24527">
        <ele>192.4</ele>
        <time>2021-11-27T13:08:08Z</time>
      </trkpt>
      <trkpt lat="46.56663" lon="5.24526">
        <ele>192.6</ele>
        <time>2021-11-27T13:08:09Z</time>
      </trkpt>
      <trkpt lat="46.56659" lon="5.24524">
        <ele>193</ele>
        <time>2021-11-27T13:08:10Z</time>
      </trkpt>
      <trkpt lat="46.56646" lon="5.2452">
        <ele>193.6</ele>
        <time>2021-11-27T13:08:13Z</time>
      </trkpt>
      <trkpt lat="46.56629" lon="5.24514">
        <ele>194.8</ele>
        <time>2021-11-27T13:08:17Z</time>
      </trkpt>
      <trkpt lat="46.56611" lon="5.24508">
        <ele>195.4</ele>
        <time>2021-11-27T13:08:21Z</time>
      </trkpt>
      <trkpt lat="46.56603" lon="5.24506">
        <ele>195.8</ele>
        <time>2021-11-27T13:08:23Z</time>
      </trkpt>
      <trkpt lat="46.5658" lon="5.24498">
        <ele>196.8</ele>
        <time>2021-11-27T13:08:28Z</time>
      </trkpt>
      <trkpt lat="46.56574" lon="5.24496">
        <ele>197</ele>
        <time>2021-11-27T13:08:29Z</time>
      </trkpt>
      <trkpt lat="46.56556" lon="5.24491">
        <ele>198</ele>
        <time>2021-11-27T13:08:33Z</time>
      </trkpt>
      <trkpt lat="46.56537" lon="5.24485">
        <ele>198.4</ele>
        <time>2021-11-27T13:08:37Z</time>
      </trkpt>
      <trkpt lat="46.56503" lon="5.24474">
        <ele>199</ele>
        <time>2021-11-27T13:08:44Z</time>
      </trkpt>
      <trkpt lat="46.56493" lon="5.2447">
        <ele>199.4</ele>
        <time>2021-11-27T13:08:46Z</time>
      </trkpt>
      <trkpt lat="46.56438" lon="5.24452">
        <ele>200.2</ele>
        <time>2021-11-27T13:08:57Z</time>
      </trkpt>
      <trkpt lat="46.56434" lon="5.2445">
        <ele>200.4</ele>
        <time>2021-11-27T13:08:58Z</time>
      </trkpt>
      <trkpt lat="46.56405" lon="5.2444">
        <ele>201.2</ele>
        <time>2021-11-27T13:09:04Z</time>
      </trkpt>
      <trkpt lat="46.56381" lon="5.24432">
        <ele>202</ele>
        <time>2021-11-27T13:09:09Z</time>
      </trkpt>
      <trkpt lat="46.56367" lon="5.24428">
        <ele>202.4</ele>
        <time>2021-11-27T13:09:12Z</time>
      </trkpt>
      <trkpt lat="46.56348" lon="5.24421">
        <ele>203</ele>
        <time>2021-11-27T13:09:16Z</time>
      </trkpt>
      <trkpt lat="46.5633" lon="5.24414">
        <ele>203.6</ele>
        <time>2021-11-27T13:09:20Z</time>
      </trkpt>
      <trkpt lat="46.56291" lon="5.24401">
        <ele>204.2</ele>
        <time>2021-11-27T13:09:28Z</time>
      </trkpt>
      <trkpt lat="46.56259" lon="5.2439">
        <ele>204.6</ele>
        <time>2021-11-27T13:09:34Z</time>
      </trkpt>
      <trkpt lat="46.56248" lon="5.24386">
        <ele>204.6</ele>
        <time>2021-11-27T13:09:36Z</time>
      </trkpt>
      <trkpt lat="46.56203" lon="5.24371">
        <ele>204.6</ele>
        <time>2021-11-27T13:09:44Z</time>
      </trkpt>
      <trkpt lat="46.56147" lon="5.24352">
        <ele>204.8</ele>
        <time>2021-11-27T13:09:53Z</time>
      </trkpt>
      <trkpt lat="46.56134" lon="5.24347">
        <ele>204.8</ele>
        <time>2021-11-27T13:09:55Z</time>
      </trkpt>
      <trkpt lat="46.56076" lon="5.24326">
        <ele>205.2</ele>
        <time>2021-11-27T13:10:04Z</time>
      </trkpt>
      <trkpt lat="46.56063" lon="5.24322">
        <ele>205.2</ele>
        <time>2021-11-27T13:10:06Z</time>
      </trkpt>
      <trkpt lat="46.56005" lon="5.24304">
        <ele>205</ele>
        <time>2021-11-27T13:10:15Z</time>
      </trkpt>
      <trkpt lat="46.55992" lon="5.24301">
        <ele>205</ele>
        <time>2021-11-27T13:10:17Z</time>
      </trkpt>
      <trkpt lat="46.55937" lon="5.24294">
        <ele>204.4</ele>
        <time>2021-11-27T13:10:25Z</time>
      </trkpt>
      <trkpt lat="46.5593" lon="5.24294">
        <ele>204</ele>
        <time>2021-11-27T13:10:26Z</time>
      </trkpt>
      <trkpt lat="46.559" lon="5.24296">
        <ele>203.4</ele>
        <time>2021-11-27T13:10:30Z</time>
      </trkpt>
      <trkpt lat="46.5586" lon="5.24299">
        <ele>202.4</ele>
        <time>2021-11-27T13:10:35Z</time>
      </trkpt>
      <trkpt lat="46.5582" lon="5.24302">
        <ele>201.2</ele>
        <time>2021-11-27T13:10:40Z</time>
      </trkpt>
      <trkpt lat="46.55762" lon="5.24306">
        <ele>200</ele>
        <time>2021-11-27T13:10:47Z</time>
      </trkpt>
      <trkpt lat="46.55705" lon="5.2431">
        <ele>198.8</ele>
        <time>2021-11-27T13:10:54Z</time>
      </trkpt>
      <trkpt lat="46.55696" lon="5.24311">
        <ele>198.8</ele>
        <time>2021-11-27T13:10:55Z</time>
      </trkpt>
      <trkpt lat="46.55642" lon="5.24315">
        <ele>198</ele>
        <time>2021-11-27T13:11:02Z</time>
      </trkpt>
      <trkpt lat="46.55618" lon="5.24317">
        <ele>197.6</ele>
        <time>2021-11-27T13:11:05Z</time>
      </trkpt>
      <trkpt lat="46.55567" lon="5.24322">
        <ele>197.2</ele>
        <time>2021-11-27T13:11:12Z</time>
      </trkpt>
      <trkpt lat="46.55509" lon="5.24325">
        <ele>197.6</ele>
        <time>2021-11-27T13:11:20Z</time>
      </trkpt>
      <trkpt lat="46.55456" lon="5.24329">
        <ele>198.2</ele>
        <time>2021-11-27T13:11:28Z</time>
      </trkpt>
      <trkpt lat="46.55432" lon="5.24331">
        <ele>198.8</ele>
        <time>2021-11-27T13:11:32Z</time>
      </trkpt>
      <trkpt lat="46.55413" lon="5.24332">
        <ele>199</ele>
        <time>2021-11-27T13:11:35Z</time>
      </trkpt>
      <trkpt lat="46.55385" lon="5.24332">
        <ele>199.4</ele>
        <time>2021-11-27T13:11:40Z</time>
      </trkpt>
      <trkpt lat="46.55339" lon="5.24336">
        <ele>199.8</ele>
        <time>2021-11-27T13:11:47Z</time>
      </trkpt>
      <trkpt lat="46.55331" lon="5.24337">
        <ele>199.8</ele>
        <time>2021-11-27T13:11:48Z</time>
      </trkpt>
      <trkpt lat="46.55324" lon="5.24338">
        <ele>199.8</ele>
        <time>2021-11-27T13:11:49Z</time>
      </trkpt>
      <trkpt lat="46.55295" lon="5.24341">
        <ele>199.8</ele>
        <time>2021-11-27T13:11:53Z</time>
      </trkpt>
      <trkpt lat="46.55241" lon="5.24344">
        <ele>199.2</ele>
        <time>2021-11-27T13:12:01Z</time>
      </trkpt>
      <trkpt lat="46.55232" lon="5.24345">
        <ele>199.2</ele>
        <time>2021-11-27T13:12:02Z</time>
      </trkpt>
      <trkpt lat="46.55189" lon="5.24348">
        <ele>199.2</ele>
        <time>2021-11-27T13:12:09Z</time>
      </trkpt>
      <trkpt lat="46.55148" lon="5.24354">
        <ele>199.8</ele>
        <time>2021-11-27T13:12:16Z</time>
      </trkpt>
      <trkpt lat="46.55111" lon="5.2437">
        <ele>200.4</ele>
        <time>2021-11-27T13:12:23Z</time>
      </trkpt>
      <trkpt lat="46.55103" lon="5.24374">
        <ele>200.6</ele>
        <time>2021-11-27T13:12:25Z</time>
      </trkpt>
      <trkpt lat="46.55093" lon="5.2438">
        <ele>200.8</ele>
        <time>2021-11-27T13:12:27Z</time>
      </trkpt>
      <trkpt lat="46.55089" lon="5.24383">
        <ele>201</ele>
        <time>2021-11-27T13:12:28Z</time>
      </trkpt>
      <trkpt lat="46.55086" lon="5.24385">
        <ele>201.2</ele>
        <time>2021-11-27T13:12:29Z</time>
      </trkpt>
      <trkpt lat="46.55073" lon="5.24393">
        <ele>201.8</ele>
        <time>2021-11-27T13:12:32Z</time>
      </trkpt>
      <trkpt lat="46.55065" lon="5.24398">
        <ele>202.2</ele>
        <time>2021-11-27T13:12:34Z</time>
      </trkpt>
      <trkpt lat="46.55045" lon="5.24407">
        <ele>202.8</ele>
        <time>2021-11-27T13:12:38Z</time>
      </trkpt>
      <trkpt lat="46.5504" lon="5.24411">
        <ele>203</ele>
        <time>2021-11-27T13:12:39Z</time>
      </trkpt>
      <trkpt lat="46.55007" lon="5.2443">
        <ele>203.8</ele>
        <time>2021-11-27T13:12:45Z</time>
      </trkpt>
      <trkpt lat="46.55001" lon="5.24434">
        <ele>203.8</ele>
        <time>2021-11-27T13:12:46Z</time>
      </trkpt>
      <trkpt lat="46.54991" lon="5.24441">
        <ele>203.8</ele>
        <time>2021-11-27T13:12:48Z</time>
      </trkpt>
      <trkpt lat="46.54961" lon="5.24461">
        <ele>204</ele>
        <time>2021-11-27T13:12:53Z</time>
      </trkpt>
      <trkpt lat="46.54924" lon="5.24484">
        <ele>204.2</ele>
        <time>2021-11-27T13:12:59Z</time>
      </trkpt>
      <trkpt lat="46.54884" lon="5.24507">
        <ele>203.6</ele>
        <time>2021-11-27T13:13:06Z</time>
      </trkpt>
      <trkpt lat="46.54849" lon="5.24529">
        <ele>203.2</ele>
        <time>2021-11-27T13:13:12Z</time>
      </trkpt>
      <trkpt lat="46.54827" lon="5.24544">
        <ele>202.8</ele>
        <time>2021-11-27T13:13:15Z</time>
      </trkpt>
      <trkpt lat="46.54805" lon="5.24557">
        <ele>202.2</ele>
        <time>2021-11-27T13:13:18Z</time>
      </trkpt>
      <trkpt lat="46.54792" lon="5.24565">
        <ele>201.8</ele>
        <time>2021-11-27T13:13:20Z</time>
      </trkpt>
      <trkpt lat="46.54761" lon="5.24579">
        <ele>200.6</ele>
        <time>2021-11-27T13:13:24Z</time>
      </trkpt>
      <trkpt lat="46.54729" lon="5.24584">
        <ele>199.4</ele>
        <time>2021-11-27T13:13:28Z</time>
      </trkpt>
      <trkpt lat="46.54721" lon="5.24584">
        <ele>199.2</ele>
        <time>2021-11-27T13:13:29Z</time>
      </trkpt>
      <trkpt lat="46.54691" lon="5.24578">
        <ele>198.2</ele>
        <time>2021-11-27T13:13:33Z</time>
      </trkpt>
      <trkpt lat="46.54659" lon="5.24571">
        <ele>197.4</ele>
        <time>2021-11-27T13:13:37Z</time>
      </trkpt>
      <trkpt lat="46.54652" lon="5.24569">
        <ele>197.2</ele>
        <time>2021-11-27T13:13:38Z</time>
      </trkpt>
      <trkpt lat="46.54596" lon="5.24557">
        <ele>196.2</ele>
        <time>2021-11-27T13:13:45Z</time>
      </trkpt>
      <trkpt lat="46.5458" lon="5.24553">
        <ele>195.2</ele>
        <time>2021-11-27T13:13:47Z</time>
      </trkpt>
      <trkpt lat="46.5457" lon="5.24551">
        <ele>194.8</ele>
        <time>2021-11-27T13:13:48Z</time>
      </trkpt>
      <trkpt lat="46.54531" lon="5.24542">
        <ele>193.6</ele>
        <time>2021-11-27T13:13:53Z</time>
      </trkpt>
      <trkpt lat="46.54507" lon="5.24537">
        <ele>192.8</ele>
        <time>2021-11-27T13:13:56Z</time>
      </trkpt>
      <trkpt lat="46.54491" lon="5.24533">
        <ele>192.4</ele>
        <time>2021-11-27T13:13:58Z</time>
      </trkpt>
      <trkpt lat="46.54431" lon="5.2452">
        <ele>191.4</ele>
        <time>2021-11-27T13:14:06Z</time>
      </trkpt>
      <trkpt lat="46.54374" lon="5.24508">
        <ele>191</ele>
        <time>2021-11-27T13:14:14Z</time>
      </trkpt>
      <trkpt lat="46.54367" lon="5.24506">
        <ele>191</ele>
        <time>2021-11-27T13:14:15Z</time>
      </trkpt>
      <trkpt lat="46.54312" lon="5.24495">
        <ele>190.6</ele>
        <time>2021-11-27T13:14:23Z</time>
      </trkpt>
      <trkpt lat="46.54298" lon="5.24493">
        <ele>190.4</ele>
        <time>2021-11-27T13:14:25Z</time>
      </trkpt>
      <trkpt lat="46.54276" lon="5.24489">
        <ele>190.4</ele>
        <time>2021-11-27T13:14:28Z</time>
      </trkpt>
      <trkpt lat="46.54224" lon="5.24479">
        <ele>189.8</ele>
        <time>2021-11-27T13:14:35Z</time>
      </trkpt>
      <trkpt lat="46.54211" lon="5.24477">
        <ele>189.2</ele>
        <time>2021-11-27T13:14:37Z</time>
      </trkpt>
      <trkpt lat="46.54152" lon="5.24466">
        <ele>188.6</ele>
        <time>2021-11-27T13:14:45Z</time>
      </trkpt>
      <trkpt lat="46.54144" lon="5.24464">
        <ele>188.6</ele>
        <time>2021-11-27T13:14:46Z</time>
      </trkpt>
      <trkpt lat="46.54088" lon="5.24453">
        <ele>188.2</ele>
        <time>2021-11-27T13:14:54Z</time>
      </trkpt>
      <trkpt lat="46.54082" lon="5.24452">
        <ele>188.2</ele>
        <time>2021-11-27T13:14:55Z</time>
      </trkpt>
      <trkpt lat="46.54032" lon="5.24442">
        <ele>189.4</ele>
        <time>2021-11-27T13:15:03Z</time>
      </trkpt>
      <trkpt lat="46.53989" lon="5.24436">
        <ele>190.6</ele>
        <time>2021-11-27T13:15:10Z</time>
      </trkpt>
      <trkpt lat="46.53978" lon="5.24434">
        <ele>190.8</ele>
        <time>2021-11-27T13:15:12Z</time>
      </trkpt>
      <trkpt lat="46.5396" lon="5.2443">
        <ele>191.8</ele>
        <time>2021-11-27T13:15:15Z</time>
      </trkpt>
      <trkpt lat="46.53937" lon="5.24425">
        <ele>192.6</ele>
        <time>2021-11-27T13:15:19Z</time>
      </trkpt>
      <trkpt lat="46.5392" lon="5.24421">
        <ele>192.8</ele>
        <time>2021-11-27T13:15:22Z</time>
      </trkpt>
      <trkpt lat="46.53902" lon="5.24418">
        <ele>193.6</ele>
        <time>2021-11-27T13:15:25Z</time>
      </trkpt>
      <trkpt lat="46.53897" lon="5.24417">
        <ele>193.8</ele>
        <time>2021-11-27T13:15:26Z</time>
      </trkpt>
      <trkpt lat="46.53876" lon="5.24413">
        <ele>194.6</ele>
        <time>2021-11-27T13:15:30Z</time>
      </trkpt>
      <trkpt lat="46.53867" lon="5.24412">
        <ele>195</ele>
        <time>2021-11-27T13:15:32Z</time>
      </trkpt>
      <trkpt lat="46.53841" lon="5.24408">
        <ele>196</ele>
        <time>2021-11-27T13:15:37Z</time>
      </trkpt>
      <trkpt lat="46.53822" lon="5.24404">
        <ele>196.8</ele>
        <time>2021-11-27T13:15:41Z</time>
      </trkpt>
      <trkpt lat="46.53806" lon="5.24402">
        <ele>197.2</ele>
        <time>2021-11-27T13:15:44Z</time>
      </trkpt>
      <trkpt lat="46.53771" lon="5.24396">
        <ele>197.8</ele>
        <time>2021-11-27T13:15:51Z</time>
      </trkpt>
      <trkpt lat="46.5376" lon="5.24394">
        <ele>198</ele>
        <time>2021-11-27T13:15:53Z</time>
      </trkpt>
      <trkpt lat="46.53715" lon="5.24385">
        <ele>198.8</ele>
        <time>2021-11-27T13:16:01Z</time>
      </trkpt>
      <trkpt lat="46.53665" lon="5.24376">
        <ele>199</ele>
        <time>2021-11-27T13:16:10Z</time>
      </trkpt>
      <trkpt lat="46.53649" lon="5.24373">
        <ele>199.2</ele>
        <time>2021-11-27T13:16:13Z</time>
      </trkpt>
      <trkpt lat="46.53603" lon="5.24365">
        <ele>199.4</ele>
        <time>2021-11-27T13:16:21Z</time>
      </trkpt>
      <trkpt lat="46.53546" lon="5.24355">
        <ele>199.8</ele>
        <time>2021-11-27T13:16:31Z</time>
      </trkpt>
      <trkpt lat="46.53542" lon="5.24354">
        <ele>199.8</ele>
        <time>2021-11-27T13:16:32Z</time>
      </trkpt>
      <trkpt lat="46.53492" lon="5.24346">
        <ele>200.2</ele>
        <time>2021-11-27T13:16:41Z</time>
      </trkpt>
      <trkpt lat="46.53479" lon="5.24343">
        <ele>200.2</ele>
        <time>2021-11-27T13:16:43Z</time>
      </trkpt>
      <trkpt lat="46.53423" lon="5.24333">
        <ele>200.4</ele>
        <time>2021-11-27T13:16:53Z</time>
      </trkpt>
      <trkpt lat="46.53366" lon="5.24323">
        <ele>201</ele>
        <time>2021-11-27T13:17:03Z</time>
      </trkpt>
      <trkpt lat="46.53361" lon="5.24322">
        <ele>201</ele>
        <time>2021-11-27T13:17:04Z</time>
      </trkpt>
      <trkpt lat="46.53336" lon="5.24317">
        <ele>201.2</ele>
        <time>2021-11-27T13:17:08Z</time>
      </trkpt>
      <trkpt lat="46.53301" lon="5.24311">
        <ele>201.2</ele>
        <time>2021-11-27T13:17:14Z</time>
      </trkpt>
      <trkpt lat="46.53254" lon="5.24301">
        <ele>201.4</ele>
        <time>2021-11-27T13:17:22Z</time>
      </trkpt>
      <trkpt lat="46.53199" lon="5.2429">
        <ele>201.4</ele>
        <time>2021-11-27T13:17:31Z</time>
      </trkpt>
      <trkpt lat="46.53194" lon="5.24288">
        <ele>201.4</ele>
        <time>2021-11-27T13:17:32Z</time>
      </trkpt>
      <trkpt lat="46.53145" lon="5.24277">
        <ele>202</ele>
        <time>2021-11-27T13:17:40Z</time>
      </trkpt>
      <trkpt lat="46.53087" lon="5.24264">
        <ele>201.8</ele>
        <time>2021-11-27T13:17:50Z</time>
      </trkpt>
      <trkpt lat="46.5308" lon="5.24262">
        <ele>202</ele>
        <time>2021-11-27T13:17:51Z</time>
      </trkpt>
      <trkpt lat="46.53034" lon="5.24252">
        <ele>202.2</ele>
        <time>2021-11-27T13:17:59Z</time>
      </trkpt>
      <trkpt lat="46.5298" lon="5.24239">
        <ele>202.4</ele>
        <time>2021-11-27T13:18:08Z</time>
      </trkpt>
      <trkpt lat="46.52956" lon="5.24233">
        <ele>202.4</ele>
        <time>2021-11-27T13:18:12Z</time>
      </trkpt>
      <trkpt lat="46.52927" lon="5.24226">
        <ele>202.6</ele>
        <time>2021-11-27T13:18:17Z</time>
      </trkpt>
      <trkpt lat="46.52916" lon="5.24223">
        <ele>202.6</ele>
        <time>2021-11-27T13:18:19Z</time>
      </trkpt>
      <trkpt lat="46.52856" lon="5.24209">
        <ele>202.8</ele>
        <time>2021-11-27T13:18:29Z</time>
      </trkpt>
      <trkpt lat="46.52845" lon="5.24207">
        <ele>202.8</ele>
        <time>2021-11-27T13:18:31Z</time>
      </trkpt>
      <trkpt lat="46.52791" lon="5.24194">
        <ele>203</ele>
        <time>2021-11-27T13:18:41Z</time>
      </trkpt>
      <trkpt lat="46.52735" lon="5.24181">
        <ele>203.4</ele>
        <time>2021-11-27T13:18:51Z</time>
      </trkpt>
      <trkpt lat="46.52701" lon="5.24173">
        <ele>203.6</ele>
        <time>2021-11-27T13:18:57Z</time>
      </trkpt>
      <trkpt lat="46.52655" lon="5.24163">
        <ele>203.4</ele>
        <time>2021-11-27T13:19:05Z</time>
      </trkpt>
      <trkpt lat="46.5261" lon="5.24152">
        <ele>203.8</ele>
        <time>2021-11-27T13:19:13Z</time>
      </trkpt>
      <trkpt lat="46.52556" lon="5.24139">
        <ele>204.4</ele>
        <time>2021-11-27T13:19:22Z</time>
      </trkpt>
      <trkpt lat="46.52544" lon="5.24136">
        <ele>204.4</ele>
        <time>2021-11-27T13:19:24Z</time>
      </trkpt>
      <trkpt lat="46.52489" lon="5.24123">
        <ele>204.4</ele>
        <time>2021-11-27T13:19:33Z</time>
      </trkpt>
      <trkpt lat="46.52437" lon="5.2411">
        <ele>204.2</ele>
        <time>2021-11-27T13:19:41Z</time>
      </trkpt>
      <trkpt lat="46.52383" lon="5.24098">
        <ele>203.4</ele>
        <time>2021-11-27T13:19:49Z</time>
      </trkpt>
      <trkpt lat="46.52377" lon="5.24097">
        <ele>203.4</ele>
        <time>2021-11-27T13:19:50Z</time>
      </trkpt>
      <trkpt lat="46.52324" lon="5.24092">
        <ele>203.2</ele>
        <time>2021-11-27T13:19:58Z</time>
      </trkpt>
      <trkpt lat="46.52269" lon="5.241">
        <ele>203.2</ele>
        <time>2021-11-27T13:20:06Z</time>
      </trkpt>
      <trkpt lat="46.52214" lon="5.24109">
        <ele>203</ele>
        <time>2021-11-27T13:20:14Z</time>
      </trkpt>
      <trkpt lat="46.52205" lon="5.24111">
        <ele>203</ele>
        <time>2021-11-27T13:20:15Z</time>
      </trkpt>
      <trkpt lat="46.52148" lon="5.2412">
        <ele>202.4</ele>
        <time>2021-11-27T13:20:23Z</time>
      </trkpt>
      <trkpt lat="46.52141" lon="5.24122">
        <ele>202.4</ele>
        <time>2021-11-27T13:20:24Z</time>
      </trkpt>
      <trkpt lat="46.52093" lon="5.24129">
        <ele>201.4</ele>
        <time>2021-11-27T13:20:30Z</time>
      </trkpt>
      <trkpt lat="46.52069" lon="5.24133">
        <ele>200.6</ele>
        <time>2021-11-27T13:20:33Z</time>
      </trkpt>
      <trkpt lat="46.52053" lon="5.24136">
        <ele>200</ele>
        <time>2021-11-27T13:20:35Z</time>
      </trkpt>
      <trkpt lat="46.5202" lon="5.24141">
        <ele>198.8</ele>
        <time>2021-11-27T13:20:39Z</time>
      </trkpt>
      <trkpt lat="46.51987" lon="5.24147">
        <ele>198.2</ele>
        <time>2021-11-27T13:20:43Z</time>
      </trkpt>
      <trkpt lat="46.51978" lon="5.24148">
        <ele>197.6</ele>
        <time>2021-11-27T13:20:44Z</time>
      </trkpt>
      <trkpt lat="46.5193" lon="5.24156">
        <ele>196.4</ele>
        <time>2021-11-27T13:20:50Z</time>
      </trkpt>
      <trkpt lat="46.51911" lon="5.24159">
        <ele>195.8</ele>
        <time>2021-11-27T13:20:52Z</time>
      </trkpt>
      <trkpt lat="46.5187" lon="5.24166">
        <ele>195.4</ele>
        <time>2021-11-27T13:20:57Z</time>
      </trkpt>
      <trkpt lat="46.51848" lon="5.24169">
        <ele>195</ele>
        <time>2021-11-27T13:21:00Z</time>
      </trkpt>
      <trkpt lat="46.51798" lon="5.24177">
        <ele>195</ele>
        <time>2021-11-27T13:21:07Z</time>
      </trkpt>
      <trkpt lat="46.51751" lon="5.24185">
        <ele>196.6</ele>
        <time>2021-11-27T13:21:14Z</time>
      </trkpt>
      <trkpt lat="46.51718" lon="5.24192">
        <ele>197.2</ele>
        <time>2021-11-27T13:21:19Z</time>
      </trkpt>
      <trkpt lat="46.51698" lon="5.24199">
        <ele>197.6</ele>
        <time>2021-11-27T13:21:22Z</time>
      </trkpt>
      <trkpt lat="46.51664" lon="5.24212">
        <ele>197.6</ele>
        <time>2021-11-27T13:21:27Z</time>
      </trkpt>
      <trkpt lat="46.51605" lon="5.24235">
        <ele>197</ele>
        <time>2021-11-27T13:21:35Z</time>
      </trkpt>
      <trkpt lat="46.51574" lon="5.24247">
        <ele>196.4</ele>
        <time>2021-11-27T13:21:39Z</time>
      </trkpt>
      <trkpt lat="46.51542" lon="5.2426">
        <ele>195</ele>
        <time>2021-11-27T13:21:43Z</time>
      </trkpt>
      <trkpt lat="46.51508" lon="5.24273">
        <ele>193.8</ele>
        <time>2021-11-27T13:21:47Z</time>
      </trkpt>
      <trkpt lat="46.51475" lon="5.24286">
        <ele>193</ele>
        <time>2021-11-27T13:21:51Z</time>
      </trkpt>
      <trkpt lat="46.51467" lon="5.24289">
        <ele>192.8</ele>
        <time>2021-11-27T13:21:52Z</time>
      </trkpt>
      <trkpt lat="46.51423" lon="5.24306">
        <ele>191.2</ele>
        <time>2021-11-27T13:21:57Z</time>
      </trkpt>
      <trkpt lat="46.51397" lon="5.24316">
        <ele>190.2</ele>
        <time>2021-11-27T13:22:00Z</time>
      </trkpt>
      <trkpt lat="46.51369" lon="5.24327">
        <ele>189.2</ele>
        <time>2021-11-27T13:22:03Z</time>
      </trkpt>
      <trkpt lat="46.51353" lon="5.24333">
        <ele>188.4</ele>
        <time>2021-11-27T13:22:05Z</time>
      </trkpt>
      <trkpt lat="46.51335" lon="5.2434">
        <ele>188</ele>
        <time>2021-11-27T13:22:07Z</time>
      </trkpt>
      <trkpt lat="46.513" lon="5.24354">
        <ele>187</ele>
        <time>2021-11-27T13:22:11Z</time>
      </trkpt>
      <trkpt lat="46.51265" lon="5.24368">
        <ele>185.8</ele>
        <time>2021-11-27T13:22:15Z</time>
      </trkpt>
      <trkpt lat="46.5123" lon="5.24381">
        <ele>184.6</ele>
        <time>2021-11-27T13:22:19Z</time>
      </trkpt>
      <trkpt lat="46.51189" lon="5.24397">
        <ele>184</ele>
        <time>2021-11-27T13:22:24Z</time>
      </trkpt>
      <trkpt lat="46.5115" lon="5.24412">
        <ele>183.6</ele>
        <time>2021-11-27T13:22:29Z</time>
      </trkpt>
      <trkpt lat="46.51121" lon="5.24423">
        <ele>183.6</ele>
        <time>2021-11-27T13:22:33Z</time>
      </trkpt>
      <trkpt lat="46.51066" lon="5.24444">
        <ele>183.8</ele>
        <time>2021-11-27T13:22:41Z</time>
      </trkpt>
      <trkpt lat="46.51014" lon="5.24465">
        <ele>184</ele>
        <time>2021-11-27T13:22:49Z</time>
      </trkpt>
      <trkpt lat="46.50956" lon="5.24487">
        <ele>184.4</ele>
        <time>2021-11-27T13:22:58Z</time>
      </trkpt>
      <trkpt lat="46.5095" lon="5.2449">
        <ele>184.4</ele>
        <time>2021-11-27T13:22:59Z</time>
      </trkpt>
      <trkpt lat="46.50925" lon="5.245">
        <ele>184.6</ele>
        <time>2021-11-27T13:23:03Z</time>
      </trkpt>
      <trkpt lat="46.50894" lon="5.24511">
        <ele>185</ele>
        <time>2021-11-27T13:23:08Z</time>
      </trkpt>
      <trkpt lat="46.50858" lon="5.24526">
        <ele>185.8</ele>
        <time>2021-11-27T13:23:14Z</time>
      </trkpt>
      <trkpt lat="46.50847" lon="5.2453">
        <ele>186</ele>
        <time>2021-11-27T13:23:16Z</time>
      </trkpt>
      <trkpt lat="46.50794" lon="5.24551">
        <ele>186.6</ele>
        <time>2021-11-27T13:23:25Z</time>
      </trkpt>
      <trkpt lat="46.50789" lon="5.24553">
        <ele>186.8</ele>
        <time>2021-11-27T13:23:26Z</time>
      </trkpt>
      <trkpt lat="46.50778" lon="5.24558">
        <ele>187</ele>
        <time>2021-11-27T13:23:28Z</time>
      </trkpt>
      <trkpt lat="46.50733" lon="5.24574">
        <ele>187.8</ele>
        <time>2021-11-27T13:23:36Z</time>
      </trkpt>
      <trkpt lat="46.50722" lon="5.24578">
        <ele>188.2</ele>
        <time>2021-11-27T13:23:38Z</time>
      </trkpt>
      <trkpt lat="46.50672" lon="5.24588">
        <ele>188.8</ele>
        <time>2021-11-27T13:23:47Z</time>
      </trkpt>
      <trkpt lat="46.50631" lon="5.24593">
        <ele>190</ele>
        <time>2021-11-27T13:23:55Z</time>
      </trkpt>
      <trkpt lat="46.50626" lon="5.24594">
        <ele>190.2</ele>
        <time>2021-11-27T13:23:56Z</time>
      </trkpt>
      <trkpt lat="46.50597" lon="5.24597">
        <ele>191</ele>
        <time>2021-11-27T13:24:01Z</time>
      </trkpt>
      <trkpt lat="46.50569" lon="5.246">
        <ele>191.6</ele>
        <time>2021-11-27T13:24:06Z</time>
      </trkpt>
      <trkpt lat="46.50512" lon="5.24605">
        <ele>191.8</ele>
        <time>2021-11-27T13:24:15Z</time>
      </trkpt>
      <trkpt lat="46.50507" lon="5.24605">
        <ele>191.8</ele>
        <time>2021-11-27T13:24:16Z</time>
      </trkpt>
      <trkpt lat="46.50458" lon="5.24598">
        <ele>191.2</ele>
        <time>2021-11-27T13:24:23Z</time>
      </trkpt>
      <trkpt lat="46.50409" lon="5.24572">
        <ele>189.8</ele>
        <time>2021-11-27T13:24:30Z</time>
      </trkpt>
      <trkpt lat="46.5036" lon="5.24535">
        <ele>189.2</ele>
        <time>2021-11-27T13:24:38Z</time>
      </trkpt>
      <trkpt lat="46.50354" lon="5.24531">
        <ele>189.2</ele>
        <time>2021-11-27T13:24:39Z</time>
      </trkpt>
      <trkpt lat="46.50341" lon="5.24522">
        <ele>189.2</ele>
        <time>2021-11-27T13:24:41Z</time>
      </trkpt>
      <trkpt lat="46.50291" lon="5.24485">
        <ele>189</ele>
        <time>2021-11-27T13:24:49Z</time>
      </trkpt>
      <trkpt lat="46.5028" lon="5.24476">
        <ele>189</ele>
        <time>2021-11-27T13:24:51Z</time>
      </trkpt>
      <trkpt lat="46.50272" lon="5.24471">
        <ele>188.8</ele>
        <time>2021-11-27T13:24:52Z</time>
      </trkpt>
      <trkpt lat="46.5022" lon="5.24434">
        <ele>187.8</ele>
        <time>2021-11-27T13:25:00Z</time>
      </trkpt>
      <trkpt lat="46.50213" lon="5.24428">
        <ele>187.6</ele>
        <time>2021-11-27T13:25:01Z</time>
      </trkpt>
      <trkpt lat="46.50162" lon="5.24391">
        <ele>186.8</ele>
        <time>2021-11-27T13:25:08Z</time>
      </trkpt>
      <trkpt lat="46.50155" lon="5.24387">
        <ele>186.8</ele>
        <time>2021-11-27T13:25:09Z</time>
      </trkpt>
      <trkpt lat="46.5015" lon="5.24383">
        <ele>186.6</ele>
        <time>2021-11-27T13:25:10Z</time>
      </trkpt>
      <trkpt lat="46.501" lon="5.24354">
        <ele>185.8</ele>
        <time>2021-11-27T13:25:17Z</time>
      </trkpt>
      <trkpt lat="46.50048" lon="5.24325">
        <ele>186.2</ele>
        <time>2021-11-27T13:25:25Z</time>
      </trkpt>
      <trkpt lat="46.49994" lon="5.24294">
        <ele>186</ele>
        <time>2021-11-27T13:25:33Z</time>
      </trkpt>
      <trkpt lat="46.49987" lon="5.2429">
        <ele>186</ele>
        <time>2021-11-27T13:25:34Z</time>
      </trkpt>
      <trkpt lat="46.49932" lon="5.24258">
        <ele>185.6</ele>
        <time>2021-11-27T13:25:42Z</time>
      </trkpt>
      <trkpt lat="46.49925" lon="5.24254">
        <ele>185.6</ele>
        <time>2021-11-27T13:25:43Z</time>
      </trkpt>
      <trkpt lat="46.49881" lon="5.2423">
        <ele>185.6</ele>
        <time>2021-11-27T13:25:50Z</time>
      </trkpt>
      <trkpt lat="46.4984" lon="5.24206">
        <ele>186.6</ele>
        <time>2021-11-27T13:25:58Z</time>
      </trkpt>
      <trkpt lat="46.49825" lon="5.24198">
        <ele>187.2</ele>
        <time>2021-11-27T13:26:01Z</time>
      </trkpt>
      <trkpt lat="46.4981" lon="5.2419">
        <ele>187.8</ele>
        <time>2021-11-27T13:26:04Z</time>
      </trkpt>
      <trkpt lat="46.49805" lon="5.24187">
        <ele>187.8</ele>
        <time>2021-11-27T13:26:05Z</time>
      </trkpt>
      <trkpt lat="46.49781" lon="5.24174">
        <ele>188.8</ele>
        <time>2021-11-27T13:26:10Z</time>
      </trkpt>
      <trkpt lat="46.49776" lon="5.24172">
        <ele>189</ele>
        <time>2021-11-27T13:26:11Z</time>
      </trkpt>
      <trkpt lat="46.49753" lon="5.24158">
        <ele>190</ele>
        <time>2021-11-27T13:26:16Z</time>
      </trkpt>
      <trkpt lat="46.49743" lon="5.24151">
        <ele>190.6</ele>
        <time>2021-11-27T13:26:18Z</time>
      </trkpt>
      <trkpt lat="46.49726" lon="5.2414">
        <ele>191.2</ele>
        <time>2021-11-27T13:26:22Z</time>
      </trkpt>
      <trkpt lat="46.49702" lon="5.24128">
        <ele>192.4</ele>
        <time>2021-11-27T13:26:27Z</time>
      </trkpt>
      <trkpt lat="46.49675" lon="5.24114">
        <ele>193.4</ele>
        <time>2021-11-27T13:26:33Z</time>
      </trkpt>
      <trkpt lat="46.49661" lon="5.24108">
        <ele>194.2</ele>
        <time>2021-11-27T13:26:36Z</time>
      </trkpt>
      <trkpt lat="46.49647" lon="5.24104">
        <ele>194.6</ele>
        <time>2021-11-27T13:26:39Z</time>
      </trkpt>
      <trkpt lat="46.49623" lon="5.24098">
        <ele>195.8</ele>
        <time>2021-11-27T13:26:44Z</time>
      </trkpt>
      <trkpt lat="46.49615" lon="5.24097">
        <ele>196</ele>
        <time>2021-11-27T13:26:46Z</time>
      </trkpt>
      <trkpt lat="46.49591" lon="5.24098">
        <ele>197</ele>
        <time>2021-11-27T13:26:51Z</time>
      </trkpt>
      <trkpt lat="46.4957" lon="5.241">
        <ele>197.8</ele>
        <time>2021-11-27T13:26:55Z</time>
      </trkpt>
      <trkpt lat="46.49562" lon="5.24102">
        <ele>198</ele>
        <time>2021-11-27T13:26:57Z</time>
      </trkpt>
      <trkpt lat="46.49556" lon="5.24104">
        <ele>198.2</ele>
        <time>2021-11-27T13:26:58Z</time>
      </trkpt>
      <trkpt lat="46.49534" lon="5.24114">
        <ele>199</ele>
        <time>2021-11-27T13:27:03Z</time>
      </trkpt>
      <trkpt lat="46.49507" lon="5.24129">
        <ele>200.2</ele>
        <time>2021-11-27T13:27:09Z</time>
      </trkpt>
      <trkpt lat="46.49489" lon="5.24139">
        <ele>201</ele>
        <time>2021-11-27T13:27:13Z</time>
      </trkpt>
      <trkpt lat="46.4948" lon="5.24145">
        <ele>201.2</ele>
        <time>2021-11-27T13:27:15Z</time>
      </trkpt>
      <trkpt lat="46.4945" lon="5.24166">
        <ele>202.4</ele>
        <time>2021-11-27T13:27:22Z</time>
      </trkpt>
      <trkpt lat="46.49441" lon="5.24171">
        <ele>202.8</ele>
        <time>2021-11-27T13:27:24Z</time>
      </trkpt>
      <trkpt lat="46.49419" lon="5.24187">
        <ele>203.6</ele>
        <time>2021-11-27T13:27:29Z</time>
      </trkpt>
      <trkpt lat="46.49396" lon="5.24203">
        <ele>204.2</ele>
        <time>2021-11-27T13:27:34Z</time>
      </trkpt>
      <trkpt lat="46.49365" lon="5.24223">
        <ele>204.6</ele>
        <time>2021-11-27T13:27:40Z</time>
      </trkpt>
      <trkpt lat="46.49354" lon="5.2423">
        <ele>204.8</ele>
        <time>2021-11-27T13:27:42Z</time>
      </trkpt>
      <trkpt lat="46.49303" lon="5.24265">
        <ele>205</ele>
        <time>2021-11-27T13:27:51Z</time>
      </trkpt>
      <trkpt lat="46.49252" lon="5.243">
        <ele>205.2</ele>
        <time>2021-11-27T13:28:00Z</time>
      </trkpt>
      <trkpt lat="46.49205" lon="5.24331">
        <ele>205.4</ele>
        <time>2021-11-27T13:28:08Z</time>
      </trkpt>
      <trkpt lat="46.49152" lon="5.24368">
        <ele>205.4</ele>
        <time>2021-11-27T13:28:17Z</time>
      </trkpt>
      <trkpt lat="46.491" lon="5.24402">
        <ele>205.6</ele>
        <time>2021-11-27T13:28:26Z</time>
      </trkpt>
      <trkpt lat="46.49094" lon="5.24406">
        <ele>205.6</ele>
        <time>2021-11-27T13:28:27Z</time>
      </trkpt>
      <trkpt lat="46.49066" lon="5.24426">
        <ele>205.6</ele>
        <time>2021-11-27T13:28:32Z</time>
      </trkpt>
      <trkpt lat="46.49037" lon="5.24446">
        <ele>206</ele>
        <time>2021-11-27T13:28:37Z</time>
      </trkpt>
      <trkpt lat="46.48985" lon="5.2448">
        <ele>206.6</ele>
        <time>2021-11-27T13:28:46Z</time>
      </trkpt>
      <trkpt lat="46.48974" lon="5.24487">
        <ele>206.6</ele>
        <time>2021-11-27T13:28:48Z</time>
      </trkpt>
      <trkpt lat="46.48932" lon="5.24517">
        <ele>207.4</ele>
        <time>2021-11-27T13:28:56Z</time>
      </trkpt>
      <trkpt lat="46.48917" lon="5.24527">
        <ele>208</ele>
        <time>2021-11-27T13:28:59Z</time>
      </trkpt>
      <trkpt lat="46.48891" lon="5.24544">
        <ele>209</ele>
        <time>2021-11-27T13:29:04Z</time>
      </trkpt>
      <trkpt lat="46.48881" lon="5.24551">
        <ele>209.2</ele>
        <time>2021-11-27T13:29:06Z</time>
      </trkpt>
      <trkpt lat="46.48837" lon="5.24581">
        <ele>210.2</ele>
        <time>2021-11-27T13:29:15Z</time>
      </trkpt>
      <trkpt lat="46.48786" lon="5.24615">
        <ele>210.6</ele>
        <time>2021-11-27T13:29:25Z</time>
      </trkpt>
      <trkpt lat="46.48774" lon="5.24622">
        <ele>210.8</ele>
        <time>2021-11-27T13:29:27Z</time>
      </trkpt>
      <trkpt lat="46.48747" lon="5.24629">
        <ele>210.8</ele>
        <time>2021-11-27T13:29:31Z</time>
      </trkpt>
      <trkpt lat="46.4874" lon="5.24629">
        <ele>210.8</ele>
        <time>2021-11-27T13:29:32Z</time>
      </trkpt>
      <trkpt lat="46.48717" lon="5.24624">
        <ele>210.6</ele>
        <time>2021-11-27T13:29:35Z</time>
      </trkpt>
      <trkpt lat="46.48674" lon="5.24603">
        <ele>210</ele>
        <time>2021-11-27T13:29:41Z</time>
      </trkpt>
      <trkpt lat="46.48621" lon="5.24574">
        <ele>210.2</ele>
        <time>2021-11-27T13:29:49Z</time>
      </trkpt>
      <trkpt lat="46.48614" lon="5.2457">
        <ele>210.2</ele>
        <time>2021-11-27T13:29:50Z</time>
      </trkpt>
      <trkpt lat="46.48572" lon="5.24539">
        <ele>210.6</ele>
        <time>2021-11-27T13:29:57Z</time>
      </trkpt>
      <trkpt lat="46.48528" lon="5.24487">
        <ele>210.2</ele>
        <time>2021-11-27T13:30:05Z</time>
      </trkpt>
      <trkpt lat="46.48522" lon="5.24479">
        <ele>210.2</ele>
        <time>2021-11-27T13:30:06Z</time>
      </trkpt>
      <trkpt lat="46.48481" lon="5.24429">
        <ele>209.2</ele>
        <time>2021-11-27T13:30:13Z</time>
      </trkpt>
      <trkpt lat="46.48475" lon="5.24421">
        <ele>209</ele>
        <time>2021-11-27T13:30:14Z</time>
      </trkpt>
      <trkpt lat="46.48445" lon="5.24386">
        <ele>207.8</ele>
        <time>2021-11-27T13:30:19Z</time>
      </trkpt>
      <trkpt lat="46.48433" lon="5.24373">
        <ele>207.6</ele>
        <time>2021-11-27T13:30:21Z</time>
      </trkpt>
      <trkpt lat="46.48403" lon="5.24348">
        <ele>207.4</ele>
        <time>2021-11-27T13:30:26Z</time>
      </trkpt>
      <trkpt lat="46.48396" lon="5.24346">
        <ele>207.6</ele>
        <time>2021-11-27T13:30:27Z</time>
      </trkpt>
      <trkpt lat="46.48378" lon="5.24339">
        <ele>208.2</ele>
        <time>2021-11-27T13:30:30Z</time>
      </trkpt>
      <trkpt lat="46.48365" lon="5.24334">
        <ele>208.4</ele>
        <time>2021-11-27T13:30:32Z</time>
      </trkpt>
      <trkpt lat="46.48354" lon="5.24329">
        <ele>208.8</ele>
        <time>2021-11-27T13:30:34Z</time>
      </trkpt>
      <trkpt lat="46.48343" lon="5.24321">
        <ele>209.4</ele>
        <time>2021-11-27T13:30:36Z</time>
      </trkpt>
      <trkpt lat="46.48339" lon="5.24316">
        <ele>209.8</ele>
        <time>2021-11-27T13:30:37Z</time>
      </trkpt>
      <trkpt lat="46.48335" lon="5.2431">
        <ele>210</ele>
        <time>2021-11-27T13:30:38Z</time>
      </trkpt>
      <trkpt lat="46.48323" lon="5.24291">
        <ele>210.8</ele>
        <time>2021-11-27T13:30:41Z</time>
      </trkpt>
      <trkpt lat="46.48319" lon="5.24285">
        <ele>211.2</ele>
        <time>2021-11-27T13:30:42Z</time>
      </trkpt>
      <trkpt lat="46.48308" lon="5.24276">
        <ele>211.8</ele>
        <time>2021-11-27T13:30:44Z</time>
      </trkpt>
      <trkpt lat="46.48297" lon="5.24271">
        <ele>212</ele>
        <time>2021-11-27T13:30:46Z</time>
      </trkpt>
      <trkpt lat="46.48263" lon="5.24261">
        <ele>212.8</ele>
        <time>2021-11-27T13:30:52Z</time>
      </trkpt>
      <trkpt lat="46.48234" lon="5.24254">
        <ele>213.2</ele>
        <time>2021-11-27T13:30:57Z</time>
      </trkpt>
      <trkpt lat="46.48218" lon="5.24251">
        <ele>213.4</ele>
        <time>2021-11-27T13:31:00Z</time>
      </trkpt>
      <trkpt lat="46.482" lon="5.24252">
        <ele>213.4</ele>
        <time>2021-11-27T13:31:03Z</time>
      </trkpt>
      <trkpt lat="46.48194" lon="5.24255">
        <ele>213.6</ele>
        <time>2021-11-27T13:31:04Z</time>
      </trkpt>
      <trkpt lat="46.48188" lon="5.24259">
        <ele>213.6</ele>
        <time>2021-11-27T13:31:05Z</time>
      </trkpt>
      <trkpt lat="46.48174" lon="5.24278">
        <ele>213.8</ele>
        <time>2021-11-27T13:31:08Z</time>
      </trkpt>
      <trkpt lat="46.48146" lon="5.24311">
        <ele>213.4</ele>
        <time>2021-11-27T13:31:13Z</time>
      </trkpt>
      <trkpt lat="46.48111" lon="5.24353">
        <ele>212.2</ele>
        <time>2021-11-27T13:31:19Z</time>
      </trkpt>
      <trkpt lat="46.48099" lon="5.24367">
        <ele>211.4</ele>
        <time>2021-11-27T13:31:21Z</time>
      </trkpt>
      <trkpt lat="46.48063" lon="5.24401">
        <ele>211.2</ele>
        <time>2021-11-27T13:31:27Z</time>
      </trkpt>
      <trkpt lat="46.48019" lon="5.24432">
        <ele>211.4</ele>
        <time>2021-11-27T13:31:34Z</time>
      </trkpt>
      <trkpt lat="46.47968" lon="5.24467">
        <ele>211.8</ele>
        <time>2021-11-27T13:31:42Z</time>
      </trkpt>
      <trkpt lat="46.47956" lon="5.24475">
        <ele>212</ele>
        <time>2021-11-27T13:31:44Z</time>
      </trkpt>
      <trkpt lat="46.47918" lon="5.24495">
        <ele>212.6</ele>
        <time>2021-11-27T13:31:50Z</time>
      </trkpt>
      <trkpt lat="46.47892" lon="5.24499">
        <ele>213.2</ele>
        <time>2021-11-27T13:31:54Z</time>
      </trkpt>
      <trkpt lat="46.47878" lon="5.24498">
        <ele>213.4</ele>
        <time>2021-11-27T13:31:56Z</time>
      </trkpt>
      <trkpt lat="46.47822" lon="5.24496">
        <ele>212.8</ele>
        <time>2021-11-27T13:32:04Z</time>
      </trkpt>
      <trkpt lat="46.47807" lon="5.24497">
        <ele>212.6</ele>
        <time>2021-11-27T13:32:06Z</time>
      </trkpt>
      <trkpt lat="46.47778" lon="5.24501">
        <ele>212</ele>
        <time>2021-11-27T13:32:10Z</time>
      </trkpt>
      <trkpt lat="46.47747" lon="5.24508">
        <ele>211.6</ele>
        <time>2021-11-27T13:32:14Z</time>
      </trkpt>
      <trkpt lat="46.47696" lon="5.24525">
        <ele>211</ele>
        <time>2021-11-27T13:32:21Z</time>
      </trkpt>
      <trkpt lat="46.47689" lon="5.24528">
        <ele>210.8</ele>
        <time>2021-11-27T13:32:22Z</time>
      </trkpt>
      <trkpt lat="46.47642" lon="5.24553">
        <ele>210.8</ele>
        <time>2021-11-27T13:32:29Z</time>
      </trkpt>
      <trkpt lat="46.47588" lon="5.24584">
        <ele>211</ele>
        <time>2021-11-27T13:32:37Z</time>
      </trkpt>
      <trkpt lat="46.47573" lon="5.24592">
        <ele>211</ele>
        <time>2021-11-27T13:32:39Z</time>
      </trkpt>
      <trkpt lat="46.47516" lon="5.24624">
        <ele>210</ele>
        <time>2021-11-27T13:32:47Z</time>
      </trkpt>
      <trkpt lat="46.47466" lon="5.24637">
        <ele>209.2</ele>
        <time>2021-11-27T13:32:54Z</time>
      </trkpt>
      <trkpt lat="46.47451" lon="5.24638">
        <ele>209</ele>
        <time>2021-11-27T13:32:56Z</time>
      </trkpt>
      <trkpt lat="46.47415" lon="5.24642">
        <ele>208.8</ele>
        <time>2021-11-27T13:33:01Z</time>
      </trkpt>
      <trkpt lat="46.47356" lon="5.24647">
        <ele>208.2</ele>
        <time>2021-11-27T13:33:09Z</time>
      </trkpt>
      <trkpt lat="46.47341" lon="5.24648">
        <ele>208</ele>
        <time>2021-11-27T13:33:11Z</time>
      </trkpt>
      <trkpt lat="46.47333" lon="5.24648">
        <ele>207.8</ele>
        <time>2021-11-27T13:33:12Z</time>
      </trkpt>
      <trkpt lat="46.47286" lon="5.24655">
        <ele>207</ele>
        <time>2021-11-27T13:33:18Z</time>
      </trkpt>
      <trkpt lat="46.47269" lon="5.24655">
        <ele>206.8</ele>
        <time>2021-11-27T13:33:20Z</time>
      </trkpt>
      <trkpt lat="46.47237" lon="5.24655">
        <ele>205.8</ele>
        <time>2021-11-27T13:33:24Z</time>
      </trkpt>
      <trkpt lat="46.47229" lon="5.24655">
        <ele>205.6</ele>
        <time>2021-11-27T13:33:25Z</time>
      </trkpt>
      <trkpt lat="46.47205" lon="5.24654">
        <ele>204.4</ele>
        <time>2021-11-27T13:33:28Z</time>
      </trkpt>
      <trkpt lat="46.4718" lon="5.24649">
        <ele>203.4</ele>
        <time>2021-11-27T13:33:31Z</time>
      </trkpt>
      <trkpt lat="46.47166" lon="5.24646">
        <ele>203</ele>
        <time>2021-11-27T13:33:33Z</time>
      </trkpt>
      <trkpt lat="46.47151" lon="5.24641">
        <ele>202.2</ele>
        <time>2021-11-27T13:33:35Z</time>
      </trkpt>
      <trkpt lat="46.47121" lon="5.24629">
        <ele>200.4</ele>
        <time>2021-11-27T13:33:39Z</time>
      </trkpt>
      <trkpt lat="46.47105" lon="5.24624">
        <ele>199.6</ele>
        <time>2021-11-27T13:33:41Z</time>
      </trkpt>
      <trkpt lat="46.47097" lon="5.24626">
        <ele>199.4</ele>
        <time>2021-11-27T13:33:42Z</time>
      </trkpt>
      <trkpt lat="46.47091" lon="5.24632">
        <ele>199.2</ele>
        <time>2021-11-27T13:33:43Z</time>
      </trkpt>
      <trkpt lat="46.47085" lon="5.24651">
        <ele>198.8</ele>
        <time>2021-11-27T13:33:45Z</time>
      </trkpt>
      <trkpt lat="46.47081" lon="5.24671">
        <ele>198.4</ele>
        <time>2021-11-27T13:33:47Z</time>
      </trkpt>
      <trkpt lat="46.47076" lon="5.24692">
        <ele>198.4</ele>
        <time>2021-11-27T13:33:49Z</time>
      </trkpt>
      <trkpt lat="46.47073" lon="5.24702">
        <ele>198.4</ele>
        <time>2021-11-27T13:33:50Z</time>
      </trkpt>
      <trkpt lat="46.47049" lon="5.24749">
        <ele>198.2</ele>
        <time>2021-11-27T13:33:55Z</time>
      </trkpt>
      <trkpt lat="46.47043" lon="5.24757">
        <ele>198</ele>
        <time>2021-11-27T13:33:56Z</time>
      </trkpt>
      <trkpt lat="46.47022" lon="5.24783">
        <ele>197.4</ele>
        <time>2021-11-27T13:33:59Z</time>
      </trkpt>
      <trkpt lat="46.47006" lon="5.248">
        <ele>196.4</ele>
        <time>2021-11-27T13:34:01Z</time>
      </trkpt>
      <trkpt lat="46.46998" lon="5.24808">
        <ele>195.6</ele>
        <time>2021-11-27T13:34:02Z</time>
      </trkpt>
      <trkpt lat="46.46981" lon="5.24822">
        <ele>194.2</ele>
        <time>2021-11-27T13:34:04Z</time>
      </trkpt>
      <trkpt lat="46.46964" lon="5.24836">
        <ele>193</ele>
        <time>2021-11-27T13:34:06Z</time>
      </trkpt>
      <trkpt lat="46.46956" lon="5.24843">
        <ele>192.2</ele>
        <time>2021-11-27T13:34:07Z</time>
      </trkpt>
      <trkpt lat="46.4694" lon="5.24855">
        <ele>191.8</ele>
        <time>2021-11-27T13:34:09Z</time>
      </trkpt>
      <trkpt lat="46.46919" lon="5.24873">
        <ele>191.8</ele>
        <time>2021-11-27T13:34:12Z</time>
      </trkpt>
      <trkpt lat="46.46882" lon="5.24904">
        <ele>193</ele>
        <time>2021-11-27T13:34:18Z</time>
      </trkpt>
      <trkpt lat="46.46877" lon="5.24908">
        <ele>193.2</ele>
        <time>2021-11-27T13:34:19Z</time>
      </trkpt>
      <trkpt lat="46.46854" lon="5.24927">
        <ele>194.4</ele>
        <time>2021-11-27T13:34:23Z</time>
      </trkpt>
      <trkpt lat="46.46838" lon="5.24941">
        <ele>195</ele>
        <time>2021-11-27T13:34:26Z</time>
      </trkpt>
      <trkpt lat="46.46813" lon="5.24962">
        <ele>195.6</ele>
        <time>2021-11-27T13:34:31Z</time>
      </trkpt>
      <trkpt lat="46.46799" lon="5.24974">
        <ele>196.2</ele>
        <time>2021-11-27T13:34:34Z</time>
      </trkpt>
      <trkpt lat="46.46776" lon="5.24994">
        <ele>196.8</ele>
        <time>2021-11-27T13:34:39Z</time>
      </trkpt>
      <trkpt lat="46.46763" lon="5.25005">
        <ele>197.2</ele>
        <time>2021-11-27T13:34:42Z</time>
      </trkpt>
      <trkpt lat="46.4675" lon="5.25016">
        <ele>197.6</ele>
        <time>2021-11-27T13:34:45Z</time>
      </trkpt>
      <trkpt lat="46.46737" lon="5.25026">
        <ele>198</ele>
        <time>2021-11-27T13:34:48Z</time>
      </trkpt>
      <trkpt lat="46.46702" lon="5.25054">
        <ele>198.2</ele>
        <time>2021-11-27T13:34:54Z</time>
      </trkpt>
      <trkpt lat="46.46659" lon="5.25087">
        <ele>198</ele>
        <time>2021-11-27T13:35:01Z</time>
      </trkpt>
      <trkpt lat="46.46628" lon="5.25111">
        <ele>198.6</ele>
        <time>2021-11-27T13:35:07Z</time>
      </trkpt>
      <trkpt lat="46.46624" lon="5.25115">
        <ele>198.8</ele>
        <time>2021-11-27T13:35:08Z</time>
      </trkpt>
      <trkpt lat="46.466" lon="5.25134">
        <ele>199.8</ele>
        <time>2021-11-27T13:35:13Z</time>
      </trkpt>
      <trkpt lat="46.46596" lon="5.25138">
        <ele>199.8</ele>
        <time>2021-11-27T13:35:14Z</time>
      </trkpt>
      <trkpt lat="46.46556" lon="5.2517">
        <ele>200.6</ele>
        <time>2021-11-27T13:35:22Z</time>
      </trkpt>
      <trkpt lat="46.46536" lon="5.25189">
        <ele>200.6</ele>
        <time>2021-11-27T13:35:26Z</time>
      </trkpt>
      <trkpt lat="46.46524" lon="5.25196">
        <ele>200.8</ele>
        <time>2021-11-27T13:35:28Z</time>
      </trkpt>
      <trkpt lat="46.46518" lon="5.25201">
        <ele>200.8</ele>
        <time>2021-11-27T13:35:29Z</time>
      </trkpt>
      <trkpt lat="46.46508" lon="5.25209">
        <ele>201</ele>
        <time>2021-11-27T13:35:31Z</time>
      </trkpt>
      <trkpt lat="46.46471" lon="5.25236">
        <ele>201.8</ele>
        <time>2021-11-27T13:35:38Z</time>
      </trkpt>
      <trkpt lat="46.46461" lon="5.25245">
        <ele>202</ele>
        <time>2021-11-27T13:35:40Z</time>
      </trkpt>
      <trkpt lat="46.46439" lon="5.25261">
        <ele>202.8</ele>
        <time>2021-11-27T13:35:45Z</time>
      </trkpt>
      <trkpt lat="46.4643" lon="5.25267">
        <ele>203.2</ele>
        <time>2021-11-27T13:35:47Z</time>
      </trkpt>
      <trkpt lat="46.46409" lon="5.25286">
        <ele>204.4</ele>
        <time>2021-11-27T13:35:52Z</time>
      </trkpt>
      <trkpt lat="46.46401" lon="5.25294">
        <ele>204.6</ele>
        <time>2021-11-27T13:35:54Z</time>
      </trkpt>
      <trkpt lat="46.46383" lon="5.25319">
        <ele>205.4</ele>
        <time>2021-11-27T13:35:59Z</time>
      </trkpt>
      <trkpt lat="46.46374" lon="5.25337">
        <ele>205.6</ele>
        <time>2021-11-27T13:36:02Z</time>
      </trkpt>
      <trkpt lat="46.46353" lon="5.25371">
        <ele>206.4</ele>
        <time>2021-11-27T13:36:08Z</time>
      </trkpt>
      <trkpt lat="46.46322" lon="5.25422">
        <ele>207.4</ele>
        <time>2021-11-27T13:36:17Z</time>
      </trkpt>
      <trkpt lat="46.46299" lon="5.25463">
        <ele>208.2</ele>
        <time>2021-11-27T13:36:24Z</time>
      </trkpt>
      <trkpt lat="46.46296" lon="5.25468">
        <ele>208.4</ele>
        <time>2021-11-27T13:36:25Z</time>
      </trkpt>
      <trkpt lat="46.46275" lon="5.25505">
        <ele>209.4</ele>
        <time>2021-11-27T13:36:32Z</time>
      </trkpt>
      <trkpt lat="46.46253" lon="5.25553">
        <ele>210</ele>
        <time>2021-11-27T13:36:40Z</time>
      </trkpt>
      <trkpt lat="46.4624" lon="5.25604">
        <ele>210.2</ele>
        <time>2021-11-27T13:36:47Z</time>
      </trkpt>
      <trkpt lat="46.46233" lon="5.25633">
        <ele>210.6</ele>
        <time>2021-11-27T13:36:51Z</time>
      </trkpt>
      <trkpt lat="46.46226" lon="5.25668">
        <ele>210.6</ele>
        <time>2021-11-27T13:36:55Z</time>
      </trkpt>
      <trkpt lat="46.46226" lon="5.25699">
        <ele>210.4</ele>
        <time>2021-11-27T13:36:58Z</time>
      </trkpt>
      <trkpt lat="46.46228" lon="5.25721">
        <ele>210</ele>
        <time>2021-11-27T13:37:00Z</time>
      </trkpt>
      <trkpt lat="46.46231" lon="5.25743">
        <ele>209.2</ele>
        <time>2021-11-27T13:37:02Z</time>
      </trkpt>
      <trkpt lat="46.46236" lon="5.25765">
        <ele>208</ele>
        <time>2021-11-27T13:37:04Z</time>
      </trkpt>
      <trkpt lat="46.46241" lon="5.25786">
        <ele>207.4</ele>
        <time>2021-11-27T13:37:06Z</time>
      </trkpt>
      <trkpt lat="46.4625" lon="5.25843">
        <ele>207.2</ele>
        <time>2021-11-27T13:37:12Z</time>
      </trkpt>
      <trkpt lat="46.46251" lon="5.2586">
        <ele>207.8</ele>
        <time>2021-11-27T13:37:14Z</time>
      </trkpt>
      <trkpt lat="46.46248" lon="5.25883">
        <ele>208.8</ele>
        <time>2021-11-27T13:37:17Z</time>
      </trkpt>
      <trkpt lat="46.46247" lon="5.2589">
        <ele>209.4</ele>
        <time>2021-11-27T13:37:18Z</time>
      </trkpt>
      <trkpt lat="46.46245" lon="5.25898">
        <ele>209.6</ele>
        <time>2021-11-27T13:37:19Z</time>
      </trkpt>
      <trkpt lat="46.46238" lon="5.25917">
        <ele>210.8</ele>
        <time>2021-11-27T13:37:22Z</time>
      </trkpt>
      <trkpt lat="46.46236" lon="5.25924">
        <ele>211</ele>
        <time>2021-11-27T13:37:23Z</time>
      </trkpt>
      <trkpt lat="46.46231" lon="5.25937">
        <ele>211.8</ele>
        <time>2021-11-27T13:37:25Z</time>
      </trkpt>
      <trkpt lat="46.46223" lon="5.25961">
        <ele>213.2</ele>
        <time>2021-11-27T13:37:29Z</time>
      </trkpt>
      <trkpt lat="46.46216" lon="5.25987">
        <ele>214.4</ele>
        <time>2021-11-27T13:37:33Z</time>
      </trkpt>
      <trkpt lat="46.46211" lon="5.26008">
        <ele>215.6</ele>
        <time>2021-11-27T13:37:36Z</time>
      </trkpt>
      <trkpt lat="46.46207" lon="5.26031">
        <ele>216.8</ele>
        <time>2021-11-27T13:37:39Z</time>
      </trkpt>
      <trkpt lat="46.46206" lon="5.26039">
        <ele>217</ele>
        <time>2021-11-27T13:37:40Z</time>
      </trkpt>
      <trkpt lat="46.462" lon="5.26098">
        <ele>217.8</ele>
        <time>2021-11-27T13:37:47Z</time>
      </trkpt>
      <trkpt lat="46.46199" lon="5.26116">
        <ele>218</ele>
        <time>2021-11-27T13:37:49Z</time>
      </trkpt>
      <trkpt lat="46.46191" lon="5.26191">
        <ele>217.4</ele>
        <time>2021-11-27T13:37:57Z</time>
      </trkpt>
      <trkpt lat="46.46188" lon="5.2623">
        <ele>216.8</ele>
        <time>2021-11-27T13:38:01Z</time>
      </trkpt>
      <trkpt lat="46.46182" lon="5.26284">
        <ele>216</ele>
        <time>2021-11-27T13:38:06Z</time>
      </trkpt>
      <trkpt lat="46.4618" lon="5.26308">
        <ele>215.4</ele>
        <time>2021-11-27T13:38:08Z</time>
      </trkpt>
      <trkpt lat="46.46176" lon="5.26347">
        <ele>214.2</ele>
        <time>2021-11-27T13:38:11Z</time>
      </trkpt>
      <trkpt lat="46.46174" lon="5.26376">
        <ele>212.8</ele>
        <time>2021-11-27T13:38:13Z</time>
      </trkpt>
      <trkpt lat="46.46171" lon="5.26406">
        <ele>211.4</ele>
        <time>2021-11-27T13:38:15Z</time>
      </trkpt>
      <trkpt lat="46.4617" lon="5.26421">
        <ele>211</ele>
        <time>2021-11-27T13:38:16Z</time>
      </trkpt>
      <trkpt lat="46.46168" lon="5.26436">
        <ele>210.4</ele>
        <time>2021-11-27T13:38:17Z</time>
      </trkpt>
      <trkpt lat="46.46164" lon="5.26484">
        <ele>208.4</ele>
        <time>2021-11-27T13:38:20Z</time>
      </trkpt>
      <trkpt lat="46.4616" lon="5.26516">
        <ele>206.8</ele>
        <time>2021-11-27T13:38:22Z</time>
      </trkpt>
      <trkpt lat="46.46159" lon="5.26533">
        <ele>206.6</ele>
        <time>2021-11-27T13:38:23Z</time>
      </trkpt>
      <trkpt lat="46.46155" lon="5.26566">
        <ele>205.6</ele>
        <time>2021-11-27T13:38:25Z</time>
      </trkpt>
      <trkpt lat="46.46152" lon="5.266">
        <ele>204.2</ele>
        <time>2021-11-27T13:38:27Z</time>
      </trkpt>
      <trkpt lat="46.4615" lon="5.26634">
        <ele>202.4</ele>
        <time>2021-11-27T13:38:29Z</time>
      </trkpt>
      <trkpt lat="46.46148" lon="5.2667">
        <ele>201</ele>
        <time>2021-11-27T13:38:31Z</time>
      </trkpt>
      <trkpt lat="46.46147" lon="5.26688">
        <ele>200.6</ele>
        <time>2021-11-27T13:38:32Z</time>
      </trkpt>
      <trkpt lat="46.46146" lon="5.26723">
        <ele>199.6</ele>
        <time>2021-11-27T13:38:34Z</time>
      </trkpt>
      <trkpt lat="46.46146" lon="5.26741">
        <ele>198.2</ele>
        <time>2021-11-27T13:38:35Z</time>
      </trkpt>
      <trkpt lat="46.46145" lon="5.26775">
        <ele>196.6</ele>
        <time>2021-11-27T13:38:37Z</time>
      </trkpt>
      <trkpt lat="46.46144" lon="5.26792">
        <ele>195.2</ele>
        <time>2021-11-27T13:38:38Z</time>
      </trkpt>
      <trkpt lat="46.46144" lon="5.26808">
        <ele>195</ele>
        <time>2021-11-27T13:38:39Z</time>
      </trkpt>
      <trkpt lat="46.46143" lon="5.26841">
        <ele>194.2</ele>
        <time>2021-11-27T13:38:41Z</time>
      </trkpt>
      <trkpt lat="46.46141" lon="5.26921">
        <ele>193</ele>
        <time>2021-11-27T13:38:46Z</time>
      </trkpt>
      <trkpt lat="46.4614" lon="5.26992">
        <ele>192</ele>
        <time>2021-11-27T13:38:51Z</time>
      </trkpt>
      <trkpt lat="46.4614" lon="5.27005">
        <ele>192</ele>
        <time>2021-11-27T13:38:52Z</time>
      </trkpt>
      <trkpt lat="46.46137" lon="5.27095">
        <ele>192.6</ele>
        <time>2021-11-27T13:38:59Z</time>
      </trkpt>
      <trkpt lat="46.46137" lon="5.27108">
        <ele>192.6</ele>
        <time>2021-11-27T13:39:00Z</time>
      </trkpt>
      <trkpt lat="46.46135" lon="5.27187">
        <ele>192.4</ele>
        <time>2021-11-27T13:39:06Z</time>
      </trkpt>
      <trkpt lat="46.46134" lon="5.2721">
        <ele>192</ele>
        <time>2021-11-27T13:39:08Z</time>
      </trkpt>
      <trkpt lat="46.46132" lon="5.27264">
        <ele>190.8</ele>
        <time>2021-11-27T13:39:12Z</time>
      </trkpt>
      <trkpt lat="46.4613" lon="5.27336">
        <ele>190.4</ele>
        <time>2021-11-27T13:39:18Z</time>
      </trkpt>
      <trkpt lat="46.46127" lon="5.27417">
        <ele>190.8</ele>
        <time>2021-11-27T13:39:25Z</time>
      </trkpt>
      <trkpt lat="46.46127" lon="5.27428">
        <ele>190.8</ele>
        <time>2021-11-27T13:39:26Z</time>
      </trkpt>
      <trkpt lat="46.46125" lon="5.27517">
        <ele>190.8</ele>
        <time>2021-11-27T13:39:34Z</time>
      </trkpt>
      <trkpt lat="46.46125" lon="5.27528">
        <ele>190.8</ele>
        <time>2021-11-27T13:39:35Z</time>
      </trkpt>
      <trkpt lat="46.46122" lon="5.27615">
        <ele>191</ele>
        <time>2021-11-27T13:39:43Z</time>
      </trkpt>
      <trkpt lat="46.46122" lon="5.27625">
        <ele>191</ele>
        <time>2021-11-27T13:39:44Z</time>
      </trkpt>
      <trkpt lat="46.46119" lon="5.27709">
        <ele>191.4</ele>
        <time>2021-11-27T13:39:52Z</time>
      </trkpt>
      <trkpt lat="46.46119" lon="5.27719">
        <ele>191.6</ele>
        <time>2021-11-27T13:39:53Z</time>
      </trkpt>
      <trkpt lat="46.46119" lon="5.27756">
        <ele>192.2</ele>
        <time>2021-11-27T13:39:57Z</time>
      </trkpt>
      <trkpt lat="46.46118" lon="5.2779">
        <ele>193</ele>
        <time>2021-11-27T13:40:01Z</time>
      </trkpt>
      <trkpt lat="46.46118" lon="5.27798">
        <ele>193.4</ele>
        <time>2021-11-27T13:40:02Z</time>
      </trkpt>
      <trkpt lat="46.46118" lon="5.27838">
        <ele>194.4</ele>
        <time>2021-11-27T13:40:07Z</time>
      </trkpt>
      <trkpt lat="46.46118" lon="5.27862">
        <ele>195.2</ele>
        <time>2021-11-27T13:40:10Z</time>
      </trkpt>
      <trkpt lat="46.46119" lon="5.2787">
        <ele>195.4</ele>
        <time>2021-11-27T13:40:11Z</time>
      </trkpt>
      <trkpt lat="46.46121" lon="5.27916">
        <ele>196.6</ele>
        <time>2021-11-27T13:40:17Z</time>
      </trkpt>
      <trkpt lat="46.46122" lon="5.27929">
        <ele>197.2</ele>
        <time>2021-11-27T13:40:19Z</time>
      </trkpt>
      <trkpt lat="46.46123" lon="5.27935">
        <ele>197.6</ele>
        <time>2021-11-27T13:40:20Z</time>
      </trkpt>
      <trkpt lat="46.46127" lon="5.27953">
        <ele>198.6</ele>
        <time>2021-11-27T13:40:23Z</time>
      </trkpt>
      <trkpt lat="46.46129" lon="5.27958">
        <ele>199.2</ele>
        <time>2021-11-27T13:40:24Z</time>
      </trkpt>
      <trkpt lat="46.46132" lon="5.27963">
        <ele>199.6</ele>
        <time>2021-11-27T13:40:25Z</time>
      </trkpt>
      <trkpt lat="46.46138" lon="5.27971">
        <ele>200.4</ele>
        <time>2021-11-27T13:40:27Z</time>
      </trkpt>
      <trkpt lat="46.46144" lon="5.27978">
        <ele>201.2</ele>
        <time>2021-11-27T13:40:29Z</time>
      </trkpt>
      <trkpt lat="46.46148" lon="5.27981">
        <ele>201.4</ele>
        <time>2021-11-27T13:40:30Z</time>
      </trkpt>
      <trkpt lat="46.46151" lon="5.27983">
        <ele>202.2</ele>
        <time>2021-11-27T13:40:31Z</time>
      </trkpt>
      <trkpt lat="46.46162" lon="5.2799">
        <ele>203.4</ele>
        <time>2021-11-27T13:40:34Z</time>
      </trkpt>
      <trkpt lat="46.46173" lon="5.27997">
        <ele>204.4</ele>
        <time>2021-11-27T13:40:37Z</time>
      </trkpt>
      <trkpt lat="46.46177" lon="5.28">
        <ele>204.8</ele>
        <time>2021-11-27T13:40:38Z</time>
      </trkpt>
      <trkpt lat="46.46189" lon="5.28009">
        <ele>206.2</ele>
        <time>2021-11-27T13:40:41Z</time>
      </trkpt>
      <trkpt lat="46.46191" lon="5.28013">
        <ele>206.2</ele>
        <time>2021-11-27T13:40:42Z</time>
      </trkpt>
      <trkpt lat="46.46192" lon="5.28018">
        <ele>207</ele>
        <time>2021-11-27T13:40:43Z</time>
      </trkpt>
      <trkpt lat="46.46191" lon="5.28025">
        <ele>207.2</ele>
        <time>2021-11-27T13:40:44Z</time>
      </trkpt>
      <trkpt lat="46.46191" lon="5.28033">
        <ele>207.4</ele>
        <time>2021-11-27T13:40:45Z</time>
      </trkpt>
      <trkpt lat="46.46189" lon="5.28049">
        <ele>207.6</ele>
        <time>2021-11-27T13:40:47Z</time>
      </trkpt>
      <trkpt lat="46.46184" lon="5.2811">
        <ele>207.4</ele>
        <time>2021-11-27T13:40:54Z</time>
      </trkpt>
      <trkpt lat="46.46175" lon="5.28188">
        <ele>207.8</ele>
        <time>2021-11-27T13:41:04Z</time>
      </trkpt>
      <trkpt lat="46.46173" lon="5.28197">
        <ele>207.8</ele>
        <time>2021-11-27T13:41:05Z</time>
      </trkpt>
      <trkpt lat="46.46168" lon="5.28235">
        <ele>208</ele>
        <time>2021-11-27T13:41:09Z</time>
      </trkpt>
      <trkpt lat="46.46165" lon="5.28268">
        <ele>207.4</ele>
        <time>2021-11-27T13:41:12Z</time>
      </trkpt>
      <trkpt lat="46.46166" lon="5.28291">
        <ele>207</ele>
        <time>2021-11-27T13:41:14Z</time>
      </trkpt>
      <trkpt lat="46.46169" lon="5.28317">
        <ele>206</ele>
        <time>2021-11-27T13:41:16Z</time>
      </trkpt>
      <trkpt lat="46.46172" lon="5.28343">
        <ele>205</ele>
        <time>2021-11-27T13:41:18Z</time>
      </trkpt>
      <trkpt lat="46.46174" lon="5.28356">
        <ele>204.4</ele>
        <time>2021-11-27T13:41:19Z</time>
      </trkpt>
      <trkpt lat="46.46178" lon="5.28382">
        <ele>203.6</ele>
        <time>2021-11-27T13:41:21Z</time>
      </trkpt>
      <trkpt lat="46.46184" lon="5.28421">
        <ele>202.4</ele>
        <time>2021-11-27T13:41:24Z</time>
      </trkpt>
      <trkpt lat="46.46186" lon="5.28433">
        <ele>202.2</ele>
        <time>2021-11-27T13:41:25Z</time>
      </trkpt>
      <trkpt lat="46.46194" lon="5.28488">
        <ele>201.6</ele>
        <time>2021-11-27T13:41:30Z</time>
      </trkpt>
      <trkpt lat="46.462" lon="5.28531">
        <ele>203.6</ele>
        <time>2021-11-27T13:41:35Z</time>
      </trkpt>
      <trkpt lat="46.46202" lon="5.28546">
        <ele>204.6</ele>
        <time>2021-11-27T13:41:37Z</time>
      </trkpt>
      <trkpt lat="46.46205" lon="5.28562">
        <ele>205.2</ele>
        <time>2021-11-27T13:41:39Z</time>
      </trkpt>
      <trkpt lat="46.46208" lon="5.28575">
        <ele>205.6</ele>
        <time>2021-11-27T13:41:41Z</time>
      </trkpt>
      <trkpt lat="46.46209" lon="5.28583">
        <ele>205.8</ele>
        <time>2021-11-27T13:41:42Z</time>
      </trkpt>
      <trkpt lat="46.46212" lon="5.28604">
        <ele>207.2</ele>
        <time>2021-11-27T13:41:45Z</time>
      </trkpt>
      <trkpt lat="46.46214" lon="5.28616">
        <ele>207.8</ele>
        <time>2021-11-27T13:41:47Z</time>
      </trkpt>
      <trkpt lat="46.46215" lon="5.28627">
        <ele>208.4</ele>
        <time>2021-11-27T13:41:49Z</time>
      </trkpt>
      <trkpt lat="46.46218" lon="5.28649">
        <ele>209.4</ele>
        <time>2021-11-27T13:41:53Z</time>
      </trkpt>
      <trkpt lat="46.46222" lon="5.2867">
        <ele>210.4</ele>
        <time>2021-11-27T13:41:57Z</time>
      </trkpt>
      <trkpt lat="46.46226" lon="5.28681">
        <ele>211.4</ele>
        <time>2021-11-27T13:41:59Z</time>
      </trkpt>
      <trkpt lat="46.46228" lon="5.28686">
        <ele>212</ele>
        <time>2021-11-27T13:42:00Z</time>
      </trkpt>
      <trkpt lat="46.46239" lon="5.28698">
        <ele>212.6</ele>
        <time>2021-11-27T13:42:03Z</time>
      </trkpt>
      <trkpt lat="46.46251" lon="5.28709">
        <ele>213</ele>
        <time>2021-11-27T13:42:06Z</time>
      </trkpt>
      <trkpt lat="46.46265" lon="5.28721">
        <ele>214.2</ele>
        <time>2021-11-27T13:42:10Z</time>
      </trkpt>
      <trkpt lat="46.46273" lon="5.28726">
        <ele>214.8</ele>
        <time>2021-11-27T13:42:12Z</time>
      </trkpt>
      <trkpt lat="46.46281" lon="5.28733">
        <ele>215.4</ele>
        <time>2021-11-27T13:42:14Z</time>
      </trkpt>
      <trkpt lat="46.46299" lon="5.28745">
        <ele>216</ele>
        <time>2021-11-27T13:42:18Z</time>
      </trkpt>
      <trkpt lat="46.46313" lon="5.28754">
        <ele>216.4</ele>
        <time>2021-11-27T13:42:21Z</time>
      </trkpt>
      <trkpt lat="46.46343" lon="5.28774">
        <ele>217.6</ele>
        <time>2021-11-27T13:42:28Z</time>
      </trkpt>
      <trkpt lat="46.46367" lon="5.28793">
        <ele>219</ele>
        <time>2021-11-27T13:42:34Z</time>
      </trkpt>
      <trkpt lat="46.46383" lon="5.2881">
        <ele>219.8</ele>
        <time>2021-11-27T13:42:38Z</time>
      </trkpt>
      <trkpt lat="46.46398" lon="5.28833">
        <ele>220.2</ele>
        <time>2021-11-27T13:42:42Z</time>
      </trkpt>
      <trkpt lat="46.46404" lon="5.28845">
        <ele>220.2</ele>
        <time>2021-11-27T13:42:44Z</time>
      </trkpt>
      <trkpt lat="46.4642" lon="5.28895">
        <ele>220.6</ele>
        <time>2021-11-27T13:42:51Z</time>
      </trkpt>
      <trkpt lat="46.46434" lon="5.28959">
        <ele>221.2</ele>
        <time>2021-11-27T13:42:59Z</time>
      </trkpt>
      <trkpt lat="46.46436" lon="5.28967">
        <ele>221.2</ele>
        <time>2021-11-27T13:43:00Z</time>
      </trkpt>
      <trkpt lat="46.46447" lon="5.2902">
        <ele>222</ele>
        <time>2021-11-27T13:43:07Z</time>
      </trkpt>
      <trkpt lat="46.46451" lon="5.29036">
        <ele>222.2</ele>
        <time>2021-11-27T13:43:09Z</time>
      </trkpt>
      <trkpt lat="46.46464" lon="5.29098">
        <ele>222.4</ele>
        <time>2021-11-27T13:43:16Z</time>
      </trkpt>
      <trkpt lat="46.4648" lon="5.29178">
        <ele>222.2</ele>
        <time>2021-11-27T13:43:25Z</time>
      </trkpt>
      <trkpt lat="46.46483" lon="5.29187">
        <ele>222.4</ele>
        <time>2021-11-27T13:43:26Z</time>
      </trkpt>
      <trkpt lat="46.46499" lon="5.29269">
        <ele>221.4</ele>
        <time>2021-11-27T13:43:34Z</time>
      </trkpt>
      <trkpt lat="46.46506" lon="5.29301">
        <ele>221</ele>
        <time>2021-11-27T13:43:37Z</time>
      </trkpt>
      <trkpt lat="46.46516" lon="5.29344">
        <ele>220</ele>
        <time>2021-11-27T13:43:41Z</time>
      </trkpt>
      <trkpt lat="46.4652" lon="5.29365">
        <ele>219.8</ele>
        <time>2021-11-27T13:43:43Z</time>
      </trkpt>
      <trkpt lat="46.46537" lon="5.29448">
        <ele>219.4</ele>
        <time>2021-11-27T13:43:51Z</time>
      </trkpt>
      <trkpt lat="46.46554" lon="5.29521">
        <ele>219</ele>
        <time>2021-11-27T13:43:58Z</time>
      </trkpt>
      <trkpt lat="46.46557" lon="5.29532">
        <ele>218.8</ele>
        <time>2021-11-27T13:43:59Z</time>
      </trkpt>
      <trkpt lat="46.46569" lon="5.2958">
        <ele>218.6</ele>
        <time>2021-11-27T13:44:04Z</time>
      </trkpt>
      <trkpt lat="46.46571" lon="5.29588">
        <ele>218.6</ele>
        <time>2021-11-27T13:44:05Z</time>
      </trkpt>
      <trkpt lat="46.46576" lon="5.29603">
        <ele>218.8</ele>
        <time>2021-11-27T13:44:07Z</time>
      </trkpt>
      <trkpt lat="46.46579" lon="5.29611">
        <ele>219</ele>
        <time>2021-11-27T13:44:08Z</time>
      </trkpt>
      <trkpt lat="46.46588" lon="5.29646">
        <ele>220</ele>
        <time>2021-11-27T13:44:12Z</time>
      </trkpt>
      <trkpt lat="46.46594" lon="5.29673">
        <ele>220.4</ele>
        <time>2021-11-27T13:44:15Z</time>
      </trkpt>
      <trkpt lat="46.46609" lon="5.29726">
        <ele>221.2</ele>
        <time>2021-11-27T13:44:21Z</time>
      </trkpt>
      <trkpt lat="46.46616" lon="5.29753">
        <ele>221.4</ele>
        <time>2021-11-27T13:44:24Z</time>
      </trkpt>
      <trkpt lat="46.46619" lon="5.2977">
        <ele>221.6</ele>
        <time>2021-11-27T13:44:26Z</time>
      </trkpt>
      <trkpt lat="46.46622" lon="5.29787">
        <ele>221.8</ele>
        <time>2021-11-27T13:44:28Z</time>
      </trkpt>
      <trkpt lat="46.46626" lon="5.29802">
        <ele>222.2</ele>
        <time>2021-11-27T13:44:30Z</time>
      </trkpt>
      <trkpt lat="46.4663" lon="5.29818">
        <ele>222.4</ele>
        <time>2021-11-27T13:44:32Z</time>
      </trkpt>
      <trkpt lat="46.46633" lon="5.29827">
        <ele>222.4</ele>
        <time>2021-11-27T13:44:33Z</time>
      </trkpt>
      <trkpt lat="46.46635" lon="5.29844">
        <ele>222.6</ele>
        <time>2021-11-27T13:44:35Z</time>
      </trkpt>
      <trkpt lat="46.46638" lon="5.29862">
        <ele>222.6</ele>
        <time>2021-11-27T13:44:37Z</time>
      </trkpt>
      <trkpt lat="46.46654" lon="5.29915">
        <ele>222.8</ele>
        <time>2021-11-27T13:44:42Z</time>
      </trkpt>
      <trkpt lat="46.46672" lon="5.29978">
        <ele>222.4</ele>
        <time>2021-11-27T13:44:48Z</time>
      </trkpt>
      <trkpt lat="46.46693" lon="5.30044">
        <ele>221.4</ele>
        <time>2021-11-27T13:44:54Z</time>
      </trkpt>
      <trkpt lat="46.467" lon="5.30076">
        <ele>220.8</ele>
        <time>2021-11-27T13:44:57Z</time>
      </trkpt>
      <trkpt lat="46.46714" lon="5.30127">
        <ele>220</ele>
        <time>2021-11-27T13:45:02Z</time>
      </trkpt>
      <trkpt lat="46.46734" lon="5.30201">
        <ele>220.4</ele>
        <time>2021-11-27T13:45:10Z</time>
      </trkpt>
      <trkpt lat="46.46738" lon="5.30209">
        <ele>220.4</ele>
        <time>2021-11-27T13:45:11Z</time>
      </trkpt>
      <trkpt lat="46.46746" lon="5.30224">
        <ele>220.6</ele>
        <time>2021-11-27T13:45:13Z</time>
      </trkpt>
      <trkpt lat="46.46751" lon="5.30231">
        <ele>220.8</ele>
        <time>2021-11-27T13:45:14Z</time>
      </trkpt>
      <trkpt lat="46.46792" lon="5.30279">
        <ele>221.6</ele>
        <time>2021-11-27T13:45:22Z</time>
      </trkpt>
      <trkpt lat="46.46808" lon="5.30299">
        <ele>221.8</ele>
        <time>2021-11-27T13:45:25Z</time>
      </trkpt>
      <trkpt lat="46.46852" lon="5.30352">
        <ele>221.4</ele>
        <time>2021-11-27T13:45:33Z</time>
      </trkpt>
      <trkpt lat="46.46857" lon="5.30358">
        <ele>221.4</ele>
        <time>2021-11-27T13:45:34Z</time>
      </trkpt>
      <trkpt lat="46.46864" lon="5.30365">
        <ele>221.4</ele>
        <time>2021-11-27T13:45:35Z</time>
      </trkpt>
      <trkpt lat="46.4689" lon="5.30382">
        <ele>221.6</ele>
        <time>2021-11-27T13:45:39Z</time>
      </trkpt>
      <trkpt lat="46.46946" lon="5.30405">
        <ele>221.4</ele>
        <time>2021-11-27T13:45:47Z</time>
      </trkpt>
      <trkpt lat="46.46953" lon="5.30409">
        <ele>221.2</ele>
        <time>2021-11-27T13:45:48Z</time>
      </trkpt>
      <trkpt lat="46.46992" lon="5.3044">
        <ele>221</ele>
        <time>2021-11-27T13:45:54Z</time>
      </trkpt>
      <trkpt lat="46.47041" lon="5.30482">
        <ele>221.2</ele>
        <time>2021-11-27T13:46:02Z</time>
      </trkpt>
      <trkpt lat="46.47047" lon="5.30487">
        <ele>221.2</ele>
        <time>2021-11-27T13:46:03Z</time>
      </trkpt>
      <trkpt lat="46.47099" lon="5.3053">
        <ele>221.8</ele>
        <time>2021-11-27T13:46:12Z</time>
      </trkpt>
      <trkpt lat="46.47106" lon="5.30535">
        <ele>222</ele>
        <time>2021-11-27T13:46:13Z</time>
      </trkpt>
      <trkpt lat="46.47112" lon="5.30538">
        <ele>222</ele>
        <time>2021-11-27T13:46:14Z</time>
      </trkpt>
      <trkpt lat="46.47145" lon="5.30554">
        <ele>222</ele>
        <time>2021-11-27T13:46:19Z</time>
      </trkpt>
      <trkpt lat="46.47189" lon="5.30561">
        <ele>221.8</ele>
        <time>2021-11-27T13:46:25Z</time>
      </trkpt>
      <trkpt lat="46.47224" lon="5.30559">
        <ele>221.2</ele>
        <time>2021-11-27T13:46:30Z</time>
      </trkpt>
      <trkpt lat="46.47238" lon="5.30564">
        <ele>221</ele>
        <time>2021-11-27T13:46:32Z</time>
      </trkpt>
      <trkpt lat="46.47253" lon="5.30574">
        <ele>221</ele>
        <time>2021-11-27T13:46:34Z</time>
      </trkpt>
      <trkpt lat="46.47275" lon="5.30599">
        <ele>221.2</ele>
        <time>2021-11-27T13:46:38Z</time>
      </trkpt>
      <trkpt lat="46.47306" lon="5.30639">
        <ele>221.4</ele>
        <time>2021-11-27T13:46:44Z</time>
      </trkpt>
      <trkpt lat="46.4731" lon="5.30648">
        <ele>221.4</ele>
        <time>2021-11-27T13:46:45Z</time>
      </trkpt>
      <trkpt lat="46.47314" lon="5.30659">
        <ele>221.4</ele>
        <time>2021-11-27T13:46:46Z</time>
      </trkpt>
      <trkpt lat="46.47316" lon="5.30678">
        <ele>221.4</ele>
        <time>2021-11-27T13:46:48Z</time>
      </trkpt>
      <trkpt lat="46.4732" lon="5.30767">
        <ele>221.2</ele>
        <time>2021-11-27T13:46:56Z</time>
      </trkpt>
      <trkpt lat="46.47323" lon="5.30802">
        <ele>220.8</ele>
        <time>2021-11-27T13:46:59Z</time>
      </trkpt>
      <trkpt lat="46.47326" lon="5.30835">
        <ele>220.4</ele>
        <time>2021-11-27T13:47:02Z</time>
      </trkpt>
      <trkpt lat="46.47327" lon="5.30846">
        <ele>220.2</ele>
        <time>2021-11-27T13:47:03Z</time>
      </trkpt>
      <trkpt lat="46.47331" lon="5.30876">
        <ele>220.2</ele>
        <time>2021-11-27T13:47:06Z</time>
      </trkpt>
      <trkpt lat="46.47338" lon="5.30892">
        <ele>220.2</ele>
        <time>2021-11-27T13:47:08Z</time>
      </trkpt>
      <trkpt lat="46.47344" lon="5.30898">
        <ele>220.2</ele>
        <time>2021-11-27T13:47:09Z</time>
      </trkpt>
      <trkpt lat="46.47349" lon="5.30899">
        <ele>220.6</ele>
        <time>2021-11-27T13:47:10Z</time>
      </trkpt>
      <trkpt lat="46.47362" lon="5.30897">
        <ele>220.8</ele>
        <time>2021-11-27T13:47:12Z</time>
      </trkpt>
      <trkpt lat="46.47406" lon="5.30879">
        <ele>221</ele>
        <time>2021-11-27T13:47:18Z</time>
      </trkpt>
      <trkpt lat="46.4745" lon="5.30856">
        <ele>220.6</ele>
        <time>2021-11-27T13:47:24Z</time>
      </trkpt>
      <trkpt lat="46.47505" lon="5.30825">
        <ele>220.6</ele>
        <time>2021-11-27T13:47:32Z</time>
      </trkpt>
      <trkpt lat="46.47551" lon="5.30809">
        <ele>221.4</ele>
        <time>2021-11-27T13:47:39Z</time>
      </trkpt>
      <trkpt lat="46.4757" lon="5.30805">
        <ele>221.8</ele>
        <time>2021-11-27T13:47:42Z</time>
      </trkpt>
      <trkpt lat="46.47597" lon="5.30802">
        <ele>222</ele>
        <time>2021-11-27T13:47:46Z</time>
      </trkpt>
      <trkpt lat="46.47658" lon="5.30792">
        <ele>222.2</ele>
        <time>2021-11-27T13:47:55Z</time>
      </trkpt>
      <trkpt lat="46.47671" lon="5.30791">
        <ele>222.2</ele>
        <time>2021-11-27T13:47:57Z</time>
      </trkpt>
      <trkpt lat="46.47729" lon="5.30782">
        <ele>222.2</ele>
        <time>2021-11-27T13:48:05Z</time>
      </trkpt>
      <trkpt lat="46.47743" lon="5.30779">
        <ele>222</ele>
        <time>2021-11-27T13:48:07Z</time>
      </trkpt>
      <trkpt lat="46.47803" lon="5.30772">
        <ele>221</ele>
        <time>2021-11-27T13:48:15Z</time>
      </trkpt>
      <trkpt lat="46.4781" lon="5.30772">
        <ele>221.2</ele>
        <time>2021-11-27T13:48:16Z</time>
      </trkpt>
      <trkpt lat="46.47824" lon="5.30773">
        <ele>221.4</ele>
        <time>2021-11-27T13:48:18Z</time>
      </trkpt>
      <trkpt lat="46.47834" lon="5.30778">
        <ele>221.6</ele>
        <time>2021-11-27T13:48:20Z</time>
      </trkpt>
      <trkpt lat="46.47841" lon="5.30787">
        <ele>221.6</ele>
        <time>2021-11-27T13:48:22Z</time>
      </trkpt>
      <trkpt lat="46.47844" lon="5.30793">
        <ele>222</ele>
        <time>2021-11-27T13:48:23Z</time>
      </trkpt>
      <trkpt lat="46.47846" lon="5.30798">
        <ele>222.2</ele>
        <time>2021-11-27T13:48:24Z</time>
      </trkpt>
      <trkpt lat="46.47854" lon="5.30804">
        <ele>223</ele>
        <time>2021-11-27T13:48:26Z</time>
      </trkpt>
      <trkpt lat="46.47873" lon="5.30805">
        <ele>223.6</ele>
        <time>2021-11-27T13:48:29Z</time>
      </trkpt>
      <trkpt lat="46.47906" lon="5.30814">
        <ele>223.6</ele>
        <time>2021-11-27T13:48:33Z</time>
      </trkpt>
      <trkpt lat="46.47943" lon="5.30822">
        <ele>222.4</ele>
        <time>2021-11-27T13:48:37Z</time>
      </trkpt>
      <trkpt lat="46.47953" lon="5.30821">
        <ele>221.4</ele>
        <time>2021-11-27T13:48:38Z</time>
      </trkpt>
      <trkpt lat="46.47962" lon="5.30819">
        <ele>221</ele>
        <time>2021-11-27T13:48:39Z</time>
      </trkpt>
      <trkpt lat="46.47972" lon="5.30816">
        <ele>219.6</ele>
        <time>2021-11-27T13:48:40Z</time>
      </trkpt>
      <trkpt lat="46.47989" lon="5.30808">
        <ele>218.4</ele>
        <time>2021-11-27T13:48:42Z</time>
      </trkpt>
      <trkpt lat="46.48028" lon="5.30786">
        <ele>218</ele>
        <time>2021-11-27T13:48:47Z</time>
      </trkpt>
      <trkpt lat="46.48073" lon="5.30761">
        <ele>219.4</ele>
        <time>2021-11-27T13:48:54Z</time>
      </trkpt>
      <trkpt lat="46.48087" lon="5.30753">
        <ele>219.8</ele>
        <time>2021-11-27T13:48:56Z</time>
      </trkpt>
      <trkpt lat="46.48126" lon="5.30732">
        <ele>220.4</ele>
        <time>2021-11-27T13:49:02Z</time>
      </trkpt>
      <trkpt lat="46.48183" lon="5.307">
        <ele>219.6</ele>
        <time>2021-11-27T13:49:10Z</time>
      </trkpt>
      <trkpt lat="46.48222" lon="5.30686">
        <ele>218.2</ele>
        <time>2021-11-27T13:49:15Z</time>
      </trkpt>
      <trkpt lat="46.48231" lon="5.30686">
        <ele>217.8</ele>
        <time>2021-11-27T13:49:16Z</time>
      </trkpt>
      <trkpt lat="46.48257" lon="5.30691">
        <ele>217.4</ele>
        <time>2021-11-27T13:49:19Z</time>
      </trkpt>
      <trkpt lat="46.48274" lon="5.30696">
        <ele>216.8</ele>
        <time>2021-11-27T13:49:21Z</time>
      </trkpt>
      <trkpt lat="46.48309" lon="5.307">
        <ele>215.8</ele>
        <time>2021-11-27T13:49:25Z</time>
      </trkpt>
      <trkpt lat="46.48325" lon="5.30695">
        <ele>215.2</ele>
        <time>2021-11-27T13:49:27Z</time>
      </trkpt>
      <trkpt lat="46.4834" lon="5.30686">
        <ele>215</ele>
        <time>2021-11-27T13:49:29Z</time>
      </trkpt>
      <trkpt lat="46.48367" lon="5.30663">
        <ele>214.8</ele>
        <time>2021-11-27T13:49:33Z</time>
      </trkpt>
      <trkpt lat="46.48379" lon="5.30651">
        <ele>215</ele>
        <time>2021-11-27T13:49:35Z</time>
      </trkpt>
      <trkpt lat="46.4841" lon="5.30621">
        <ele>215.8</ele>
        <time>2021-11-27T13:49:40Z</time>
      </trkpt>
      <trkpt lat="46.48433" lon="5.30599">
        <ele>215.8</ele>
        <time>2021-11-27T13:49:44Z</time>
      </trkpt>
      <trkpt lat="46.48468" lon="5.30564">
        <ele>216.2</ele>
        <time>2021-11-27T13:49:50Z</time>
      </trkpt>
      <trkpt lat="46.48515" lon="5.30522">
        <ele>216.4</ele>
        <time>2021-11-27T13:49:58Z</time>
      </trkpt>
      <trkpt lat="46.48547" lon="5.305">
        <ele>216.8</ele>
        <time>2021-11-27T13:50:03Z</time>
      </trkpt>
      <trkpt lat="46.48554" lon="5.30497">
        <ele>217</ele>
        <time>2021-11-27T13:50:04Z</time>
      </trkpt>
      <trkpt lat="46.48569" lon="5.30493">
        <ele>217.2</ele>
        <time>2021-11-27T13:50:06Z</time>
      </trkpt>
      <trkpt lat="46.48584" lon="5.30492">
        <ele>217.2</ele>
        <time>2021-11-27T13:50:08Z</time>
      </trkpt>
      <trkpt lat="46.48592" lon="5.30493">
        <ele>217.2</ele>
        <time>2021-11-27T13:50:09Z</time>
      </trkpt>
      <trkpt lat="46.48646" lon="5.305">
        <ele>217</ele>
        <time>2021-11-27T13:50:16Z</time>
      </trkpt>
      <trkpt lat="46.48706" lon="5.30498">
        <ele>216.8</ele>
        <time>2021-11-27T13:50:24Z</time>
      </trkpt>
      <trkpt lat="46.48741" lon="5.3051">
        <ele>216.6</ele>
        <time>2021-11-27T13:50:29Z</time>
      </trkpt>
      <trkpt lat="46.48796" lon="5.30534">
        <ele>216.8</ele>
        <time>2021-11-27T13:50:37Z</time>
      </trkpt>
      <trkpt lat="46.48839" lon="5.30541">
        <ele>217.2</ele>
        <time>2021-11-27T13:50:43Z</time>
      </trkpt>
      <trkpt lat="46.48881" lon="5.30538">
        <ele>217</ele>
        <time>2021-11-27T13:50:49Z</time>
      </trkpt>
      <trkpt lat="46.48938" lon="5.30516">
        <ele>216.8</ele>
        <time>2021-11-27T13:50:57Z</time>
      </trkpt>
      <trkpt lat="46.48945" lon="5.30513">
        <ele>216.8</ele>
        <time>2021-11-27T13:50:58Z</time>
      </trkpt>
      <trkpt lat="46.48996" lon="5.30492">
        <ele>216.6</ele>
        <time>2021-11-27T13:51:05Z</time>
      </trkpt>
      <trkpt lat="46.49054" lon="5.30467">
        <ele>216.4</ele>
        <time>2021-11-27T13:51:13Z</time>
      </trkpt>
      <trkpt lat="46.49083" lon="5.30456">
        <ele>216.4</ele>
        <time>2021-11-27T13:51:17Z</time>
      </trkpt>
      <trkpt lat="46.49139" lon="5.30433">
        <ele>216</ele>
        <time>2021-11-27T13:51:25Z</time>
      </trkpt>
      <trkpt lat="46.49146" lon="5.3043">
        <ele>216</ele>
        <time>2021-11-27T13:51:26Z</time>
      </trkpt>
      <trkpt lat="46.49195" lon="5.30411">
        <ele>215.8</ele>
        <time>2021-11-27T13:51:33Z</time>
      </trkpt>
      <trkpt lat="46.49209" lon="5.30405">
        <ele>215.6</ele>
        <time>2021-11-27T13:51:35Z</time>
      </trkpt>
      <trkpt lat="46.49265" lon="5.30382">
        <ele>215.6</ele>
        <time>2021-11-27T13:51:43Z</time>
      </trkpt>
      <trkpt lat="46.49272" lon="5.30379">
        <ele>215.4</ele>
        <time>2021-11-27T13:51:44Z</time>
      </trkpt>
      <trkpt lat="46.4933" lon="5.30355">
        <ele>215.2</ele>
        <time>2021-11-27T13:51:52Z</time>
      </trkpt>
      <trkpt lat="46.49353" lon="5.30347">
        <ele>215</ele>
        <time>2021-11-27T13:51:55Z</time>
      </trkpt>
      <trkpt lat="46.49374" lon="5.30339">
        <ele>214.8</ele>
        <time>2021-11-27T13:51:58Z</time>
      </trkpt>
      <trkpt lat="46.49418" lon="5.3032">
        <ele>214.6</ele>
        <time>2021-11-27T13:52:04Z</time>
      </trkpt>
      <trkpt lat="46.49447" lon="5.30307">
        <ele>214.2</ele>
        <time>2021-11-27T13:52:08Z</time>
      </trkpt>
      <trkpt lat="46.4946" lon="5.30296">
        <ele>214.2</ele>
        <time>2021-11-27T13:52:10Z</time>
      </trkpt>
      <trkpt lat="46.49488" lon="5.30259">
        <ele>213.8</ele>
        <time>2021-11-27T13:52:15Z</time>
      </trkpt>
      <trkpt lat="46.49507" lon="5.30218">
        <ele>212.8</ele>
        <time>2021-11-27T13:52:19Z</time>
      </trkpt>
      <trkpt lat="46.49512" lon="5.30208">
        <ele>212.4</ele>
        <time>2021-11-27T13:52:20Z</time>
      </trkpt>
      <trkpt lat="46.49531" lon="5.30182">
        <ele>211.2</ele>
        <time>2021-11-27T13:52:23Z</time>
      </trkpt>
      <trkpt lat="46.49537" lon="5.30175">
        <ele>211</ele>
        <time>2021-11-27T13:52:24Z</time>
      </trkpt>
      <trkpt lat="46.49578" lon="5.30146">
        <ele>210.4</ele>
        <time>2021-11-27T13:52:30Z</time>
      </trkpt>
      <trkpt lat="46.49591" lon="5.30137">
        <ele>210.4</ele>
        <time>2021-11-27T13:52:32Z</time>
      </trkpt>
      <trkpt lat="46.49611" lon="5.30115">
        <ele>211</ele>
        <time>2021-11-27T13:52:36Z</time>
      </trkpt>
      <trkpt lat="46.49638" lon="5.30082">
        <ele>211</ele>
        <time>2021-11-27T13:52:41Z</time>
      </trkpt>
      <trkpt lat="46.49648" lon="5.30064">
        <ele>210.8</ele>
        <time>2021-11-27T13:52:43Z</time>
      </trkpt>
      <trkpt lat="46.49662" lon="5.30022">
        <ele>210.2</ele>
        <time>2021-11-27T13:52:47Z</time>
      </trkpt>
      <trkpt lat="46.4967" lon="5.29988">
        <ele>208.8</ele>
        <time>2021-11-27T13:52:50Z</time>
      </trkpt>
      <trkpt lat="46.49675" lon="5.29966">
        <ele>207.8</ele>
        <time>2021-11-27T13:52:52Z</time>
      </trkpt>
      <trkpt lat="46.49677" lon="5.29956">
        <ele>207.2</ele>
        <time>2021-11-27T13:52:53Z</time>
      </trkpt>
      <trkpt lat="46.49678" lon="5.29947">
        <ele>207</ele>
        <time>2021-11-27T13:52:54Z</time>
      </trkpt>
      <trkpt lat="46.49676" lon="5.29939">
        <ele>206.8</ele>
        <time>2021-11-27T13:52:55Z</time>
      </trkpt>
      <trkpt lat="46.49673" lon="5.29933">
        <ele>206.6</ele>
        <time>2021-11-27T13:52:56Z</time>
      </trkpt>
      <trkpt lat="46.49661" lon="5.29927">
        <ele>206.4</ele>
        <time>2021-11-27T13:52:58Z</time>
      </trkpt>
      <trkpt lat="46.4963" lon="5.29921">
        <ele>205.4</ele>
        <time>2021-11-27T13:53:02Z</time>
      </trkpt>
      <trkpt lat="46.49604" lon="5.29913">
        <ele>204.2</ele>
        <time>2021-11-27T13:53:05Z</time>
      </trkpt>
      <trkpt lat="46.49579" lon="5.29905">
        <ele>203.4</ele>
        <time>2021-11-27T13:53:08Z</time>
      </trkpt>
      <trkpt lat="46.4957" lon="5.29903">
        <ele>203</ele>
        <time>2021-11-27T13:53:09Z</time>
      </trkpt>
      <trkpt lat="46.49537" lon="5.29892">
        <ele>201.8</ele>
        <time>2021-11-27T13:53:13Z</time>
      </trkpt>
      <trkpt lat="46.49521" lon="5.29888">
        <ele>201.6</ele>
        <time>2021-11-27T13:53:15Z</time>
      </trkpt>
      <trkpt lat="46.49475" lon="5.29882">
        <ele>201.2</ele>
        <time>2021-11-27T13:53:21Z</time>
      </trkpt>
      <trkpt lat="46.49443" lon="5.29889">
        <ele>201.4</ele>
        <time>2021-11-27T13:53:26Z</time>
      </trkpt>
      <trkpt lat="46.49409" lon="5.29894">
        <ele>203</ele>
        <time>2021-11-27T13:53:32Z</time>
      </trkpt>
      <trkpt lat="46.49389" lon="5.29895">
        <ele>204.2</ele>
        <time>2021-11-27T13:53:36Z</time>
      </trkpt>
      <trkpt lat="46.49379" lon="5.29896">
        <ele>204.8</ele>
        <time>2021-11-27T13:53:38Z</time>
      </trkpt>
      <trkpt lat="46.49375" lon="5.29896">
        <ele>205.2</ele>
        <time>2021-11-27T13:53:39Z</time>
      </trkpt>
      <trkpt lat="46.49358" lon="5.29896">
        <ele>206.6</ele>
        <time>2021-11-27T13:53:43Z</time>
      </trkpt>
      <trkpt lat="46.4935" lon="5.29895">
        <ele>207.4</ele>
        <time>2021-11-27T13:53:45Z</time>
      </trkpt>
      <trkpt lat="46.49342" lon="5.29894">
        <ele>208</ele>
        <time>2021-11-27T13:53:47Z</time>
      </trkpt>
      <trkpt lat="46.49322" lon="5.29891">
        <ele>209.6</ele>
        <time>2021-11-27T13:53:52Z</time>
      </trkpt>
      <trkpt lat="46.49317" lon="5.2989">
        <ele>210.2</ele>
        <time>2021-11-27T13:53:53Z</time>
      </trkpt>
      <trkpt lat="46.49313" lon="5.29888">
        <ele>210.8</ele>
        <time>2021-11-27T13:53:54Z</time>
      </trkpt>
      <trkpt lat="46.49302" lon="5.29883">
        <ele>212</ele>
        <time>2021-11-27T13:53:57Z</time>
      </trkpt>
      <trkpt lat="46.49298" lon="5.29881">
        <ele>212.2</ele>
        <time>2021-11-27T13:53:58Z</time>
      </trkpt>
      <trkpt lat="46.4929" lon="5.29877">
        <ele>212.6</ele>
        <time>2021-11-27T13:54:00Z</time>
      </trkpt>
      <trkpt lat="46.49267" lon="5.29864">
        <ele>213</ele>
        <time>2021-11-27T13:54:05Z</time>
      </trkpt>
      <trkpt lat="46.49257" lon="5.29857">
        <ele>213.2</ele>
        <time>2021-11-27T13:54:07Z</time>
      </trkpt>
      <trkpt lat="46.4922" lon="5.29827">
        <ele>212.6</ele>
        <time>2021-11-27T13:54:14Z</time>
      </trkpt>
      <trkpt lat="46.49203" lon="5.2981">
        <ele>211.2</ele>
        <time>2021-11-27T13:54:17Z</time>
      </trkpt>
      <trkpt lat="46.49191" lon="5.29796">
        <ele>210.6</ele>
        <time>2021-11-27T13:54:19Z</time>
      </trkpt>
      <trkpt lat="46.49177" lon="5.29781">
        <ele>209.8</ele>
        <time>2021-11-27T13:54:21Z</time>
      </trkpt>
      <trkpt lat="46.49163" lon="5.29764">
        <ele>208.6</ele>
        <time>2021-11-27T13:54:23Z</time>
      </trkpt>
      <trkpt lat="46.49148" lon="5.29748">
        <ele>207.4</ele>
        <time>2021-11-27T13:54:25Z</time>
      </trkpt>
      <trkpt lat="46.49133" lon="5.29729">
        <ele>206.4</ele>
        <time>2021-11-27T13:54:27Z</time>
      </trkpt>
      <trkpt lat="46.49127" lon="5.29718">
        <ele>205.8</ele>
        <time>2021-11-27T13:54:28Z</time>
      </trkpt>
      <trkpt lat="46.49121" lon="5.29706">
        <ele>204.4</ele>
        <time>2021-11-27T13:54:29Z</time>
      </trkpt>
      <trkpt lat="46.49109" lon="5.2968">
        <ele>202.6</ele>
        <time>2021-11-27T13:54:31Z</time>
      </trkpt>
      <trkpt lat="46.49097" lon="5.29653">
        <ele>201</ele>
        <time>2021-11-27T13:54:33Z</time>
      </trkpt>
      <trkpt lat="46.49085" lon="5.29625">
        <ele>199.2</ele>
        <time>2021-11-27T13:54:35Z</time>
      </trkpt>
      <trkpt lat="46.4907" lon="5.29598">
        <ele>197.2</ele>
        <time>2021-11-27T13:54:37Z</time>
      </trkpt>
      <trkpt lat="46.49062" lon="5.29588">
        <ele>196.2</ele>
        <time>2021-11-27T13:54:38Z</time>
      </trkpt>
      <trkpt lat="46.49055" lon="5.29581">
        <ele>195.8</ele>
        <time>2021-11-27T13:54:39Z</time>
      </trkpt>
      <trkpt lat="46.49036" lon="5.29573">
        <ele>195.4</ele>
        <time>2021-11-27T13:54:41Z</time>
      </trkpt>
      <trkpt lat="46.49027" lon="5.29572">
        <ele>195.2</ele>
        <time>2021-11-27T13:54:42Z</time>
      </trkpt>
      <trkpt lat="46.49021" lon="5.29574">
        <ele>195.2</ele>
        <time>2021-11-27T13:54:43Z</time>
      </trkpt>
      <trkpt lat="46.48987" lon="5.2958">
        <ele>195.8</ele>
        <time>2021-11-27T13:54:48Z</time>
      </trkpt>
      <trkpt lat="46.48981" lon="5.2958">
        <ele>196.4</ele>
        <time>2021-11-27T13:54:49Z</time>
      </trkpt>
      <trkpt lat="46.48971" lon="5.29579">
        <ele>197.8</ele>
        <time>2021-11-27T13:54:51Z</time>
      </trkpt>
      <trkpt lat="46.48961" lon="5.29575">
        <ele>198.8</ele>
        <time>2021-11-27T13:54:53Z</time>
      </trkpt>
      <trkpt lat="46.48957" lon="5.29573">
        <ele>199.6</ele>
        <time>2021-11-27T13:54:54Z</time>
      </trkpt>
      <trkpt lat="46.48949" lon="5.29568">
        <ele>200.6</ele>
        <time>2021-11-27T13:54:56Z</time>
      </trkpt>
      <trkpt lat="46.48945" lon="5.29565">
        <ele>201</ele>
        <time>2021-11-27T13:54:57Z</time>
      </trkpt>
      <trkpt lat="46.48938" lon="5.2956">
        <ele>201.6</ele>
        <time>2021-11-27T13:54:59Z</time>
      </trkpt>
      <trkpt lat="46.48934" lon="5.29557">
        <ele>202.2</ele>
        <time>2021-11-27T13:55:00Z</time>
      </trkpt>
      <trkpt lat="46.48924" lon="5.29549">
        <ele>203.6</ele>
        <time>2021-11-27T13:55:03Z</time>
      </trkpt>
      <trkpt lat="46.4891" lon="5.29536">
        <ele>205</ele>
        <time>2021-11-27T13:55:07Z</time>
      </trkpt>
      <trkpt lat="46.48897" lon="5.29524">
        <ele>206</ele>
        <time>2021-11-27T13:55:11Z</time>
      </trkpt>
      <trkpt lat="46.48887" lon="5.29513">
        <ele>206.6</ele>
        <time>2021-11-27T13:55:14Z</time>
      </trkpt>
      <trkpt lat="46.4888" lon="5.29506">
        <ele>207.6</ele>
        <time>2021-11-27T13:55:16Z</time>
      </trkpt>
      <trkpt lat="46.48863" lon="5.29488">
        <ele>208.6</ele>
        <time>2021-11-27T13:55:21Z</time>
      </trkpt>
      <trkpt lat="46.48859" lon="5.29484">
        <ele>208.6</ele>
        <time>2021-11-27T13:55:22Z</time>
      </trkpt>
      <trkpt lat="46.48841" lon="5.29465">
        <ele>209.6</ele>
        <time>2021-11-27T13:55:27Z</time>
      </trkpt>
      <trkpt lat="46.48831" lon="5.29454">
        <ele>210.2</ele>
        <time>2021-11-27T13:55:30Z</time>
      </trkpt>
      <trkpt lat="46.48818" lon="5.29442">
        <ele>210.4</ele>
        <time>2021-11-27T13:55:33Z</time>
      </trkpt>
      <trkpt lat="46.48811" lon="5.29436">
        <ele>210.4</ele>
        <time>2021-11-27T13:55:35Z</time>
      </trkpt>
      <trkpt lat="46.48803" lon="5.29428">
        <ele>210.4</ele>
        <time>2021-11-27T13:55:37Z</time>
      </trkpt>
      <trkpt lat="46.48794" lon="5.29426">
        <ele>210.4</ele>
        <time>2021-11-27T13:55:39Z</time>
      </trkpt>
      <trkpt lat="46.4879" lon="5.29431">
        <ele>210.4</ele>
        <time>2021-11-27T13:55:40Z</time>
      </trkpt>
      <trkpt lat="46.48788" lon="5.29437">
        <ele>210.4</ele>
        <time>2021-11-27T13:55:41Z</time>
      </trkpt>
      <trkpt lat="46.48787" lon="5.29446">
        <ele>210.4</ele>
        <time>2021-11-27T13:55:42Z</time>
      </trkpt>
      <trkpt lat="46.48787" lon="5.29463">
        <ele>210.2</ele>
        <time>2021-11-27T13:55:44Z</time>
      </trkpt>
      <trkpt lat="46.48783" lon="5.29489">
        <ele>210</ele>
        <time>2021-11-27T13:55:47Z</time>
      </trkpt>
      <trkpt lat="46.48775" lon="5.2952">
        <ele>210</ele>
        <time>2021-11-27T13:55:51Z</time>
      </trkpt>
      <trkpt lat="46.48768" lon="5.29537">
        <ele>210</ele>
        <time>2021-11-27T13:55:53Z</time>
      </trkpt>
      <trkpt lat="46.48754" lon="5.29569">
        <ele>210.8</ele>
        <time>2021-11-27T13:55:58Z</time>
      </trkpt>
      <trkpt lat="46.48742" lon="5.29594">
        <ele>211.6</ele>
        <time>2021-11-27T13:56:02Z</time>
      </trkpt>
      <trkpt lat="46.48739" lon="5.29603">
        <ele>211.8</ele>
        <time>2021-11-27T13:56:03Z</time>
      </trkpt>
      <trkpt lat="46.48728" lon="5.29635">
        <ele>212.2</ele>
        <time>2021-11-27T13:56:07Z</time>
      </trkpt>
      <trkpt lat="46.48712" lon="5.29697">
        <ele>211.6</ele>
        <time>2021-11-27T13:56:13Z</time>
      </trkpt>
      <trkpt lat="46.4869" lon="5.29779">
        <ele>211</ele>
        <time>2021-11-27T13:56:21Z</time>
      </trkpt>
      <trkpt lat="46.48688" lon="5.29787">
        <ele>210.8</ele>
        <time>2021-11-27T13:56:22Z</time>
      </trkpt>
      <trkpt lat="46.4868" lon="5.29817">
        <ele>210.4</ele>
        <time>2021-11-27T13:56:25Z</time>
      </trkpt>
      <trkpt lat="46.48661" lon="5.29892">
        <ele>210.6</ele>
        <time>2021-11-27T13:56:33Z</time>
      </trkpt>
      <trkpt lat="46.48651" lon="5.29918">
        <ele>210.8</ele>
        <time>2021-11-27T13:56:36Z</time>
      </trkpt>
      <trkpt lat="46.48642" lon="5.29934">
        <ele>211</ele>
        <time>2021-11-27T13:56:38Z</time>
      </trkpt>
      <trkpt lat="46.48617" lon="5.29965">
        <ele>211</ele>
        <time>2021-11-27T13:56:43Z</time>
      </trkpt>
      <trkpt lat="46.48603" lon="5.29981">
        <ele>211.2</ele>
        <time>2021-11-27T13:56:46Z</time>
      </trkpt>
      <trkpt lat="46.4859" lon="5.29996">
        <ele>211.4</ele>
        <time>2021-11-27T13:56:49Z</time>
      </trkpt>
      <trkpt lat="46.4858" lon="5.30007">
        <ele>212.2</ele>
        <time>2021-11-27T13:56:51Z</time>
      </trkpt>
      <trkpt lat="46.48568" lon="5.30023">
        <ele>212.6</ele>
        <time>2021-11-27T13:56:54Z</time>
      </trkpt>
      <trkpt lat="46.48561" lon="5.30041">
        <ele>213.2</ele>
        <time>2021-11-27T13:56:56Z</time>
      </trkpt>
      <trkpt lat="46.48555" lon="5.30077">
        <ele>213.6</ele>
        <time>2021-11-27T13:57:00Z</time>
      </trkpt>
      <trkpt lat="46.4855" lon="5.30105">
        <ele>214.4</ele>
        <time>2021-11-27T13:57:03Z</time>
      </trkpt>
      <trkpt lat="46.48546" lon="5.30124">
        <ele>214.8</ele>
        <time>2021-11-27T13:57:05Z</time>
      </trkpt>
      <trkpt lat="46.48545" lon="5.30141">
        <ele>215</ele>
        <time>2021-11-27T13:57:07Z</time>
      </trkpt>
      <trkpt lat="46.4854" lon="5.30193">
        <ele>215</ele>
        <time>2021-11-27T13:57:12Z</time>
      </trkpt>
      <trkpt lat="46.4854" lon="5.30266">
        <ele>214</ele>
        <time>2021-11-27T13:57:19Z</time>
      </trkpt>
      <trkpt lat="46.48538" lon="5.30296">
        <ele>214</ele>
        <time>2021-11-27T13:57:22Z</time>
      </trkpt>
      <trkpt lat="46.48534" lon="5.30315">
        <ele>214</ele>
        <time>2021-11-27T13:57:24Z</time>
      </trkpt>
      <trkpt lat="46.48522" lon="5.30365">
        <ele>214.4</ele>
        <time>2021-11-27T13:57:30Z</time>
      </trkpt>
      <trkpt lat="46.48513" lon="5.304">
        <ele>215.6</ele>
        <time>2021-11-27T13:57:35Z</time>
      </trkpt>
      <trkpt lat="46.48512" lon="5.30408">
        <ele>215.8</ele>
        <time>2021-11-27T13:57:36Z</time>
      </trkpt>
      <trkpt lat="46.4851" lon="5.30421">
        <ele>216.4</ele>
        <time>2021-11-27T13:57:38Z</time>
      </trkpt>
      <trkpt lat="46.48511" lon="5.3043">
        <ele>216.8</ele>
        <time>2021-11-27T13:57:39Z</time>
      </trkpt>
      <trkpt lat="46.48511" lon="5.30435">
        <ele>217</ele>
        <time>2021-11-27T13:57:40Z</time>
      </trkpt>
      <trkpt lat="46.48514" lon="5.30443">
        <ele>217.6</ele>
        <time>2021-11-27T13:57:41Z</time>
      </trkpt>
      <trkpt lat="46.48516" lon="5.30448">
        <ele>218</ele>
        <time>2021-11-27T13:57:42Z</time>
      </trkpt>
      <trkpt lat="46.48521" lon="5.30453">
        <ele>218.2</ele>
        <time>2021-11-27T13:57:43Z</time>
      </trkpt>
      <trkpt lat="46.48554" lon="5.30485">
        <ele>218.4</ele>
        <time>2021-11-27T13:57:50Z</time>
      </trkpt>
      <trkpt lat="46.48558" lon="5.30487">
        <ele>218.4</ele>
        <time>2021-11-27T13:57:51Z</time>
      </trkpt>
      <trkpt lat="46.48563" lon="5.30488">
        <ele>218.4</ele>
        <time>2021-11-27T13:57:52Z</time>
      </trkpt>
      <trkpt lat="46.48587" lon="5.30491">
        <ele>218.2</ele>
        <time>2021-11-27T13:57:56Z</time>
      </trkpt>
      <trkpt lat="46.48629" lon="5.30498">
        <ele>217.8</ele>
        <time>2021-11-27T13:58:02Z</time>
      </trkpt>
      <trkpt lat="46.48678" lon="5.30498">
        <ele>217.6</ele>
        <time>2021-11-27T13:58:09Z</time>
      </trkpt>
      <trkpt lat="46.48714" lon="5.30499">
        <ele>217.4</ele>
        <time>2021-11-27T13:58:14Z</time>
      </trkpt>
      <trkpt lat="46.4872" lon="5.30501">
        <ele>217.4</ele>
        <time>2021-11-27T13:58:15Z</time>
      </trkpt>
      <trkpt lat="46.48772" lon="5.30523">
        <ele>217.4</ele>
        <time>2021-11-27T13:58:23Z</time>
      </trkpt>
      <trkpt lat="46.48817" lon="5.30537">
        <ele>217.8</ele>
        <time>2021-11-27T13:58:30Z</time>
      </trkpt>
      <trkpt lat="46.48872" lon="5.30539">
        <ele>217.6</ele>
        <time>2021-11-27T13:58:38Z</time>
      </trkpt>
      <trkpt lat="46.48926" lon="5.3052">
        <ele>217.6</ele>
        <time>2021-11-27T13:58:46Z</time>
      </trkpt>
      <trkpt lat="46.48933" lon="5.30516">
        <ele>217.4</ele>
        <time>2021-11-27T13:58:47Z</time>
      </trkpt>
      <trkpt lat="46.4899" lon="5.30493">
        <ele>217.4</ele>
        <time>2021-11-27T13:58:55Z</time>
      </trkpt>
      <trkpt lat="46.4904" lon="5.30473">
        <ele>217.4</ele>
        <time>2021-11-27T13:59:02Z</time>
      </trkpt>
      <trkpt lat="46.49096" lon="5.30451">
        <ele>216.8</ele>
        <time>2021-11-27T13:59:10Z</time>
      </trkpt>
      <trkpt lat="46.49103" lon="5.30448">
        <ele>216.8</ele>
        <time>2021-11-27T13:59:11Z</time>
      </trkpt>
      <trkpt lat="46.49159" lon="5.30425">
        <ele>216.6</ele>
        <time>2021-11-27T13:59:19Z</time>
      </trkpt>
      <trkpt lat="46.49173" lon="5.3042">
        <ele>216.6</ele>
        <time>2021-11-27T13:59:21Z</time>
      </trkpt>
      <trkpt lat="46.49229" lon="5.30397">
        <ele>216.2</ele>
        <time>2021-11-27T13:59:29Z</time>
      </trkpt>
      <trkpt lat="46.49236" lon="5.30394">
        <ele>216.2</ele>
        <time>2021-11-27T13:59:30Z</time>
      </trkpt>
      <trkpt lat="46.49273" lon="5.3038">
        <ele>215.8</ele>
        <time>2021-11-27T13:59:35Z</time>
      </trkpt>
      <trkpt lat="46.49315" lon="5.30363">
        <ele>215.6</ele>
        <time>2021-11-27T13:59:41Z</time>
      </trkpt>
      <trkpt lat="46.49373" lon="5.3034">
        <ele>215</ele>
        <time>2021-11-27T13:59:49Z</time>
      </trkpt>
      <trkpt lat="46.49387" lon="5.30334">
        <ele>215</ele>
        <time>2021-11-27T13:59:51Z</time>
      </trkpt>
      <trkpt lat="46.49438" lon="5.30313">
        <ele>215</ele>
        <time>2021-11-27T13:59:58Z</time>
      </trkpt>
      <trkpt lat="46.49464" lon="5.30293">
        <ele>215.2</ele>
        <time>2021-11-27T14:00:02Z</time>
      </trkpt>
      <trkpt lat="46.4947" lon="5.30286">
        <ele>215</ele>
        <time>2021-11-27T14:00:03Z</time>
      </trkpt>
      <trkpt lat="46.49492" lon="5.30253">
        <ele>214.6</ele>
        <time>2021-11-27T14:00:07Z</time>
      </trkpt>
      <trkpt lat="46.49506" lon="5.30221">
        <ele>213.8</ele>
        <time>2021-11-27T14:00:10Z</time>
      </trkpt>
      <trkpt lat="46.49511" lon="5.30211">
        <ele>213.4</ele>
        <time>2021-11-27T14:00:11Z</time>
      </trkpt>
      <trkpt lat="46.49517" lon="5.30201">
        <ele>212.2</ele>
        <time>2021-11-27T14:00:12Z</time>
      </trkpt>
      <trkpt lat="46.49529" lon="5.30184">
        <ele>211.2</ele>
        <time>2021-11-27T14:00:14Z</time>
      </trkpt>
      <trkpt lat="46.49536" lon="5.30178">
        <ele>211.2</ele>
        <time>2021-11-27T14:00:15Z</time>
      </trkpt>
      <trkpt lat="46.49577" lon="5.30147">
        <ele>210.6</ele>
        <time>2021-11-27T14:00:21Z</time>
      </trkpt>
      <trkpt lat="46.49606" lon="5.30121">
        <ele>210.8</ele>
        <time>2021-11-27T14:00:26Z</time>
      </trkpt>
      <trkpt lat="46.49646" lon="5.30071">
        <ele>211</ele>
        <time>2021-11-27T14:00:33Z</time>
      </trkpt>
      <trkpt lat="46.49654" lon="5.3005">
        <ele>211</ele>
        <time>2021-11-27T14:00:35Z</time>
      </trkpt>
      <trkpt lat="46.49661" lon="5.30027">
        <ele>210.6</ele>
        <time>2021-11-27T14:00:37Z</time>
      </trkpt>
      <trkpt lat="46.49667" lon="5.30003">
        <ele>209.2</ele>
        <time>2021-11-27T14:00:39Z</time>
      </trkpt>
      <trkpt lat="46.49675" lon="5.29967">
        <ele>208</ele>
        <time>2021-11-27T14:00:42Z</time>
      </trkpt>
      <trkpt lat="46.49682" lon="5.29932">
        <ele>207.2</ele>
        <time>2021-11-27T14:00:45Z</time>
      </trkpt>
      <trkpt lat="46.49685" lon="5.29922">
        <ele>207</ele>
        <time>2021-11-27T14:00:46Z</time>
      </trkpt>
      <trkpt lat="46.49694" lon="5.29883">
        <ele>206.6</ele>
        <time>2021-11-27T14:00:50Z</time>
      </trkpt>
      <trkpt lat="46.49704" lon="5.29849">
        <ele>207</ele>
        <time>2021-11-27T14:00:54Z</time>
      </trkpt>
      <trkpt lat="46.49712" lon="5.29835">
        <ele>207.4</ele>
        <time>2021-11-27T14:00:56Z</time>
      </trkpt>
      <trkpt lat="46.49725" lon="5.29816">
        <ele>208</ele>
        <time>2021-11-27T14:00:59Z</time>
      </trkpt>
      <trkpt lat="46.49739" lon="5.29798">
        <ele>208.4</ele>
        <time>2021-11-27T14:01:02Z</time>
      </trkpt>
      <trkpt lat="46.4975" lon="5.2979">
        <ele>208.6</ele>
        <time>2021-11-27T14:01:04Z</time>
      </trkpt>
      <trkpt lat="46.49756" lon="5.29789">
        <ele>208.6</ele>
        <time>2021-11-27T14:01:05Z</time>
      </trkpt>
      <trkpt lat="46.49763" lon="5.29789">
        <ele>208.6</ele>
        <time>2021-11-27T14:01:06Z</time>
      </trkpt>
      <trkpt lat="46.49784" lon="5.29792">
        <ele>208.8</ele>
        <time>2021-11-27T14:01:09Z</time>
      </trkpt>
      <trkpt lat="46.49791" lon="5.29793">
        <ele>208.8</ele>
        <time>2021-11-27T14:01:10Z</time>
      </trkpt>
      <trkpt lat="46.49805" lon="5.29798">
        <ele>209</ele>
        <time>2021-11-27T14:01:12Z</time>
      </trkpt>
      <trkpt lat="46.49819" lon="5.29803">
        <ele>209.2</ele>
        <time>2021-11-27T14:01:14Z</time>
      </trkpt>
      <trkpt lat="46.49876" lon="5.29824">
        <ele>209.2</ele>
        <time>2021-11-27T14:01:22Z</time>
      </trkpt>
      <trkpt lat="46.49899" lon="5.29835">
        <ele>208.6</ele>
        <time>2021-11-27T14:01:25Z</time>
      </trkpt>
      <trkpt lat="46.4993" lon="5.29845">
        <ele>207.8</ele>
        <time>2021-11-27T14:01:29Z</time>
      </trkpt>
      <trkpt lat="46.49955" lon="5.29853">
        <ele>207.4</ele>
        <time>2021-11-27T14:01:32Z</time>
      </trkpt>
      <trkpt lat="46.49977" lon="5.29856">
        <ele>206.8</ele>
        <time>2021-11-27T14:01:35Z</time>
      </trkpt>
      <trkpt lat="46.50001" lon="5.29861">
        <ele>206</ele>
        <time>2021-11-27T14:01:38Z</time>
      </trkpt>
      <trkpt lat="46.50008" lon="5.29864">
        <ele>205.8</ele>
        <time>2021-11-27T14:01:39Z</time>
      </trkpt>
      <trkpt lat="46.50015" lon="5.29869">
        <ele>205.6</ele>
        <time>2021-11-27T14:01:40Z</time>
      </trkpt>
      <trkpt lat="46.50028" lon="5.29883">
        <ele>205.4</ele>
        <time>2021-11-27T14:01:42Z</time>
      </trkpt>
      <trkpt lat="46.5006" lon="5.29926">
        <ele>206</ele>
        <time>2021-11-27T14:01:48Z</time>
      </trkpt>
      <trkpt lat="46.50077" lon="5.2997">
        <ele>206.4</ele>
        <time>2021-11-27T14:01:53Z</time>
      </trkpt>
      <trkpt lat="46.50085" lon="5.30018">
        <ele>206.8</ele>
        <time>2021-11-27T14:01:58Z</time>
      </trkpt>
      <trkpt lat="46.50085" lon="5.30028">
        <ele>207</ele>
        <time>2021-11-27T14:01:59Z</time>
      </trkpt>
      <trkpt lat="46.50087" lon="5.3009">
        <ele>207.2</ele>
        <time>2021-11-27T14:02:05Z</time>
      </trkpt>
      <trkpt lat="46.50087" lon="5.30176">
        <ele>207.2</ele>
        <time>2021-11-27T14:02:13Z</time>
      </trkpt>
      <trkpt lat="46.50087" lon="5.30208">
        <ele>207</ele>
        <time>2021-11-27T14:02:16Z</time>
      </trkpt>
      <trkpt lat="46.50084" lon="5.30271">
        <ele>206.6</ele>
        <time>2021-11-27T14:02:22Z</time>
      </trkpt>
      <trkpt lat="46.50082" lon="5.30289">
        <ele>206.4</ele>
        <time>2021-11-27T14:02:24Z</time>
      </trkpt>
      <trkpt lat="46.50079" lon="5.30305">
        <ele>206.2</ele>
        <time>2021-11-27T14:02:26Z</time>
      </trkpt>
      <trkpt lat="46.50079" lon="5.30313">
        <ele>206.2</ele>
        <time>2021-11-27T14:02:27Z</time>
      </trkpt>
      <trkpt lat="46.50082" lon="5.30319">
        <ele>206.2</ele>
        <time>2021-11-27T14:02:28Z</time>
      </trkpt>
      <trkpt lat="46.50091" lon="5.30324">
        <ele>206</ele>
        <time>2021-11-27T14:02:30Z</time>
      </trkpt>
      <trkpt lat="46.50096" lon="5.30322">
        <ele>205.8</ele>
        <time>2021-11-27T14:02:31Z</time>
      </trkpt>
      <trkpt lat="46.50107" lon="5.30318">
        <ele>205.8</ele>
        <time>2021-11-27T14:02:33Z</time>
      </trkpt>
      <trkpt lat="46.50118" lon="5.30314">
        <ele>205.6</ele>
        <time>2021-11-27T14:02:35Z</time>
      </trkpt>
      <trkpt lat="46.50131" lon="5.3031">
        <ele>205.6</ele>
        <time>2021-11-27T14:02:37Z</time>
      </trkpt>
      <trkpt lat="46.50178" lon="5.30298">
        <ele>205.6</ele>
        <time>2021-11-27T14:02:44Z</time>
      </trkpt>
      <trkpt lat="46.5022" lon="5.30279">
        <ele>206.4</ele>
        <time>2021-11-27T14:02:51Z</time>
      </trkpt>
      <trkpt lat="46.50231" lon="5.30273">
        <ele>206.8</ele>
        <time>2021-11-27T14:02:53Z</time>
      </trkpt>
      <trkpt lat="46.50258" lon="5.30259">
        <ele>207.6</ele>
        <time>2021-11-27T14:02:58Z</time>
      </trkpt>
      <trkpt lat="46.50263" lon="5.30257">
        <ele>207.8</ele>
        <time>2021-11-27T14:02:59Z</time>
      </trkpt>
      <trkpt lat="46.50291" lon="5.30249">
        <ele>209</ele>
        <time>2021-11-27T14:03:04Z</time>
      </trkpt>
      <trkpt lat="46.50296" lon="5.30247">
        <ele>209.2</ele>
        <time>2021-11-27T14:03:05Z</time>
      </trkpt>
      <trkpt lat="46.50311" lon="5.30243">
        <ele>209.8</ele>
        <time>2021-11-27T14:03:08Z</time>
      </trkpt>
      <trkpt lat="46.50317" lon="5.30242">
        <ele>210</ele>
        <time>2021-11-27T14:03:09Z</time>
      </trkpt>
      <trkpt lat="46.50322" lon="5.30242">
        <ele>210.2</ele>
        <time>2021-11-27T14:03:10Z</time>
      </trkpt>
      <trkpt lat="46.50355" lon="5.30238">
        <ele>211.2</ele>
        <time>2021-11-27T14:03:16Z</time>
      </trkpt>
      <trkpt lat="46.5036" lon="5.30237">
        <ele>211.2</ele>
        <time>2021-11-27T14:03:17Z</time>
      </trkpt>
      <trkpt lat="46.5041" lon="5.30229">
        <ele>211.8</ele>
        <time>2021-11-27T14:03:26Z</time>
      </trkpt>
      <trkpt lat="46.50433" lon="5.30224">
        <ele>212.4</ele>
        <time>2021-11-27T14:03:30Z</time>
      </trkpt>
      <trkpt lat="46.50462" lon="5.30214">
        <ele>212.2</ele>
        <time>2021-11-27T14:03:35Z</time>
      </trkpt>
      <trkpt lat="46.50502" lon="5.30195">
        <ele>211.4</ele>
        <time>2021-11-27T14:03:41Z</time>
      </trkpt>
      <trkpt lat="46.50517" lon="5.30187">
        <ele>211</ele>
        <time>2021-11-27T14:03:43Z</time>
      </trkpt>
      <trkpt lat="46.5055" lon="5.3017">
        <ele>210.2</ele>
        <time>2021-11-27T14:03:48Z</time>
      </trkpt>
      <trkpt lat="46.50599" lon="5.30143">
        <ele>210.2</ele>
        <time>2021-11-27T14:03:56Z</time>
      </trkpt>
      <trkpt lat="46.5065" lon="5.30118">
        <ele>210</ele>
        <time>2021-11-27T14:04:04Z</time>
      </trkpt>
      <trkpt lat="46.50704" lon="5.30103">
        <ele>209.6</ele>
        <time>2021-11-27T14:04:12Z</time>
      </trkpt>
      <trkpt lat="46.50711" lon="5.30102">
        <ele>209.6</ele>
        <time>2021-11-27T14:04:13Z</time>
      </trkpt>
      <trkpt lat="46.5077" lon="5.30095">
        <ele>209</ele>
        <time>2021-11-27T14:04:21Z</time>
      </trkpt>
      <trkpt lat="46.50777" lon="5.30096">
        <ele>209</ele>
        <time>2021-11-27T14:04:22Z</time>
      </trkpt>
      <trkpt lat="46.50784" lon="5.30096">
        <ele>209</ele>
        <time>2021-11-27T14:04:23Z</time>
      </trkpt>
      <trkpt lat="46.50839" lon="5.30101">
        <ele>208.4</ele>
        <time>2021-11-27T14:04:31Z</time>
      </trkpt>
      <trkpt lat="46.50877" lon="5.30112">
        <ele>208.4</ele>
        <time>2021-11-27T14:04:37Z</time>
      </trkpt>
      <trkpt lat="46.50929" lon="5.30138">
        <ele>208.8</ele>
        <time>2021-11-27T14:04:45Z</time>
      </trkpt>
      <trkpt lat="46.50936" lon="5.30142">
        <ele>208.8</ele>
        <time>2021-11-27T14:04:46Z</time>
      </trkpt>
      <trkpt lat="46.51" lon="5.30177">
        <ele>208</ele>
        <time>2021-11-27T14:04:54Z</time>
      </trkpt>
      <trkpt lat="46.51008" lon="5.30182">
        <ele>207.8</ele>
        <time>2021-11-27T14:04:55Z</time>
      </trkpt>
      <trkpt lat="46.51034" lon="5.30202">
        <ele>206.8</ele>
        <time>2021-11-27T14:04:58Z</time>
      </trkpt>
      <trkpt lat="46.51051" lon="5.30218">
        <ele>205.6</ele>
        <time>2021-11-27T14:05:00Z</time>
      </trkpt>
      <trkpt lat="46.51067" lon="5.30235">
        <ele>204.2</ele>
        <time>2021-11-27T14:05:02Z</time>
      </trkpt>
      <trkpt lat="46.51083" lon="5.30253">
        <ele>202.2</ele>
        <time>2021-11-27T14:05:04Z</time>
      </trkpt>
      <trkpt lat="46.51083" lon="5.30253">
        <ele>201.2</ele>
        <time>2021-11-27T14:05:05Z</time>
      </trkpt>
      <trkpt lat="46.51115" lon="5.3029">
        <ele>199.8</ele>
        <time>2021-11-27T14:05:08Z</time>
      </trkpt>
      <trkpt lat="46.51141" lon="5.30314">
        <ele>198.2</ele>
        <time>2021-11-27T14:05:11Z</time>
      </trkpt>
      <trkpt lat="46.51151" lon="5.3032">
        <ele>197.4</ele>
        <time>2021-11-27T14:05:12Z</time>
      </trkpt>
      <trkpt lat="46.51172" lon="5.3033">
        <ele>196.8</ele>
        <time>2021-11-27T14:05:14Z</time>
      </trkpt>
      <trkpt lat="46.51193" lon="5.30335">
        <ele>195.6</ele>
        <time>2021-11-27T14:05:16Z</time>
      </trkpt>
      <trkpt lat="46.51203" lon="5.30336">
        <ele>194.6</ele>
        <time>2021-11-27T14:05:17Z</time>
      </trkpt>
      <trkpt lat="46.51213" lon="5.30336">
        <ele>193.8</ele>
        <time>2021-11-27T14:05:18Z</time>
      </trkpt>
      <trkpt lat="46.51213" lon="5.30336">
        <ele>193</ele>
        <time>2021-11-27T14:05:19Z</time>
      </trkpt>
      <trkpt lat="46.51231" lon="5.30332">
        <ele>192.4</ele>
        <time>2021-11-27T14:05:20Z</time>
      </trkpt>
      <trkpt lat="46.5124" lon="5.3033">
        <ele>191.8</ele>
        <time>2021-11-27T14:05:21Z</time>
      </trkpt>
      <trkpt lat="46.51281" lon="5.30316">
        <ele>190.6</ele>
        <time>2021-11-27T14:05:26Z</time>
      </trkpt>
      <trkpt lat="46.51332" lon="5.30292">
        <ele>190.4</ele>
        <time>2021-11-27T14:05:33Z</time>
      </trkpt>
      <trkpt lat="46.51364" lon="5.30269">
        <ele>190.4</ele>
        <time>2021-11-27T14:05:38Z</time>
      </trkpt>
      <trkpt lat="46.51371" lon="5.30267">
        <ele>190.4</ele>
        <time>2021-11-27T14:05:39Z</time>
      </trkpt>
      <trkpt lat="46.51385" lon="5.3027">
        <ele>190.4</ele>
        <time>2021-11-27T14:05:41Z</time>
      </trkpt>
      <trkpt lat="46.51391" lon="5.30275">
        <ele>190.6</ele>
        <time>2021-11-27T14:05:42Z</time>
      </trkpt>
      <trkpt lat="46.514" lon="5.30291">
        <ele>190.6</ele>
        <time>2021-11-27T14:05:44Z</time>
      </trkpt>
      <trkpt lat="46.51403" lon="5.303">
        <ele>190.6</ele>
        <time>2021-11-27T14:05:45Z</time>
      </trkpt>
      <trkpt lat="46.51429" lon="5.30372">
        <ele>191.2</ele>
        <time>2021-11-27T14:05:53Z</time>
      </trkpt>
      <trkpt lat="46.51432" lon="5.30381">
        <ele>191.2</ele>
        <time>2021-11-27T14:05:54Z</time>
      </trkpt>
      <trkpt lat="46.51457" lon="5.30451">
        <ele>191.2</ele>
        <time>2021-11-27T14:06:02Z</time>
      </trkpt>
      <trkpt lat="46.51463" lon="5.30469">
        <ele>191.2</ele>
        <time>2021-11-27T14:06:04Z</time>
      </trkpt>
      <trkpt lat="46.51478" lon="5.30535">
        <ele>191</ele>
        <time>2021-11-27T14:06:11Z</time>
      </trkpt>
      <trkpt lat="46.51487" lon="5.30591">
        <ele>191</ele>
        <time>2021-11-27T14:06:17Z</time>
      </trkpt>
      <trkpt lat="46.515" lon="5.30627">
        <ele>191</ele>
        <time>2021-11-27T14:06:21Z</time>
      </trkpt>
      <trkpt lat="46.51503" lon="5.30633">
        <ele>191</ele>
        <time>2021-11-27T14:06:22Z</time>
      </trkpt>
      <trkpt lat="46.51541" lon="5.30695">
        <ele>190.8</ele>
        <time>2021-11-27T14:06:30Z</time>
      </trkpt>
      <trkpt lat="46.51546" lon="5.30702">
        <ele>190.8</ele>
        <time>2021-11-27T14:06:31Z</time>
      </trkpt>
      <trkpt lat="46.51583" lon="5.30761">
        <ele>191</ele>
        <time>2021-11-27T14:06:39Z</time>
      </trkpt>
      <trkpt lat="46.51587" lon="5.30768">
        <ele>190.8</ele>
        <time>2021-11-27T14:06:40Z</time>
      </trkpt>
      <trkpt lat="46.51607" lon="5.30805">
        <ele>191</ele>
        <time>2021-11-27T14:06:46Z</time>
      </trkpt>
      <trkpt lat="46.51624" lon="5.30846">
        <ele>191.4</ele>
        <time>2021-11-27T14:06:50Z</time>
      </trkpt>
      <trkpt lat="46.51629" lon="5.30864">
        <ele>191.6</ele>
        <time>2021-11-27T14:06:52Z</time>
      </trkpt>
      <trkpt lat="46.5164" lon="5.30918">
        <ele>192.8</ele>
        <time>2021-11-27T14:06:59Z</time>
      </trkpt>
      <trkpt lat="46.51641" lon="5.30933">
        <ele>193.6</ele>
        <time>2021-11-27T14:07:01Z</time>
      </trkpt>
      <trkpt lat="46.51642" lon="5.30941">
        <ele>194</ele>
        <time>2021-11-27T14:07:02Z</time>
      </trkpt>
      <trkpt lat="46.51644" lon="5.30954">
        <ele>194.4</ele>
        <time>2021-11-27T14:07:04Z</time>
      </trkpt>
      <trkpt lat="46.51646" lon="5.30963">
        <ele>194.6</ele>
        <time>2021-11-27T14:07:05Z</time>
      </trkpt>
      <trkpt lat="46.51646" lon="5.30963">
        <ele>195</ele>
        <time>2021-11-27T14:07:06Z</time>
      </trkpt>
      <trkpt lat="46.51648" lon="5.30976">
        <ele>195.2</ele>
        <time>2021-11-27T14:07:07Z</time>
      </trkpt>
      <trkpt lat="46.51653" lon="5.30995">
        <ele>195.8</ele>
        <time>2021-11-27T14:07:10Z</time>
      </trkpt>
      <trkpt lat="46.51656" lon="5.31015">
        <ele>196.4</ele>
        <time>2021-11-27T14:07:13Z</time>
      </trkpt>
      <trkpt lat="46.51665" lon="5.31055">
        <ele>197.6</ele>
        <time>2021-11-27T14:07:19Z</time>
      </trkpt>
      <trkpt lat="46.51668" lon="5.31068">
        <ele>198</ele>
        <time>2021-11-27T14:07:21Z</time>
      </trkpt>
      <trkpt lat="46.51668" lon="5.31075">
        <ele>198.2</ele>
        <time>2021-11-27T14:07:22Z</time>
      </trkpt>
      <trkpt lat="46.51667" lon="5.31088">
        <ele>198.2</ele>
        <time>2021-11-27T14:07:24Z</time>
      </trkpt>
      <trkpt lat="46.51665" lon="5.31094">
        <ele>198.2</ele>
        <time>2021-11-27T14:07:25Z</time>
      </trkpt>
      <trkpt lat="46.51661" lon="5.31098">
        <ele>198.2</ele>
        <time>2021-11-27T14:07:26Z</time>
      </trkpt>
      <trkpt lat="46.5165" lon="5.31103">
        <ele>198.4</ele>
        <time>2021-11-27T14:07:28Z</time>
      </trkpt>
      <trkpt lat="46.51638" lon="5.31102">
        <ele>198.4</ele>
        <time>2021-11-27T14:07:30Z</time>
      </trkpt>
      <trkpt lat="46.51628" lon="5.31097">
        <ele>198.4</ele>
        <time>2021-11-27T14:07:32Z</time>
      </trkpt>
      <trkpt lat="46.51593" lon="5.31081">
        <ele>197.4</ele>
        <time>2021-11-27T14:07:37Z</time>
      </trkpt>
      <trkpt lat="46.51571" lon="5.31076">
        <ele>196.4</ele>
        <time>2021-11-27T14:07:40Z</time>
      </trkpt>
      <trkpt lat="46.51557" lon="5.31074">
        <ele>196.2</ele>
        <time>2021-11-27T14:07:43Z</time>
      </trkpt>
      <trkpt lat="46.51498" lon="5.31069">
        <ele>196</ele>
        <time>2021-11-27T14:07:50Z</time>
      </trkpt>
      <trkpt lat="46.51491" lon="5.31069">
        <ele>196</ele>
        <time>2021-11-27T14:07:51Z</time>
      </trkpt>
      <trkpt lat="46.51453" lon="5.31067">
        <ele>195.4</ele>
        <time>2021-11-27T14:07:56Z</time>
      </trkpt>
      <trkpt lat="46.51425" lon="5.31068">
        <ele>195.2</ele>
        <time>2021-11-27T14:08:00Z</time>
      </trkpt>
      <trkpt lat="46.51365" lon="5.31071">
        <ele>195.4</ele>
        <time>2021-11-27T14:08:09Z</time>
      </trkpt>
      <trkpt lat="46.51308" lon="5.31073">
        <ele>195.6</ele>
        <time>2021-11-27T14:08:17Z</time>
      </trkpt>
      <trkpt lat="46.51303" lon="5.31073">
        <ele>195.6</ele>
        <time>2021-11-27T14:08:18Z</time>
      </trkpt>
      <trkpt lat="46.51267" lon="5.31076">
        <ele>195.4</ele>
        <time>2021-11-27T14:08:23Z</time>
      </trkpt>
      <trkpt lat="46.51254" lon="5.31082">
        <ele>195.4</ele>
        <time>2021-11-27T14:08:25Z</time>
      </trkpt>
      <trkpt lat="46.5123" lon="5.31105">
        <ele>195.2</ele>
        <time>2021-11-27T14:08:29Z</time>
      </trkpt>
      <trkpt lat="46.51203" lon="5.31137">
        <ele>195.4</ele>
        <time>2021-11-27T14:08:35Z</time>
      </trkpt>
      <trkpt lat="46.51183" lon="5.31164">
        <ele>196.4</ele>
        <time>2021-11-27T14:08:40Z</time>
      </trkpt>
      <trkpt lat="46.51179" lon="5.31169">
        <ele>197.2</ele>
        <time>2021-11-27T14:08:42Z</time>
      </trkpt>
      <trkpt lat="46.51171" lon="5.3118">
        <ele>197.2</ele>
        <time>2021-11-27T14:08:43Z</time>
      </trkpt>
      <trkpt lat="46.51162" lon="5.31192">
        <ele>197.6</ele>
        <time>2021-11-27T14:08:45Z</time>
      </trkpt>
      <trkpt lat="46.51141" lon="5.31216">
        <ele>198</ele>
        <time>2021-11-27T14:08:49Z</time>
      </trkpt>
      <trkpt lat="46.51105" lon="5.31258">
        <ele>198.6</ele>
        <time>2021-11-27T14:08:57Z</time>
      </trkpt>
      <trkpt lat="46.51098" lon="5.31267">
        <ele>198.6</ele>
        <time>2021-11-27T14:08:59Z</time>
      </trkpt>
      <trkpt lat="46.51087" lon="5.3128">
        <ele>199</ele>
        <time>2021-11-27T14:09:02Z</time>
      </trkpt>
      <trkpt lat="46.51084" lon="5.31285">
        <ele>199.2</ele>
        <time>2021-11-27T14:09:03Z</time>
      </trkpt>
      <trkpt lat="46.51074" lon="5.31302">
        <ele>199.8</ele>
        <time>2021-11-27T14:09:06Z</time>
      </trkpt>
      <trkpt lat="46.5107" lon="5.31314">
        <ele>200.2</ele>
        <time>2021-11-27T14:09:08Z</time>
      </trkpt>
      <trkpt lat="46.51069" lon="5.31321">
        <ele>200.4</ele>
        <time>2021-11-27T14:09:09Z</time>
      </trkpt>
      <trkpt lat="46.51069" lon="5.31335">
        <ele>201.2</ele>
        <time>2021-11-27T14:09:11Z</time>
      </trkpt>
      <trkpt lat="46.51069" lon="5.31343">
        <ele>201.4</ele>
        <time>2021-11-27T14:09:12Z</time>
      </trkpt>
      <trkpt lat="46.5107" lon="5.31349">
        <ele>201.8</ele>
        <time>2021-11-27T14:09:13Z</time>
      </trkpt>
      <trkpt lat="46.51071" lon="5.31368">
        <ele>202.2</ele>
        <time>2021-11-27T14:09:15Z</time>
      </trkpt>
      <trkpt lat="46.51071" lon="5.31376">
        <ele>202.4</ele>
        <time>2021-11-27T14:09:16Z</time>
      </trkpt>
      <trkpt lat="46.51068" lon="5.3139">
        <ele>202.8</ele>
        <time>2021-11-27T14:09:18Z</time>
      </trkpt>
      <trkpt lat="46.51063" lon="5.3142">
        <ele>203.4</ele>
        <time>2021-11-27T14:09:22Z</time>
      </trkpt>
      <trkpt lat="46.51059" lon="5.31437">
        <ele>204</ele>
        <time>2021-11-27T14:09:25Z</time>
      </trkpt>
      <trkpt lat="46.51054" lon="5.31458">
        <ele>204.4</ele>
        <time>2021-11-27T14:09:27Z</time>
      </trkpt>
      <trkpt lat="46.51048" lon="5.31502">
        <ele>205.6</ele>
        <time>2021-11-27T14:09:34Z</time>
      </trkpt>
      <trkpt lat="46.51047" lon="5.31507">
        <ele>205.6</ele>
        <time>2021-11-27T14:09:35Z</time>
      </trkpt>
      <trkpt lat="46.5104" lon="5.31532">
        <ele>206.4</ele>
        <time>2021-11-27T14:09:39Z</time>
      </trkpt>
      <trkpt lat="46.51037" lon="5.31539">
        <ele>206.8</ele>
        <time>2021-11-27T14:09:40Z</time>
      </trkpt>
      <trkpt lat="46.51037" lon="5.31539">
        <ele>207</ele>
        <time>2021-11-27T14:09:41Z</time>
      </trkpt>
      <trkpt lat="46.51031" lon="5.3155">
        <ele>207.2</ele>
        <time>2021-11-27T14:09:42Z</time>
      </trkpt>
      <trkpt lat="46.5102" lon="5.31564">
        <ele>208</ele>
        <time>2021-11-27T14:09:45Z</time>
      </trkpt>
      <trkpt lat="46.51015" lon="5.31569">
        <ele>208</ele>
        <time>2021-11-27T14:09:46Z</time>
      </trkpt>
      <trkpt lat="46.50973" lon="5.31613">
        <ele>208.4</ele>
        <time>2021-11-27T14:09:54Z</time>
      </trkpt>
      <trkpt lat="46.5094" lon="5.31648">
        <ele>207.6</ele>
        <time>2021-11-27T14:10:00Z</time>
      </trkpt>
      <trkpt lat="46.50911" lon="5.31679">
        <ele>207.4</ele>
        <time>2021-11-27T14:10:06Z</time>
      </trkpt>
      <trkpt lat="46.50885" lon="5.31707">
        <ele>208.4</ele>
        <time>2021-11-27T14:10:12Z</time>
      </trkpt>
      <trkpt lat="46.50861" lon="5.3173">
        <ele>209</ele>
        <time>2021-11-27T14:10:17Z</time>
      </trkpt>
      <trkpt lat="46.50855" lon="5.31735">
        <ele>208.8</ele>
        <time>2021-11-27T14:10:18Z</time>
      </trkpt>
      <trkpt lat="46.5085" lon="5.31738">
        <ele>208.8</ele>
        <time>2021-11-27T14:10:19Z</time>
      </trkpt>
      <trkpt lat="46.50844" lon="5.31739">
        <ele>208.8</ele>
        <time>2021-11-27T14:10:20Z</time>
      </trkpt>
      <trkpt lat="46.50829" lon="5.31735">
        <ele>208.8</ele>
        <time>2021-11-27T14:10:22Z</time>
      </trkpt>
      <trkpt lat="46.50796" lon="5.3171">
        <ele>208.8</ele>
        <time>2021-11-27T14:10:27Z</time>
      </trkpt>
      <trkpt lat="46.50784" lon="5.31703">
        <ele>208.2</ele>
        <time>2021-11-27T14:10:29Z</time>
      </trkpt>
      <trkpt lat="46.5077" lon="5.31698">
        <ele>208</ele>
        <time>2021-11-27T14:10:31Z</time>
      </trkpt>
      <trkpt lat="46.50763" lon="5.31698">
        <ele>207.8</ele>
        <time>2021-11-27T14:10:32Z</time>
      </trkpt>
      <trkpt lat="46.50756" lon="5.31698">
        <ele>207.6</ele>
        <time>2021-11-27T14:10:33Z</time>
      </trkpt>
      <trkpt lat="46.50698" lon="5.31703">
        <ele>207.4</ele>
        <time>2021-11-27T14:10:41Z</time>
      </trkpt>
      <trkpt lat="46.50671" lon="5.31708">
        <ele>207.4</ele>
        <time>2021-11-27T14:10:45Z</time>
      </trkpt>
      <trkpt lat="46.5066" lon="5.31714">
        <ele>207.4</ele>
        <time>2021-11-27T14:10:47Z</time>
      </trkpt>
      <trkpt lat="46.50651" lon="5.31726">
        <ele>207.4</ele>
        <time>2021-11-27T14:10:49Z</time>
      </trkpt>
      <trkpt lat="46.50646" lon="5.31735">
        <ele>207.4</ele>
        <time>2021-11-27T14:10:51Z</time>
      </trkpt>
      <trkpt lat="46.50639" lon="5.3175">
        <ele>207.4</ele>
        <time>2021-11-27T14:10:52Z</time>
      </trkpt>
      <trkpt lat="46.50623" lon="5.31794">
        <ele>207.6</ele>
        <time>2021-11-27T14:10:57Z</time>
      </trkpt>
      <trkpt lat="46.50602" lon="5.31851">
        <ele>207.2</ele>
        <time>2021-11-27T14:11:03Z</time>
      </trkpt>
      <trkpt lat="46.50583" lon="5.31905">
        <ele>206.4</ele>
        <time>2021-11-27T14:11:08Z</time>
      </trkpt>
      <trkpt lat="46.50575" lon="5.31928">
        <ele>205.4</ele>
        <time>2021-11-27T14:11:10Z</time>
      </trkpt>
      <trkpt lat="46.50571" lon="5.31941">
        <ele>205</ele>
        <time>2021-11-27T14:11:11Z</time>
      </trkpt>
      <trkpt lat="46.50556" lon="5.31978">
        <ele>203.8</ele>
        <time>2021-11-27T14:11:14Z</time>
      </trkpt>
      <trkpt lat="46.5055" lon="5.31989">
        <ele>203.4</ele>
        <time>2021-11-27T14:11:15Z</time>
      </trkpt>
      <trkpt lat="46.50544" lon="5.32">
        <ele>202.8</ele>
        <time>2021-11-27T14:11:16Z</time>
      </trkpt>
      <trkpt lat="46.50536" lon="5.32011">
        <ele>202.6</ele>
        <time>2021-11-27T14:11:17Z</time>
      </trkpt>
      <trkpt lat="46.50522" lon="5.32031">
        <ele>201.2</ele>
        <time>2021-11-27T14:11:19Z</time>
      </trkpt>
      <trkpt lat="46.50509" lon="5.32053">
        <ele>199.8</ele>
        <time>2021-11-27T14:11:21Z</time>
      </trkpt>
      <trkpt lat="46.50493" lon="5.32084">
        <ele>198.6</ele>
        <time>2021-11-27T14:11:24Z</time>
      </trkpt>
      <trkpt lat="46.50485" lon="5.32105">
        <ele>198.2</ele>
        <time>2021-11-27T14:11:26Z</time>
      </trkpt>
      <trkpt lat="46.50466" lon="5.32164">
        <ele>198.4</ele>
        <time>2021-11-27T14:11:32Z</time>
      </trkpt>
      <trkpt lat="46.50458" lon="5.32178">
        <ele>198.4</ele>
        <time>2021-11-27T14:11:34Z</time>
      </trkpt>
      <trkpt lat="46.50453" lon="5.32183">
        <ele>198.4</ele>
        <time>2021-11-27T14:11:35Z</time>
      </trkpt>
      <trkpt lat="46.50449" lon="5.32187">
        <ele>198.4</ele>
        <time>2021-11-27T14:11:36Z</time>
      </trkpt>
      <trkpt lat="46.50442" lon="5.3219">
        <ele>198.6</ele>
        <time>2021-11-27T14:11:38Z</time>
      </trkpt>
      <trkpt lat="46.50438" lon="5.3219">
        <ele>198.6</ele>
        <time>2021-11-27T14:11:40Z</time>
      </trkpt>
      <trkpt lat="46.50436" lon="5.32188">
        <ele>198.6</ele>
        <time>2021-11-27T14:11:41Z</time>
      </trkpt>
      <trkpt lat="46.50434" lon="5.32189">
        <ele>198.6</ele>
        <time>2021-11-27T14:11:42Z</time>
      </trkpt>
      <trkpt lat="46.50431" lon="5.32197">
        <ele>198.6</ele>
        <time>2021-11-27T14:11:44Z</time>
      </trkpt>
      <trkpt lat="46.50431" lon="5.32222">
        <ele>198.4</ele>
        <time>2021-11-27T14:11:49Z</time>
      </trkpt>
      <trkpt lat="46.50431" lon="5.32248">
        <ele>198.4</ele>
        <time>2021-11-27T14:11:51Z</time>
      </trkpt>
      <trkpt lat="46.50432" lon="5.32268">
        <ele>198.4</ele>
        <time>2021-11-27T14:11:53Z</time>
      </trkpt>
      <trkpt lat="46.5044" lon="5.3232">
        <ele>199</ele>
        <time>2021-11-27T14:11:58Z</time>
      </trkpt>
      <trkpt lat="46.50457" lon="5.32396">
        <ele>199</ele>
        <time>2021-11-27T14:12:05Z</time>
      </trkpt>
      <trkpt lat="46.50463" lon="5.32429">
        <ele>198.8</ele>
        <time>2021-11-27T14:12:08Z</time>
      </trkpt>
      <trkpt lat="46.5047" lon="5.32502">
        <ele>199</ele>
        <time>2021-11-27T14:12:15Z</time>
      </trkpt>
      <trkpt lat="46.50475" lon="5.3258">
        <ele>199.8</ele>
        <time>2021-11-27T14:12:23Z</time>
      </trkpt>
      <trkpt lat="46.50475" lon="5.3259">
        <ele>199.8</ele>
        <time>2021-11-27T14:12:24Z</time>
      </trkpt>
      <trkpt lat="46.50476" lon="5.32667">
        <ele>200.6</ele>
        <time>2021-11-27T14:12:32Z</time>
      </trkpt>
      <trkpt lat="46.50475" lon="5.32686">
        <ele>201</ele>
        <time>2021-11-27T14:12:34Z</time>
      </trkpt>
      <trkpt lat="46.50474" lon="5.32761">
        <ele>201.8</ele>
        <time>2021-11-27T14:12:42Z</time>
      </trkpt>
      <trkpt lat="46.50474" lon="5.32768">
        <ele>202</ele>
        <time>2021-11-27T14:12:43Z</time>
      </trkpt>
      <trkpt lat="46.50472" lon="5.32853">
        <ele>202.8</ele>
        <time>2021-11-27T14:12:52Z</time>
      </trkpt>
      <trkpt lat="46.50472" lon="5.32871">
        <ele>203</ele>
        <time>2021-11-27T14:12:54Z</time>
      </trkpt>
      <trkpt lat="46.50472" lon="5.32879">
        <ele>203</ele>
        <time>2021-11-27T14:12:55Z</time>
      </trkpt>
      <trkpt lat="46.50471" lon="5.32919">
        <ele>203.8</ele>
        <time>2021-11-27T14:13:00Z</time>
      </trkpt>
      <trkpt lat="46.5047" lon="5.32927">
        <ele>204.2</ele>
        <time>2021-11-27T14:13:01Z</time>
      </trkpt>
      <trkpt lat="46.50469" lon="5.32958">
        <ele>205.4</ele>
        <time>2021-11-27T14:13:05Z</time>
      </trkpt>
      <trkpt lat="46.50469" lon="5.32989">
        <ele>206.4</ele>
        <time>2021-11-27T14:13:09Z</time>
      </trkpt>
      <trkpt lat="46.5047" lon="5.32998">
        <ele>206.8</ele>
        <time>2021-11-27T14:13:10Z</time>
      </trkpt>
      <trkpt lat="46.50469" lon="5.33034">
        <ele>207.8</ele>
        <time>2021-11-27T14:13:15Z</time>
      </trkpt>
      <trkpt lat="46.50469" lon="5.33043">
        <ele>208</ele>
        <time>2021-11-27T14:13:16Z</time>
      </trkpt>
      <trkpt lat="46.50468" lon="5.33061">
        <ele>209</ele>
        <time>2021-11-27T14:13:19Z</time>
      </trkpt>
      <trkpt lat="46.50467" lon="5.3308">
        <ele>209.6</ele>
        <time>2021-11-27T14:13:22Z</time>
      </trkpt>
      <trkpt lat="46.50466" lon="5.33094">
        <ele>210.4</ele>
        <time>2021-11-27T14:13:24Z</time>
      </trkpt>
      <trkpt lat="46.50465" lon="5.33107">
        <ele>210.8</ele>
        <time>2021-11-27T14:13:26Z</time>
      </trkpt>
      <trkpt lat="46.50464" lon="5.3312">
        <ele>211.4</ele>
        <time>2021-11-27T14:13:28Z</time>
      </trkpt>
      <trkpt lat="46.50464" lon="5.33127">
        <ele>211.6</ele>
        <time>2021-11-27T14:13:29Z</time>
      </trkpt>
      <trkpt lat="46.50464" lon="5.33146">
        <ele>212.4</ele>
        <time>2021-11-27T14:13:32Z</time>
      </trkpt>
      <trkpt lat="46.50463" lon="5.33153">
        <ele>212.6</ele>
        <time>2021-11-27T14:13:33Z</time>
      </trkpt>
      <trkpt lat="46.50463" lon="5.33161">
        <ele>212.8</ele>
        <time>2021-11-27T14:13:34Z</time>
      </trkpt>
      <trkpt lat="46.50462" lon="5.33176">
        <ele>213.6</ele>
        <time>2021-11-27T14:13:36Z</time>
      </trkpt>
      <trkpt lat="46.50462" lon="5.33184">
        <ele>214.2</ele>
        <time>2021-11-27T14:13:37Z</time>
      </trkpt>
      <trkpt lat="46.50463" lon="5.33201">
        <ele>214.6</ele>
        <time>2021-11-27T14:13:39Z</time>
      </trkpt>
      <trkpt lat="46.50462" lon="5.33227">
        <ele>215.2</ele>
        <time>2021-11-27T14:13:42Z</time>
      </trkpt>
      <trkpt lat="46.50461" lon="5.33246">
        <ele>215.4</ele>
        <time>2021-11-27T14:13:44Z</time>
      </trkpt>
      <trkpt lat="46.50461" lon="5.33256">
        <ele>215.4</ele>
        <time>2021-11-27T14:13:45Z</time>
      </trkpt>
      <trkpt lat="46.5046" lon="5.33286">
        <ele>215.6</ele>
        <time>2021-11-27T14:13:48Z</time>
      </trkpt>
      <trkpt lat="46.5046" lon="5.33296">
        <ele>215.6</ele>
        <time>2021-11-27T14:13:49Z</time>
      </trkpt>
      <trkpt lat="46.5046" lon="5.33349">
        <ele>215.2</ele>
        <time>2021-11-27T14:13:54Z</time>
      </trkpt>
      <trkpt lat="46.50448" lon="5.3341">
        <ele>214.8</ele>
        <time>2021-11-27T14:14:00Z</time>
      </trkpt>
      <trkpt lat="46.50441" lon="5.33425">
        <ele>214.8</ele>
        <time>2021-11-27T14:14:02Z</time>
      </trkpt>
      <trkpt lat="46.50428" lon="5.33446">
        <ele>214.6</ele>
        <time>2021-11-27T14:14:05Z</time>
      </trkpt>
      <trkpt lat="46.50398" lon="5.33479">
        <ele>215</ele>
        <time>2021-11-27T14:14:11Z</time>
      </trkpt>
      <trkpt lat="46.50371" lon="5.33508">
        <ele>216</ele>
        <time>2021-11-27T14:14:17Z</time>
      </trkpt>
      <trkpt lat="46.50366" lon="5.33513">
        <ele>216.2</ele>
        <time>2021-11-27T14:14:18Z</time>
      </trkpt>
      <trkpt lat="46.5033" lon="5.33553">
        <ele>216.6</ele>
        <time>2021-11-27T14:14:26Z</time>
      </trkpt>
      <trkpt lat="46.50307" lon="5.33575">
        <ele>217.2</ele>
        <time>2021-11-27T14:14:30Z</time>
      </trkpt>
      <trkpt lat="46.50284" lon="5.336">
        <ele>217.6</ele>
        <time>2021-11-27T14:14:35Z</time>
      </trkpt>
      <trkpt lat="46.50259" lon="5.33625">
        <ele>218</ele>
        <time>2021-11-27T14:14:40Z</time>
      </trkpt>
      <trkpt lat="46.50247" lon="5.33636">
        <ele>218.2</ele>
        <time>2021-11-27T14:14:42Z</time>
      </trkpt>
      <trkpt lat="46.50237" lon="5.33645">
        <ele>218.2</ele>
        <time>2021-11-27T14:14:44Z</time>
      </trkpt>
      <trkpt lat="46.5022" lon="5.33666">
        <ele>218.6</ele>
        <time>2021-11-27T14:14:48Z</time>
      </trkpt>
      <trkpt lat="46.50212" lon="5.33675">
        <ele>218.6</ele>
        <time>2021-11-27T14:14:50Z</time>
      </trkpt>
      <trkpt lat="46.50203" lon="5.33686">
        <ele>218.8</ele>
        <time>2021-11-27T14:14:52Z</time>
      </trkpt>
      <trkpt lat="46.50182" lon="5.33707">
        <ele>219</ele>
        <time>2021-11-27T14:14:56Z</time>
      </trkpt>
      <trkpt lat="46.50136" lon="5.33758">
        <ele>219</ele>
        <time>2021-11-27T14:15:05Z</time>
      </trkpt>
      <trkpt lat="46.50096" lon="5.33801">
        <ele>218.2</ele>
        <time>2021-11-27T14:15:12Z</time>
      </trkpt>
      <trkpt lat="46.50052" lon="5.33846">
        <ele>218.4</ele>
        <time>2021-11-27T14:15:20Z</time>
      </trkpt>
      <trkpt lat="46.50033" lon="5.33868">
        <ele>219</ele>
        <time>2021-11-27T14:15:24Z</time>
      </trkpt>
      <trkpt lat="46.50026" lon="5.33876">
        <ele>219.2</ele>
        <time>2021-11-27T14:15:26Z</time>
      </trkpt>
      <trkpt lat="46.50009" lon="5.33895">
        <ele>219.8</ele>
        <time>2021-11-27T14:15:30Z</time>
      </trkpt>
      <trkpt lat="46.49999" lon="5.33904">
        <ele>220</ele>
        <time>2021-11-27T14:15:32Z</time>
      </trkpt>
      <trkpt lat="46.49971" lon="5.33936">
        <ele>221</ele>
        <time>2021-11-27T14:15:38Z</time>
      </trkpt>
      <trkpt lat="46.49935" lon="5.33973">
        <ele>221</ele>
        <time>2021-11-27T14:15:44Z</time>
      </trkpt>
      <trkpt lat="46.49896" lon="5.34018">
        <ele>220</ele>
        <time>2021-11-27T14:15:50Z</time>
      </trkpt>
      <trkpt lat="46.49869" lon="5.34048">
        <ele>219</ele>
        <time>2021-11-27T14:15:54Z</time>
      </trkpt>
      <trkpt lat="46.49845" lon="5.34083">
        <ele>218.2</ele>
        <time>2021-11-27T14:15:58Z</time>
      </trkpt>
      <trkpt lat="46.4983" lon="5.34106">
        <ele>217.8</ele>
        <time>2021-11-27T14:16:01Z</time>
      </trkpt>
      <trkpt lat="46.49805" lon="5.34146">
        <ele>218</ele>
        <time>2021-11-27T14:16:06Z</time>
      </trkpt>
      <trkpt lat="46.49767" lon="5.34209">
        <ele>218</ele>
        <time>2021-11-27T14:16:14Z</time>
      </trkpt>
      <trkpt lat="46.49758" lon="5.34225">
        <ele>218</ele>
        <time>2021-11-27T14:16:16Z</time>
      </trkpt>
      <trkpt lat="46.4972" lon="5.3429">
        <ele>217.6</ele>
        <time>2021-11-27T14:16:24Z</time>
      </trkpt>
      <trkpt lat="46.49707" lon="5.34321">
        <ele>217.6</ele>
        <time>2021-11-27T14:16:28Z</time>
      </trkpt>
      <trkpt lat="46.49703" lon="5.3434">
        <ele>217.6</ele>
        <time>2021-11-27T14:16:30Z</time>
      </trkpt>
      <trkpt lat="46.49685" lon="5.34403">
        <ele>217.4</ele>
        <time>2021-11-27T14:16:36Z</time>
      </trkpt>
      <trkpt lat="46.49675" lon="5.34438">
        <ele>216.6</ele>
        <time>2021-11-27T14:16:39Z</time>
      </trkpt>
      <trkpt lat="46.49666" lon="5.34473">
        <ele>215.6</ele>
        <time>2021-11-27T14:16:42Z</time>
      </trkpt>
      <trkpt lat="46.49653" lon="5.34521">
        <ele>214.6</ele>
        <time>2021-11-27T14:16:46Z</time>
      </trkpt>
      <trkpt lat="46.49645" lon="5.34559">
        <ele>213.4</ele>
        <time>2021-11-27T14:16:49Z</time>
      </trkpt>
      <trkpt lat="46.49638" lon="5.34608">
        <ele>212.4</ele>
        <time>2021-11-27T14:16:53Z</time>
      </trkpt>
      <trkpt lat="46.49634" lon="5.34641">
        <ele>212.2</ele>
        <time>2021-11-27T14:16:56Z</time>
      </trkpt>
      <trkpt lat="46.49629" lon="5.34689">
        <ele>212.8</ele>
        <time>2021-11-27T14:17:01Z</time>
      </trkpt>
      <trkpt lat="46.49626" lon="5.34715">
        <ele>213.6</ele>
        <time>2021-11-27T14:17:04Z</time>
      </trkpt>
      <trkpt lat="46.49625" lon="5.34739">
        <ele>215</ele>
        <time>2021-11-27T14:17:07Z</time>
      </trkpt>
      <trkpt lat="46.49624" lon="5.34773">
        <ele>216.4</ele>
        <time>2021-11-27T14:17:11Z</time>
      </trkpt>
      <trkpt lat="46.49624" lon="5.34789">
        <ele>217</ele>
        <time>2021-11-27T14:17:13Z</time>
      </trkpt>
      <trkpt lat="46.49625" lon="5.34796">
        <ele>217.4</ele>
        <time>2021-11-27T14:17:14Z</time>
      </trkpt>
      <trkpt lat="46.49628" lon="5.3482">
        <ele>218.2</ele>
        <time>2021-11-27T14:17:17Z</time>
      </trkpt>
      <trkpt lat="46.49629" lon="5.34826">
        <ele>218.6</ele>
        <time>2021-11-27T14:17:18Z</time>
      </trkpt>
      <trkpt lat="46.4963" lon="5.34833">
        <ele>218.8</ele>
        <time>2021-11-27T14:17:19Z</time>
      </trkpt>
      <trkpt lat="46.49631" lon="5.34841">
        <ele>219.2</ele>
        <time>2021-11-27T14:17:20Z</time>
      </trkpt>
      <trkpt lat="46.49635" lon="5.34865">
        <ele>220</ele>
        <time>2021-11-27T14:17:23Z</time>
      </trkpt>
      <trkpt lat="46.49645" lon="5.34914">
        <ele>220.8</ele>
        <time>2021-11-27T14:17:29Z</time>
      </trkpt>
      <trkpt lat="46.49648" lon="5.3493">
        <ele>221</ele>
        <time>2021-11-27T14:17:31Z</time>
      </trkpt>
      <trkpt lat="46.49659" lon="5.34985">
        <ele>221</ele>
        <time>2021-11-27T14:17:37Z</time>
      </trkpt>
      <trkpt lat="46.49672" lon="5.35047">
        <ele>220.4</ele>
        <time>2021-11-27T14:17:43Z</time>
      </trkpt>
      <trkpt lat="46.49681" lon="5.35091">
        <ele>219.8</ele>
        <time>2021-11-27T14:17:47Z</time>
      </trkpt>
      <trkpt lat="46.4969" lon="5.35134">
        <ele>218.6</ele>
        <time>2021-11-27T14:17:51Z</time>
      </trkpt>
      <trkpt lat="46.49702" lon="5.35194">
        <ele>218.6</ele>
        <time>2021-11-27T14:17:57Z</time>
      </trkpt>
      <trkpt lat="46.49716" lon="5.3526">
        <ele>219.2</ele>
        <time>2021-11-27T14:18:04Z</time>
      </trkpt>
      <trkpt lat="46.49729" lon="5.35333">
        <ele>219.2</ele>
        <time>2021-11-27T14:18:11Z</time>
      </trkpt>
      <trkpt lat="46.49731" lon="5.35368">
        <ele>218.8</ele>
        <time>2021-11-27T14:18:14Z</time>
      </trkpt>
      <trkpt lat="46.4973" lon="5.35379">
        <ele>218.4</ele>
        <time>2021-11-27T14:18:15Z</time>
      </trkpt>
      <trkpt lat="46.49724" lon="5.3544">
        <ele>217.8</ele>
        <time>2021-11-27T14:18:21Z</time>
      </trkpt>
      <trkpt lat="46.49715" lon="5.3551">
        <ele>218.4</ele>
        <time>2021-11-27T14:18:29Z</time>
      </trkpt>
      <trkpt lat="46.49708" lon="5.35569">
        <ele>219.6</ele>
        <time>2021-11-27T14:18:36Z</time>
      </trkpt>
      <trkpt lat="46.49707" lon="5.35586">
        <ele>219.8</ele>
        <time>2021-11-27T14:18:38Z</time>
      </trkpt>
      <trkpt lat="46.49701" lon="5.35629">
        <ele>220.2</ele>
        <time>2021-11-27T14:18:43Z</time>
      </trkpt>
      <trkpt lat="46.49698" lon="5.35636">
        <ele>220.2</ele>
        <time>2021-11-27T14:18:44Z</time>
      </trkpt>
      <trkpt lat="46.49694" lon="5.35641">
        <ele>220.2</ele>
        <time>2021-11-27T14:18:45Z</time>
      </trkpt>
      <trkpt lat="46.49689" lon="5.35644">
        <ele>220.2</ele>
        <time>2021-11-27T14:18:46Z</time>
      </trkpt>
      <trkpt lat="46.49683" lon="5.35644">
        <ele>220.2</ele>
        <time>2021-11-27T14:18:47Z</time>
      </trkpt>
      <trkpt lat="46.49669" lon="5.3564">
        <ele>220.2</ele>
        <time>2021-11-27T14:18:49Z</time>
      </trkpt>
      <trkpt lat="46.49627" lon="5.35626">
        <ele>220.8</ele>
        <time>2021-11-27T14:18:56Z</time>
      </trkpt>
      <trkpt lat="46.49614" lon="5.35622">
        <ele>221.2</ele>
        <time>2021-11-27T14:18:58Z</time>
      </trkpt>
      <trkpt lat="46.49579" lon="5.3561">
        <ele>222</ele>
        <time>2021-11-27T14:19:04Z</time>
      </trkpt>
      <trkpt lat="46.49556" lon="5.35602">
        <ele>222.8</ele>
        <time>2021-11-27T14:19:08Z</time>
      </trkpt>
      <trkpt lat="46.49534" lon="5.35593">
        <ele>223.2</ele>
        <time>2021-11-27T14:19:12Z</time>
      </trkpt>
      <trkpt lat="46.49495" lon="5.35576">
        <ele>224.4</ele>
        <time>2021-11-27T14:19:19Z</time>
      </trkpt>
      <trkpt lat="46.49439" lon="5.35552">
        <ele>225</ele>
        <time>2021-11-27T14:19:29Z</time>
      </trkpt>
      <trkpt lat="46.49433" lon="5.3555">
        <ele>225.2</ele>
        <time>2021-11-27T14:19:30Z</time>
      </trkpt>
      <trkpt lat="46.49386" lon="5.35533">
        <ele>225.4</ele>
        <time>2021-11-27T14:19:38Z</time>
      </trkpt>
      <trkpt lat="46.49352" lon="5.3553">
        <ele>226.2</ele>
        <time>2021-11-27T14:19:44Z</time>
      </trkpt>
      <trkpt lat="46.49341" lon="5.3553">
        <ele>226.4</ele>
        <time>2021-11-27T14:19:46Z</time>
      </trkpt>
      <trkpt lat="46.49321" lon="5.3553">
        <ele>227</ele>
        <time>2021-11-27T14:19:50Z</time>
      </trkpt>
      <trkpt lat="46.49304" lon="5.35531">
        <ele>227.6</ele>
        <time>2021-11-27T14:19:53Z</time>
      </trkpt>
      <trkpt lat="46.49288" lon="5.3553">
        <ele>227.6</ele>
        <time>2021-11-27T14:19:56Z</time>
      </trkpt>
      <trkpt lat="46.49254" lon="5.35531">
        <ele>227.8</ele>
        <time>2021-11-27T14:20:02Z</time>
      </trkpt>
      <trkpt lat="46.49248" lon="5.35532">
        <ele>227.8</ele>
        <time>2021-11-27T14:20:03Z</time>
      </trkpt>
      <trkpt lat="46.49243" lon="5.35531">
        <ele>227.8</ele>
        <time>2021-11-27T14:20:04Z</time>
      </trkpt>
      <trkpt lat="46.49217" lon="5.35532">
        <ele>228</ele>
        <time>2021-11-27T14:20:08Z</time>
      </trkpt>
      <trkpt lat="46.49176" lon="5.35538">
        <ele>228.2</ele>
        <time>2021-11-27T14:20:14Z</time>
      </trkpt>
      <trkpt lat="46.49132" lon="5.35538">
        <ele>227.8</ele>
        <time>2021-11-27T14:20:20Z</time>
      </trkpt>
      <trkpt lat="46.49086" lon="5.35543">
        <ele>226.4</ele>
        <time>2021-11-27T14:20:26Z</time>
      </trkpt>
      <trkpt lat="46.49078" lon="5.35544">
        <ele>226</ele>
        <time>2021-11-27T14:20:27Z</time>
      </trkpt>
      <trkpt lat="46.49054" lon="5.35545">
        <ele>225.4</ele>
        <time>2021-11-27T14:20:30Z</time>
      </trkpt>
      <trkpt lat="46.49037" lon="5.35546">
        <ele>225</ele>
        <time>2021-11-27T14:20:32Z</time>
      </trkpt>
      <trkpt lat="46.49005" lon="5.35547">
        <ele>224.2</ele>
        <time>2021-11-27T14:20:36Z</time>
      </trkpt>
      <trkpt lat="46.48966" lon="5.3555">
        <ele>223.6</ele>
        <time>2021-11-27T14:20:41Z</time>
      </trkpt>
      <trkpt lat="46.48925" lon="5.35552">
        <ele>223.6</ele>
        <time>2021-11-27T14:20:47Z</time>
      </trkpt>
      <trkpt lat="46.4889" lon="5.35554">
        <ele>224.8</ele>
        <time>2021-11-27T14:20:53Z</time>
      </trkpt>
      <trkpt lat="46.48877" lon="5.35554">
        <ele>225.4</ele>
        <time>2021-11-27T14:20:55Z</time>
      </trkpt>
      <trkpt lat="46.4886" lon="5.35556">
        <ele>225.8</ele>
        <time>2021-11-27T14:20:58Z</time>
      </trkpt>
      <trkpt lat="46.48851" lon="5.35559">
        <ele>225.8</ele>
        <time>2021-11-27T14:21:00Z</time>
      </trkpt>
      <trkpt lat="46.48842" lon="5.35563">
        <ele>226.6</ele>
        <time>2021-11-27T14:21:04Z</time>
      </trkpt>
      <trkpt lat="46.48832" lon="5.3558">
        <ele>227.4</ele>
        <time>2021-11-27T14:21:09Z</time>
      </trkpt>
      <trkpt lat="46.48823" lon="5.35601">
        <ele>227.6</ele>
        <time>2021-11-27T14:21:12Z</time>
      </trkpt>
      <trkpt lat="46.4882" lon="5.35608">
        <ele>227.8</ele>
        <time>2021-11-27T14:21:13Z</time>
      </trkpt>
      <trkpt lat="46.488" lon="5.35655">
        <ele>227.2</ele>
        <time>2021-11-27T14:21:19Z</time>
      </trkpt>
      <trkpt lat="46.48768" lon="5.35724">
        <ele>227</ele>
        <time>2021-11-27T14:21:28Z</time>
      </trkpt>
      <trkpt lat="46.48737" lon="5.35792">
        <ele>227.2</ele>
        <time>2021-11-27T14:21:37Z</time>
      </trkpt>
      <trkpt lat="46.48714" lon="5.35846">
        <ele>227.4</ele>
        <time>2021-11-27T14:21:45Z</time>
      </trkpt>
      <trkpt lat="46.48692" lon="5.35906">
        <ele>228.6</ele>
        <time>2021-11-27T14:21:54Z</time>
      </trkpt>
      <trkpt lat="46.48689" lon="5.35919">
        <ele>229</ele>
        <time>2021-11-27T14:21:56Z</time>
      </trkpt>
      <trkpt lat="46.48682" lon="5.35957">
        <ele>230</ele>
        <time>2021-11-27T14:22:01Z</time>
      </trkpt>
      <trkpt lat="46.48678" lon="5.3599">
        <ele>230.6</ele>
        <time>2021-11-27T14:22:05Z</time>
      </trkpt>
      <trkpt lat="46.48677" lon="5.35999">
        <ele>230.6</ele>
        <time>2021-11-27T14:22:06Z</time>
      </trkpt>
      <trkpt lat="46.48676" lon="5.36007">
        <ele>230.6</ele>
        <time>2021-11-27T14:22:07Z</time>
      </trkpt>
      <trkpt lat="46.4867" lon="5.36041">
        <ele>230.6</ele>
        <time>2021-11-27T14:22:11Z</time>
      </trkpt>
      <trkpt lat="46.48656" lon="5.36104">
        <ele>229.2</ele>
        <time>2021-11-27T14:22:17Z</time>
      </trkpt>
      <trkpt lat="46.48654" lon="5.36114">
        <ele>228.8</ele>
        <time>2021-11-27T14:22:18Z</time>
      </trkpt>
      <trkpt lat="46.48646" lon="5.36172">
        <ele>228</ele>
        <time>2021-11-27T14:22:24Z</time>
      </trkpt>
      <trkpt lat="46.4864" lon="5.36236">
        <ele>228</ele>
        <time>2021-11-27T14:22:31Z</time>
      </trkpt>
      <trkpt lat="46.4863" lon="5.36291">
        <ele>228.8</ele>
        <time>2021-11-27T14:22:38Z</time>
      </trkpt>
      <trkpt lat="46.48625" lon="5.36304">
        <ele>229.2</ele>
        <time>2021-11-27T14:22:40Z</time>
      </trkpt>
      <trkpt lat="46.48617" lon="5.36313">
        <ele>229.6</ele>
        <time>2021-11-27T14:22:42Z</time>
      </trkpt>
      <trkpt lat="46.48608" lon="5.36317">
        <ele>229.8</ele>
        <time>2021-11-27T14:22:44Z</time>
      </trkpt>
      <trkpt lat="46.48599" lon="5.36319">
        <ele>230.4</ele>
        <time>2021-11-27T14:22:46Z</time>
      </trkpt>
      <trkpt lat="46.48586" lon="5.36322">
        <ele>231.2</ele>
        <time>2021-11-27T14:22:49Z</time>
      </trkpt>
      <trkpt lat="46.48568" lon="5.36325">
        <ele>232.4</ele>
        <time>2021-11-27T14:22:53Z</time>
      </trkpt>
      <trkpt lat="46.48539" lon="5.3633">
        <ele>233.6</ele>
        <time>2021-11-27T14:22:59Z</time>
      </trkpt>
      <trkpt lat="46.4852" lon="5.36333">
        <ele>234.4</ele>
        <time>2021-11-27T14:23:03Z</time>
      </trkpt>
      <trkpt lat="46.48501" lon="5.36336">
        <ele>234.6</ele>
        <time>2021-11-27T14:23:07Z</time>
      </trkpt>
      <trkpt lat="46.4847" lon="5.36341">
        <ele>234.8</ele>
        <time>2021-11-27T14:23:13Z</time>
      </trkpt>
      <trkpt lat="46.48423" lon="5.36351">
        <ele>235.2</ele>
        <time>2021-11-27T14:23:22Z</time>
      </trkpt>
      <trkpt lat="46.48397" lon="5.36368">
        <ele>235.2</ele>
        <time>2021-11-27T14:23:27Z</time>
      </trkpt>
      <trkpt lat="46.48365" lon="5.36403">
        <ele>235.4</ele>
        <time>2021-11-27T14:23:34Z</time>
      </trkpt>
      <trkpt lat="46.48348" lon="5.36422">
        <ele>235.6</ele>
        <time>2021-11-27T14:23:38Z</time>
      </trkpt>
      <trkpt lat="46.48329" lon="5.36443">
        <ele>236.2</ele>
        <time>2021-11-27T14:23:43Z</time>
      </trkpt>
      <trkpt lat="46.48311" lon="5.36462">
        <ele>236.8</ele>
        <time>2021-11-27T14:23:48Z</time>
      </trkpt>
      <trkpt lat="46.48305" lon="5.36469">
        <ele>237.4</ele>
        <time>2021-11-27T14:23:50Z</time>
      </trkpt>
      <trkpt lat="46.48292" lon="5.36484">
        <ele>238</ele>
        <time>2021-11-27T14:23:54Z</time>
      </trkpt>
      <trkpt lat="46.48278" lon="5.36499">
        <ele>239</ele>
        <time>2021-11-27T14:23:58Z</time>
      </trkpt>
      <trkpt lat="46.48275" lon="5.36503">
        <ele>239</ele>
        <time>2021-11-27T14:23:59Z</time>
      </trkpt>
      <trkpt lat="46.4825" lon="5.36531">
        <ele>240</ele>
        <time>2021-11-27T14:24:06Z</time>
      </trkpt>
      <trkpt lat="46.48236" lon="5.36546">
        <ele>240.2</ele>
        <time>2021-11-27T14:24:10Z</time>
      </trkpt>
      <trkpt lat="46.48227" lon="5.36554">
        <ele>240.4</ele>
        <time>2021-11-27T14:24:12Z</time>
      </trkpt>
      <trkpt lat="46.48224" lon="5.36556">
        <ele>240.4</ele>
        <time>2021-11-27T14:24:13Z</time>
      </trkpt>
      <trkpt lat="46.48219" lon="5.36557">
        <ele>240.6</ele>
        <time>2021-11-27T14:24:14Z</time>
      </trkpt>
      <trkpt lat="46.48206" lon="5.36559">
        <ele>241</ele>
        <time>2021-11-27T14:24:17Z</time>
      </trkpt>
      <trkpt lat="46.48201" lon="5.3656">
        <ele>241</ele>
        <time>2021-11-27T14:24:18Z</time>
      </trkpt>
      <trkpt lat="46.48197" lon="5.36563">
        <ele>241.2</ele>
        <time>2021-11-27T14:24:19Z</time>
      </trkpt>
      <trkpt lat="46.48194" lon="5.36567">
        <ele>241.2</ele>
        <time>2021-11-27T14:24:20Z</time>
      </trkpt>
      <trkpt lat="46.48191" lon="5.36573">
        <ele>241.2</ele>
        <time>2021-11-27T14:24:21Z</time>
      </trkpt>
      <trkpt lat="46.48185" lon="5.36593">
        <ele>241.4</ele>
        <time>2021-11-27T14:24:24Z</time>
      </trkpt>
      <trkpt lat="46.48179" lon="5.36604">
        <ele>241.6</ele>
        <time>2021-11-27T14:24:26Z</time>
      </trkpt>
      <trkpt lat="46.48157" lon="5.3663">
        <ele>241.8</ele>
        <time>2021-11-27T14:24:32Z</time>
      </trkpt>
      <trkpt lat="46.48155" lon="5.36635">
        <ele>241.8</ele>
        <time>2021-11-27T14:24:33Z</time>
      </trkpt>
      <trkpt lat="46.48152" lon="5.36639">
        <ele>241.8</ele>
        <time>2021-11-27T14:24:34Z</time>
      </trkpt>
      <trkpt lat="46.48144" lon="5.36645">
        <ele>242</ele>
        <time>2021-11-27T14:24:36Z</time>
      </trkpt>
      <trkpt lat="46.48131" lon="5.36662">
        <ele>242.2</ele>
        <time>2021-11-27T14:24:39Z</time>
      </trkpt>
      <trkpt lat="46.48116" lon="5.36675">
        <ele>242.6</ele>
        <time>2021-11-27T14:24:43Z</time>
      </trkpt>
      <trkpt lat="46.48106" lon="5.36689">
        <ele>242.8</ele>
        <time>2021-11-27T14:24:47Z</time>
      </trkpt>
      <trkpt lat="46.48108" lon="5.367">
        <ele>243.2</ele>
        <time>2021-11-27T14:24:49Z</time>
      </trkpt>
      <trkpt lat="46.48111" lon="5.36704">
        <ele>243.6</ele>
        <time>2021-11-27T14:24:50Z</time>
      </trkpt>
      <trkpt lat="46.4813" lon="5.3672">
        <ele>244.6</ele>
        <time>2021-11-27T14:24:55Z</time>
      </trkpt>
      <trkpt lat="46.48152" lon="5.36739">
        <ele>245.8</ele>
        <time>2021-11-27T14:25:01Z</time>
      </trkpt>
      <trkpt lat="46.48162" lon="5.36749">
        <ele>246.6</ele>
        <time>2021-11-27T14:25:04Z</time>
      </trkpt>
      <trkpt lat="46.48169" lon="5.36756">
        <ele>247</ele>
        <time>2021-11-27T14:25:06Z</time>
      </trkpt>
      <trkpt lat="46.48189" lon="5.36772">
        <ele>248.2</ele>
        <time>2021-11-27T14:25:11Z</time>
      </trkpt>
      <trkpt lat="46.48199" lon="5.36781">
        <ele>248.8</ele>
        <time>2021-11-27T14:25:14Z</time>
      </trkpt>
      <trkpt lat="46.48213" lon="5.36792">
        <ele>249.4</ele>
        <time>2021-11-27T14:25:18Z</time>
      </trkpt>
      <trkpt lat="46.48223" lon="5.36801">
        <ele>250</ele>
        <time>2021-11-27T14:25:21Z</time>
      </trkpt>
      <trkpt lat="46.4823" lon="5.36808">
        <ele>250.6</ele>
        <time>2021-11-27T14:25:23Z</time>
      </trkpt>
      <trkpt lat="46.48244" lon="5.3682">
        <ele>251.8</ele>
        <time>2021-11-27T14:25:27Z</time>
      </trkpt>
      <trkpt lat="46.48257" lon="5.36833">
        <ele>252.8</ele>
        <time>2021-11-27T14:25:31Z</time>
      </trkpt>
    </trkseg>
  </trk>
</gpx>